<?xml version="1.0" encoding="UTF-8" standalone="no" ?>
<gpx xmlns="http://www.topografix.com/GPX/1/1" xmlns:xsi="http://www.w3.org/2001/XMLSchema-instance" xsi:schemaLocation="http://www.topografix.com/GPX/1/1 http://www.topografix.com/GPX/1/1/gpx.xsd" version="1.1" creator="VisuGPX - https://www.visugpx.com">
  <metadata>
    <name>Parcours VTT autour du Lac de Guerlédan</name>
    <desc><![CDATA[Un peu trop de route au démarrage. Il vaudrait mieux partir de St Aignan.
Il y a pas mal de parcours déjà balisés autour du lac. Ce tracé les emprunte en partie.
Il y a quelques belles descentes et notamment une descente typée DH (tout suspendu recommandé).
Apparemment il y a des boucles à faire sur la base de ce tracé.
De beaux points de vues]]></desc>
  </metadata>
  <trk>
    <name><![CDATA[Tracé actuel: 27 DEC 2015 10:38]]></name>
    <trkseg>
      <trkpt lat="48.21546" lon="-3.03112">
        <ele>175.1</ele>
        <time>2015-12-27T09:38:52Z</time>
      </trkpt>
      <trkpt lat="48.21545" lon="-3.03111">
        <ele>175.1</ele>
        <time>2015-12-27T09:39:19Z</time>
      </trkpt>
      <trkpt lat="48.21548" lon="-3.03111">
        <ele>173.66</ele>
        <time>2015-12-27T09:39:52Z</time>
      </trkpt>
      <trkpt lat="48.21547" lon="-3.03108">
        <ele>172.69</ele>
        <time>2015-12-27T09:40:09Z</time>
      </trkpt>
      <trkpt lat="48.21548" lon="-3.03101">
        <ele>172.21</ele>
        <time>2015-12-27T09:40:14Z</time>
      </trkpt>
      <trkpt lat="48.21549" lon="-3.031">
        <ele>172.21</ele>
        <time>2015-12-27T09:40:15Z</time>
      </trkpt>
      <trkpt lat="48.2155" lon="-3.03098">
        <ele>172.21</ele>
        <time>2015-12-27T09:40:16Z</time>
      </trkpt>
      <trkpt lat="48.21552" lon="-3.03095">
        <ele>172.21</ele>
        <time>2015-12-27T09:40:17Z</time>
      </trkpt>
      <trkpt lat="48.21554" lon="-3.03091">
        <ele>171.73</ele>
        <time>2015-12-27T09:40:18Z</time>
      </trkpt>
      <trkpt lat="48.21556" lon="-3.03086">
        <ele>171.73</ele>
        <time>2015-12-27T09:40:19Z</time>
      </trkpt>
      <trkpt lat="48.21561" lon="-3.03076">
        <ele>171.73</ele>
        <time>2015-12-27T09:40:21Z</time>
      </trkpt>
      <trkpt lat="48.21563" lon="-3.03071">
        <ele>171.73</ele>
        <time>2015-12-27T09:40:22Z</time>
      </trkpt>
      <trkpt lat="48.21565" lon="-3.03064">
        <ele>171.73</ele>
        <time>2015-12-27T09:40:23Z</time>
      </trkpt>
      <trkpt lat="48.21602" lon="-3.02962">
        <ele>170.29</ele>
        <time>2015-12-27T09:40:37Z</time>
      </trkpt>
      <trkpt lat="48.21631" lon="-3.02889">
        <ele>169.81</ele>
        <time>2015-12-27T09:40:49Z</time>
      </trkpt>
      <trkpt lat="48.2164" lon="-3.02868">
        <ele>169.33</ele>
        <time>2015-12-27T09:41:11Z</time>
      </trkpt>
      <trkpt lat="48.21645" lon="-3.02854">
        <ele>169.33</ele>
        <time>2015-12-27T09:41:13Z</time>
      </trkpt>
      <trkpt lat="48.21655" lon="-3.02826">
        <ele>168.37</ele>
        <time>2015-12-27T09:41:17Z</time>
      </trkpt>
      <trkpt lat="48.21671" lon="-3.02784">
        <ele>166.93</ele>
        <time>2015-12-27T09:41:23Z</time>
      </trkpt>
      <trkpt lat="48.21682" lon="-3.02754">
        <ele>166.45</ele>
        <time>2015-12-27T09:41:27Z</time>
      </trkpt>
      <trkpt lat="48.21685" lon="-3.02746">
        <ele>165.96</ele>
        <time>2015-12-27T09:41:28Z</time>
      </trkpt>
      <trkpt lat="48.21728" lon="-3.02626">
        <ele>165</ele>
        <time>2015-12-27T09:41:43Z</time>
      </trkpt>
      <trkpt lat="48.21736" lon="-3.02501">
        <ele>163.08</ele>
        <time>2015-12-27T09:41:56Z</time>
      </trkpt>
      <trkpt lat="48.21728" lon="-3.02454">
        <ele>162.12</ele>
        <time>2015-12-27T09:42:01Z</time>
      </trkpt>
      <trkpt lat="48.21725" lon="-3.02446">
        <ele>162.12</ele>
        <time>2015-12-27T09:42:02Z</time>
      </trkpt>
      <trkpt lat="48.21714" lon="-3.02403">
        <ele>162.12</ele>
        <time>2015-12-27T09:42:07Z</time>
      </trkpt>
      <trkpt lat="48.21704" lon="-3.02379">
        <ele>162.12</ele>
        <time>2015-12-27T09:42:10Z</time>
      </trkpt>
      <trkpt lat="48.21642" lon="-3.02287">
        <ele>161.16</ele>
        <time>2015-12-27T09:42:23Z</time>
      </trkpt>
      <trkpt lat="48.21586" lon="-3.02199">
        <ele>159.24</ele>
        <time>2015-12-27T09:42:35Z</time>
      </trkpt>
      <trkpt lat="48.21574" lon="-3.02177">
        <ele>159.24</ele>
        <time>2015-12-27T09:42:38Z</time>
      </trkpt>
      <trkpt lat="48.21546" lon="-3.02098">
        <ele>157.79</ele>
        <time>2015-12-27T09:42:47Z</time>
      </trkpt>
      <trkpt lat="48.21527" lon="-3.01989">
        <ele>155.87</ele>
        <time>2015-12-27T09:42:59Z</time>
      </trkpt>
      <trkpt lat="48.21517" lon="-3.01925">
        <ele>154.91</ele>
        <time>2015-12-27T09:43:06Z</time>
      </trkpt>
      <trkpt lat="48.21516" lon="-3.01916">
        <ele>154.91</ele>
        <time>2015-12-27T09:43:07Z</time>
      </trkpt>
      <trkpt lat="48.21495" lon="-3.01775">
        <ele>152.03</ele>
        <time>2015-12-27T09:43:22Z</time>
      </trkpt>
      <trkpt lat="48.21491" lon="-3.01747">
        <ele>151.54</ele>
        <time>2015-12-27T09:43:25Z</time>
      </trkpt>
      <trkpt lat="48.2149" lon="-3.01738">
        <ele>151.54</ele>
        <time>2015-12-27T09:43:26Z</time>
      </trkpt>
      <trkpt lat="48.21483" lon="-3.016">
        <ele>150.1</ele>
        <time>2015-12-27T09:43:41Z</time>
      </trkpt>
      <trkpt lat="48.21486" lon="-3.01567">
        <ele>150.58</ele>
        <time>2015-12-27T09:43:45Z</time>
      </trkpt>
      <trkpt lat="48.21488" lon="-3.0156">
        <ele>150.1</ele>
        <time>2015-12-27T09:43:46Z</time>
      </trkpt>
      <trkpt lat="48.21489" lon="-3.01553">
        <ele>150.1</ele>
        <time>2015-12-27T09:43:47Z</time>
      </trkpt>
      <trkpt lat="48.21488" lon="-3.01546">
        <ele>150.58</ele>
        <time>2015-12-27T09:43:48Z</time>
      </trkpt>
      <trkpt lat="48.21485" lon="-3.01542">
        <ele>150.58</ele>
        <time>2015-12-27T09:43:49Z</time>
      </trkpt>
      <trkpt lat="48.2148" lon="-3.0154">
        <ele>150.1</ele>
        <time>2015-12-27T09:43:50Z</time>
      </trkpt>
      <trkpt lat="48.21475" lon="-3.0154">
        <ele>149.62</ele>
        <time>2015-12-27T09:43:51Z</time>
      </trkpt>
      <trkpt lat="48.21454" lon="-3.01542">
        <ele>147.22</ele>
        <time>2015-12-27T09:43:54Z</time>
      </trkpt>
      <trkpt lat="48.21446" lon="-3.01541">
        <ele>146.26</ele>
        <time>2015-12-27T09:43:55Z</time>
      </trkpt>
      <trkpt lat="48.21438" lon="-3.0154">
        <ele>144.82</ele>
        <time>2015-12-27T09:43:56Z</time>
      </trkpt>
      <trkpt lat="48.21429" lon="-3.01538">
        <ele>143.85</ele>
        <time>2015-12-27T09:43:57Z</time>
      </trkpt>
      <trkpt lat="48.2142" lon="-3.01534">
        <ele>142.89</ele>
        <time>2015-12-27T09:43:58Z</time>
      </trkpt>
      <trkpt lat="48.21361" lon="-3.01503">
        <ele>138.09</ele>
        <time>2015-12-27T09:44:05Z</time>
      </trkpt>
      <trkpt lat="48.21356" lon="-3.01497">
        <ele>138.09</ele>
        <time>2015-12-27T09:44:06Z</time>
      </trkpt>
      <trkpt lat="48.21352" lon="-3.0149">
        <ele>138.09</ele>
        <time>2015-12-27T09:44:07Z</time>
      </trkpt>
      <trkpt lat="48.21348" lon="-3.01482">
        <ele>138.09</ele>
        <time>2015-12-27T09:44:08Z</time>
      </trkpt>
      <trkpt lat="48.21344" lon="-3.01473">
        <ele>138.09</ele>
        <time>2015-12-27T09:44:09Z</time>
      </trkpt>
      <trkpt lat="48.21327" lon="-3.01421">
        <ele>136.64</ele>
        <time>2015-12-27T09:44:15Z</time>
      </trkpt>
      <trkpt lat="48.21324" lon="-3.01404">
        <ele>136.64</ele>
        <time>2015-12-27T09:44:17Z</time>
      </trkpt>
      <trkpt lat="48.21323" lon="-3.01396">
        <ele>136.64</ele>
        <time>2015-12-27T09:44:18Z</time>
      </trkpt>
      <trkpt lat="48.21293" lon="-3.01277">
        <ele>134.24</ele>
        <time>2015-12-27T09:44:31Z</time>
      </trkpt>
      <trkpt lat="48.2129" lon="-3.01267">
        <ele>134.24</ele>
        <time>2015-12-27T09:44:32Z</time>
      </trkpt>
      <trkpt lat="48.21288" lon="-3.01257">
        <ele>133.76</ele>
        <time>2015-12-27T09:44:33Z</time>
      </trkpt>
      <trkpt lat="48.2128" lon="-3.01198">
        <ele>130.88</ele>
        <time>2015-12-27T09:44:38Z</time>
      </trkpt>
      <trkpt lat="48.21277" lon="-3.01188">
        <ele>130.4</ele>
        <time>2015-12-27T09:44:39Z</time>
      </trkpt>
      <trkpt lat="48.21272" lon="-3.01181">
        <ele>129.92</ele>
        <time>2015-12-27T09:44:40Z</time>
      </trkpt>
      <trkpt lat="48.21266" lon="-3.01177">
        <ele>129.43</ele>
        <time>2015-12-27T09:44:41Z</time>
      </trkpt>
      <trkpt lat="48.21259" lon="-3.01176">
        <ele>128.47</ele>
        <time>2015-12-27T09:44:42Z</time>
      </trkpt>
      <trkpt lat="48.21252" lon="-3.01176">
        <ele>127.99</ele>
        <time>2015-12-27T09:44:43Z</time>
      </trkpt>
      <trkpt lat="48.21165" lon="-3.01173">
        <ele>125.59</ele>
        <time>2015-12-27T09:44:55Z</time>
      </trkpt>
      <trkpt lat="48.21159" lon="-3.01171">
        <ele>125.59</ele>
        <time>2015-12-27T09:44:56Z</time>
      </trkpt>
      <trkpt lat="48.21136" lon="-3.01164">
        <ele>126.07</ele>
        <time>2015-12-27T09:45:00Z</time>
      </trkpt>
      <trkpt lat="48.2112" lon="-3.01154">
        <ele>125.59</ele>
        <time>2015-12-27T09:45:03Z</time>
      </trkpt>
      <trkpt lat="48.21109" lon="-3.01147">
        <ele>126.07</ele>
        <time>2015-12-27T09:45:05Z</time>
      </trkpt>
      <trkpt lat="48.21104" lon="-3.01142">
        <ele>126.07</ele>
        <time>2015-12-27T09:45:06Z</time>
      </trkpt>
      <trkpt lat="48.21028" lon="-3.01068">
        <ele>125.59</ele>
        <time>2015-12-27T09:45:23Z</time>
      </trkpt>
      <trkpt lat="48.21018" lon="-3.01052">
        <ele>125.59</ele>
        <time>2015-12-27T09:45:26Z</time>
      </trkpt>
      <trkpt lat="48.21001" lon="-3.01025">
        <ele>126.07</ele>
        <time>2015-12-27T09:45:31Z</time>
      </trkpt>
      <trkpt lat="48.20997" lon="-3.01022">
        <ele>125.59</ele>
        <time>2015-12-27T09:45:32Z</time>
      </trkpt>
      <trkpt lat="48.20992" lon="-3.01021">
        <ele>126.07</ele>
        <time>2015-12-27T09:45:33Z</time>
      </trkpt>
      <trkpt lat="48.20988" lon="-3.01021">
        <ele>126.07</ele>
        <time>2015-12-27T09:45:34Z</time>
      </trkpt>
      <trkpt lat="48.20984" lon="-3.01022">
        <ele>126.55</ele>
        <time>2015-12-27T09:45:35Z</time>
      </trkpt>
      <trkpt lat="48.2098" lon="-3.01023">
        <ele>127.03</ele>
        <time>2015-12-27T09:45:36Z</time>
      </trkpt>
      <trkpt lat="48.20975" lon="-3.01028">
        <ele>127.51</ele>
        <time>2015-12-27T09:45:38Z</time>
      </trkpt>
      <trkpt lat="48.20974" lon="-3.01034">
        <ele>127.99</ele>
        <time>2015-12-27T09:45:39Z</time>
      </trkpt>
      <trkpt lat="48.20974" lon="-3.01041">
        <ele>127.99</ele>
        <time>2015-12-27T09:45:40Z</time>
      </trkpt>
      <trkpt lat="48.20974" lon="-3.01056">
        <ele>127.99</ele>
        <time>2015-12-27T09:45:42Z</time>
      </trkpt>
      <trkpt lat="48.20975" lon="-3.01064">
        <ele>127.99</ele>
        <time>2015-12-27T09:45:43Z</time>
      </trkpt>
      <trkpt lat="48.20974" lon="-3.0115">
        <ele>127.51</ele>
        <time>2015-12-27T09:45:53Z</time>
      </trkpt>
      <trkpt lat="48.20974" lon="-3.01159">
        <ele>127.51</ele>
        <time>2015-12-27T09:45:54Z</time>
      </trkpt>
      <trkpt lat="48.20972" lon="-3.01282">
        <ele>126.07</ele>
        <time>2015-12-27T09:46:08Z</time>
      </trkpt>
      <trkpt lat="48.20972" lon="-3.0129">
        <ele>126.55</ele>
        <time>2015-12-27T09:46:09Z</time>
      </trkpt>
      <trkpt lat="48.20971" lon="-3.01298">
        <ele>126.55</ele>
        <time>2015-12-27T09:46:10Z</time>
      </trkpt>
      <trkpt lat="48.2097" lon="-3.01305">
        <ele>126.07</ele>
        <time>2015-12-27T09:46:11Z</time>
      </trkpt>
      <trkpt lat="48.20968" lon="-3.01312">
        <ele>126.55</ele>
        <time>2015-12-27T09:46:12Z</time>
      </trkpt>
      <trkpt lat="48.20966" lon="-3.01318">
        <ele>126.55</ele>
        <time>2015-12-27T09:46:13Z</time>
      </trkpt>
      <trkpt lat="48.20965" lon="-3.0132">
        <ele>126.55</ele>
        <time>2015-12-27T09:46:14Z</time>
      </trkpt>
      <trkpt lat="48.20963" lon="-3.0132">
        <ele>126.55</ele>
        <time>2015-12-27T09:46:15Z</time>
      </trkpt>
      <trkpt lat="48.20963" lon="-3.01317">
        <ele>126.55</ele>
        <time>2015-12-27T09:46:16Z</time>
      </trkpt>
      <trkpt lat="48.20965" lon="-3.01314">
        <ele>126.55</ele>
        <time>2015-12-27T09:46:17Z</time>
      </trkpt>
      <trkpt lat="48.20968" lon="-3.01313">
        <ele>126.07</ele>
        <time>2015-12-27T09:46:18Z</time>
      </trkpt>
      <trkpt lat="48.20969" lon="-3.01311">
        <ele>125.59</ele>
        <time>2015-12-27T09:46:19Z</time>
      </trkpt>
      <trkpt lat="48.20969" lon="-3.01308">
        <ele>125.11</ele>
        <time>2015-12-27T09:46:20Z</time>
      </trkpt>
      <trkpt lat="48.20967" lon="-3.01307">
        <ele>124.63</ele>
        <time>2015-12-27T09:46:22Z</time>
      </trkpt>
      <trkpt lat="48.20965" lon="-3.01307">
        <ele>124.63</ele>
        <time>2015-12-27T09:46:23Z</time>
      </trkpt>
      <trkpt lat="48.20963" lon="-3.01307">
        <ele>124.15</ele>
        <time>2015-12-27T09:46:24Z</time>
      </trkpt>
      <trkpt lat="48.2096" lon="-3.01307">
        <ele>124.63</ele>
        <time>2015-12-27T09:46:25Z</time>
      </trkpt>
      <trkpt lat="48.20958" lon="-3.01307">
        <ele>124.63</ele>
        <time>2015-12-27T09:46:26Z</time>
      </trkpt>
      <trkpt lat="48.20942" lon="-3.01308">
        <ele>127.51</ele>
        <time>2015-12-27T09:46:36Z</time>
      </trkpt>
      <trkpt lat="48.20914" lon="-3.01308">
        <ele>131.36</ele>
        <time>2015-12-27T09:46:50Z</time>
      </trkpt>
      <trkpt lat="48.20884" lon="-3.01308">
        <ele>134.24</ele>
        <time>2015-12-27T09:47:04Z</time>
      </trkpt>
      <trkpt lat="48.20854" lon="-3.01311">
        <ele>138.09</ele>
        <time>2015-12-27T09:47:18Z</time>
      </trkpt>
      <trkpt lat="48.20829" lon="-3.01324">
        <ele>139.53</ele>
        <time>2015-12-27T09:47:32Z</time>
      </trkpt>
      <trkpt lat="48.20786" lon="-3.01324">
        <ele>141.45</ele>
        <time>2015-12-27T09:47:48Z</time>
      </trkpt>
      <trkpt lat="48.20765" lon="-3.01342">
        <ele>141.45</ele>
        <time>2015-12-27T09:48:00Z</time>
      </trkpt>
      <trkpt lat="48.20763" lon="-3.01344">
        <ele>141.45</ele>
        <time>2015-12-27T09:48:01Z</time>
      </trkpt>
      <trkpt lat="48.2076" lon="-3.01345">
        <ele>141.45</ele>
        <time>2015-12-27T09:48:02Z</time>
      </trkpt>
      <trkpt lat="48.20757" lon="-3.01345">
        <ele>141.93</ele>
        <time>2015-12-27T09:48:03Z</time>
      </trkpt>
      <trkpt lat="48.20754" lon="-3.01344">
        <ele>141.93</ele>
        <time>2015-12-27T09:48:04Z</time>
      </trkpt>
      <trkpt lat="48.20751" lon="-3.01342">
        <ele>142.41</ele>
        <time>2015-12-27T09:48:05Z</time>
      </trkpt>
      <trkpt lat="48.20749" lon="-3.0134">
        <ele>142.89</ele>
        <time>2015-12-27T09:48:06Z</time>
      </trkpt>
      <trkpt lat="48.20748" lon="-3.01338">
        <ele>142.89</ele>
        <time>2015-12-27T09:48:07Z</time>
      </trkpt>
      <trkpt lat="48.20747" lon="-3.01335">
        <ele>143.37</ele>
        <time>2015-12-27T09:48:08Z</time>
      </trkpt>
      <trkpt lat="48.20732" lon="-3.01314">
        <ele>148.66</ele>
        <time>2015-12-27T09:48:17Z</time>
      </trkpt>
      <trkpt lat="48.20715" lon="-3.01293">
        <ele>151.06</ele>
        <time>2015-12-27T09:48:27Z</time>
      </trkpt>
      <trkpt lat="48.20713" lon="-3.01291">
        <ele>151.06</ele>
        <time>2015-12-27T09:48:28Z</time>
      </trkpt>
      <trkpt lat="48.20687" lon="-3.0126">
        <ele>152.99</ele>
        <time>2015-12-27T09:48:42Z</time>
      </trkpt>
      <trkpt lat="48.20659" lon="-3.01223">
        <ele>158.27</ele>
        <time>2015-12-27T09:48:55Z</time>
      </trkpt>
      <trkpt lat="48.20627" lon="-3.01195">
        <ele>160.68</ele>
        <time>2015-12-27T09:49:07Z</time>
      </trkpt>
      <trkpt lat="48.20595" lon="-3.01172">
        <ele>162.12</ele>
        <time>2015-12-27T09:49:17Z</time>
      </trkpt>
      <trkpt lat="48.20555" lon="-3.01146">
        <ele>163.08</ele>
        <time>2015-12-27T09:49:28Z</time>
      </trkpt>
      <trkpt lat="48.20528" lon="-3.01125">
        <ele>167.89</ele>
        <time>2015-12-27T09:49:39Z</time>
      </trkpt>
      <trkpt lat="48.20512" lon="-3.01108">
        <ele>164.52</ele>
        <time>2015-12-27T09:49:51Z</time>
      </trkpt>
      <trkpt lat="48.20475" lon="-3.01095">
        <ele>159.24</ele>
        <time>2015-12-27T09:50:03Z</time>
      </trkpt>
      <trkpt lat="48.20441" lon="-3.01099">
        <ele>159.24</ele>
        <time>2015-12-27T09:50:13Z</time>
      </trkpt>
      <trkpt lat="48.20428" lon="-3.01108">
        <ele>158.75</ele>
        <time>2015-12-27T09:50:17Z</time>
      </trkpt>
      <trkpt lat="48.20425" lon="-3.01108">
        <ele>159.24</ele>
        <time>2015-12-27T09:50:18Z</time>
      </trkpt>
      <trkpt lat="48.20421" lon="-3.01108">
        <ele>159.24</ele>
        <time>2015-12-27T09:50:19Z</time>
      </trkpt>
      <trkpt lat="48.20371" lon="-3.01094">
        <ele>161.16</ele>
        <time>2015-12-27T09:50:30Z</time>
      </trkpt>
      <trkpt lat="48.20351" lon="-3.01088">
        <ele>161.64</ele>
        <time>2015-12-27T09:50:34Z</time>
      </trkpt>
      <trkpt lat="48.20334" lon="-3.01084">
        <ele>162.12</ele>
        <time>2015-12-27T09:50:38Z</time>
      </trkpt>
      <trkpt lat="48.20292" lon="-3.01068">
        <ele>166.45</ele>
        <time>2015-12-27T09:50:50Z</time>
      </trkpt>
      <trkpt lat="48.20279" lon="-3.01064">
        <ele>169.33</ele>
        <time>2015-12-27T09:50:55Z</time>
      </trkpt>
      <trkpt lat="48.20276" lon="-3.01065">
        <ele>169.33</ele>
        <time>2015-12-27T09:50:56Z</time>
      </trkpt>
      <trkpt lat="48.20273" lon="-3.01066">
        <ele>169.81</ele>
        <time>2015-12-27T09:50:57Z</time>
      </trkpt>
      <trkpt lat="48.20271" lon="-3.01069">
        <ele>169.33</ele>
        <time>2015-12-27T09:50:58Z</time>
      </trkpt>
      <trkpt lat="48.20269" lon="-3.01072">
        <ele>169.33</ele>
        <time>2015-12-27T09:50:59Z</time>
      </trkpt>
      <trkpt lat="48.20267" lon="-3.01075">
        <ele>169.33</ele>
        <time>2015-12-27T09:51:00Z</time>
      </trkpt>
      <trkpt lat="48.2025" lon="-3.01102">
        <ele>168.37</ele>
        <time>2015-12-27T09:51:09Z</time>
      </trkpt>
      <trkpt lat="48.2024" lon="-3.01113">
        <ele>169.81</ele>
        <time>2015-12-27T09:51:27Z</time>
      </trkpt>
      <trkpt lat="48.20229" lon="-3.01141">
        <ele>167.89</ele>
        <time>2015-12-27T09:51:35Z</time>
      </trkpt>
      <trkpt lat="48.20228" lon="-3.01146">
        <ele>167.41</ele>
        <time>2015-12-27T09:51:36Z</time>
      </trkpt>
      <trkpt lat="48.20227" lon="-3.01152">
        <ele>166.45</ele>
        <time>2015-12-27T09:51:37Z</time>
      </trkpt>
      <trkpt lat="48.20228" lon="-3.01158">
        <ele>165.48</ele>
        <time>2015-12-27T09:51:38Z</time>
      </trkpt>
      <trkpt lat="48.20229" lon="-3.01164">
        <ele>165</ele>
        <time>2015-12-27T09:51:39Z</time>
      </trkpt>
      <trkpt lat="48.20231" lon="-3.01171">
        <ele>164.04</ele>
        <time>2015-12-27T09:51:40Z</time>
      </trkpt>
      <trkpt lat="48.20237" lon="-3.01194">
        <ele>161.16</ele>
        <time>2015-12-27T09:51:43Z</time>
      </trkpt>
      <trkpt lat="48.20239" lon="-3.01202">
        <ele>160.68</ele>
        <time>2015-12-27T09:51:44Z</time>
      </trkpt>
      <trkpt lat="48.20242" lon="-3.01211">
        <ele>160.2</ele>
        <time>2015-12-27T09:51:45Z</time>
      </trkpt>
      <trkpt lat="48.20245" lon="-3.01218">
        <ele>159.72</ele>
        <time>2015-12-27T09:51:46Z</time>
      </trkpt>
      <trkpt lat="48.20249" lon="-3.01225">
        <ele>159.24</ele>
        <time>2015-12-27T09:51:47Z</time>
      </trkpt>
      <trkpt lat="48.20254" lon="-3.01232">
        <ele>158.75</ele>
        <time>2015-12-27T09:51:48Z</time>
      </trkpt>
      <trkpt lat="48.20263" lon="-3.01246">
        <ele>158.27</ele>
        <time>2015-12-27T09:51:50Z</time>
      </trkpt>
      <trkpt lat="48.20267" lon="-3.01254">
        <ele>157.79</ele>
        <time>2015-12-27T09:51:51Z</time>
      </trkpt>
      <trkpt lat="48.20269" lon="-3.01262">
        <ele>157.31</ele>
        <time>2015-12-27T09:51:52Z</time>
      </trkpt>
      <trkpt lat="48.20274" lon="-3.01289">
        <ele>154.91</ele>
        <time>2015-12-27T09:51:55Z</time>
      </trkpt>
      <trkpt lat="48.20272" lon="-3.01295">
        <ele>154.43</ele>
        <time>2015-12-27T09:51:56Z</time>
      </trkpt>
      <trkpt lat="48.20268" lon="-3.01299">
        <ele>153.47</ele>
        <time>2015-12-27T09:51:57Z</time>
      </trkpt>
      <trkpt lat="48.20263" lon="-3.01302">
        <ele>152.51</ele>
        <time>2015-12-27T09:51:58Z</time>
      </trkpt>
      <trkpt lat="48.20258" lon="-3.01302">
        <ele>151.54</ele>
        <time>2015-12-27T09:51:59Z</time>
      </trkpt>
      <trkpt lat="48.20253" lon="-3.013">
        <ele>151.06</ele>
        <time>2015-12-27T09:52:00Z</time>
      </trkpt>
      <trkpt lat="48.20248" lon="-3.01298">
        <ele>150.1</ele>
        <time>2015-12-27T09:52:01Z</time>
      </trkpt>
      <trkpt lat="48.20221" lon="-3.01279">
        <ele>147.7</ele>
        <time>2015-12-27T09:52:07Z</time>
      </trkpt>
      <trkpt lat="48.20216" lon="-3.01276">
        <ele>147.7</ele>
        <time>2015-12-27T09:52:08Z</time>
      </trkpt>
      <trkpt lat="48.20203" lon="-3.01266">
        <ele>147.7</ele>
        <time>2015-12-27T09:52:11Z</time>
      </trkpt>
      <trkpt lat="48.20179" lon="-3.01257">
        <ele>148.18</ele>
        <time>2015-12-27T09:52:16Z</time>
      </trkpt>
      <trkpt lat="48.20174" lon="-3.01256">
        <ele>148.18</ele>
        <time>2015-12-27T09:52:17Z</time>
      </trkpt>
      <trkpt lat="48.20168" lon="-3.01257">
        <ele>148.18</ele>
        <time>2015-12-27T09:52:18Z</time>
      </trkpt>
      <trkpt lat="48.20156" lon="-3.01261">
        <ele>148.18</ele>
        <time>2015-12-27T09:52:20Z</time>
      </trkpt>
      <trkpt lat="48.20149" lon="-3.01265">
        <ele>147.7</ele>
        <time>2015-12-27T09:52:21Z</time>
      </trkpt>
      <trkpt lat="48.20144" lon="-3.01271">
        <ele>147.22</ele>
        <time>2015-12-27T09:52:22Z</time>
      </trkpt>
      <trkpt lat="48.20133" lon="-3.01283">
        <ele>145.78</ele>
        <time>2015-12-27T09:52:24Z</time>
      </trkpt>
      <trkpt lat="48.20122" lon="-3.01302">
        <ele>143.37</ele>
        <time>2015-12-27T09:52:27Z</time>
      </trkpt>
      <trkpt lat="48.20116" lon="-3.01314">
        <ele>142.89</ele>
        <time>2015-12-27T09:52:29Z</time>
      </trkpt>
      <trkpt lat="48.20114" lon="-3.01319">
        <ele>142.41</ele>
        <time>2015-12-27T09:52:30Z</time>
      </trkpt>
      <trkpt lat="48.20112" lon="-3.01323">
        <ele>141.93</ele>
        <time>2015-12-27T09:52:31Z</time>
      </trkpt>
      <trkpt lat="48.20111" lon="-3.01329">
        <ele>140.97</ele>
        <time>2015-12-27T09:52:32Z</time>
      </trkpt>
      <trkpt lat="48.2011" lon="-3.01335">
        <ele>140.49</ele>
        <time>2015-12-27T09:52:33Z</time>
      </trkpt>
      <trkpt lat="48.20108" lon="-3.0134">
        <ele>140.01</ele>
        <time>2015-12-27T09:52:34Z</time>
      </trkpt>
      <trkpt lat="48.20107" lon="-3.01346">
        <ele>139.05</ele>
        <time>2015-12-27T09:52:35Z</time>
      </trkpt>
      <trkpt lat="48.20106" lon="-3.01351">
        <ele>138.57</ele>
        <time>2015-12-27T09:52:36Z</time>
      </trkpt>
      <trkpt lat="48.201" lon="-3.01377">
        <ele>136.64</ele>
        <time>2015-12-27T09:52:40Z</time>
      </trkpt>
      <trkpt lat="48.20076" lon="-3.0141">
        <ele>141.45</ele>
        <time>2015-12-27T09:52:49Z</time>
      </trkpt>
      <trkpt lat="48.20043" lon="-3.01407">
        <ele>146.26</ele>
        <time>2015-12-27T09:53:02Z</time>
      </trkpt>
      <trkpt lat="48.20038" lon="-3.01406">
        <ele>145.78</ele>
        <time>2015-12-27T09:53:03Z</time>
      </trkpt>
      <trkpt lat="48.20034" lon="-3.01404">
        <ele>145.78</ele>
        <time>2015-12-27T09:53:04Z</time>
      </trkpt>
      <trkpt lat="48.2003" lon="-3.01402">
        <ele>145.78</ele>
        <time>2015-12-27T09:53:05Z</time>
      </trkpt>
      <trkpt lat="48.20003" lon="-3.01388">
        <ele>148.18</ele>
        <time>2015-12-27T09:53:15Z</time>
      </trkpt>
      <trkpt lat="48.20001" lon="-3.01386">
        <ele>148.18</ele>
        <time>2015-12-27T09:53:16Z</time>
      </trkpt>
      <trkpt lat="48.19999" lon="-3.01385">
        <ele>148.66</ele>
        <time>2015-12-27T09:53:17Z</time>
      </trkpt>
      <trkpt lat="48.19989" lon="-3.01348">
        <ele>148.18</ele>
        <time>2015-12-27T09:53:29Z</time>
      </trkpt>
      <trkpt lat="48.19988" lon="-3.01346">
        <ele>148.18</ele>
        <time>2015-12-27T09:53:30Z</time>
      </trkpt>
      <trkpt lat="48.19985" lon="-3.01344">
        <ele>147.7</ele>
        <time>2015-12-27T09:53:31Z</time>
      </trkpt>
      <trkpt lat="48.19971" lon="-3.01341">
        <ele>146.26</ele>
        <time>2015-12-27T09:53:35Z</time>
      </trkpt>
      <trkpt lat="48.19967" lon="-3.01344">
        <ele>145.3</ele>
        <time>2015-12-27T09:53:36Z</time>
      </trkpt>
      <trkpt lat="48.19964" lon="-3.01348">
        <ele>144.34</ele>
        <time>2015-12-27T09:53:37Z</time>
      </trkpt>
      <trkpt lat="48.19961" lon="-3.01352">
        <ele>143.37</ele>
        <time>2015-12-27T09:53:38Z</time>
      </trkpt>
      <trkpt lat="48.19958" lon="-3.01354">
        <ele>142.41</ele>
        <time>2015-12-27T09:53:39Z</time>
      </trkpt>
      <trkpt lat="48.19955" lon="-3.01356">
        <ele>141.45</ele>
        <time>2015-12-27T09:53:40Z</time>
      </trkpt>
      <trkpt lat="48.19952" lon="-3.01357">
        <ele>140.49</ele>
        <time>2015-12-27T09:53:41Z</time>
      </trkpt>
      <trkpt lat="48.19948" lon="-3.01357">
        <ele>139.53</ele>
        <time>2015-12-27T09:53:42Z</time>
      </trkpt>
      <trkpt lat="48.19923" lon="-3.01361">
        <ele>137.13</ele>
        <time>2015-12-27T09:53:47Z</time>
      </trkpt>
      <trkpt lat="48.19919" lon="-3.0136">
        <ele>136.64</ele>
        <time>2015-12-27T09:53:48Z</time>
      </trkpt>
      <trkpt lat="48.19916" lon="-3.01356">
        <ele>136.64</ele>
        <time>2015-12-27T09:53:49Z</time>
      </trkpt>
      <trkpt lat="48.19884" lon="-3.0133">
        <ele>141.93</ele>
        <time>2015-12-27T09:53:59Z</time>
      </trkpt>
      <trkpt lat="48.19881" lon="-3.01329">
        <ele>141.93</ele>
        <time>2015-12-27T09:54:00Z</time>
      </trkpt>
      <trkpt lat="48.19877" lon="-3.01324">
        <ele>141.93</ele>
        <time>2015-12-27T09:54:01Z</time>
      </trkpt>
      <trkpt lat="48.19875" lon="-3.0132">
        <ele>141.93</ele>
        <time>2015-12-27T09:54:02Z</time>
      </trkpt>
      <trkpt lat="48.19846" lon="-3.01292">
        <ele>142.41</ele>
        <time>2015-12-27T09:54:12Z</time>
      </trkpt>
      <trkpt lat="48.19844" lon="-3.01296">
        <ele>141.93</ele>
        <time>2015-12-27T09:54:13Z</time>
      </trkpt>
      <trkpt lat="48.19843" lon="-3.013">
        <ele>141.93</ele>
        <time>2015-12-27T09:54:14Z</time>
      </trkpt>
      <trkpt lat="48.19843" lon="-3.01304">
        <ele>141.93</ele>
        <time>2015-12-27T09:54:15Z</time>
      </trkpt>
      <trkpt lat="48.19844" lon="-3.01307">
        <ele>141.93</ele>
        <time>2015-12-27T09:54:16Z</time>
      </trkpt>
      <trkpt lat="48.19845" lon="-3.01311">
        <ele>141.45</ele>
        <time>2015-12-27T09:54:17Z</time>
      </trkpt>
      <trkpt lat="48.19845" lon="-3.01315">
        <ele>141.45</ele>
        <time>2015-12-27T09:54:18Z</time>
      </trkpt>
      <trkpt lat="48.19851" lon="-3.01334">
        <ele>140.97</ele>
        <time>2015-12-27T09:54:25Z</time>
      </trkpt>
      <trkpt lat="48.19852" lon="-3.01335">
        <ele>140.97</ele>
        <time>2015-12-27T09:54:26Z</time>
      </trkpt>
      <trkpt lat="48.19856" lon="-3.01333">
        <ele>140.97</ele>
        <time>2015-12-27T09:54:29Z</time>
      </trkpt>
      <trkpt lat="48.19856" lon="-3.0133">
        <ele>140.97</ele>
        <time>2015-12-27T09:54:30Z</time>
      </trkpt>
      <trkpt lat="48.19855" lon="-3.01326">
        <ele>140.97</ele>
        <time>2015-12-27T09:54:31Z</time>
      </trkpt>
      <trkpt lat="48.19853" lon="-3.01323">
        <ele>140.97</ele>
        <time>2015-12-27T09:54:32Z</time>
      </trkpt>
      <trkpt lat="48.19847" lon="-3.01312">
        <ele>140.97</ele>
        <time>2015-12-27T09:54:35Z</time>
      </trkpt>
      <trkpt lat="48.19846" lon="-3.01311">
        <ele>140.97</ele>
        <time>2015-12-27T09:54:36Z</time>
      </trkpt>
      <trkpt lat="48.19845" lon="-3.01311">
        <ele>141.45</ele>
        <time>2015-12-27T09:54:47Z</time>
      </trkpt>
      <trkpt lat="48.19845" lon="-3.0131">
        <ele>142.41</ele>
        <time>2015-12-27T09:55:23Z</time>
      </trkpt>
      <trkpt lat="48.19844" lon="-3.01311">
        <ele>141.93</ele>
        <time>2015-12-27T09:55:35Z</time>
      </trkpt>
      <trkpt lat="48.19844" lon="-3.01309">
        <ele>141.93</ele>
        <time>2015-12-27T09:55:36Z</time>
      </trkpt>
      <trkpt lat="48.19843" lon="-3.01306">
        <ele>141.93</ele>
        <time>2015-12-27T09:55:37Z</time>
      </trkpt>
      <trkpt lat="48.19842" lon="-3.01301">
        <ele>141.45</ele>
        <time>2015-12-27T09:55:38Z</time>
      </trkpt>
      <trkpt lat="48.19841" lon="-3.01296">
        <ele>141.45</ele>
        <time>2015-12-27T09:55:39Z</time>
      </trkpt>
      <trkpt lat="48.19837" lon="-3.01274">
        <ele>141.45</ele>
        <time>2015-12-27T09:55:43Z</time>
      </trkpt>
      <trkpt lat="48.1983" lon="-3.01231">
        <ele>140.49</ele>
        <time>2015-12-27T09:55:50Z</time>
      </trkpt>
      <trkpt lat="48.19828" lon="-3.01224">
        <ele>140.49</ele>
        <time>2015-12-27T09:55:51Z</time>
      </trkpt>
      <trkpt lat="48.19809" lon="-3.01122">
        <ele>140.97</ele>
        <time>2015-12-27T09:56:06Z</time>
      </trkpt>
      <trkpt lat="48.19797" lon="-3.01054">
        <ele>142.41</ele>
        <time>2015-12-27T09:56:16Z</time>
      </trkpt>
      <trkpt lat="48.19795" lon="-3.01042">
        <ele>143.37</ele>
        <time>2015-12-27T09:56:18Z</time>
      </trkpt>
      <trkpt lat="48.19794" lon="-3.01035">
        <ele>143.85</ele>
        <time>2015-12-27T09:56:19Z</time>
      </trkpt>
      <trkpt lat="48.19787" lon="-3.01003">
        <ele>144.82</ele>
        <time>2015-12-27T09:56:24Z</time>
      </trkpt>
      <trkpt lat="48.19784" lon="-3.00997">
        <ele>144.82</ele>
        <time>2015-12-27T09:56:25Z</time>
      </trkpt>
      <trkpt lat="48.1978" lon="-3.00994">
        <ele>144.34</ele>
        <time>2015-12-27T09:56:26Z</time>
      </trkpt>
      <trkpt lat="48.19775" lon="-3.00993">
        <ele>144.34</ele>
        <time>2015-12-27T09:56:27Z</time>
      </trkpt>
      <trkpt lat="48.19771" lon="-3.00996">
        <ele>143.85</ele>
        <time>2015-12-27T09:56:28Z</time>
      </trkpt>
      <trkpt lat="48.19767" lon="-3.00999">
        <ele>143.85</ele>
        <time>2015-12-27T09:56:29Z</time>
      </trkpt>
      <trkpt lat="48.19763" lon="-3.01004">
        <ele>143.37</ele>
        <time>2015-12-27T09:56:30Z</time>
      </trkpt>
      <trkpt lat="48.19759" lon="-3.01008">
        <ele>143.37</ele>
        <time>2015-12-27T09:56:31Z</time>
      </trkpt>
      <trkpt lat="48.19756" lon="-3.01012">
        <ele>143.37</ele>
        <time>2015-12-27T09:56:32Z</time>
      </trkpt>
      <trkpt lat="48.19753" lon="-3.01013">
        <ele>142.89</ele>
        <time>2015-12-27T09:56:33Z</time>
      </trkpt>
      <trkpt lat="48.19749" lon="-3.01013">
        <ele>142.41</ele>
        <time>2015-12-27T09:56:34Z</time>
      </trkpt>
      <trkpt lat="48.19747" lon="-3.01011">
        <ele>142.41</ele>
        <time>2015-12-27T09:56:35Z</time>
      </trkpt>
      <trkpt lat="48.19745" lon="-3.01009">
        <ele>142.41</ele>
        <time>2015-12-27T09:56:36Z</time>
      </trkpt>
      <trkpt lat="48.19744" lon="-3.01007">
        <ele>142.41</ele>
        <time>2015-12-27T09:56:37Z</time>
      </trkpt>
      <trkpt lat="48.19743" lon="-3.01005">
        <ele>142.89</ele>
        <time>2015-12-27T09:56:38Z</time>
      </trkpt>
      <trkpt lat="48.19742" lon="-3.01004">
        <ele>142.89</ele>
        <time>2015-12-27T09:56:39Z</time>
      </trkpt>
      <trkpt lat="48.1974" lon="-3.01002">
        <ele>142.89</ele>
        <time>2015-12-27T09:56:40Z</time>
      </trkpt>
      <trkpt lat="48.19725" lon="-3.00977">
        <ele>146.26</ele>
        <time>2015-12-27T09:56:50Z</time>
      </trkpt>
      <trkpt lat="48.1971" lon="-3.00944">
        <ele>150.1</ele>
        <time>2015-12-27T09:57:00Z</time>
      </trkpt>
      <trkpt lat="48.19688" lon="-3.00909">
        <ele>152.99</ele>
        <time>2015-12-27T09:57:12Z</time>
      </trkpt>
      <trkpt lat="48.19674" lon="-3.00875">
        <ele>154.43</ele>
        <time>2015-12-27T09:57:24Z</time>
      </trkpt>
      <trkpt lat="48.19672" lon="-3.00857">
        <ele>154.91</ele>
        <time>2015-12-27T09:57:38Z</time>
      </trkpt>
      <trkpt lat="48.19673" lon="-3.00855">
        <ele>154.43</ele>
        <time>2015-12-27T09:57:42Z</time>
      </trkpt>
      <trkpt lat="48.19679" lon="-3.0083">
        <ele>154.43</ele>
        <time>2015-12-27T09:57:50Z</time>
      </trkpt>
      <trkpt lat="48.19679" lon="-3.00827">
        <ele>154.91</ele>
        <time>2015-12-27T09:57:51Z</time>
      </trkpt>
      <trkpt lat="48.19672" lon="-3.00814">
        <ele>158.27</ele>
        <time>2015-12-27T09:58:02Z</time>
      </trkpt>
      <trkpt lat="48.19671" lon="-3.00814">
        <ele>159.24</ele>
        <time>2015-12-27T09:58:20Z</time>
      </trkpt>
      <trkpt lat="48.19671" lon="-3.00817">
        <ele>158.75</ele>
        <time>2015-12-27T09:58:22Z</time>
      </trkpt>
      <trkpt lat="48.19666" lon="-3.00838">
        <ele>152.99</ele>
        <time>2015-12-27T09:58:30Z</time>
      </trkpt>
      <trkpt lat="48.19665" lon="-3.00851">
        <ele>151.54</ele>
        <time>2015-12-27T09:58:35Z</time>
      </trkpt>
      <trkpt lat="48.19665" lon="-3.00858">
        <ele>152.03</ele>
        <time>2015-12-27T09:58:50Z</time>
      </trkpt>
      <trkpt lat="48.19657" lon="-3.00862">
        <ele>152.99</ele>
        <time>2015-12-27T09:59:04Z</time>
      </trkpt>
      <trkpt lat="48.19644" lon="-3.00861">
        <ele>158.27</ele>
        <time>2015-12-27T09:59:18Z</time>
      </trkpt>
      <trkpt lat="48.19641" lon="-3.00861">
        <ele>159.72</ele>
        <time>2015-12-27T09:59:22Z</time>
      </trkpt>
      <trkpt lat="48.19627" lon="-3.0086">
        <ele>162.6</ele>
        <time>2015-12-27T09:59:38Z</time>
      </trkpt>
      <trkpt lat="48.19612" lon="-3.0086">
        <ele>164.04</ele>
        <time>2015-12-27T09:59:52Z</time>
      </trkpt>
      <trkpt lat="48.19579" lon="-3.00856">
        <ele>166.93</ele>
        <time>2015-12-27T10:00:08Z</time>
      </trkpt>
      <trkpt lat="48.19562" lon="-3.00868">
        <ele>165.96</ele>
        <time>2015-12-27T10:00:19Z</time>
      </trkpt>
      <trkpt lat="48.19513" lon="-3.00889">
        <ele>163.56</ele>
        <time>2015-12-27T10:00:34Z</time>
      </trkpt>
      <trkpt lat="48.19509" lon="-3.0089">
        <ele>163.56</ele>
        <time>2015-12-27T10:00:35Z</time>
      </trkpt>
      <trkpt lat="48.19432" lon="-3.00899">
        <ele>157.79</ele>
        <time>2015-12-27T10:00:50Z</time>
      </trkpt>
      <trkpt lat="48.19426" lon="-3.00898">
        <ele>157.31</ele>
        <time>2015-12-27T10:00:51Z</time>
      </trkpt>
      <trkpt lat="48.19397" lon="-3.00897">
        <ele>156.35</ele>
        <time>2015-12-27T10:00:56Z</time>
      </trkpt>
      <trkpt lat="48.19391" lon="-3.00898">
        <ele>156.35</ele>
        <time>2015-12-27T10:00:57Z</time>
      </trkpt>
      <trkpt lat="48.19386" lon="-3.00899">
        <ele>155.87</ele>
        <time>2015-12-27T10:00:58Z</time>
      </trkpt>
      <trkpt lat="48.19283" lon="-3.00902">
        <ele>150.58</ele>
        <time>2015-12-27T10:01:13Z</time>
      </trkpt>
      <trkpt lat="48.19183" lon="-3.00932">
        <ele>146.26</ele>
        <time>2015-12-27T10:01:26Z</time>
      </trkpt>
      <trkpt lat="48.19178" lon="-3.00936">
        <ele>145.78</ele>
        <time>2015-12-27T10:01:27Z</time>
      </trkpt>
      <trkpt lat="48.19175" lon="-3.00941">
        <ele>145.78</ele>
        <time>2015-12-27T10:01:28Z</time>
      </trkpt>
      <trkpt lat="48.19174" lon="-3.00948">
        <ele>145.78</ele>
        <time>2015-12-27T10:01:29Z</time>
      </trkpt>
      <trkpt lat="48.19174" lon="-3.00954">
        <ele>145.78</ele>
        <time>2015-12-27T10:01:30Z</time>
      </trkpt>
      <trkpt lat="48.19175" lon="-3.00958">
        <ele>145.78</ele>
        <time>2015-12-27T10:01:31Z</time>
      </trkpt>
      <trkpt lat="48.19176" lon="-3.00961">
        <ele>146.26</ele>
        <time>2015-12-27T10:01:32Z</time>
      </trkpt>
      <trkpt lat="48.19177" lon="-3.00964">
        <ele>146.26</ele>
        <time>2015-12-27T10:01:33Z</time>
      </trkpt>
      <trkpt lat="48.19178" lon="-3.00966">
        <ele>146.26</ele>
        <time>2015-12-27T10:01:34Z</time>
      </trkpt>
      <trkpt lat="48.19195" lon="-3.01002">
        <ele>149.14</ele>
        <time>2015-12-27T10:01:46Z</time>
      </trkpt>
      <trkpt lat="48.1921" lon="-3.01048">
        <ele>152.99</ele>
        <time>2015-12-27T10:01:58Z</time>
      </trkpt>
      <trkpt lat="48.19219" lon="-3.01105">
        <ele>155.87</ele>
        <time>2015-12-27T10:02:11Z</time>
      </trkpt>
      <trkpt lat="48.19226" lon="-3.0116">
        <ele>157.79</ele>
        <time>2015-12-27T10:02:24Z</time>
      </trkpt>
      <trkpt lat="48.19239" lon="-3.01219">
        <ele>159.72</ele>
        <time>2015-12-27T10:02:40Z</time>
      </trkpt>
      <trkpt lat="48.19223" lon="-3.01244">
        <ele>160.2</ele>
        <time>2015-12-27T10:02:49Z</time>
      </trkpt>
      <trkpt lat="48.19216" lon="-3.01244">
        <ele>159.72</ele>
        <time>2015-12-27T10:02:51Z</time>
      </trkpt>
      <trkpt lat="48.1921" lon="-3.01246">
        <ele>159.24</ele>
        <time>2015-12-27T10:02:53Z</time>
      </trkpt>
      <trkpt lat="48.19208" lon="-3.01248">
        <ele>159.24</ele>
        <time>2015-12-27T10:02:54Z</time>
      </trkpt>
      <trkpt lat="48.19207" lon="-3.01249">
        <ele>158.75</ele>
        <time>2015-12-27T10:02:55Z</time>
      </trkpt>
      <trkpt lat="48.19206" lon="-3.01251">
        <ele>158.27</ele>
        <time>2015-12-27T10:02:56Z</time>
      </trkpt>
      <trkpt lat="48.19204" lon="-3.01253">
        <ele>157.79</ele>
        <time>2015-12-27T10:02:57Z</time>
      </trkpt>
      <trkpt lat="48.19199" lon="-3.01256">
        <ele>156.83</ele>
        <time>2015-12-27T10:02:59Z</time>
      </trkpt>
      <trkpt lat="48.19197" lon="-3.01259">
        <ele>156.35</ele>
        <time>2015-12-27T10:03:00Z</time>
      </trkpt>
      <trkpt lat="48.19196" lon="-3.01264">
        <ele>155.87</ele>
        <time>2015-12-27T10:03:01Z</time>
      </trkpt>
      <trkpt lat="48.1919" lon="-3.01287">
        <ele>152.51</ele>
        <time>2015-12-27T10:03:06Z</time>
      </trkpt>
      <trkpt lat="48.19187" lon="-3.01289">
        <ele>152.03</ele>
        <time>2015-12-27T10:03:07Z</time>
      </trkpt>
      <trkpt lat="48.19183" lon="-3.01289">
        <ele>151.06</ele>
        <time>2015-12-27T10:03:08Z</time>
      </trkpt>
      <trkpt lat="48.19179" lon="-3.01289">
        <ele>150.58</ele>
        <time>2015-12-27T10:03:09Z</time>
      </trkpt>
      <trkpt lat="48.19175" lon="-3.01291">
        <ele>149.62</ele>
        <time>2015-12-27T10:03:10Z</time>
      </trkpt>
      <trkpt lat="48.19174" lon="-3.01295">
        <ele>148.66</ele>
        <time>2015-12-27T10:03:11Z</time>
      </trkpt>
      <trkpt lat="48.19174" lon="-3.01299">
        <ele>148.18</ele>
        <time>2015-12-27T10:03:12Z</time>
      </trkpt>
      <trkpt lat="48.19174" lon="-3.01304">
        <ele>147.7</ele>
        <time>2015-12-27T10:03:13Z</time>
      </trkpt>
      <trkpt lat="48.19173" lon="-3.01314">
        <ele>146.74</ele>
        <time>2015-12-27T10:03:15Z</time>
      </trkpt>
      <trkpt lat="48.19172" lon="-3.01318">
        <ele>146.26</ele>
        <time>2015-12-27T10:03:16Z</time>
      </trkpt>
      <trkpt lat="48.19171" lon="-3.01321">
        <ele>146.26</ele>
        <time>2015-12-27T10:03:17Z</time>
      </trkpt>
      <trkpt lat="48.19171" lon="-3.01324">
        <ele>145.78</ele>
        <time>2015-12-27T10:03:18Z</time>
      </trkpt>
      <trkpt lat="48.19172" lon="-3.01328">
        <ele>145.78</ele>
        <time>2015-12-27T10:03:19Z</time>
      </trkpt>
      <trkpt lat="48.19173" lon="-3.01332">
        <ele>145.78</ele>
        <time>2015-12-27T10:03:20Z</time>
      </trkpt>
      <trkpt lat="48.19173" lon="-3.01336">
        <ele>145.78</ele>
        <time>2015-12-27T10:03:21Z</time>
      </trkpt>
      <trkpt lat="48.19171" lon="-3.0134">
        <ele>145.3</ele>
        <time>2015-12-27T10:03:22Z</time>
      </trkpt>
      <trkpt lat="48.19169" lon="-3.01345">
        <ele>144.82</ele>
        <time>2015-12-27T10:03:23Z</time>
      </trkpt>
      <trkpt lat="48.19168" lon="-3.01351">
        <ele>144.34</ele>
        <time>2015-12-27T10:03:24Z</time>
      </trkpt>
      <trkpt lat="48.19166" lon="-3.01356">
        <ele>143.85</ele>
        <time>2015-12-27T10:03:25Z</time>
      </trkpt>
      <trkpt lat="48.19164" lon="-3.01363">
        <ele>143.37</ele>
        <time>2015-12-27T10:03:26Z</time>
      </trkpt>
      <trkpt lat="48.19164" lon="-3.01369">
        <ele>142.89</ele>
        <time>2015-12-27T10:03:27Z</time>
      </trkpt>
      <trkpt lat="48.19164" lon="-3.01374">
        <ele>142.89</ele>
        <time>2015-12-27T10:03:28Z</time>
      </trkpt>
      <trkpt lat="48.19162" lon="-3.01385">
        <ele>142.89</ele>
        <time>2015-12-27T10:03:36Z</time>
      </trkpt>
      <trkpt lat="48.19149" lon="-3.0142">
        <ele>141.45</ele>
        <time>2015-12-27T10:03:42Z</time>
      </trkpt>
      <trkpt lat="48.19144" lon="-3.01428">
        <ele>140.97</ele>
        <time>2015-12-27T10:03:44Z</time>
      </trkpt>
      <trkpt lat="48.19142" lon="-3.01435">
        <ele>140.01</ele>
        <time>2015-12-27T10:03:45Z</time>
      </trkpt>
      <trkpt lat="48.19138" lon="-3.01449">
        <ele>138.09</ele>
        <time>2015-12-27T10:03:47Z</time>
      </trkpt>
      <trkpt lat="48.19137" lon="-3.01456">
        <ele>137.13</ele>
        <time>2015-12-27T10:03:48Z</time>
      </trkpt>
      <trkpt lat="48.19137" lon="-3.01462">
        <ele>136.16</ele>
        <time>2015-12-27T10:03:49Z</time>
      </trkpt>
      <trkpt lat="48.19135" lon="-3.01467">
        <ele>134.72</ele>
        <time>2015-12-27T10:03:50Z</time>
      </trkpt>
      <trkpt lat="48.19133" lon="-3.01472">
        <ele>133.76</ele>
        <time>2015-12-27T10:03:51Z</time>
      </trkpt>
      <trkpt lat="48.19132" lon="-3.01478">
        <ele>132.32</ele>
        <time>2015-12-27T10:03:52Z</time>
      </trkpt>
      <trkpt lat="48.19124" lon="-3.01509">
        <ele>125.11</ele>
        <time>2015-12-27T10:03:59Z</time>
      </trkpt>
      <trkpt lat="48.19123" lon="-3.01515">
        <ele>124.15</ele>
        <time>2015-12-27T10:04:00Z</time>
      </trkpt>
      <trkpt lat="48.19121" lon="-3.01519">
        <ele>123.19</ele>
        <time>2015-12-27T10:04:01Z</time>
      </trkpt>
      <trkpt lat="48.1912" lon="-3.01521">
        <ele>121.74</ele>
        <time>2015-12-27T10:04:02Z</time>
      </trkpt>
      <trkpt lat="48.19119" lon="-3.01526">
        <ele>120.78</ele>
        <time>2015-12-27T10:04:03Z</time>
      </trkpt>
      <trkpt lat="48.19118" lon="-3.01532">
        <ele>120.3</ele>
        <time>2015-12-27T10:04:04Z</time>
      </trkpt>
      <trkpt lat="48.19117" lon="-3.01545">
        <ele>118.86</ele>
        <time>2015-12-27T10:04:06Z</time>
      </trkpt>
      <trkpt lat="48.19124" lon="-3.01598">
        <ele>113.09</ele>
        <time>2015-12-27T10:04:15Z</time>
      </trkpt>
      <trkpt lat="48.19124" lon="-3.01619">
        <ele>112.61</ele>
        <time>2015-12-27T10:04:18Z</time>
      </trkpt>
      <trkpt lat="48.19123" lon="-3.01625">
        <ele>112.61</ele>
        <time>2015-12-27T10:04:19Z</time>
      </trkpt>
      <trkpt lat="48.19122" lon="-3.01632">
        <ele>112.61</ele>
        <time>2015-12-27T10:04:20Z</time>
      </trkpt>
      <trkpt lat="48.19122" lon="-3.01639">
        <ele>112.13</ele>
        <time>2015-12-27T10:04:21Z</time>
      </trkpt>
      <trkpt lat="48.19122" lon="-3.01645">
        <ele>112.61</ele>
        <time>2015-12-27T10:04:22Z</time>
      </trkpt>
      <trkpt lat="48.19122" lon="-3.0165">
        <ele>112.61</ele>
        <time>2015-12-27T10:04:23Z</time>
      </trkpt>
      <trkpt lat="48.19123" lon="-3.01653">
        <ele>112.13</ele>
        <time>2015-12-27T10:04:24Z</time>
      </trkpt>
      <trkpt lat="48.19125" lon="-3.01657">
        <ele>111.17</ele>
        <time>2015-12-27T10:04:25Z</time>
      </trkpt>
      <trkpt lat="48.19125" lon="-3.01662">
        <ele>110.69</ele>
        <time>2015-12-27T10:04:26Z</time>
      </trkpt>
      <trkpt lat="48.19129" lon="-3.01701">
        <ele>111.17</ele>
        <time>2015-12-27T10:04:33Z</time>
      </trkpt>
      <trkpt lat="48.19129" lon="-3.01708">
        <ele>110.69</ele>
        <time>2015-12-27T10:04:34Z</time>
      </trkpt>
      <trkpt lat="48.1913" lon="-3.01714">
        <ele>110.21</ele>
        <time>2015-12-27T10:04:35Z</time>
      </trkpt>
      <trkpt lat="48.1913" lon="-3.01719">
        <ele>110.21</ele>
        <time>2015-12-27T10:04:36Z</time>
      </trkpt>
      <trkpt lat="48.19131" lon="-3.01724">
        <ele>109.73</ele>
        <time>2015-12-27T10:04:37Z</time>
      </trkpt>
      <trkpt lat="48.19132" lon="-3.01729">
        <ele>109.25</ele>
        <time>2015-12-27T10:04:38Z</time>
      </trkpt>
      <trkpt lat="48.19133" lon="-3.01734">
        <ele>108.77</ele>
        <time>2015-12-27T10:04:39Z</time>
      </trkpt>
      <trkpt lat="48.19134" lon="-3.01738">
        <ele>108.29</ele>
        <time>2015-12-27T10:04:40Z</time>
      </trkpt>
      <trkpt lat="48.19134" lon="-3.01742">
        <ele>107.32</ele>
        <time>2015-12-27T10:04:41Z</time>
      </trkpt>
      <trkpt lat="48.19133" lon="-3.01746">
        <ele>106.84</ele>
        <time>2015-12-27T10:04:42Z</time>
      </trkpt>
      <trkpt lat="48.19133" lon="-3.01751">
        <ele>105.88</ele>
        <time>2015-12-27T10:04:43Z</time>
      </trkpt>
      <trkpt lat="48.19134" lon="-3.01754">
        <ele>105.4</ele>
        <time>2015-12-27T10:04:44Z</time>
      </trkpt>
      <trkpt lat="48.19135" lon="-3.01756">
        <ele>104.44</ele>
        <time>2015-12-27T10:04:45Z</time>
      </trkpt>
      <trkpt lat="48.19135" lon="-3.01759">
        <ele>103.96</ele>
        <time>2015-12-27T10:04:46Z</time>
      </trkpt>
      <trkpt lat="48.19136" lon="-3.01763">
        <ele>103</ele>
        <time>2015-12-27T10:04:47Z</time>
      </trkpt>
      <trkpt lat="48.19136" lon="-3.01767">
        <ele>102.04</ele>
        <time>2015-12-27T10:04:48Z</time>
      </trkpt>
      <trkpt lat="48.19137" lon="-3.01772">
        <ele>101.08</ele>
        <time>2015-12-27T10:04:49Z</time>
      </trkpt>
      <trkpt lat="48.19137" lon="-3.01776">
        <ele>100.11</ele>
        <time>2015-12-27T10:04:50Z</time>
      </trkpt>
      <trkpt lat="48.19137" lon="-3.0178">
        <ele>99.15</ele>
        <time>2015-12-27T10:04:51Z</time>
      </trkpt>
      <trkpt lat="48.19137" lon="-3.01784">
        <ele>98.19</ele>
        <time>2015-12-27T10:04:52Z</time>
      </trkpt>
      <trkpt lat="48.19137" lon="-3.01789">
        <ele>96.75</ele>
        <time>2015-12-27T10:04:53Z</time>
      </trkpt>
      <trkpt lat="48.19138" lon="-3.01794">
        <ele>96.27</ele>
        <time>2015-12-27T10:04:54Z</time>
      </trkpt>
      <trkpt lat="48.1914" lon="-3.01799">
        <ele>96.27</ele>
        <time>2015-12-27T10:04:55Z</time>
      </trkpt>
      <trkpt lat="48.19142" lon="-3.01804">
        <ele>96.27</ele>
        <time>2015-12-27T10:04:56Z</time>
      </trkpt>
      <trkpt lat="48.19143" lon="-3.0181">
        <ele>96.27</ele>
        <time>2015-12-27T10:04:57Z</time>
      </trkpt>
      <trkpt lat="48.19145" lon="-3.01817">
        <ele>96.27</ele>
        <time>2015-12-27T10:04:58Z</time>
      </trkpt>
      <trkpt lat="48.19145" lon="-3.01825">
        <ele>96.27</ele>
        <time>2015-12-27T10:04:59Z</time>
      </trkpt>
      <trkpt lat="48.19147" lon="-3.01844">
        <ele>96.75</ele>
        <time>2015-12-27T10:05:08Z</time>
      </trkpt>
      <trkpt lat="48.19153" lon="-3.01864">
        <ele>96.27</ele>
        <time>2015-12-27T10:05:12Z</time>
      </trkpt>
      <trkpt lat="48.19152" lon="-3.01871">
        <ele>96.27</ele>
        <time>2015-12-27T10:05:20Z</time>
      </trkpt>
      <trkpt lat="48.19151" lon="-3.01873">
        <ele>95.79</ele>
        <time>2015-12-27T10:05:21Z</time>
      </trkpt>
      <trkpt lat="48.19151" lon="-3.01876">
        <ele>94.35</ele>
        <time>2015-12-27T10:05:22Z</time>
      </trkpt>
      <trkpt lat="48.1915" lon="-3.01879">
        <ele>92.9</ele>
        <time>2015-12-27T10:05:23Z</time>
      </trkpt>
      <trkpt lat="48.19149" lon="-3.01881">
        <ele>90.98</ele>
        <time>2015-12-27T10:05:24Z</time>
      </trkpt>
      <trkpt lat="48.19148" lon="-3.01884">
        <ele>89.54</ele>
        <time>2015-12-27T10:05:25Z</time>
      </trkpt>
      <trkpt lat="48.19146" lon="-3.01885">
        <ele>88.1</ele>
        <time>2015-12-27T10:05:26Z</time>
      </trkpt>
      <trkpt lat="48.19145" lon="-3.01886">
        <ele>86.66</ele>
        <time>2015-12-27T10:05:27Z</time>
      </trkpt>
      <trkpt lat="48.19144" lon="-3.01891">
        <ele>82.33</ele>
        <time>2015-12-27T10:05:30Z</time>
      </trkpt>
      <trkpt lat="48.19142" lon="-3.01893">
        <ele>79.45</ele>
        <time>2015-12-27T10:05:33Z</time>
      </trkpt>
      <trkpt lat="48.1914" lon="-3.01895">
        <ele>78</ele>
        <time>2015-12-27T10:05:34Z</time>
      </trkpt>
      <trkpt lat="48.19138" lon="-3.01897">
        <ele>77.52</ele>
        <time>2015-12-27T10:05:35Z</time>
      </trkpt>
      <trkpt lat="48.19136" lon="-3.019">
        <ele>76.56</ele>
        <time>2015-12-27T10:05:36Z</time>
      </trkpt>
      <trkpt lat="48.19134" lon="-3.01903">
        <ele>76.56</ele>
        <time>2015-12-27T10:05:37Z</time>
      </trkpt>
      <trkpt lat="48.19131" lon="-3.01905">
        <ele>76.08</ele>
        <time>2015-12-27T10:05:38Z</time>
      </trkpt>
      <trkpt lat="48.19121" lon="-3.01912">
        <ele>76.08</ele>
        <time>2015-12-27T10:05:41Z</time>
      </trkpt>
      <trkpt lat="48.19116" lon="-3.01913">
        <ele>75.6</ele>
        <time>2015-12-27T10:05:44Z</time>
      </trkpt>
      <trkpt lat="48.19114" lon="-3.01911">
        <ele>75.6</ele>
        <time>2015-12-27T10:05:45Z</time>
      </trkpt>
      <trkpt lat="48.19112" lon="-3.01909">
        <ele>76.08</ele>
        <time>2015-12-27T10:05:46Z</time>
      </trkpt>
      <trkpt lat="48.19086" lon="-3.01877">
        <ele>81.37</ele>
        <time>2015-12-27T10:05:58Z</time>
      </trkpt>
      <trkpt lat="48.19058" lon="-3.01821">
        <ele>85.69</ele>
        <time>2015-12-27T10:06:11Z</time>
      </trkpt>
      <trkpt lat="48.19041" lon="-3.01788">
        <ele>87.14</ele>
        <time>2015-12-27T10:06:18Z</time>
      </trkpt>
      <trkpt lat="48.1901" lon="-3.01724">
        <ele>89.54</ele>
        <time>2015-12-27T10:06:32Z</time>
      </trkpt>
      <trkpt lat="48.1901" lon="-3.01724">
        <ele>89.06</ele>
        <time>2015-12-27T10:06:41Z</time>
      </trkpt>
      <trkpt lat="48.19007" lon="-3.01726">
        <ele>89.06</ele>
        <time>2015-12-27T10:06:43Z</time>
      </trkpt>
      <trkpt lat="48.19005" lon="-3.01727">
        <ele>89.06</ele>
        <time>2015-12-27T10:06:44Z</time>
      </trkpt>
      <trkpt lat="48.18987" lon="-3.01743">
        <ele>89.54</ele>
        <time>2015-12-27T10:06:52Z</time>
      </trkpt>
      <trkpt lat="48.18955" lon="-3.01792">
        <ele>86.66</ele>
        <time>2015-12-27T10:07:08Z</time>
      </trkpt>
      <trkpt lat="48.18951" lon="-3.01798">
        <ele>86.18</ele>
        <time>2015-12-27T10:07:12Z</time>
      </trkpt>
      <trkpt lat="48.1895" lon="-3.01799">
        <ele>86.18</ele>
        <time>2015-12-27T10:07:13Z</time>
      </trkpt>
      <trkpt lat="48.18949" lon="-3.01801">
        <ele>86.18</ele>
        <time>2015-12-27T10:07:14Z</time>
      </trkpt>
      <trkpt lat="48.18939" lon="-3.01817">
        <ele>84.25</ele>
        <time>2015-12-27T10:07:26Z</time>
      </trkpt>
      <trkpt lat="48.18938" lon="-3.01816">
        <ele>82.81</ele>
        <time>2015-12-27T10:07:51Z</time>
      </trkpt>
      <trkpt lat="48.18927" lon="-3.01836">
        <ele>82.81</ele>
        <time>2015-12-27T10:08:02Z</time>
      </trkpt>
      <trkpt lat="48.18909" lon="-3.0186">
        <ele>83.77</ele>
        <time>2015-12-27T10:08:12Z</time>
      </trkpt>
      <trkpt lat="48.18889" lon="-3.01859">
        <ele>86.18</ele>
        <time>2015-12-27T10:08:21Z</time>
      </trkpt>
      <trkpt lat="48.18851" lon="-3.01841">
        <ele>83.77</ele>
        <time>2015-12-27T10:08:32Z</time>
      </trkpt>
      <trkpt lat="48.18822" lon="-3.01822">
        <ele>83.29</ele>
        <time>2015-12-27T10:08:41Z</time>
      </trkpt>
      <trkpt lat="48.18815" lon="-3.01819">
        <ele>83.29</ele>
        <time>2015-12-27T10:08:43Z</time>
      </trkpt>
      <trkpt lat="48.18812" lon="-3.01819">
        <ele>83.77</ele>
        <time>2015-12-27T10:08:44Z</time>
      </trkpt>
      <trkpt lat="48.1881" lon="-3.01818">
        <ele>83.77</ele>
        <time>2015-12-27T10:08:45Z</time>
      </trkpt>
      <trkpt lat="48.18808" lon="-3.01817">
        <ele>83.77</ele>
        <time>2015-12-27T10:08:46Z</time>
      </trkpt>
      <trkpt lat="48.18805" lon="-3.01815">
        <ele>83.77</ele>
        <time>2015-12-27T10:08:47Z</time>
      </trkpt>
      <trkpt lat="48.18802" lon="-3.01814">
        <ele>83.77</ele>
        <time>2015-12-27T10:08:48Z</time>
      </trkpt>
      <trkpt lat="48.18799" lon="-3.01814">
        <ele>84.25</ele>
        <time>2015-12-27T10:08:49Z</time>
      </trkpt>
      <trkpt lat="48.18767" lon="-3.01817">
        <ele>86.18</ele>
        <time>2015-12-27T10:09:00Z</time>
      </trkpt>
      <trkpt lat="48.18731" lon="-3.01752">
        <ele>85.21</ele>
        <time>2015-12-27T10:09:12Z</time>
      </trkpt>
      <trkpt lat="48.18729" lon="-3.01747">
        <ele>85.21</ele>
        <time>2015-12-27T10:09:13Z</time>
      </trkpt>
      <trkpt lat="48.18728" lon="-3.01742">
        <ele>85.21</ele>
        <time>2015-12-27T10:09:14Z</time>
      </trkpt>
      <trkpt lat="48.18727" lon="-3.01737">
        <ele>84.73</ele>
        <time>2015-12-27T10:09:15Z</time>
      </trkpt>
      <trkpt lat="48.18726" lon="-3.01732">
        <ele>84.73</ele>
        <time>2015-12-27T10:09:16Z</time>
      </trkpt>
      <trkpt lat="48.18725" lon="-3.01726">
        <ele>84.25</ele>
        <time>2015-12-27T10:09:17Z</time>
      </trkpt>
      <trkpt lat="48.18723" lon="-3.0172">
        <ele>84.25</ele>
        <time>2015-12-27T10:09:18Z</time>
      </trkpt>
      <trkpt lat="48.18721" lon="-3.01714">
        <ele>84.25</ele>
        <time>2015-12-27T10:09:19Z</time>
      </trkpt>
      <trkpt lat="48.18718" lon="-3.01709">
        <ele>83.77</ele>
        <time>2015-12-27T10:09:20Z</time>
      </trkpt>
      <trkpt lat="48.18714" lon="-3.01704">
        <ele>83.77</ele>
        <time>2015-12-27T10:09:21Z</time>
      </trkpt>
      <trkpt lat="48.18711" lon="-3.017">
        <ele>83.77</ele>
        <time>2015-12-27T10:09:22Z</time>
      </trkpt>
      <trkpt lat="48.18707" lon="-3.01696">
        <ele>83.77</ele>
        <time>2015-12-27T10:09:23Z</time>
      </trkpt>
      <trkpt lat="48.18642" lon="-3.01616">
        <ele>82.81</ele>
        <time>2015-12-27T10:09:40Z</time>
      </trkpt>
      <trkpt lat="48.18612" lon="-3.01582">
        <ele>83.29</ele>
        <time>2015-12-27T10:09:48Z</time>
      </trkpt>
      <trkpt lat="48.18582" lon="-3.01552">
        <ele>85.21</ele>
        <time>2015-12-27T10:09:56Z</time>
      </trkpt>
      <trkpt lat="48.18578" lon="-3.0155">
        <ele>85.69</ele>
        <time>2015-12-27T10:09:57Z</time>
      </trkpt>
      <trkpt lat="48.18573" lon="-3.01548">
        <ele>85.69</ele>
        <time>2015-12-27T10:09:58Z</time>
      </trkpt>
      <trkpt lat="48.18543" lon="-3.01533">
        <ele>87.14</ele>
        <time>2015-12-27T10:10:05Z</time>
      </trkpt>
      <trkpt lat="48.18497" lon="-3.01509">
        <ele>87.62</ele>
        <time>2015-12-27T10:10:18Z</time>
      </trkpt>
      <trkpt lat="48.18488" lon="-3.01505">
        <ele>87.62</ele>
        <time>2015-12-27T10:10:21Z</time>
      </trkpt>
      <trkpt lat="48.18487" lon="-3.01503">
        <ele>87.62</ele>
        <time>2015-12-27T10:10:22Z</time>
      </trkpt>
      <trkpt lat="48.18486" lon="-3.01497">
        <ele>88.58</ele>
        <time>2015-12-27T10:10:26Z</time>
      </trkpt>
      <trkpt lat="48.18488" lon="-3.01501">
        <ele>88.58</ele>
        <time>2015-12-27T10:10:30Z</time>
      </trkpt>
      <trkpt lat="48.18487" lon="-3.01504">
        <ele>88.58</ele>
        <time>2015-12-27T10:10:31Z</time>
      </trkpt>
      <trkpt lat="48.1848" lon="-3.01519">
        <ele>89.06</ele>
        <time>2015-12-27T10:10:40Z</time>
      </trkpt>
      <trkpt lat="48.18477" lon="-3.0153">
        <ele>89.06</ele>
        <time>2015-12-27T10:10:44Z</time>
      </trkpt>
      <trkpt lat="48.18469" lon="-3.01558">
        <ele>90.02</ele>
        <time>2015-12-27T10:10:58Z</time>
      </trkpt>
      <trkpt lat="48.18468" lon="-3.01562">
        <ele>91.94</ele>
        <time>2015-12-27T10:11:07Z</time>
      </trkpt>
      <trkpt lat="48.18463" lon="-3.01577">
        <ele>94.35</ele>
        <time>2015-12-27T10:11:22Z</time>
      </trkpt>
      <trkpt lat="48.18463" lon="-3.0158">
        <ele>94.83</ele>
        <time>2015-12-27T10:11:24Z</time>
      </trkpt>
      <trkpt lat="48.18465" lon="-3.01599">
        <ele>96.27</ele>
        <time>2015-12-27T10:11:34Z</time>
      </trkpt>
      <trkpt lat="48.18472" lon="-3.01615">
        <ele>100.11</ele>
        <time>2015-12-27T10:11:44Z</time>
      </trkpt>
      <trkpt lat="48.18479" lon="-3.01631">
        <ele>100.6</ele>
        <time>2015-12-27T10:11:54Z</time>
      </trkpt>
      <trkpt lat="48.18482" lon="-3.01638">
        <ele>101.08</ele>
        <time>2015-12-27T10:11:58Z</time>
      </trkpt>
      <trkpt lat="48.18482" lon="-3.0165">
        <ele>101.08</ele>
        <time>2015-12-27T10:12:09Z</time>
      </trkpt>
      <trkpt lat="48.1848" lon="-3.01659">
        <ele>101.56</ele>
        <time>2015-12-27T10:12:19Z</time>
      </trkpt>
      <trkpt lat="48.1848" lon="-3.01661">
        <ele>104.44</ele>
        <time>2015-12-27T10:12:30Z</time>
      </trkpt>
      <trkpt lat="48.18483" lon="-3.01671">
        <ele>103.48</ele>
        <time>2015-12-27T10:12:38Z</time>
      </trkpt>
      <trkpt lat="48.1849" lon="-3.01707">
        <ele>104.44</ele>
        <time>2015-12-27T10:12:55Z</time>
      </trkpt>
      <trkpt lat="48.18493" lon="-3.0172">
        <ele>104.92</ele>
        <time>2015-12-27T10:13:01Z</time>
      </trkpt>
      <trkpt lat="48.18496" lon="-3.01729">
        <ele>105.88</ele>
        <time>2015-12-27T10:13:05Z</time>
      </trkpt>
      <trkpt lat="48.18497" lon="-3.01733">
        <ele>105.88</ele>
        <time>2015-12-27T10:13:07Z</time>
      </trkpt>
      <trkpt lat="48.18498" lon="-3.01739">
        <ele>105.4</ele>
        <time>2015-12-27T10:13:10Z</time>
      </trkpt>
      <trkpt lat="48.18503" lon="-3.01756">
        <ele>106.84</ele>
        <time>2015-12-27T10:13:18Z</time>
      </trkpt>
      <trkpt lat="48.18507" lon="-3.01775">
        <ele>108.77</ele>
        <time>2015-12-27T10:13:27Z</time>
      </trkpt>
      <trkpt lat="48.1851" lon="-3.01789">
        <ele>109.73</ele>
        <time>2015-12-27T10:13:34Z</time>
      </trkpt>
      <trkpt lat="48.18511" lon="-3.01793">
        <ele>109.73</ele>
        <time>2015-12-27T10:13:36Z</time>
      </trkpt>
      <trkpt lat="48.18512" lon="-3.01802">
        <ele>110.21</ele>
        <time>2015-12-27T10:13:40Z</time>
      </trkpt>
      <trkpt lat="48.18514" lon="-3.01812">
        <ele>110.69</ele>
        <time>2015-12-27T10:13:45Z</time>
      </trkpt>
      <trkpt lat="48.18519" lon="-3.01831">
        <ele>110.69</ele>
        <time>2015-12-27T10:13:55Z</time>
      </trkpt>
      <trkpt lat="48.18528" lon="-3.01871">
        <ele>113.57</ele>
        <time>2015-12-27T10:14:13Z</time>
      </trkpt>
      <trkpt lat="48.18536" lon="-3.01906">
        <ele>115.5</ele>
        <time>2015-12-27T10:14:29Z</time>
      </trkpt>
      <trkpt lat="48.18539" lon="-3.01919">
        <ele>116.46</ele>
        <time>2015-12-27T10:14:35Z</time>
      </trkpt>
      <trkpt lat="48.18544" lon="-3.01941">
        <ele>116.46</ele>
        <time>2015-12-27T10:14:45Z</time>
      </trkpt>
      <trkpt lat="48.18553" lon="-3.01982">
        <ele>117.9</ele>
        <time>2015-12-27T10:15:01Z</time>
      </trkpt>
      <trkpt lat="48.18561" lon="-3.02014">
        <ele>117.42</ele>
        <time>2015-12-27T10:15:13Z</time>
      </trkpt>
      <trkpt lat="48.18563" lon="-3.02032">
        <ele>119.34</ele>
        <time>2015-12-27T10:15:19Z</time>
      </trkpt>
      <trkpt lat="48.18564" lon="-3.02036">
        <ele>119.34</ele>
        <time>2015-12-27T10:15:20Z</time>
      </trkpt>
      <trkpt lat="48.18566" lon="-3.02079">
        <ele>120.78</ele>
        <time>2015-12-27T10:15:33Z</time>
      </trkpt>
      <trkpt lat="48.18567" lon="-3.02117">
        <ele>123.19</ele>
        <time>2015-12-27T10:15:46Z</time>
      </trkpt>
      <trkpt lat="48.18566" lon="-3.02164">
        <ele>125.59</ele>
        <time>2015-12-27T10:16:02Z</time>
      </trkpt>
      <trkpt lat="48.18567" lon="-3.02207">
        <ele>127.03</ele>
        <time>2015-12-27T10:16:17Z</time>
      </trkpt>
      <trkpt lat="48.18566" lon="-3.02249">
        <ele>131.36</ele>
        <time>2015-12-27T10:16:32Z</time>
      </trkpt>
      <trkpt lat="48.18566" lon="-3.02284">
        <ele>134.24</ele>
        <time>2015-12-27T10:16:45Z</time>
      </trkpt>
      <trkpt lat="48.18565" lon="-3.02317">
        <ele>136.16</ele>
        <time>2015-12-27T10:16:57Z</time>
      </trkpt>
      <trkpt lat="48.18564" lon="-3.02363">
        <ele>139.53</ele>
        <time>2015-12-27T10:17:12Z</time>
      </trkpt>
      <trkpt lat="48.18565" lon="-3.02419">
        <ele>141.93</ele>
        <time>2015-12-27T10:17:31Z</time>
      </trkpt>
      <trkpt lat="48.18572" lon="-3.02465">
        <ele>144.82</ele>
        <time>2015-12-27T10:17:48Z</time>
      </trkpt>
      <trkpt lat="48.18592" lon="-3.02499">
        <ele>145.78</ele>
        <time>2015-12-27T10:18:03Z</time>
      </trkpt>
      <trkpt lat="48.1861" lon="-3.02535">
        <ele>147.7</ele>
        <time>2015-12-27T10:18:18Z</time>
      </trkpt>
      <trkpt lat="48.18628" lon="-3.02573">
        <ele>149.14</ele>
        <time>2015-12-27T10:18:34Z</time>
      </trkpt>
      <trkpt lat="48.18642" lon="-3.02599">
        <ele>151.54</ele>
        <time>2015-12-27T10:18:48Z</time>
      </trkpt>
      <trkpt lat="48.18655" lon="-3.02616">
        <ele>155.39</ele>
        <time>2015-12-27T10:19:01Z</time>
      </trkpt>
      <trkpt lat="48.18662" lon="-3.02619">
        <ele>156.83</ele>
        <time>2015-12-27T10:19:06Z</time>
      </trkpt>
      <trkpt lat="48.18663" lon="-3.02618">
        <ele>157.31</ele>
        <time>2015-12-27T10:19:07Z</time>
      </trkpt>
      <trkpt lat="48.18664" lon="-3.02618">
        <ele>157.31</ele>
        <time>2015-12-27T10:19:08Z</time>
      </trkpt>
      <trkpt lat="48.18665" lon="-3.02618">
        <ele>157.31</ele>
        <time>2015-12-27T10:19:09Z</time>
      </trkpt>
      <trkpt lat="48.18667" lon="-3.02617">
        <ele>157.31</ele>
        <time>2015-12-27T10:19:10Z</time>
      </trkpt>
      <trkpt lat="48.18668" lon="-3.02617">
        <ele>157.79</ele>
        <time>2015-12-27T10:19:11Z</time>
      </trkpt>
      <trkpt lat="48.1867" lon="-3.02617">
        <ele>157.79</ele>
        <time>2015-12-27T10:19:12Z</time>
      </trkpt>
      <trkpt lat="48.18671" lon="-3.02617">
        <ele>157.79</ele>
        <time>2015-12-27T10:19:13Z</time>
      </trkpt>
      <trkpt lat="48.18673" lon="-3.02617">
        <ele>157.79</ele>
        <time>2015-12-27T10:19:14Z</time>
      </trkpt>
      <trkpt lat="48.18695" lon="-3.02614">
        <ele>160.68</ele>
        <time>2015-12-27T10:19:30Z</time>
      </trkpt>
      <trkpt lat="48.18697" lon="-3.02614">
        <ele>160.68</ele>
        <time>2015-12-27T10:19:31Z</time>
      </trkpt>
      <trkpt lat="48.18698" lon="-3.02614">
        <ele>161.16</ele>
        <time>2015-12-27T10:19:32Z</time>
      </trkpt>
      <trkpt lat="48.187" lon="-3.02613">
        <ele>161.16</ele>
        <time>2015-12-27T10:19:33Z</time>
      </trkpt>
      <trkpt lat="48.18701" lon="-3.02613">
        <ele>160.68</ele>
        <time>2015-12-27T10:19:34Z</time>
      </trkpt>
      <trkpt lat="48.18703" lon="-3.02613">
        <ele>160.68</ele>
        <time>2015-12-27T10:19:35Z</time>
      </trkpt>
      <trkpt lat="48.18704" lon="-3.02613">
        <ele>160.68</ele>
        <time>2015-12-27T10:19:36Z</time>
      </trkpt>
      <trkpt lat="48.18706" lon="-3.02612">
        <ele>161.16</ele>
        <time>2015-12-27T10:19:37Z</time>
      </trkpt>
      <trkpt lat="48.18707" lon="-3.02612">
        <ele>161.16</ele>
        <time>2015-12-27T10:19:38Z</time>
      </trkpt>
      <trkpt lat="48.18709" lon="-3.02613">
        <ele>161.16</ele>
        <time>2015-12-27T10:19:39Z</time>
      </trkpt>
      <trkpt lat="48.1871" lon="-3.02614">
        <ele>161.64</ele>
        <time>2015-12-27T10:19:40Z</time>
      </trkpt>
      <trkpt lat="48.18711" lon="-3.02613">
        <ele>161.64</ele>
        <time>2015-12-27T10:19:41Z</time>
      </trkpt>
      <trkpt lat="48.18718" lon="-3.02614">
        <ele>162.6</ele>
        <time>2015-12-27T10:19:46Z</time>
      </trkpt>
      <trkpt lat="48.18719" lon="-3.02615">
        <ele>163.08</ele>
        <time>2015-12-27T10:19:47Z</time>
      </trkpt>
      <trkpt lat="48.18727" lon="-3.02617">
        <ele>164.52</ele>
        <time>2015-12-27T10:19:53Z</time>
      </trkpt>
      <trkpt lat="48.18729" lon="-3.02618">
        <ele>165</ele>
        <time>2015-12-27T10:19:54Z</time>
      </trkpt>
      <trkpt lat="48.1873" lon="-3.02618">
        <ele>165.48</ele>
        <time>2015-12-27T10:19:55Z</time>
      </trkpt>
      <trkpt lat="48.18731" lon="-3.02619">
        <ele>165.48</ele>
        <time>2015-12-27T10:19:56Z</time>
      </trkpt>
      <trkpt lat="48.18733" lon="-3.0262">
        <ele>165.48</ele>
        <time>2015-12-27T10:19:57Z</time>
      </trkpt>
      <trkpt lat="48.18734" lon="-3.02621">
        <ele>165.96</ele>
        <time>2015-12-27T10:19:58Z</time>
      </trkpt>
      <trkpt lat="48.18735" lon="-3.02621">
        <ele>166.45</ele>
        <time>2015-12-27T10:19:59Z</time>
      </trkpt>
      <trkpt lat="48.18737" lon="-3.02621">
        <ele>166.45</ele>
        <time>2015-12-27T10:20:00Z</time>
      </trkpt>
      <trkpt lat="48.18756" lon="-3.0263">
        <ele>169.33</ele>
        <time>2015-12-27T10:20:15Z</time>
      </trkpt>
      <trkpt lat="48.18762" lon="-3.02632">
        <ele>170.29</ele>
        <time>2015-12-27T10:20:19Z</time>
      </trkpt>
      <trkpt lat="48.18779" lon="-3.02641">
        <ele>174.14</ele>
        <time>2015-12-27T10:20:33Z</time>
      </trkpt>
      <trkpt lat="48.1878" lon="-3.02642">
        <ele>174.62</ele>
        <time>2015-12-27T10:20:34Z</time>
      </trkpt>
      <trkpt lat="48.18781" lon="-3.02643">
        <ele>174.62</ele>
        <time>2015-12-27T10:20:35Z</time>
      </trkpt>
      <trkpt lat="48.18782" lon="-3.02644">
        <ele>174.62</ele>
        <time>2015-12-27T10:20:36Z</time>
      </trkpt>
      <trkpt lat="48.18783" lon="-3.02645">
        <ele>174.62</ele>
        <time>2015-12-27T10:20:37Z</time>
      </trkpt>
      <trkpt lat="48.18784" lon="-3.02645">
        <ele>174.62</ele>
        <time>2015-12-27T10:20:38Z</time>
      </trkpt>
      <trkpt lat="48.18787" lon="-3.02646">
        <ele>175.58</ele>
        <time>2015-12-27T10:20:40Z</time>
      </trkpt>
      <trkpt lat="48.18788" lon="-3.02646">
        <ele>175.58</ele>
        <time>2015-12-27T10:20:41Z</time>
      </trkpt>
      <trkpt lat="48.18789" lon="-3.02646">
        <ele>176.06</ele>
        <time>2015-12-27T10:20:42Z</time>
      </trkpt>
      <trkpt lat="48.18806" lon="-3.0265">
        <ele>177.5</ele>
        <time>2015-12-27T10:20:55Z</time>
      </trkpt>
      <trkpt lat="48.18817" lon="-3.02653">
        <ele>181.35</ele>
        <time>2015-12-27T10:21:03Z</time>
      </trkpt>
      <trkpt lat="48.18818" lon="-3.02653">
        <ele>181.35</ele>
        <time>2015-12-27T10:21:04Z</time>
      </trkpt>
      <trkpt lat="48.1882" lon="-3.02653">
        <ele>181.35</ele>
        <time>2015-12-27T10:21:05Z</time>
      </trkpt>
      <trkpt lat="48.18823" lon="-3.02653">
        <ele>180.87</ele>
        <time>2015-12-27T10:21:07Z</time>
      </trkpt>
      <trkpt lat="48.18824" lon="-3.02652">
        <ele>180.87</ele>
        <time>2015-12-27T10:21:08Z</time>
      </trkpt>
      <trkpt lat="48.18826" lon="-3.02652">
        <ele>181.35</ele>
        <time>2015-12-27T10:21:09Z</time>
      </trkpt>
      <trkpt lat="48.18856" lon="-3.02662">
        <ele>181.83</ele>
        <time>2015-12-27T10:21:25Z</time>
      </trkpt>
      <trkpt lat="48.1887" lon="-3.02672">
        <ele>183.75</ele>
        <time>2015-12-27T10:21:36Z</time>
      </trkpt>
      <trkpt lat="48.18897" lon="-3.02688">
        <ele>184.23</ele>
        <time>2015-12-27T10:21:50Z</time>
      </trkpt>
      <trkpt lat="48.18912" lon="-3.027">
        <ele>184.23</ele>
        <time>2015-12-27T10:21:58Z</time>
      </trkpt>
      <trkpt lat="48.18919" lon="-3.02709">
        <ele>184.71</ele>
        <time>2015-12-27T10:22:03Z</time>
      </trkpt>
      <trkpt lat="48.18934" lon="-3.02729">
        <ele>189.04</ele>
        <time>2015-12-27T10:22:17Z</time>
      </trkpt>
      <trkpt lat="48.18936" lon="-3.02733">
        <ele>189.04</ele>
        <time>2015-12-27T10:22:19Z</time>
      </trkpt>
      <trkpt lat="48.18955" lon="-3.02768">
        <ele>186.15</ele>
        <time>2015-12-27T10:22:35Z</time>
      </trkpt>
      <trkpt lat="48.1897" lon="-3.02786">
        <ele>187.11</ele>
        <time>2015-12-27T10:22:47Z</time>
      </trkpt>
      <trkpt lat="48.18989" lon="-3.0281">
        <ele>188.56</ele>
        <time>2015-12-27T10:23:00Z</time>
      </trkpt>
      <trkpt lat="48.19007" lon="-3.02833">
        <ele>190</ele>
        <time>2015-12-27T10:23:13Z</time>
      </trkpt>
      <trkpt lat="48.19007" lon="-3.02881">
        <ele>191.92</ele>
        <time>2015-12-27T10:23:31Z</time>
      </trkpt>
      <trkpt lat="48.19004" lon="-3.02926">
        <ele>194.8</ele>
        <time>2015-12-27T10:23:47Z</time>
      </trkpt>
      <trkpt lat="48.19001" lon="-3.02981">
        <ele>196.73</ele>
        <time>2015-12-27T10:24:06Z</time>
      </trkpt>
      <trkpt lat="48.18998" lon="-3.03033">
        <ele>196.25</ele>
        <time>2015-12-27T10:24:22Z</time>
      </trkpt>
      <trkpt lat="48.18987" lon="-3.03093">
        <ele>196.73</ele>
        <time>2015-12-27T10:24:38Z</time>
      </trkpt>
      <trkpt lat="48.18975" lon="-3.03109">
        <ele>197.21</ele>
        <time>2015-12-27T10:24:45Z</time>
      </trkpt>
      <trkpt lat="48.18973" lon="-3.03111">
        <ele>197.21</ele>
        <time>2015-12-27T10:24:46Z</time>
      </trkpt>
      <trkpt lat="48.18971" lon="-3.03113">
        <ele>197.69</ele>
        <time>2015-12-27T10:24:47Z</time>
      </trkpt>
      <trkpt lat="48.18969" lon="-3.03116">
        <ele>197.69</ele>
        <time>2015-12-27T10:24:48Z</time>
      </trkpt>
      <trkpt lat="48.18968" lon="-3.03119">
        <ele>197.69</ele>
        <time>2015-12-27T10:24:49Z</time>
      </trkpt>
      <trkpt lat="48.18967" lon="-3.03122">
        <ele>198.17</ele>
        <time>2015-12-27T10:24:50Z</time>
      </trkpt>
      <trkpt lat="48.18966" lon="-3.03124">
        <ele>198.17</ele>
        <time>2015-12-27T10:24:51Z</time>
      </trkpt>
      <trkpt lat="48.18965" lon="-3.03127">
        <ele>198.17</ele>
        <time>2015-12-27T10:24:52Z</time>
      </trkpt>
      <trkpt lat="48.18949" lon="-3.03158">
        <ele>200.09</ele>
        <time>2015-12-27T10:25:04Z</time>
      </trkpt>
      <trkpt lat="48.18943" lon="-3.03165">
        <ele>200.57</ele>
        <time>2015-12-27T10:25:08Z</time>
      </trkpt>
      <trkpt lat="48.18941" lon="-3.03168">
        <ele>200.57</ele>
        <time>2015-12-27T10:25:09Z</time>
      </trkpt>
      <trkpt lat="48.18924" lon="-3.03192">
        <ele>206.34</ele>
        <time>2015-12-27T10:25:24Z</time>
      </trkpt>
      <trkpt lat="48.18907" lon="-3.03205">
        <ele>211.15</ele>
        <time>2015-12-27T10:25:38Z</time>
      </trkpt>
      <trkpt lat="48.18893" lon="-3.03208">
        <ele>214.03</ele>
        <time>2015-12-27T10:25:49Z</time>
      </trkpt>
      <trkpt lat="48.18892" lon="-3.03207">
        <ele>214.03</ele>
        <time>2015-12-27T10:25:50Z</time>
      </trkpt>
      <trkpt lat="48.18891" lon="-3.03206">
        <ele>214.51</ele>
        <time>2015-12-27T10:25:51Z</time>
      </trkpt>
      <trkpt lat="48.1889" lon="-3.03206">
        <ele>214.99</ele>
        <time>2015-12-27T10:25:52Z</time>
      </trkpt>
      <trkpt lat="48.18889" lon="-3.03205">
        <ele>215.47</ele>
        <time>2015-12-27T10:25:53Z</time>
      </trkpt>
      <trkpt lat="48.18888" lon="-3.03204">
        <ele>215.95</ele>
        <time>2015-12-27T10:25:54Z</time>
      </trkpt>
      <trkpt lat="48.18887" lon="-3.03202">
        <ele>215.95</ele>
        <time>2015-12-27T10:25:55Z</time>
      </trkpt>
      <trkpt lat="48.18887" lon="-3.032">
        <ele>216.43</ele>
        <time>2015-12-27T10:25:56Z</time>
      </trkpt>
      <trkpt lat="48.18886" lon="-3.03198">
        <ele>216.43</ele>
        <time>2015-12-27T10:25:57Z</time>
      </trkpt>
      <trkpt lat="48.18885" lon="-3.03196">
        <ele>216.91</ele>
        <time>2015-12-27T10:25:58Z</time>
      </trkpt>
      <trkpt lat="48.18872" lon="-3.03173">
        <ele>219.8</ele>
        <time>2015-12-27T10:26:15Z</time>
      </trkpt>
      <trkpt lat="48.18868" lon="-3.03168">
        <ele>220.28</ele>
        <time>2015-12-27T10:26:19Z</time>
      </trkpt>
      <trkpt lat="48.18868" lon="-3.03167">
        <ele>220.28</ele>
        <time>2015-12-27T10:26:20Z</time>
      </trkpt>
      <trkpt lat="48.18853" lon="-3.03148">
        <ele>222.2</ele>
        <time>2015-12-27T10:26:36Z</time>
      </trkpt>
      <trkpt lat="48.18842" lon="-3.0313">
        <ele>222.2</ele>
        <time>2015-12-27T10:26:52Z</time>
      </trkpt>
      <trkpt lat="48.1884" lon="-3.03128">
        <ele>217.88</ele>
        <time>2015-12-27T10:27:15Z</time>
      </trkpt>
      <trkpt lat="48.18839" lon="-3.0313">
        <ele>218.36</ele>
        <time>2015-12-27T10:27:17Z</time>
      </trkpt>
      <trkpt lat="48.18838" lon="-3.03135">
        <ele>218.84</ele>
        <time>2015-12-27T10:27:20Z</time>
      </trkpt>
      <trkpt lat="48.18834" lon="-3.03172">
        <ele>218.84</ele>
        <time>2015-12-27T10:27:36Z</time>
      </trkpt>
      <trkpt lat="48.18821" lon="-3.03204">
        <ele>218.36</ele>
        <time>2015-12-27T10:27:50Z</time>
      </trkpt>
      <trkpt lat="48.18812" lon="-3.03237">
        <ele>214.99</ele>
        <time>2015-12-27T10:28:03Z</time>
      </trkpt>
      <trkpt lat="48.18804" lon="-3.03266">
        <ele>214.03</ele>
        <time>2015-12-27T10:28:14Z</time>
      </trkpt>
      <trkpt lat="48.18798" lon="-3.03318">
        <ele>215.95</ele>
        <time>2015-12-27T10:28:24Z</time>
      </trkpt>
      <trkpt lat="48.18798" lon="-3.03333">
        <ele>216.91</ele>
        <time>2015-12-27T10:28:27Z</time>
      </trkpt>
      <trkpt lat="48.18783" lon="-3.0338">
        <ele>219.8</ele>
        <time>2015-12-27T10:28:35Z</time>
      </trkpt>
      <trkpt lat="48.18765" lon="-3.03426">
        <ele>222.68</ele>
        <time>2015-12-27T10:28:44Z</time>
      </trkpt>
      <trkpt lat="48.18749" lon="-3.03426">
        <ele>220.76</ele>
        <time>2015-12-27T10:28:52Z</time>
      </trkpt>
      <trkpt lat="48.18737" lon="-3.03418">
        <ele>221.24</ele>
        <time>2015-12-27T10:28:59Z</time>
      </trkpt>
      <trkpt lat="48.1873" lon="-3.03398">
        <ele>223.64</ele>
        <time>2015-12-27T10:29:11Z</time>
      </trkpt>
      <trkpt lat="48.18729" lon="-3.03392">
        <ele>223.64</ele>
        <time>2015-12-27T10:29:15Z</time>
      </trkpt>
      <trkpt lat="48.18714" lon="-3.03365">
        <ele>223.64</ele>
        <time>2015-12-27T10:29:27Z</time>
      </trkpt>
      <trkpt lat="48.18711" lon="-3.0336">
        <ele>224.12</ele>
        <time>2015-12-27T10:29:29Z</time>
      </trkpt>
      <trkpt lat="48.18702" lon="-3.03332">
        <ele>227.97</ele>
        <time>2015-12-27T10:29:40Z</time>
      </trkpt>
      <trkpt lat="48.18692" lon="-3.03318">
        <ele>229.89</ele>
        <time>2015-12-27T10:29:46Z</time>
      </trkpt>
      <trkpt lat="48.18681" lon="-3.03277">
        <ele>231.81</ele>
        <time>2015-12-27T10:29:55Z</time>
      </trkpt>
      <trkpt lat="48.18675" lon="-3.03247">
        <ele>232.78</ele>
        <time>2015-12-27T10:30:01Z</time>
      </trkpt>
      <trkpt lat="48.18666" lon="-3.03183">
        <ele>231.33</ele>
        <time>2015-12-27T10:30:10Z</time>
      </trkpt>
      <trkpt lat="48.1866" lon="-3.03169">
        <ele>230.85</ele>
        <time>2015-12-27T10:30:12Z</time>
      </trkpt>
      <trkpt lat="48.18655" lon="-3.03151">
        <ele>230.37</ele>
        <time>2015-12-27T10:30:14Z</time>
      </trkpt>
      <trkpt lat="48.18651" lon="-3.03137">
        <ele>229.41</ele>
        <time>2015-12-27T10:30:16Z</time>
      </trkpt>
      <trkpt lat="48.18638" lon="-3.03086">
        <ele>225.09</ele>
        <time>2015-12-27T10:30:24Z</time>
      </trkpt>
      <trkpt lat="48.18642" lon="-3.03079">
        <ele>225.09</ele>
        <time>2015-12-27T10:30:31Z</time>
      </trkpt>
      <trkpt lat="48.18666" lon="-3.03052">
        <ele>225.09</ele>
        <time>2015-12-27T10:30:42Z</time>
      </trkpt>
      <trkpt lat="48.18698" lon="-3.0301">
        <ele>224.61</ele>
        <time>2015-12-27T10:30:54Z</time>
      </trkpt>
      <trkpt lat="48.18705" lon="-3.02999">
        <ele>224.12</ele>
        <time>2015-12-27T10:30:57Z</time>
      </trkpt>
      <trkpt lat="48.18706" lon="-3.02995">
        <ele>223.16</ele>
        <time>2015-12-27T10:30:58Z</time>
      </trkpt>
      <trkpt lat="48.18702" lon="-3.02989">
        <ele>221.24</ele>
        <time>2015-12-27T10:31:00Z</time>
      </trkpt>
      <trkpt lat="48.18698" lon="-3.02987">
        <ele>219.8</ele>
        <time>2015-12-27T10:31:01Z</time>
      </trkpt>
      <trkpt lat="48.18695" lon="-3.02985">
        <ele>218.84</ele>
        <time>2015-12-27T10:31:02Z</time>
      </trkpt>
      <trkpt lat="48.18683" lon="-3.02982">
        <ele>215.47</ele>
        <time>2015-12-27T10:31:05Z</time>
      </trkpt>
      <trkpt lat="48.18678" lon="-3.02975">
        <ele>213.07</ele>
        <time>2015-12-27T10:31:08Z</time>
      </trkpt>
      <trkpt lat="48.18674" lon="-3.02971">
        <ele>211.15</ele>
        <time>2015-12-27T10:31:10Z</time>
      </trkpt>
      <trkpt lat="48.18659" lon="-3.02932">
        <ele>202.01</ele>
        <time>2015-12-27T10:31:18Z</time>
      </trkpt>
      <trkpt lat="48.18657" lon="-3.02925">
        <ele>201.05</ele>
        <time>2015-12-27T10:31:19Z</time>
      </trkpt>
      <trkpt lat="48.18641" lon="-3.02882">
        <ele>198.17</ele>
        <time>2015-12-27T10:31:28Z</time>
      </trkpt>
      <trkpt lat="48.18626" lon="-3.02863">
        <ele>194.32</ele>
        <time>2015-12-27T10:31:35Z</time>
      </trkpt>
      <trkpt lat="48.18613" lon="-3.0286">
        <ele>189.04</ele>
        <time>2015-12-27T10:31:49Z</time>
      </trkpt>
      <trkpt lat="48.18604" lon="-3.02856">
        <ele>189.04</ele>
        <time>2015-12-27T10:31:52Z</time>
      </trkpt>
      <trkpt lat="48.18599" lon="-3.02845">
        <ele>185.19</ele>
        <time>2015-12-27T10:32:01Z</time>
      </trkpt>
      <trkpt lat="48.18597" lon="-3.02849">
        <ele>186.15</ele>
        <time>2015-12-27T10:32:14Z</time>
      </trkpt>
      <trkpt lat="48.18593" lon="-3.02848">
        <ele>188.08</ele>
        <time>2015-12-27T10:32:19Z</time>
      </trkpt>
      <trkpt lat="48.18585" lon="-3.02849">
        <ele>189.04</ele>
        <time>2015-12-27T10:32:24Z</time>
      </trkpt>
      <trkpt lat="48.18559" lon="-3.02843">
        <ele>189.04</ele>
        <time>2015-12-27T10:32:33Z</time>
      </trkpt>
      <trkpt lat="48.18557" lon="-3.02843">
        <ele>189.04</ele>
        <time>2015-12-27T10:32:34Z</time>
      </trkpt>
      <trkpt lat="48.18541" lon="-3.02833">
        <ele>187.11</ele>
        <time>2015-12-27T10:32:39Z</time>
      </trkpt>
      <trkpt lat="48.18533" lon="-3.02824">
        <ele>185.67</ele>
        <time>2015-12-27T10:32:43Z</time>
      </trkpt>
      <trkpt lat="48.18515" lon="-3.02812">
        <ele>182.79</ele>
        <time>2015-12-27T10:32:48Z</time>
      </trkpt>
      <trkpt lat="48.18492" lon="-3.028">
        <ele>178.46</ele>
        <time>2015-12-27T10:32:57Z</time>
      </trkpt>
      <trkpt lat="48.18488" lon="-3.02797">
        <ele>177.98</ele>
        <time>2015-12-27T10:33:05Z</time>
      </trkpt>
      <trkpt lat="48.18488" lon="-3.02793">
        <ele>177.98</ele>
        <time>2015-12-27T10:33:07Z</time>
      </trkpt>
      <trkpt lat="48.18483" lon="-3.02777">
        <ele>176.06</ele>
        <time>2015-12-27T10:33:12Z</time>
      </trkpt>
      <trkpt lat="48.18483" lon="-3.02772">
        <ele>175.1</ele>
        <time>2015-12-27T10:33:13Z</time>
      </trkpt>
      <trkpt lat="48.18482" lon="-3.02769">
        <ele>174.14</ele>
        <time>2015-12-27T10:33:14Z</time>
      </trkpt>
      <trkpt lat="48.18474" lon="-3.02767">
        <ele>169.33</ele>
        <time>2015-12-27T10:33:19Z</time>
      </trkpt>
      <trkpt lat="48.18471" lon="-3.0276">
        <ele>166.93</ele>
        <time>2015-12-27T10:33:22Z</time>
      </trkpt>
      <trkpt lat="48.1847" lon="-3.02753">
        <ele>165.96</ele>
        <time>2015-12-27T10:33:23Z</time>
      </trkpt>
      <trkpt lat="48.18468" lon="-3.02745">
        <ele>165</ele>
        <time>2015-12-27T10:33:24Z</time>
      </trkpt>
      <trkpt lat="48.18463" lon="-3.02731">
        <ele>162.12</ele>
        <time>2015-12-27T10:33:30Z</time>
      </trkpt>
      <trkpt lat="48.1846" lon="-3.02733">
        <ele>162.6</ele>
        <time>2015-12-27T10:33:41Z</time>
      </trkpt>
      <trkpt lat="48.1846" lon="-3.02735">
        <ele>161.16</ele>
        <time>2015-12-27T10:33:53Z</time>
      </trkpt>
      <trkpt lat="48.18464" lon="-3.02743">
        <ele>161.16</ele>
        <time>2015-12-27T10:34:01Z</time>
      </trkpt>
      <trkpt lat="48.18464" lon="-3.02752">
        <ele>161.64</ele>
        <time>2015-12-27T10:34:07Z</time>
      </trkpt>
      <trkpt lat="48.18467" lon="-3.02775">
        <ele>161.16</ele>
        <time>2015-12-27T10:34:20Z</time>
      </trkpt>
      <trkpt lat="48.18467" lon="-3.02787">
        <ele>161.64</ele>
        <time>2015-12-27T10:34:25Z</time>
      </trkpt>
      <trkpt lat="48.18466" lon="-3.02797">
        <ele>162.12</ele>
        <time>2015-12-27T10:34:29Z</time>
      </trkpt>
      <trkpt lat="48.18462" lon="-3.02802">
        <ele>167.89</ele>
        <time>2015-12-27T10:34:42Z</time>
      </trkpt>
      <trkpt lat="48.18461" lon="-3.02804">
        <ele>170.77</ele>
        <time>2015-12-27T10:35:03Z</time>
      </trkpt>
      <trkpt lat="48.18459" lon="-3.02809">
        <ele>170.77</ele>
        <time>2015-12-27T10:35:26Z</time>
      </trkpt>
      <trkpt lat="48.18451" lon="-3.0282">
        <ele>171.73</ele>
        <time>2015-12-27T10:35:33Z</time>
      </trkpt>
      <trkpt lat="48.1845" lon="-3.02831">
        <ele>173.17</ele>
        <time>2015-12-27T10:35:39Z</time>
      </trkpt>
      <trkpt lat="48.18451" lon="-3.02843">
        <ele>173.66</ele>
        <time>2015-12-27T10:35:46Z</time>
      </trkpt>
      <trkpt lat="48.18453" lon="-3.02851">
        <ele>173.17</ele>
        <time>2015-12-27T10:35:50Z</time>
      </trkpt>
      <trkpt lat="48.18457" lon="-3.02858">
        <ele>171.73</ele>
        <time>2015-12-27T10:35:56Z</time>
      </trkpt>
      <trkpt lat="48.18461" lon="-3.02863">
        <ele>171.73</ele>
        <time>2015-12-27T10:36:00Z</time>
      </trkpt>
      <trkpt lat="48.18475" lon="-3.02869">
        <ele>173.66</ele>
        <time>2015-12-27T10:36:12Z</time>
      </trkpt>
      <trkpt lat="48.18488" lon="-3.02874">
        <ele>180.87</ele>
        <time>2015-12-27T10:36:25Z</time>
      </trkpt>
      <trkpt lat="48.18491" lon="-3.02874">
        <ele>182.31</ele>
        <time>2015-12-27T10:36:28Z</time>
      </trkpt>
      <trkpt lat="48.18502" lon="-3.02881">
        <ele>188.08</ele>
        <time>2015-12-27T10:36:40Z</time>
      </trkpt>
      <trkpt lat="48.18505" lon="-3.02889">
        <ele>189.04</ele>
        <time>2015-12-27T10:36:44Z</time>
      </trkpt>
      <trkpt lat="48.18508" lon="-3.02916">
        <ele>185.67</ele>
        <time>2015-12-27T10:37:00Z</time>
      </trkpt>
      <trkpt lat="48.18506" lon="-3.02919">
        <ele>185.19</ele>
        <time>2015-12-27T10:37:03Z</time>
      </trkpt>
      <trkpt lat="48.18499" lon="-3.02924">
        <ele>185.67</ele>
        <time>2015-12-27T10:37:08Z</time>
      </trkpt>
      <trkpt lat="48.18488" lon="-3.02936">
        <ele>186.15</ele>
        <time>2015-12-27T10:37:13Z</time>
      </trkpt>
      <trkpt lat="48.18483" lon="-3.02941">
        <ele>187.11</ele>
        <time>2015-12-27T10:37:24Z</time>
      </trkpt>
      <trkpt lat="48.18483" lon="-3.0294">
        <ele>186.15</ele>
        <time>2015-12-27T10:37:32Z</time>
      </trkpt>
      <trkpt lat="48.18487" lon="-3.02935">
        <ele>186.15</ele>
        <time>2015-12-27T10:37:37Z</time>
      </trkpt>
      <trkpt lat="48.18493" lon="-3.0293">
        <ele>186.63</ele>
        <time>2015-12-27T10:37:45Z</time>
      </trkpt>
      <trkpt lat="48.18498" lon="-3.02927">
        <ele>188.56</ele>
        <time>2015-12-27T10:37:49Z</time>
      </trkpt>
      <trkpt lat="48.18514" lon="-3.02922">
        <ele>195.77</ele>
        <time>2015-12-27T10:38:02Z</time>
      </trkpt>
      <trkpt lat="48.18516" lon="-3.02924">
        <ele>195.77</ele>
        <time>2015-12-27T10:38:04Z</time>
      </trkpt>
      <trkpt lat="48.1852" lon="-3.02931">
        <ele>195.77</ele>
        <time>2015-12-27T10:38:09Z</time>
      </trkpt>
      <trkpt lat="48.18531" lon="-3.02939">
        <ele>197.69</ele>
        <time>2015-12-27T10:38:22Z</time>
      </trkpt>
      <trkpt lat="48.18536" lon="-3.02939">
        <ele>199.61</ele>
        <time>2015-12-27T10:38:32Z</time>
      </trkpt>
      <trkpt lat="48.18533" lon="-3.02937">
        <ele>199.61</ele>
        <time>2015-12-27T10:38:35Z</time>
      </trkpt>
      <trkpt lat="48.18528" lon="-3.0295">
        <ele>198.65</ele>
        <time>2015-12-27T10:38:46Z</time>
      </trkpt>
      <trkpt lat="48.18521" lon="-3.02965">
        <ele>201.05</ele>
        <time>2015-12-27T10:38:56Z</time>
      </trkpt>
      <trkpt lat="48.18513" lon="-3.02973">
        <ele>201.53</ele>
        <time>2015-12-27T10:39:02Z</time>
      </trkpt>
      <trkpt lat="48.18496" lon="-3.03004">
        <ele>204.9</ele>
        <time>2015-12-27T10:39:17Z</time>
      </trkpt>
      <trkpt lat="48.18491" lon="-3.03012">
        <ele>207.3</ele>
        <time>2015-12-27T10:39:21Z</time>
      </trkpt>
      <trkpt lat="48.18489" lon="-3.03019">
        <ele>207.3</ele>
        <time>2015-12-27T10:39:23Z</time>
      </trkpt>
      <trkpt lat="48.18489" lon="-3.03026">
        <ele>207.78</ele>
        <time>2015-12-27T10:39:25Z</time>
      </trkpt>
      <trkpt lat="48.18483" lon="-3.03051">
        <ele>206.34</ele>
        <time>2015-12-27T10:39:31Z</time>
      </trkpt>
      <trkpt lat="48.18465" lon="-3.03087">
        <ele>202.98</ele>
        <time>2015-12-27T10:39:39Z</time>
      </trkpt>
      <trkpt lat="48.18468" lon="-3.03105">
        <ele>200.57</ele>
        <time>2015-12-27T10:39:44Z</time>
      </trkpt>
      <trkpt lat="48.18472" lon="-3.03127">
        <ele>198.17</ele>
        <time>2015-12-27T10:39:49Z</time>
      </trkpt>
      <trkpt lat="48.18478" lon="-3.03145">
        <ele>195.77</ele>
        <time>2015-12-27T10:39:54Z</time>
      </trkpt>
      <trkpt lat="48.18483" lon="-3.03175">
        <ele>194.32</ele>
        <time>2015-12-27T10:40:02Z</time>
      </trkpt>
      <trkpt lat="48.18486" lon="-3.03185">
        <ele>194.32</ele>
        <time>2015-12-27T10:40:05Z</time>
      </trkpt>
      <trkpt lat="48.18488" lon="-3.03205">
        <ele>194.8</ele>
        <time>2015-12-27T10:40:10Z</time>
      </trkpt>
      <trkpt lat="48.18499" lon="-3.03256">
        <ele>195.77</ele>
        <time>2015-12-27T10:40:23Z</time>
      </trkpt>
      <trkpt lat="48.18503" lon="-3.03264">
        <ele>198.65</ele>
        <time>2015-12-27T10:40:28Z</time>
      </trkpt>
      <trkpt lat="48.18511" lon="-3.03292">
        <ele>202.49</ele>
        <time>2015-12-27T10:40:40Z</time>
      </trkpt>
      <trkpt lat="48.18517" lon="-3.03312">
        <ele>200.09</ele>
        <time>2015-12-27T10:40:48Z</time>
      </trkpt>
      <trkpt lat="48.18528" lon="-3.03346">
        <ele>197.21</ele>
        <time>2015-12-27T10:40:59Z</time>
      </trkpt>
      <trkpt lat="48.18536" lon="-3.03374">
        <ele>193.36</ele>
        <time>2015-12-27T10:41:10Z</time>
      </trkpt>
      <trkpt lat="48.18541" lon="-3.03399">
        <ele>195.77</ele>
        <time>2015-12-27T10:41:18Z</time>
      </trkpt>
      <trkpt lat="48.18537" lon="-3.03424">
        <ele>194.8</ele>
        <time>2015-12-27T10:41:27Z</time>
      </trkpt>
      <trkpt lat="48.1854" lon="-3.03433">
        <ele>194.32</ele>
        <time>2015-12-27T10:41:30Z</time>
      </trkpt>
      <trkpt lat="48.18548" lon="-3.03467">
        <ele>191.92</ele>
        <time>2015-12-27T10:41:39Z</time>
      </trkpt>
      <trkpt lat="48.1855" lon="-3.03469">
        <ele>188.08</ele>
        <time>2015-12-27T10:41:53Z</time>
      </trkpt>
      <trkpt lat="48.18543" lon="-3.03474">
        <ele>192.4</ele>
        <time>2015-12-27T10:42:25Z</time>
      </trkpt>
      <trkpt lat="48.18547" lon="-3.03492">
        <ele>194.8</ele>
        <time>2015-12-27T10:42:51Z</time>
      </trkpt>
      <trkpt lat="48.18549" lon="-3.03511">
        <ele>194.8</ele>
        <time>2015-12-27T10:42:56Z</time>
      </trkpt>
      <trkpt lat="48.1855" lon="-3.03515">
        <ele>194.8</ele>
        <time>2015-12-27T10:42:57Z</time>
      </trkpt>
      <trkpt lat="48.1855" lon="-3.03519">
        <ele>194.32</ele>
        <time>2015-12-27T10:42:58Z</time>
      </trkpt>
      <trkpt lat="48.1855" lon="-3.03524">
        <ele>194.32</ele>
        <time>2015-12-27T10:42:59Z</time>
      </trkpt>
      <trkpt lat="48.18551" lon="-3.03528">
        <ele>194.32</ele>
        <time>2015-12-27T10:43:00Z</time>
      </trkpt>
      <trkpt lat="48.18551" lon="-3.03533">
        <ele>194.32</ele>
        <time>2015-12-27T10:43:01Z</time>
      </trkpt>
      <trkpt lat="48.18552" lon="-3.03538">
        <ele>193.84</ele>
        <time>2015-12-27T10:43:02Z</time>
      </trkpt>
      <trkpt lat="48.18552" lon="-3.03544">
        <ele>193.84</ele>
        <time>2015-12-27T10:43:03Z</time>
      </trkpt>
      <trkpt lat="48.18552" lon="-3.0355">
        <ele>193.36</ele>
        <time>2015-12-27T10:43:04Z</time>
      </trkpt>
      <trkpt lat="48.18552" lon="-3.03584">
        <ele>190.48</ele>
        <time>2015-12-27T10:43:09Z</time>
      </trkpt>
      <trkpt lat="48.18558" lon="-3.0365">
        <ele>184.71</ele>
        <time>2015-12-27T10:43:21Z</time>
      </trkpt>
      <trkpt lat="48.1857" lon="-3.03701">
        <ele>187.11</ele>
        <time>2015-12-27T10:43:34Z</time>
      </trkpt>
      <trkpt lat="48.18585" lon="-3.03742">
        <ele>189.04</ele>
        <time>2015-12-27T10:43:48Z</time>
      </trkpt>
      <trkpt lat="48.18599" lon="-3.03782">
        <ele>192.88</ele>
        <time>2015-12-27T10:44:02Z</time>
      </trkpt>
      <trkpt lat="48.18611" lon="-3.03817">
        <ele>192.88</ele>
        <time>2015-12-27T10:44:13Z</time>
      </trkpt>
      <trkpt lat="48.18618" lon="-3.03856">
        <ele>193.84</ele>
        <time>2015-12-27T10:44:24Z</time>
      </trkpt>
      <trkpt lat="48.18625" lon="-3.03874">
        <ele>194.32</ele>
        <time>2015-12-27T10:44:31Z</time>
      </trkpt>
      <trkpt lat="48.18627" lon="-3.03875">
        <ele>194.32</ele>
        <time>2015-12-27T10:44:32Z</time>
      </trkpt>
      <trkpt lat="48.18628" lon="-3.03876">
        <ele>194.32</ele>
        <time>2015-12-27T10:44:33Z</time>
      </trkpt>
      <trkpt lat="48.18639" lon="-3.03875">
        <ele>197.21</ele>
        <time>2015-12-27T10:44:44Z</time>
      </trkpt>
      <trkpt lat="48.18645" lon="-3.03873">
        <ele>199.13</ele>
        <time>2015-12-27T10:44:49Z</time>
      </trkpt>
      <trkpt lat="48.1866" lon="-3.03865">
        <ele>208.74</ele>
        <time>2015-12-27T10:45:02Z</time>
      </trkpt>
      <trkpt lat="48.18673" lon="-3.03861">
        <ele>216.91</ele>
        <time>2015-12-27T10:45:13Z</time>
      </trkpt>
      <trkpt lat="48.18685" lon="-3.03875">
        <ele>220.28</ele>
        <time>2015-12-27T10:45:27Z</time>
      </trkpt>
      <trkpt lat="48.18686" lon="-3.03877">
        <ele>219.8</ele>
        <time>2015-12-27T10:45:28Z</time>
      </trkpt>
      <trkpt lat="48.18692" lon="-3.03891">
        <ele>219.32</ele>
        <time>2015-12-27T10:45:41Z</time>
      </trkpt>
      <trkpt lat="48.18695" lon="-3.03895">
        <ele>216.43</ele>
        <time>2015-12-27T10:46:00Z</time>
      </trkpt>
      <trkpt lat="48.18694" lon="-3.03897">
        <ele>214.03</ele>
        <time>2015-12-27T10:46:24Z</time>
      </trkpt>
      <trkpt lat="48.187" lon="-3.03902">
        <ele>214.03</ele>
        <time>2015-12-27T10:46:37Z</time>
      </trkpt>
      <trkpt lat="48.18703" lon="-3.03908">
        <ele>214.03</ele>
        <time>2015-12-27T10:46:40Z</time>
      </trkpt>
      <trkpt lat="48.18705" lon="-3.03913">
        <ele>214.51</ele>
        <time>2015-12-27T10:46:43Z</time>
      </trkpt>
      <trkpt lat="48.18718" lon="-3.03933">
        <ele>213.55</ele>
        <time>2015-12-27T10:46:56Z</time>
      </trkpt>
      <trkpt lat="48.1872" lon="-3.03939">
        <ele>213.55</ele>
        <time>2015-12-27T10:46:59Z</time>
      </trkpt>
      <trkpt lat="48.18733" lon="-3.03961">
        <ele>214.99</ele>
        <time>2015-12-27T10:47:12Z</time>
      </trkpt>
      <trkpt lat="48.18734" lon="-3.03962">
        <ele>214.51</ele>
        <time>2015-12-27T10:47:13Z</time>
      </trkpt>
      <trkpt lat="48.18737" lon="-3.0397">
        <ele>214.99</ele>
        <time>2015-12-27T10:47:17Z</time>
      </trkpt>
      <trkpt lat="48.18739" lon="-3.0399">
        <ele>215.47</ele>
        <time>2015-12-27T10:47:25Z</time>
      </trkpt>
      <trkpt lat="48.1875" lon="-3.0401">
        <ele>215.47</ele>
        <time>2015-12-27T10:47:37Z</time>
      </trkpt>
      <trkpt lat="48.1876" lon="-3.04042">
        <ele>213.55</ele>
        <time>2015-12-27T10:47:48Z</time>
      </trkpt>
      <trkpt lat="48.18761" lon="-3.04045">
        <ele>213.07</ele>
        <time>2015-12-27T10:47:49Z</time>
      </trkpt>
      <trkpt lat="48.18776" lon="-3.04098">
        <ele>207.78</ele>
        <time>2015-12-27T10:48:00Z</time>
      </trkpt>
      <trkpt lat="48.18777" lon="-3.04102">
        <ele>207.3</ele>
        <time>2015-12-27T10:48:01Z</time>
      </trkpt>
      <trkpt lat="48.18806" lon="-3.04114">
        <ele>209.22</ele>
        <time>2015-12-27T10:48:13Z</time>
      </trkpt>
      <trkpt lat="48.18824" lon="-3.04135">
        <ele>210.67</ele>
        <time>2015-12-27T10:48:22Z</time>
      </trkpt>
      <trkpt lat="48.18829" lon="-3.04144">
        <ele>210.19</ele>
        <time>2015-12-27T10:48:28Z</time>
      </trkpt>
      <trkpt lat="48.18836" lon="-3.04164">
        <ele>211.15</ele>
        <time>2015-12-27T10:48:33Z</time>
      </trkpt>
      <trkpt lat="48.18867" lon="-3.04196">
        <ele>214.03</ele>
        <time>2015-12-27T10:48:44Z</time>
      </trkpt>
      <trkpt lat="48.1889" lon="-3.04197">
        <ele>215.95</ele>
        <time>2015-12-27T10:48:54Z</time>
      </trkpt>
      <trkpt lat="48.18896" lon="-3.04195">
        <ele>217.88</ele>
        <time>2015-12-27T10:49:10Z</time>
      </trkpt>
      <trkpt lat="48.18901" lon="-3.04192">
        <ele>214.99</ele>
        <time>2015-12-27T10:49:42Z</time>
      </trkpt>
      <trkpt lat="48.18902" lon="-3.04189">
        <ele>215.47</ele>
        <time>2015-12-27T10:49:45Z</time>
      </trkpt>
      <trkpt lat="48.18903" lon="-3.04189">
        <ele>215.47</ele>
        <time>2015-12-27T10:49:46Z</time>
      </trkpt>
      <trkpt lat="48.18906" lon="-3.04187">
        <ele>216.43</ele>
        <time>2015-12-27T10:49:48Z</time>
      </trkpt>
      <trkpt lat="48.18907" lon="-3.04186">
        <ele>216.91</ele>
        <time>2015-12-27T10:49:49Z</time>
      </trkpt>
      <trkpt lat="48.18909" lon="-3.04185">
        <ele>217.88</ele>
        <time>2015-12-27T10:49:50Z</time>
      </trkpt>
      <trkpt lat="48.18915" lon="-3.04178">
        <ele>221.72</ele>
        <time>2015-12-27T10:49:55Z</time>
      </trkpt>
      <trkpt lat="48.18916" lon="-3.04176">
        <ele>222.68</ele>
        <time>2015-12-27T10:49:56Z</time>
      </trkpt>
      <trkpt lat="48.18928" lon="-3.04157">
        <ele>228.93</ele>
        <time>2015-12-27T10:50:06Z</time>
      </trkpt>
      <trkpt lat="48.18931" lon="-3.04153">
        <ele>228.93</ele>
        <time>2015-12-27T10:50:09Z</time>
      </trkpt>
      <trkpt lat="48.18933" lon="-3.04151">
        <ele>228.45</ele>
        <time>2015-12-27T10:50:10Z</time>
      </trkpt>
      <trkpt lat="48.18935" lon="-3.04149">
        <ele>227.97</ele>
        <time>2015-12-27T10:50:11Z</time>
      </trkpt>
      <trkpt lat="48.18936" lon="-3.04147">
        <ele>227.49</ele>
        <time>2015-12-27T10:50:12Z</time>
      </trkpt>
      <trkpt lat="48.18939" lon="-3.04144">
        <ele>227.01</ele>
        <time>2015-12-27T10:50:13Z</time>
      </trkpt>
      <trkpt lat="48.1894" lon="-3.04142">
        <ele>227.01</ele>
        <time>2015-12-27T10:50:14Z</time>
      </trkpt>
      <trkpt lat="48.18943" lon="-3.0414">
        <ele>226.53</ele>
        <time>2015-12-27T10:50:15Z</time>
      </trkpt>
      <trkpt lat="48.18947" lon="-3.04137">
        <ele>226.05</ele>
        <time>2015-12-27T10:50:16Z</time>
      </trkpt>
      <trkpt lat="48.18966" lon="-3.04124">
        <ele>226.53</ele>
        <time>2015-12-27T10:50:21Z</time>
      </trkpt>
      <trkpt lat="48.19036" lon="-3.04093">
        <ele>222.2</ele>
        <time>2015-12-27T10:50:32Z</time>
      </trkpt>
      <trkpt lat="48.19052" lon="-3.04084">
        <ele>218.84</ele>
        <time>2015-12-27T10:50:36Z</time>
      </trkpt>
      <trkpt lat="48.19054" lon="-3.04085">
        <ele>218.84</ele>
        <time>2015-12-27T10:50:37Z</time>
      </trkpt>
      <trkpt lat="48.19056" lon="-3.04086">
        <ele>218.36</ele>
        <time>2015-12-27T10:50:38Z</time>
      </trkpt>
      <trkpt lat="48.19057" lon="-3.04088">
        <ele>217.88</ele>
        <time>2015-12-27T10:50:39Z</time>
      </trkpt>
      <trkpt lat="48.19059" lon="-3.0409">
        <ele>217.88</ele>
        <time>2015-12-27T10:50:40Z</time>
      </trkpt>
      <trkpt lat="48.19061" lon="-3.04092">
        <ele>217.4</ele>
        <time>2015-12-27T10:50:41Z</time>
      </trkpt>
      <trkpt lat="48.19079" lon="-3.04123">
        <ele>214.99</ele>
        <time>2015-12-27T10:50:52Z</time>
      </trkpt>
      <trkpt lat="48.19099" lon="-3.04166">
        <ele>212.59</ele>
        <time>2015-12-27T10:51:04Z</time>
      </trkpt>
      <trkpt lat="48.19123" lon="-3.04202">
        <ele>213.07</ele>
        <time>2015-12-27T10:51:16Z</time>
      </trkpt>
      <trkpt lat="48.19146" lon="-3.04244">
        <ele>209.22</ele>
        <time>2015-12-27T10:51:28Z</time>
      </trkpt>
      <trkpt lat="48.19152" lon="-3.04297">
        <ele>206.82</ele>
        <time>2015-12-27T10:51:39Z</time>
      </trkpt>
      <trkpt lat="48.19155" lon="-3.04384">
        <ele>210.19</ele>
        <time>2015-12-27T10:51:52Z</time>
      </trkpt>
      <trkpt lat="48.19156" lon="-3.04396">
        <ele>209.7</ele>
        <time>2015-12-27T10:51:54Z</time>
      </trkpt>
      <trkpt lat="48.19158" lon="-3.04402">
        <ele>209.22</ele>
        <time>2015-12-27T10:51:55Z</time>
      </trkpt>
      <trkpt lat="48.1916" lon="-3.04408">
        <ele>209.22</ele>
        <time>2015-12-27T10:51:56Z</time>
      </trkpt>
      <trkpt lat="48.19163" lon="-3.04414">
        <ele>208.74</ele>
        <time>2015-12-27T10:51:57Z</time>
      </trkpt>
      <trkpt lat="48.19166" lon="-3.04419">
        <ele>209.22</ele>
        <time>2015-12-27T10:51:58Z</time>
      </trkpt>
      <trkpt lat="48.1917" lon="-3.04423">
        <ele>209.22</ele>
        <time>2015-12-27T10:51:59Z</time>
      </trkpt>
      <trkpt lat="48.19215" lon="-3.0448">
        <ele>211.15</ele>
        <time>2015-12-27T10:52:12Z</time>
      </trkpt>
      <trkpt lat="48.19256" lon="-3.04535">
        <ele>211.15</ele>
        <time>2015-12-27T10:52:25Z</time>
      </trkpt>
      <trkpt lat="48.19256" lon="-3.04539">
        <ele>211.15</ele>
        <time>2015-12-27T10:52:26Z</time>
      </trkpt>
      <trkpt lat="48.19255" lon="-3.04541">
        <ele>210.67</ele>
        <time>2015-12-27T10:52:27Z</time>
      </trkpt>
      <trkpt lat="48.19252" lon="-3.04544">
        <ele>207.3</ele>
        <time>2015-12-27T10:52:38Z</time>
      </trkpt>
      <trkpt lat="48.19248" lon="-3.04546">
        <ele>206.82</ele>
        <time>2015-12-27T10:52:52Z</time>
      </trkpt>
      <trkpt lat="48.19199" lon="-3.04573">
        <ele>201.53</ele>
        <time>2015-12-27T10:53:02Z</time>
      </trkpt>
      <trkpt lat="48.19158" lon="-3.04591">
        <ele>199.13</ele>
        <time>2015-12-27T10:53:08Z</time>
      </trkpt>
      <trkpt lat="48.19152" lon="-3.04596">
        <ele>198.65</ele>
        <time>2015-12-27T10:53:09Z</time>
      </trkpt>
      <trkpt lat="48.19147" lon="-3.04602">
        <ele>198.65</ele>
        <time>2015-12-27T10:53:10Z</time>
      </trkpt>
      <trkpt lat="48.19139" lon="-3.04614">
        <ele>198.17</ele>
        <time>2015-12-27T10:53:12Z</time>
      </trkpt>
      <trkpt lat="48.19137" lon="-3.0462">
        <ele>197.69</ele>
        <time>2015-12-27T10:53:13Z</time>
      </trkpt>
      <trkpt lat="48.19136" lon="-3.0463">
        <ele>197.21</ele>
        <time>2015-12-27T10:53:16Z</time>
      </trkpt>
      <trkpt lat="48.19137" lon="-3.04632">
        <ele>197.21</ele>
        <time>2015-12-27T10:53:17Z</time>
      </trkpt>
      <trkpt lat="48.19139" lon="-3.04635">
        <ele>197.21</ele>
        <time>2015-12-27T10:53:18Z</time>
      </trkpt>
      <trkpt lat="48.19141" lon="-3.04639">
        <ele>196.73</ele>
        <time>2015-12-27T10:53:19Z</time>
      </trkpt>
      <trkpt lat="48.19143" lon="-3.04642">
        <ele>196.73</ele>
        <time>2015-12-27T10:53:20Z</time>
      </trkpt>
      <trkpt lat="48.19151" lon="-3.04657">
        <ele>195.77</ele>
        <time>2015-12-27T10:53:23Z</time>
      </trkpt>
      <trkpt lat="48.1916" lon="-3.04683">
        <ele>193.84</ele>
        <time>2015-12-27T10:53:27Z</time>
      </trkpt>
      <trkpt lat="48.19161" lon="-3.0469">
        <ele>193.84</ele>
        <time>2015-12-27T10:53:28Z</time>
      </trkpt>
      <trkpt lat="48.19162" lon="-3.04702">
        <ele>192.88</ele>
        <time>2015-12-27T10:53:30Z</time>
      </trkpt>
      <trkpt lat="48.19162" lon="-3.04708">
        <ele>192.88</ele>
        <time>2015-12-27T10:53:31Z</time>
      </trkpt>
      <trkpt lat="48.19162" lon="-3.04715">
        <ele>192.88</ele>
        <time>2015-12-27T10:53:32Z</time>
      </trkpt>
      <trkpt lat="48.19161" lon="-3.04721">
        <ele>192.88</ele>
        <time>2015-12-27T10:53:33Z</time>
      </trkpt>
      <trkpt lat="48.1916" lon="-3.04726">
        <ele>192.88</ele>
        <time>2015-12-27T10:53:34Z</time>
      </trkpt>
      <trkpt lat="48.1916" lon="-3.04731">
        <ele>192.88</ele>
        <time>2015-12-27T10:53:35Z</time>
      </trkpt>
      <trkpt lat="48.19159" lon="-3.04735">
        <ele>192.88</ele>
        <time>2015-12-27T10:53:36Z</time>
      </trkpt>
      <trkpt lat="48.19159" lon="-3.0474">
        <ele>192.88</ele>
        <time>2015-12-27T10:53:37Z</time>
      </trkpt>
      <trkpt lat="48.19158" lon="-3.04745">
        <ele>192.88</ele>
        <time>2015-12-27T10:53:38Z</time>
      </trkpt>
      <trkpt lat="48.19158" lon="-3.04751">
        <ele>192.88</ele>
        <time>2015-12-27T10:53:39Z</time>
      </trkpt>
      <trkpt lat="48.19158" lon="-3.04757">
        <ele>192.88</ele>
        <time>2015-12-27T10:53:40Z</time>
      </trkpt>
      <trkpt lat="48.19149" lon="-3.04824">
        <ele>196.73</ele>
        <time>2015-12-27T10:53:52Z</time>
      </trkpt>
      <trkpt lat="48.19126" lon="-3.04877">
        <ele>199.13</ele>
        <time>2015-12-27T10:54:04Z</time>
      </trkpt>
      <trkpt lat="48.19106" lon="-3.04909">
        <ele>198.65</ele>
        <time>2015-12-27T10:54:11Z</time>
      </trkpt>
      <trkpt lat="48.19103" lon="-3.04913">
        <ele>198.65</ele>
        <time>2015-12-27T10:54:12Z</time>
      </trkpt>
      <trkpt lat="48.19075" lon="-3.04973">
        <ele>199.61</ele>
        <time>2015-12-27T10:54:24Z</time>
      </trkpt>
      <trkpt lat="48.19066" lon="-3.05034">
        <ele>198.17</ele>
        <time>2015-12-27T10:54:35Z</time>
      </trkpt>
      <trkpt lat="48.19068" lon="-3.05053">
        <ele>197.69</ele>
        <time>2015-12-27T10:54:40Z</time>
      </trkpt>
      <trkpt lat="48.19069" lon="-3.05055">
        <ele>197.69</ele>
        <time>2015-12-27T10:54:41Z</time>
      </trkpt>
      <trkpt lat="48.19071" lon="-3.05057">
        <ele>197.69</ele>
        <time>2015-12-27T10:54:42Z</time>
      </trkpt>
      <trkpt lat="48.19072" lon="-3.05059">
        <ele>197.69</ele>
        <time>2015-12-27T10:54:43Z</time>
      </trkpt>
      <trkpt lat="48.19074" lon="-3.05061">
        <ele>197.69</ele>
        <time>2015-12-27T10:54:44Z</time>
      </trkpt>
      <trkpt lat="48.19076" lon="-3.05063">
        <ele>197.69</ele>
        <time>2015-12-27T10:54:45Z</time>
      </trkpt>
      <trkpt lat="48.19077" lon="-3.05066">
        <ele>197.69</ele>
        <time>2015-12-27T10:54:46Z</time>
      </trkpt>
      <trkpt lat="48.19077" lon="-3.05068">
        <ele>197.69</ele>
        <time>2015-12-27T10:54:47Z</time>
      </trkpt>
      <trkpt lat="48.19079" lon="-3.05073">
        <ele>198.17</ele>
        <time>2015-12-27T10:54:51Z</time>
      </trkpt>
      <trkpt lat="48.19081" lon="-3.05074">
        <ele>198.17</ele>
        <time>2015-12-27T10:54:52Z</time>
      </trkpt>
      <trkpt lat="48.19083" lon="-3.05075">
        <ele>198.17</ele>
        <time>2015-12-27T10:54:54Z</time>
      </trkpt>
      <trkpt lat="48.19085" lon="-3.05077">
        <ele>198.17</ele>
        <time>2015-12-27T10:54:55Z</time>
      </trkpt>
      <trkpt lat="48.19086" lon="-3.05078">
        <ele>198.17</ele>
        <time>2015-12-27T10:54:56Z</time>
      </trkpt>
      <trkpt lat="48.19088" lon="-3.05081">
        <ele>198.17</ele>
        <time>2015-12-27T10:54:57Z</time>
      </trkpt>
      <trkpt lat="48.1909" lon="-3.05083">
        <ele>198.17</ele>
        <time>2015-12-27T10:54:58Z</time>
      </trkpt>
      <trkpt lat="48.19092" lon="-3.05085">
        <ele>198.65</ele>
        <time>2015-12-27T10:54:59Z</time>
      </trkpt>
      <trkpt lat="48.19094" lon="-3.05087">
        <ele>199.13</ele>
        <time>2015-12-27T10:55:00Z</time>
      </trkpt>
      <trkpt lat="48.19096" lon="-3.05088">
        <ele>199.61</ele>
        <time>2015-12-27T10:55:01Z</time>
      </trkpt>
      <trkpt lat="48.19098" lon="-3.05089">
        <ele>200.09</ele>
        <time>2015-12-27T10:55:02Z</time>
      </trkpt>
      <trkpt lat="48.19101" lon="-3.0509">
        <ele>200.57</ele>
        <time>2015-12-27T10:55:03Z</time>
      </trkpt>
      <trkpt lat="48.19126" lon="-3.05091">
        <ele>205.38</ele>
        <time>2015-12-27T10:55:14Z</time>
      </trkpt>
      <trkpt lat="48.19156" lon="-3.05094">
        <ele>208.74</ele>
        <time>2015-12-27T10:55:25Z</time>
      </trkpt>
      <trkpt lat="48.19159" lon="-3.05096">
        <ele>208.74</ele>
        <time>2015-12-27T10:55:26Z</time>
      </trkpt>
      <trkpt lat="48.19165" lon="-3.05107">
        <ele>208.26</ele>
        <time>2015-12-27T10:55:30Z</time>
      </trkpt>
      <trkpt lat="48.19174" lon="-3.05138">
        <ele>206.34</ele>
        <time>2015-12-27T10:55:38Z</time>
      </trkpt>
      <trkpt lat="48.19182" lon="-3.0519">
        <ele>203.94</ele>
        <time>2015-12-27T10:55:48Z</time>
      </trkpt>
      <trkpt lat="48.19186" lon="-3.05215">
        <ele>202.98</ele>
        <time>2015-12-27T10:55:52Z</time>
      </trkpt>
      <trkpt lat="48.19191" lon="-3.05288">
        <ele>196.73</ele>
        <time>2015-12-27T10:56:04Z</time>
      </trkpt>
      <trkpt lat="48.19193" lon="-3.05304">
        <ele>195.77</ele>
        <time>2015-12-27T10:56:06Z</time>
      </trkpt>
      <trkpt lat="48.19207" lon="-3.05337">
        <ele>192.4</ele>
        <time>2015-12-27T10:56:11Z</time>
      </trkpt>
      <trkpt lat="48.19237" lon="-3.0538">
        <ele>190</ele>
        <time>2015-12-27T10:56:18Z</time>
      </trkpt>
      <trkpt lat="48.19241" lon="-3.05389">
        <ele>189.52</ele>
        <time>2015-12-27T10:56:19Z</time>
      </trkpt>
      <trkpt lat="48.19244" lon="-3.05398">
        <ele>189.04</ele>
        <time>2015-12-27T10:56:20Z</time>
      </trkpt>
      <trkpt lat="48.19247" lon="-3.05409">
        <ele>188.08</ele>
        <time>2015-12-27T10:56:21Z</time>
      </trkpt>
      <trkpt lat="48.1925" lon="-3.0542">
        <ele>187.59</ele>
        <time>2015-12-27T10:56:22Z</time>
      </trkpt>
      <trkpt lat="48.19252" lon="-3.05432">
        <ele>187.11</ele>
        <time>2015-12-27T10:56:23Z</time>
      </trkpt>
      <trkpt lat="48.19253" lon="-3.05445">
        <ele>186.15</ele>
        <time>2015-12-27T10:56:24Z</time>
      </trkpt>
      <trkpt lat="48.19254" lon="-3.05458">
        <ele>185.19</ele>
        <time>2015-12-27T10:56:25Z</time>
      </trkpt>
      <trkpt lat="48.19254" lon="-3.05494">
        <ele>182.31</ele>
        <time>2015-12-27T10:56:28Z</time>
      </trkpt>
      <trkpt lat="48.19253" lon="-3.05511">
        <ele>180.87</ele>
        <time>2015-12-27T10:56:30Z</time>
      </trkpt>
      <trkpt lat="48.19254" lon="-3.0552">
        <ele>179.9</ele>
        <time>2015-12-27T10:56:31Z</time>
      </trkpt>
      <trkpt lat="48.19255" lon="-3.05527">
        <ele>179.42</ele>
        <time>2015-12-27T10:56:32Z</time>
      </trkpt>
      <trkpt lat="48.19259" lon="-3.05534">
        <ele>178.94</ele>
        <time>2015-12-27T10:56:33Z</time>
      </trkpt>
      <trkpt lat="48.19263" lon="-3.05537">
        <ele>178.46</ele>
        <time>2015-12-27T10:56:34Z</time>
      </trkpt>
      <trkpt lat="48.19267" lon="-3.05539">
        <ele>178.46</ele>
        <time>2015-12-27T10:56:35Z</time>
      </trkpt>
      <trkpt lat="48.19273" lon="-3.05541">
        <ele>178.46</ele>
        <time>2015-12-27T10:56:36Z</time>
      </trkpt>
      <trkpt lat="48.19277" lon="-3.05543">
        <ele>178.46</ele>
        <time>2015-12-27T10:56:37Z</time>
      </trkpt>
      <trkpt lat="48.19313" lon="-3.0556">
        <ele>178.46</ele>
        <time>2015-12-27T10:56:45Z</time>
      </trkpt>
      <trkpt lat="48.19317" lon="-3.05563">
        <ele>178.46</ele>
        <time>2015-12-27T10:56:46Z</time>
      </trkpt>
      <trkpt lat="48.19326" lon="-3.05569">
        <ele>178.94</ele>
        <time>2015-12-27T10:56:48Z</time>
      </trkpt>
      <trkpt lat="48.1934" lon="-3.05576">
        <ele>178.94</ele>
        <time>2015-12-27T10:56:51Z</time>
      </trkpt>
      <trkpt lat="48.19345" lon="-3.05577">
        <ele>178.94</ele>
        <time>2015-12-27T10:56:52Z</time>
      </trkpt>
      <trkpt lat="48.19349" lon="-3.05577">
        <ele>179.42</ele>
        <time>2015-12-27T10:56:53Z</time>
      </trkpt>
      <trkpt lat="48.19353" lon="-3.05577">
        <ele>179.42</ele>
        <time>2015-12-27T10:56:54Z</time>
      </trkpt>
      <trkpt lat="48.19357" lon="-3.05576">
        <ele>179.42</ele>
        <time>2015-12-27T10:56:55Z</time>
      </trkpt>
      <trkpt lat="48.19388" lon="-3.05567">
        <ele>180.87</ele>
        <time>2015-12-27T10:57:06Z</time>
      </trkpt>
      <trkpt lat="48.19433" lon="-3.0558">
        <ele>184.23</ele>
        <time>2015-12-27T10:57:21Z</time>
      </trkpt>
      <trkpt lat="48.19465" lon="-3.05622">
        <ele>187.59</ele>
        <time>2015-12-27T10:57:36Z</time>
      </trkpt>
      <trkpt lat="48.19488" lon="-3.05655">
        <ele>190.48</ele>
        <time>2015-12-27T10:57:51Z</time>
      </trkpt>
      <trkpt lat="48.19511" lon="-3.05689">
        <ele>194.32</ele>
        <time>2015-12-27T10:58:07Z</time>
      </trkpt>
      <trkpt lat="48.19526" lon="-3.05704">
        <ele>195.77</ele>
        <time>2015-12-27T10:58:16Z</time>
      </trkpt>
      <trkpt lat="48.19528" lon="-3.05706">
        <ele>195.77</ele>
        <time>2015-12-27T10:58:17Z</time>
      </trkpt>
      <trkpt lat="48.1953" lon="-3.05707">
        <ele>196.25</ele>
        <time>2015-12-27T10:58:18Z</time>
      </trkpt>
      <trkpt lat="48.19532" lon="-3.05708">
        <ele>196.25</ele>
        <time>2015-12-27T10:58:19Z</time>
      </trkpt>
      <trkpt lat="48.19534" lon="-3.0571">
        <ele>196.25</ele>
        <time>2015-12-27T10:58:20Z</time>
      </trkpt>
      <trkpt lat="48.1956" lon="-3.05731">
        <ele>199.13</ele>
        <time>2015-12-27T10:58:36Z</time>
      </trkpt>
      <trkpt lat="48.19561" lon="-3.05732">
        <ele>199.61</ele>
        <time>2015-12-27T10:58:37Z</time>
      </trkpt>
      <trkpt lat="48.19562" lon="-3.05734">
        <ele>199.61</ele>
        <time>2015-12-27T10:58:38Z</time>
      </trkpt>
      <trkpt lat="48.19563" lon="-3.05736">
        <ele>199.61</ele>
        <time>2015-12-27T10:58:39Z</time>
      </trkpt>
      <trkpt lat="48.19565" lon="-3.05738">
        <ele>200.09</ele>
        <time>2015-12-27T10:58:40Z</time>
      </trkpt>
      <trkpt lat="48.19566" lon="-3.05739">
        <ele>200.09</ele>
        <time>2015-12-27T10:58:41Z</time>
      </trkpt>
      <trkpt lat="48.19567" lon="-3.05741">
        <ele>200.09</ele>
        <time>2015-12-27T10:58:42Z</time>
      </trkpt>
      <trkpt lat="48.19585" lon="-3.05752">
        <ele>202.98</ele>
        <time>2015-12-27T10:58:54Z</time>
      </trkpt>
      <trkpt lat="48.19587" lon="-3.05752">
        <ele>202.98</ele>
        <time>2015-12-27T10:58:55Z</time>
      </trkpt>
      <trkpt lat="48.19588" lon="-3.05752">
        <ele>202.98</ele>
        <time>2015-12-27T10:58:56Z</time>
      </trkpt>
      <trkpt lat="48.19589" lon="-3.05753">
        <ele>202.98</ele>
        <time>2015-12-27T10:58:57Z</time>
      </trkpt>
      <trkpt lat="48.19591" lon="-3.05754">
        <ele>202.98</ele>
        <time>2015-12-27T10:58:58Z</time>
      </trkpt>
      <trkpt lat="48.19594" lon="-3.05757">
        <ele>202.49</ele>
        <time>2015-12-27T10:59:05Z</time>
      </trkpt>
      <trkpt lat="48.19595" lon="-3.05763">
        <ele>202.01</ele>
        <time>2015-12-27T10:59:10Z</time>
      </trkpt>
      <trkpt lat="48.19595" lon="-3.05765">
        <ele>202.01</ele>
        <time>2015-12-27T10:59:11Z</time>
      </trkpt>
      <trkpt lat="48.19595" lon="-3.05767">
        <ele>202.01</ele>
        <time>2015-12-27T10:59:12Z</time>
      </trkpt>
      <trkpt lat="48.19595" lon="-3.05769">
        <ele>202.01</ele>
        <time>2015-12-27T10:59:13Z</time>
      </trkpt>
      <trkpt lat="48.19594" lon="-3.05771">
        <ele>202.01</ele>
        <time>2015-12-27T10:59:14Z</time>
      </trkpt>
      <trkpt lat="48.19594" lon="-3.05773">
        <ele>202.49</ele>
        <time>2015-12-27T10:59:15Z</time>
      </trkpt>
      <trkpt lat="48.19585" lon="-3.05814">
        <ele>203.94</ele>
        <time>2015-12-27T10:59:27Z</time>
      </trkpt>
      <trkpt lat="48.1959" lon="-3.05859">
        <ele>206.34</ele>
        <time>2015-12-27T10:59:39Z</time>
      </trkpt>
      <trkpt lat="48.19592" lon="-3.05899">
        <ele>208.74</ele>
        <time>2015-12-27T10:59:50Z</time>
      </trkpt>
      <trkpt lat="48.1959" lon="-3.05946">
        <ele>208.74</ele>
        <time>2015-12-27T11:00:02Z</time>
      </trkpt>
      <trkpt lat="48.19592" lon="-3.05988">
        <ele>209.22</ele>
        <time>2015-12-27T11:00:15Z</time>
      </trkpt>
      <trkpt lat="48.19598" lon="-3.06012">
        <ele>210.19</ele>
        <time>2015-12-27T11:00:28Z</time>
      </trkpt>
      <trkpt lat="48.19608" lon="-3.0602">
        <ele>212.59</ele>
        <time>2015-12-27T11:00:36Z</time>
      </trkpt>
      <trkpt lat="48.19619" lon="-3.06022">
        <ele>216.43</ele>
        <time>2015-12-27T11:00:49Z</time>
      </trkpt>
      <trkpt lat="48.1962" lon="-3.06024">
        <ele>215.95</ele>
        <time>2015-12-27T11:00:56Z</time>
      </trkpt>
      <trkpt lat="48.19618" lon="-3.06046">
        <ele>214.51</ele>
        <time>2015-12-27T11:01:05Z</time>
      </trkpt>
      <trkpt lat="48.19617" lon="-3.06049">
        <ele>214.03</ele>
        <time>2015-12-27T11:01:06Z</time>
      </trkpt>
      <trkpt lat="48.19616" lon="-3.06052">
        <ele>214.03</ele>
        <time>2015-12-27T11:01:07Z</time>
      </trkpt>
      <trkpt lat="48.19614" lon="-3.06061">
        <ele>213.55</ele>
        <time>2015-12-27T11:01:11Z</time>
      </trkpt>
      <trkpt lat="48.19613" lon="-3.06059">
        <ele>213.55</ele>
        <time>2015-12-27T11:01:12Z</time>
      </trkpt>
      <trkpt lat="48.19613" lon="-3.06056">
        <ele>213.55</ele>
        <time>2015-12-27T11:01:13Z</time>
      </trkpt>
      <trkpt lat="48.19614" lon="-3.06053">
        <ele>213.55</ele>
        <time>2015-12-27T11:01:14Z</time>
      </trkpt>
      <trkpt lat="48.19615" lon="-3.0605">
        <ele>214.03</ele>
        <time>2015-12-27T11:01:15Z</time>
      </trkpt>
      <trkpt lat="48.19623" lon="-3.06024">
        <ele>214.99</ele>
        <time>2015-12-27T11:01:26Z</time>
      </trkpt>
      <trkpt lat="48.19624" lon="-3.06024">
        <ele>215.47</ele>
        <time>2015-12-27T11:01:27Z</time>
      </trkpt>
      <trkpt lat="48.19628" lon="-3.06024">
        <ele>215.95</ele>
        <time>2015-12-27T11:01:30Z</time>
      </trkpt>
      <trkpt lat="48.19651" lon="-3.06016">
        <ele>216.91</ele>
        <time>2015-12-27T11:01:43Z</time>
      </trkpt>
      <trkpt lat="48.19666" lon="-3.06009">
        <ele>214.51</ele>
        <time>2015-12-27T11:01:54Z</time>
      </trkpt>
      <trkpt lat="48.19681" lon="-3.05992">
        <ele>216.91</ele>
        <time>2015-12-27T11:02:06Z</time>
      </trkpt>
      <trkpt lat="48.19686" lon="-3.05986">
        <ele>218.84</ele>
        <time>2015-12-27T11:02:10Z</time>
      </trkpt>
      <trkpt lat="48.197" lon="-3.05973">
        <ele>221.24</ele>
        <time>2015-12-27T11:02:20Z</time>
      </trkpt>
      <trkpt lat="48.1972" lon="-3.05953">
        <ele>222.2</ele>
        <time>2015-12-27T11:02:33Z</time>
      </trkpt>
      <trkpt lat="48.19726" lon="-3.05949">
        <ele>222.68</ele>
        <time>2015-12-27T11:02:37Z</time>
      </trkpt>
      <trkpt lat="48.19746" lon="-3.05932">
        <ele>225.57</ele>
        <time>2015-12-27T11:02:52Z</time>
      </trkpt>
      <trkpt lat="48.19752" lon="-3.05919">
        <ele>224.61</ele>
        <time>2015-12-27T11:02:57Z</time>
      </trkpt>
      <trkpt lat="48.1976" lon="-3.05904">
        <ele>224.61</ele>
        <time>2015-12-27T11:03:04Z</time>
      </trkpt>
      <trkpt lat="48.19767" lon="-3.0589">
        <ele>226.05</ele>
        <time>2015-12-27T11:03:10Z</time>
      </trkpt>
      <trkpt lat="48.1977" lon="-3.05885">
        <ele>226.05</ele>
        <time>2015-12-27T11:03:12Z</time>
      </trkpt>
      <trkpt lat="48.19781" lon="-3.05875">
        <ele>227.01</ele>
        <time>2015-12-27T11:03:19Z</time>
      </trkpt>
      <trkpt lat="48.19789" lon="-3.05868">
        <ele>226.53</ele>
        <time>2015-12-27T11:03:24Z</time>
      </trkpt>
      <trkpt lat="48.19806" lon="-3.0585">
        <ele>227.49</ele>
        <time>2015-12-27T11:03:36Z</time>
      </trkpt>
      <trkpt lat="48.19816" lon="-3.05841">
        <ele>230.85</ele>
        <time>2015-12-27T11:03:43Z</time>
      </trkpt>
      <trkpt lat="48.19822" lon="-3.05839">
        <ele>231.81</ele>
        <time>2015-12-27T11:03:46Z</time>
      </trkpt>
      <trkpt lat="48.1983" lon="-3.0584">
        <ele>234.7</ele>
        <time>2015-12-27T11:03:51Z</time>
      </trkpt>
      <trkpt lat="48.19857" lon="-3.05848">
        <ele>239.51</ele>
        <time>2015-12-27T11:04:05Z</time>
      </trkpt>
      <trkpt lat="48.19865" lon="-3.05851">
        <ele>240.95</ele>
        <time>2015-12-27T11:04:10Z</time>
      </trkpt>
      <trkpt lat="48.19867" lon="-3.05852">
        <ele>240.95</ele>
        <time>2015-12-27T11:04:12Z</time>
      </trkpt>
      <trkpt lat="48.1987" lon="-3.05863">
        <ele>241.43</ele>
        <time>2015-12-27T11:04:18Z</time>
      </trkpt>
      <trkpt lat="48.19889" lon="-3.05905">
        <ele>239.51</ele>
        <time>2015-12-27T11:04:34Z</time>
      </trkpt>
      <trkpt lat="48.199" lon="-3.05936">
        <ele>237.58</ele>
        <time>2015-12-27T11:04:45Z</time>
      </trkpt>
      <trkpt lat="48.19903" lon="-3.05971">
        <ele>238.06</ele>
        <time>2015-12-27T11:04:56Z</time>
      </trkpt>
      <trkpt lat="48.19911" lon="-3.05991">
        <ele>239.51</ele>
        <time>2015-12-27T11:05:21Z</time>
      </trkpt>
      <trkpt lat="48.19912" lon="-3.05993">
        <ele>239.99</ele>
        <time>2015-12-27T11:05:22Z</time>
      </trkpt>
      <trkpt lat="48.19924" lon="-3.06001">
        <ele>241.43</ele>
        <time>2015-12-27T11:05:35Z</time>
      </trkpt>
      <trkpt lat="48.19925" lon="-3.06003">
        <ele>240.95</ele>
        <time>2015-12-27T11:05:40Z</time>
      </trkpt>
      <trkpt lat="48.19941" lon="-3.06047">
        <ele>243.35</ele>
        <time>2015-12-27T11:05:54Z</time>
      </trkpt>
      <trkpt lat="48.19954" lon="-3.06098">
        <ele>238.54</ele>
        <time>2015-12-27T11:06:04Z</time>
      </trkpt>
      <trkpt lat="48.19963" lon="-3.06133">
        <ele>236.62</ele>
        <time>2015-12-27T11:06:09Z</time>
      </trkpt>
      <trkpt lat="48.1996" lon="-3.06147">
        <ele>235.18</ele>
        <time>2015-12-27T11:06:11Z</time>
      </trkpt>
      <trkpt lat="48.19954" lon="-3.06173">
        <ele>233.26</ele>
        <time>2015-12-27T11:06:15Z</time>
      </trkpt>
      <trkpt lat="48.19934" lon="-3.06197">
        <ele>230.85</ele>
        <time>2015-12-27T11:06:22Z</time>
      </trkpt>
      <trkpt lat="48.19934" lon="-3.06215">
        <ele>230.85</ele>
        <time>2015-12-27T11:06:28Z</time>
      </trkpt>
      <trkpt lat="48.19937" lon="-3.06219">
        <ele>231.33</ele>
        <time>2015-12-27T11:06:30Z</time>
      </trkpt>
      <trkpt lat="48.19946" lon="-3.06223">
        <ele>232.3</ele>
        <time>2015-12-27T11:06:35Z</time>
      </trkpt>
      <trkpt lat="48.19965" lon="-3.06234">
        <ele>231.33</ele>
        <time>2015-12-27T11:06:42Z</time>
      </trkpt>
      <trkpt lat="48.19971" lon="-3.0625">
        <ele>229.89</ele>
        <time>2015-12-27T11:06:46Z</time>
      </trkpt>
      <trkpt lat="48.19973" lon="-3.06254">
        <ele>229.89</ele>
        <time>2015-12-27T11:06:47Z</time>
      </trkpt>
      <trkpt lat="48.19974" lon="-3.06258">
        <ele>229.89</ele>
        <time>2015-12-27T11:06:48Z</time>
      </trkpt>
      <trkpt lat="48.1998" lon="-3.06267">
        <ele>229.41</ele>
        <time>2015-12-27T11:06:51Z</time>
      </trkpt>
      <trkpt lat="48.19982" lon="-3.0627">
        <ele>229.41</ele>
        <time>2015-12-27T11:06:52Z</time>
      </trkpt>
      <trkpt lat="48.19984" lon="-3.06273">
        <ele>228.93</ele>
        <time>2015-12-27T11:06:53Z</time>
      </trkpt>
      <trkpt lat="48.19984" lon="-3.06277">
        <ele>228.93</ele>
        <time>2015-12-27T11:06:54Z</time>
      </trkpt>
      <trkpt lat="48.19984" lon="-3.0628">
        <ele>228.93</ele>
        <time>2015-12-27T11:06:55Z</time>
      </trkpt>
      <trkpt lat="48.19984" lon="-3.06285">
        <ele>228.45</ele>
        <time>2015-12-27T11:06:56Z</time>
      </trkpt>
      <trkpt lat="48.19984" lon="-3.06288">
        <ele>227.97</ele>
        <time>2015-12-27T11:06:57Z</time>
      </trkpt>
      <trkpt lat="48.19983" lon="-3.06292">
        <ele>227.49</ele>
        <time>2015-12-27T11:06:58Z</time>
      </trkpt>
      <trkpt lat="48.19982" lon="-3.06299">
        <ele>227.01</ele>
        <time>2015-12-27T11:07:00Z</time>
      </trkpt>
      <trkpt lat="48.19991" lon="-3.06331">
        <ele>225.09</ele>
        <time>2015-12-27T11:07:06Z</time>
      </trkpt>
      <trkpt lat="48.19997" lon="-3.06342">
        <ele>224.12</ele>
        <time>2015-12-27T11:07:08Z</time>
      </trkpt>
      <trkpt lat="48.19998" lon="-3.06348">
        <ele>224.12</ele>
        <time>2015-12-27T11:07:09Z</time>
      </trkpt>
      <trkpt lat="48.2" lon="-3.06354">
        <ele>223.64</ele>
        <time>2015-12-27T11:07:10Z</time>
      </trkpt>
      <trkpt lat="48.20001" lon="-3.06359">
        <ele>223.16</ele>
        <time>2015-12-27T11:07:11Z</time>
      </trkpt>
      <trkpt lat="48.20002" lon="-3.06366">
        <ele>222.68</ele>
        <time>2015-12-27T11:07:12Z</time>
      </trkpt>
      <trkpt lat="48.20005" lon="-3.06373">
        <ele>222.2</ele>
        <time>2015-12-27T11:07:13Z</time>
      </trkpt>
      <trkpt lat="48.20016" lon="-3.06392">
        <ele>220.28</ele>
        <time>2015-12-27T11:07:17Z</time>
      </trkpt>
      <trkpt lat="48.20016" lon="-3.06394">
        <ele>219.8</ele>
        <time>2015-12-27T11:07:18Z</time>
      </trkpt>
      <trkpt lat="48.20013" lon="-3.06395">
        <ele>219.32</ele>
        <time>2015-12-27T11:07:31Z</time>
      </trkpt>
      <trkpt lat="48.20012" lon="-3.06396">
        <ele>219.32</ele>
        <time>2015-12-27T11:07:32Z</time>
      </trkpt>
      <trkpt lat="48.20008" lon="-3.06401">
        <ele>216.91</ele>
        <time>2015-12-27T11:07:42Z</time>
      </trkpt>
      <trkpt lat="48.20008" lon="-3.064">
        <ele>216.43</ele>
        <time>2015-12-27T11:08:17Z</time>
      </trkpt>
      <trkpt lat="48.20008" lon="-3.06399">
        <ele>217.4</ele>
        <time>2015-12-27T11:08:58Z</time>
      </trkpt>
      <trkpt lat="48.20009" lon="-3.06401">
        <ele>218.84</ele>
        <time>2015-12-27T11:09:41Z</time>
      </trkpt>
      <trkpt lat="48.20006" lon="-3.064">
        <ele>220.28</ele>
        <time>2015-12-27T11:10:29Z</time>
      </trkpt>
      <trkpt lat="48.20007" lon="-3.064">
        <ele>220.28</ele>
        <time>2015-12-27T11:11:02Z</time>
      </trkpt>
      <trkpt lat="48.19993" lon="-3.06415">
        <ele>218.36</ele>
        <time>2015-12-27T11:11:08Z</time>
      </trkpt>
      <trkpt lat="48.19976" lon="-3.06431">
        <ele>215.95</ele>
        <time>2015-12-27T11:11:12Z</time>
      </trkpt>
      <trkpt lat="48.1997" lon="-3.06432">
        <ele>215.47</ele>
        <time>2015-12-27T11:11:13Z</time>
      </trkpt>
      <trkpt lat="48.19966" lon="-3.06435">
        <ele>214.51</ele>
        <time>2015-12-27T11:11:14Z</time>
      </trkpt>
      <trkpt lat="48.19962" lon="-3.0644">
        <ele>213.55</ele>
        <time>2015-12-27T11:11:15Z</time>
      </trkpt>
      <trkpt lat="48.19959" lon="-3.06444">
        <ele>213.07</ele>
        <time>2015-12-27T11:11:16Z</time>
      </trkpt>
      <trkpt lat="48.19951" lon="-3.06457">
        <ele>210.19</ele>
        <time>2015-12-27T11:11:19Z</time>
      </trkpt>
      <trkpt lat="48.1995" lon="-3.06463">
        <ele>209.22</ele>
        <time>2015-12-27T11:11:20Z</time>
      </trkpt>
      <trkpt lat="48.1995" lon="-3.06469">
        <ele>208.26</ele>
        <time>2015-12-27T11:11:21Z</time>
      </trkpt>
      <trkpt lat="48.19951" lon="-3.06476">
        <ele>207.3</ele>
        <time>2015-12-27T11:11:22Z</time>
      </trkpt>
      <trkpt lat="48.19953" lon="-3.06484">
        <ele>206.34</ele>
        <time>2015-12-27T11:11:23Z</time>
      </trkpt>
      <trkpt lat="48.19955" lon="-3.06492">
        <ele>205.38</ele>
        <time>2015-12-27T11:11:24Z</time>
      </trkpt>
      <trkpt lat="48.19958" lon="-3.065">
        <ele>203.94</ele>
        <time>2015-12-27T11:11:25Z</time>
      </trkpt>
      <trkpt lat="48.19961" lon="-3.06507">
        <ele>202.98</ele>
        <time>2015-12-27T11:11:26Z</time>
      </trkpt>
      <trkpt lat="48.19965" lon="-3.06513">
        <ele>202.01</ele>
        <time>2015-12-27T11:11:27Z</time>
      </trkpt>
      <trkpt lat="48.19969" lon="-3.06519">
        <ele>201.53</ele>
        <time>2015-12-27T11:11:29Z</time>
      </trkpt>
      <trkpt lat="48.19971" lon="-3.06522">
        <ele>201.53</ele>
        <time>2015-12-27T11:11:32Z</time>
      </trkpt>
      <trkpt lat="48.19971" lon="-3.06523">
        <ele>201.53</ele>
        <time>2015-12-27T11:11:33Z</time>
      </trkpt>
      <trkpt lat="48.19972" lon="-3.06526">
        <ele>201.53</ele>
        <time>2015-12-27T11:11:34Z</time>
      </trkpt>
      <trkpt lat="48.19972" lon="-3.06529">
        <ele>201.05</ele>
        <time>2015-12-27T11:11:35Z</time>
      </trkpt>
      <trkpt lat="48.19971" lon="-3.06533">
        <ele>200.57</ele>
        <time>2015-12-27T11:11:36Z</time>
      </trkpt>
      <trkpt lat="48.19969" lon="-3.06537">
        <ele>200.09</ele>
        <time>2015-12-27T11:11:37Z</time>
      </trkpt>
      <trkpt lat="48.19967" lon="-3.06542">
        <ele>199.13</ele>
        <time>2015-12-27T11:11:38Z</time>
      </trkpt>
      <trkpt lat="48.19966" lon="-3.06547">
        <ele>198.17</ele>
        <time>2015-12-27T11:11:39Z</time>
      </trkpt>
      <trkpt lat="48.19965" lon="-3.06552">
        <ele>197.21</ele>
        <time>2015-12-27T11:11:40Z</time>
      </trkpt>
      <trkpt lat="48.19955" lon="-3.06595">
        <ele>188.08</ele>
        <time>2015-12-27T11:11:49Z</time>
      </trkpt>
      <trkpt lat="48.19956" lon="-3.06599">
        <ele>187.11</ele>
        <time>2015-12-27T11:11:50Z</time>
      </trkpt>
      <trkpt lat="48.19957" lon="-3.06612">
        <ele>183.75</ele>
        <time>2015-12-27T11:11:56Z</time>
      </trkpt>
      <trkpt lat="48.19955" lon="-3.06617">
        <ele>183.27</ele>
        <time>2015-12-27T11:11:58Z</time>
      </trkpt>
      <trkpt lat="48.19954" lon="-3.06618">
        <ele>183.27</ele>
        <time>2015-12-27T11:11:59Z</time>
      </trkpt>
      <trkpt lat="48.19952" lon="-3.06619">
        <ele>182.79</ele>
        <time>2015-12-27T11:12:00Z</time>
      </trkpt>
      <trkpt lat="48.19951" lon="-3.06621">
        <ele>182.31</ele>
        <time>2015-12-27T11:12:01Z</time>
      </trkpt>
      <trkpt lat="48.19949" lon="-3.06625">
        <ele>181.83</ele>
        <time>2015-12-27T11:12:02Z</time>
      </trkpt>
      <trkpt lat="48.19947" lon="-3.06627">
        <ele>180.87</ele>
        <time>2015-12-27T11:12:03Z</time>
      </trkpt>
      <trkpt lat="48.19945" lon="-3.06629">
        <ele>180.38</ele>
        <time>2015-12-27T11:12:04Z</time>
      </trkpt>
      <trkpt lat="48.19944" lon="-3.06631">
        <ele>179.42</ele>
        <time>2015-12-27T11:12:05Z</time>
      </trkpt>
      <trkpt lat="48.19942" lon="-3.06632">
        <ele>178.94</ele>
        <time>2015-12-27T11:12:06Z</time>
      </trkpt>
      <trkpt lat="48.19941" lon="-3.06633">
        <ele>178.46</ele>
        <time>2015-12-27T11:12:07Z</time>
      </trkpt>
      <trkpt lat="48.1994" lon="-3.06634">
        <ele>177.98</ele>
        <time>2015-12-27T11:12:08Z</time>
      </trkpt>
      <trkpt lat="48.19938" lon="-3.06635">
        <ele>177.5</ele>
        <time>2015-12-27T11:12:09Z</time>
      </trkpt>
      <trkpt lat="48.19936" lon="-3.06638">
        <ele>177.02</ele>
        <time>2015-12-27T11:12:10Z</time>
      </trkpt>
      <trkpt lat="48.19935" lon="-3.06641">
        <ele>176.54</ele>
        <time>2015-12-27T11:12:11Z</time>
      </trkpt>
      <trkpt lat="48.19936" lon="-3.06644">
        <ele>176.06</ele>
        <time>2015-12-27T11:12:12Z</time>
      </trkpt>
      <trkpt lat="48.19937" lon="-3.06646">
        <ele>175.58</ele>
        <time>2015-12-27T11:12:13Z</time>
      </trkpt>
      <trkpt lat="48.19938" lon="-3.06648">
        <ele>175.1</ele>
        <time>2015-12-27T11:12:14Z</time>
      </trkpt>
      <trkpt lat="48.19938" lon="-3.06652">
        <ele>175.1</ele>
        <time>2015-12-27T11:12:15Z</time>
      </trkpt>
      <trkpt lat="48.19937" lon="-3.06655">
        <ele>175.1</ele>
        <time>2015-12-27T11:12:16Z</time>
      </trkpt>
      <trkpt lat="48.19936" lon="-3.06656">
        <ele>174.62</ele>
        <time>2015-12-27T11:12:17Z</time>
      </trkpt>
      <trkpt lat="48.19935" lon="-3.06658">
        <ele>174.62</ele>
        <time>2015-12-27T11:12:18Z</time>
      </trkpt>
      <trkpt lat="48.19933" lon="-3.06659">
        <ele>174.62</ele>
        <time>2015-12-27T11:12:19Z</time>
      </trkpt>
      <trkpt lat="48.19932" lon="-3.06659">
        <ele>174.14</ele>
        <time>2015-12-27T11:12:20Z</time>
      </trkpt>
      <trkpt lat="48.19931" lon="-3.06659">
        <ele>174.14</ele>
        <time>2015-12-27T11:12:21Z</time>
      </trkpt>
      <trkpt lat="48.1993" lon="-3.06659">
        <ele>174.14</ele>
        <time>2015-12-27T11:12:22Z</time>
      </trkpt>
      <trkpt lat="48.19931" lon="-3.06657">
        <ele>174.14</ele>
        <time>2015-12-27T11:12:29Z</time>
      </trkpt>
      <trkpt lat="48.19933" lon="-3.06658">
        <ele>174.14</ele>
        <time>2015-12-27T11:12:30Z</time>
      </trkpt>
      <trkpt lat="48.19935" lon="-3.0666">
        <ele>174.14</ele>
        <time>2015-12-27T11:12:31Z</time>
      </trkpt>
      <trkpt lat="48.19937" lon="-3.06663">
        <ele>174.14</ele>
        <time>2015-12-27T11:12:32Z</time>
      </trkpt>
      <trkpt lat="48.19939" lon="-3.06666">
        <ele>174.14</ele>
        <time>2015-12-27T11:12:33Z</time>
      </trkpt>
      <trkpt lat="48.19941" lon="-3.06669">
        <ele>174.62</ele>
        <time>2015-12-27T11:12:34Z</time>
      </trkpt>
      <trkpt lat="48.19942" lon="-3.06671">
        <ele>174.62</ele>
        <time>2015-12-27T11:12:35Z</time>
      </trkpt>
      <trkpt lat="48.19947" lon="-3.06679">
        <ele>173.66</ele>
        <time>2015-12-27T11:12:38Z</time>
      </trkpt>
      <trkpt lat="48.19955" lon="-3.06687">
        <ele>172.69</ele>
        <time>2015-12-27T11:12:40Z</time>
      </trkpt>
      <trkpt lat="48.1996" lon="-3.06691">
        <ele>171.73</ele>
        <time>2015-12-27T11:12:41Z</time>
      </trkpt>
      <trkpt lat="48.19964" lon="-3.06693">
        <ele>171.73</ele>
        <time>2015-12-27T11:12:42Z</time>
      </trkpt>
      <trkpt lat="48.19967" lon="-3.06695">
        <ele>171.25</ele>
        <time>2015-12-27T11:12:43Z</time>
      </trkpt>
      <trkpt lat="48.19969" lon="-3.06698">
        <ele>171.25</ele>
        <time>2015-12-27T11:12:44Z</time>
      </trkpt>
      <trkpt lat="48.19971" lon="-3.06701">
        <ele>170.77</ele>
        <time>2015-12-27T11:12:45Z</time>
      </trkpt>
      <trkpt lat="48.19974" lon="-3.06708">
        <ele>170.29</ele>
        <time>2015-12-27T11:12:46Z</time>
      </trkpt>
      <trkpt lat="48.19977" lon="-3.06716">
        <ele>170.29</ele>
        <time>2015-12-27T11:12:47Z</time>
      </trkpt>
      <trkpt lat="48.1998" lon="-3.06723">
        <ele>169.81</ele>
        <time>2015-12-27T11:12:48Z</time>
      </trkpt>
      <trkpt lat="48.19984" lon="-3.0673">
        <ele>169.33</ele>
        <time>2015-12-27T11:12:49Z</time>
      </trkpt>
      <trkpt lat="48.19987" lon="-3.06738">
        <ele>169.33</ele>
        <time>2015-12-27T11:12:50Z</time>
      </trkpt>
      <trkpt lat="48.19994" lon="-3.06751">
        <ele>168.85</ele>
        <time>2015-12-27T11:12:52Z</time>
      </trkpt>
      <trkpt lat="48.20001" lon="-3.0676">
        <ele>168.85</ele>
        <time>2015-12-27T11:12:54Z</time>
      </trkpt>
      <trkpt lat="48.20003" lon="-3.06766">
        <ele>168.37</ele>
        <time>2015-12-27T11:12:55Z</time>
      </trkpt>
      <trkpt lat="48.20006" lon="-3.06771">
        <ele>168.37</ele>
        <time>2015-12-27T11:12:56Z</time>
      </trkpt>
      <trkpt lat="48.20009" lon="-3.06777">
        <ele>167.89</ele>
        <time>2015-12-27T11:12:57Z</time>
      </trkpt>
      <trkpt lat="48.20013" lon="-3.06782">
        <ele>167.89</ele>
        <time>2015-12-27T11:12:58Z</time>
      </trkpt>
      <trkpt lat="48.2002" lon="-3.06794">
        <ele>167.41</ele>
        <time>2015-12-27T11:13:00Z</time>
      </trkpt>
      <trkpt lat="48.20038" lon="-3.06817">
        <ele>164.52</ele>
        <time>2015-12-27T11:13:07Z</time>
      </trkpt>
      <trkpt lat="48.2004" lon="-3.06819">
        <ele>164.04</ele>
        <time>2015-12-27T11:13:08Z</time>
      </trkpt>
      <trkpt lat="48.20041" lon="-3.06821">
        <ele>163.56</ele>
        <time>2015-12-27T11:13:09Z</time>
      </trkpt>
      <trkpt lat="48.2004" lon="-3.06824">
        <ele>163.08</ele>
        <time>2015-12-27T11:13:10Z</time>
      </trkpt>
      <trkpt lat="48.20039" lon="-3.06831">
        <ele>161.16</ele>
        <time>2015-12-27T11:13:12Z</time>
      </trkpt>
      <trkpt lat="48.2004" lon="-3.06835">
        <ele>160.2</ele>
        <time>2015-12-27T11:13:13Z</time>
      </trkpt>
      <trkpt lat="48.20043" lon="-3.06837">
        <ele>159.24</ele>
        <time>2015-12-27T11:13:14Z</time>
      </trkpt>
      <trkpt lat="48.20046" lon="-3.06839">
        <ele>158.75</ele>
        <time>2015-12-27T11:13:15Z</time>
      </trkpt>
      <trkpt lat="48.20048" lon="-3.06842">
        <ele>157.79</ele>
        <time>2015-12-27T11:13:16Z</time>
      </trkpt>
      <trkpt lat="48.2005" lon="-3.06844">
        <ele>156.83</ele>
        <time>2015-12-27T11:13:17Z</time>
      </trkpt>
      <trkpt lat="48.20051" lon="-3.06845">
        <ele>156.35</ele>
        <time>2015-12-27T11:13:18Z</time>
      </trkpt>
      <trkpt lat="48.20053" lon="-3.06848">
        <ele>155.39</ele>
        <time>2015-12-27T11:13:19Z</time>
      </trkpt>
      <trkpt lat="48.20057" lon="-3.06851">
        <ele>153.95</ele>
        <time>2015-12-27T11:13:21Z</time>
      </trkpt>
      <trkpt lat="48.20058" lon="-3.06851">
        <ele>152.99</ele>
        <time>2015-12-27T11:13:22Z</time>
      </trkpt>
      <trkpt lat="48.2006" lon="-3.0685">
        <ele>152.99</ele>
        <time>2015-12-27T11:13:23Z</time>
      </trkpt>
      <trkpt lat="48.20061" lon="-3.06849">
        <ele>152.51</ele>
        <time>2015-12-27T11:13:24Z</time>
      </trkpt>
      <trkpt lat="48.20065" lon="-3.06849">
        <ele>152.03</ele>
        <time>2015-12-27T11:13:30Z</time>
      </trkpt>
      <trkpt lat="48.20066" lon="-3.06851">
        <ele>151.06</ele>
        <time>2015-12-27T11:13:31Z</time>
      </trkpt>
      <trkpt lat="48.20079" lon="-3.06858">
        <ele>145.78</ele>
        <time>2015-12-27T11:13:38Z</time>
      </trkpt>
      <trkpt lat="48.20081" lon="-3.06858">
        <ele>145.3</ele>
        <time>2015-12-27T11:13:39Z</time>
      </trkpt>
      <trkpt lat="48.20088" lon="-3.06862">
        <ele>143.37</ele>
        <time>2015-12-27T11:13:42Z</time>
      </trkpt>
      <trkpt lat="48.20093" lon="-3.06863">
        <ele>142.41</ele>
        <time>2015-12-27T11:13:44Z</time>
      </trkpt>
      <trkpt lat="48.20098" lon="-3.06866">
        <ele>140.97</ele>
        <time>2015-12-27T11:13:47Z</time>
      </trkpt>
      <trkpt lat="48.20113" lon="-3.06867">
        <ele>140.49</ele>
        <time>2015-12-27T11:13:55Z</time>
      </trkpt>
      <trkpt lat="48.20119" lon="-3.0687">
        <ele>140.01</ele>
        <time>2015-12-27T11:13:58Z</time>
      </trkpt>
      <trkpt lat="48.20127" lon="-3.06868">
        <ele>139.53</ele>
        <time>2015-12-27T11:14:02Z</time>
      </trkpt>
      <trkpt lat="48.20136" lon="-3.0687">
        <ele>137.61</ele>
        <time>2015-12-27T11:14:06Z</time>
      </trkpt>
      <trkpt lat="48.2014" lon="-3.06868">
        <ele>136.64</ele>
        <time>2015-12-27T11:14:10Z</time>
      </trkpt>
      <trkpt lat="48.2015" lon="-3.0687">
        <ele>132.8</ele>
        <time>2015-12-27T11:14:17Z</time>
      </trkpt>
      <trkpt lat="48.20162" lon="-3.06888">
        <ele>128.95</ele>
        <time>2015-12-27T11:14:27Z</time>
      </trkpt>
      <trkpt lat="48.2016" lon="-3.06899">
        <ele>127.99</ele>
        <time>2015-12-27T11:14:30Z</time>
      </trkpt>
      <trkpt lat="48.20162" lon="-3.06905">
        <ele>126.07</ele>
        <time>2015-12-27T11:14:40Z</time>
      </trkpt>
      <trkpt lat="48.20165" lon="-3.06904">
        <ele>124.15</ele>
        <time>2015-12-27T11:14:49Z</time>
      </trkpt>
      <trkpt lat="48.20167" lon="-3.06906">
        <ele>123.67</ele>
        <time>2015-12-27T11:14:50Z</time>
      </trkpt>
      <trkpt lat="48.20168" lon="-3.06905">
        <ele>123.19</ele>
        <time>2015-12-27T11:14:51Z</time>
      </trkpt>
      <trkpt lat="48.20169" lon="-3.06904">
        <ele>123.19</ele>
        <time>2015-12-27T11:14:52Z</time>
      </trkpt>
      <trkpt lat="48.20171" lon="-3.06903">
        <ele>122.71</ele>
        <time>2015-12-27T11:14:53Z</time>
      </trkpt>
      <trkpt lat="48.20173" lon="-3.06902">
        <ele>122.22</ele>
        <time>2015-12-27T11:14:54Z</time>
      </trkpt>
      <trkpt lat="48.20175" lon="-3.06902">
        <ele>122.22</ele>
        <time>2015-12-27T11:14:55Z</time>
      </trkpt>
      <trkpt lat="48.20178" lon="-3.06902">
        <ele>122.22</ele>
        <time>2015-12-27T11:14:56Z</time>
      </trkpt>
      <trkpt lat="48.2018" lon="-3.06903">
        <ele>122.22</ele>
        <time>2015-12-27T11:14:57Z</time>
      </trkpt>
      <trkpt lat="48.20182" lon="-3.06902">
        <ele>121.74</ele>
        <time>2015-12-27T11:14:58Z</time>
      </trkpt>
      <trkpt lat="48.20184" lon="-3.069">
        <ele>121.26</ele>
        <time>2015-12-27T11:14:59Z</time>
      </trkpt>
      <trkpt lat="48.20187" lon="-3.06899">
        <ele>121.26</ele>
        <time>2015-12-27T11:15:00Z</time>
      </trkpt>
      <trkpt lat="48.20189" lon="-3.06899">
        <ele>120.78</ele>
        <time>2015-12-27T11:15:01Z</time>
      </trkpt>
      <trkpt lat="48.20191" lon="-3.06901">
        <ele>120.3</ele>
        <time>2015-12-27T11:15:02Z</time>
      </trkpt>
      <trkpt lat="48.20196" lon="-3.06915">
        <ele>118.86</ele>
        <time>2015-12-27T11:15:05Z</time>
      </trkpt>
      <trkpt lat="48.20204" lon="-3.06927">
        <ele>119.34</ele>
        <time>2015-12-27T11:15:15Z</time>
      </trkpt>
      <trkpt lat="48.20204" lon="-3.0693">
        <ele>120.3</ele>
        <time>2015-12-27T11:15:25Z</time>
      </trkpt>
      <trkpt lat="48.20199" lon="-3.06915">
        <ele>122.22</ele>
        <time>2015-12-27T11:15:31Z</time>
      </trkpt>
      <trkpt lat="48.20198" lon="-3.06911">
        <ele>122.71</ele>
        <time>2015-12-27T11:15:32Z</time>
      </trkpt>
      <trkpt lat="48.20197" lon="-3.06909">
        <ele>123.19</ele>
        <time>2015-12-27T11:15:33Z</time>
      </trkpt>
      <trkpt lat="48.20193" lon="-3.06908">
        <ele>124.63</ele>
        <time>2015-12-27T11:15:35Z</time>
      </trkpt>
      <trkpt lat="48.2019" lon="-3.06907">
        <ele>125.11</ele>
        <time>2015-12-27T11:15:36Z</time>
      </trkpt>
      <trkpt lat="48.20187" lon="-3.06908">
        <ele>125.59</ele>
        <time>2015-12-27T11:15:37Z</time>
      </trkpt>
      <trkpt lat="48.20185" lon="-3.06909">
        <ele>126.07</ele>
        <time>2015-12-27T11:15:38Z</time>
      </trkpt>
      <trkpt lat="48.20182" lon="-3.0691">
        <ele>126.07</ele>
        <time>2015-12-27T11:15:39Z</time>
      </trkpt>
      <trkpt lat="48.20179" lon="-3.06912">
        <ele>126.55</ele>
        <time>2015-12-27T11:15:40Z</time>
      </trkpt>
      <trkpt lat="48.20177" lon="-3.06914">
        <ele>127.03</ele>
        <time>2015-12-27T11:15:41Z</time>
      </trkpt>
      <trkpt lat="48.2014" lon="-3.06928">
        <ele>129.43</ele>
        <time>2015-12-27T11:15:54Z</time>
      </trkpt>
      <trkpt lat="48.20103" lon="-3.0694">
        <ele>130.88</ele>
        <time>2015-12-27T11:16:08Z</time>
      </trkpt>
      <trkpt lat="48.20068" lon="-3.06951">
        <ele>133.76</ele>
        <time>2015-12-27T11:16:23Z</time>
      </trkpt>
      <trkpt lat="48.20036" lon="-3.06963">
        <ele>137.13</ele>
        <time>2015-12-27T11:16:36Z</time>
      </trkpt>
      <trkpt lat="48.20006" lon="-3.06975">
        <ele>141.45</ele>
        <time>2015-12-27T11:16:49Z</time>
      </trkpt>
      <trkpt lat="48.19972" lon="-3.06992">
        <ele>144.82</ele>
        <time>2015-12-27T11:17:04Z</time>
      </trkpt>
      <trkpt lat="48.19965" lon="-3.06994">
        <ele>145.3</ele>
        <time>2015-12-27T11:17:08Z</time>
      </trkpt>
      <trkpt lat="48.19963" lon="-3.06996">
        <ele>145.3</ele>
        <time>2015-12-27T11:17:09Z</time>
      </trkpt>
      <trkpt lat="48.19962" lon="-3.06998">
        <ele>145.3</ele>
        <time>2015-12-27T11:17:10Z</time>
      </trkpt>
      <trkpt lat="48.1996" lon="-3.06998">
        <ele>145.3</ele>
        <time>2015-12-27T11:17:11Z</time>
      </trkpt>
      <trkpt lat="48.19958" lon="-3.06999">
        <ele>145.3</ele>
        <time>2015-12-27T11:17:12Z</time>
      </trkpt>
      <trkpt lat="48.19956" lon="-3.06999">
        <ele>145.3</ele>
        <time>2015-12-27T11:17:13Z</time>
      </trkpt>
      <trkpt lat="48.19954" lon="-3.07001">
        <ele>145.3</ele>
        <time>2015-12-27T11:17:14Z</time>
      </trkpt>
      <trkpt lat="48.19952" lon="-3.07002">
        <ele>145.3</ele>
        <time>2015-12-27T11:17:15Z</time>
      </trkpt>
      <trkpt lat="48.1995" lon="-3.07004">
        <ele>145.78</ele>
        <time>2015-12-27T11:17:16Z</time>
      </trkpt>
      <trkpt lat="48.19919" lon="-3.07019">
        <ele>149.62</ele>
        <time>2015-12-27T11:17:31Z</time>
      </trkpt>
      <trkpt lat="48.19889" lon="-3.07032">
        <ele>154.43</ele>
        <time>2015-12-27T11:17:45Z</time>
      </trkpt>
      <trkpt lat="48.19861" lon="-3.07047">
        <ele>157.31</ele>
        <time>2015-12-27T11:17:59Z</time>
      </trkpt>
      <trkpt lat="48.1984" lon="-3.07062">
        <ele>158.75</ele>
        <time>2015-12-27T11:18:12Z</time>
      </trkpt>
      <trkpt lat="48.19818" lon="-3.07085">
        <ele>160.68</ele>
        <time>2015-12-27T11:18:27Z</time>
      </trkpt>
      <trkpt lat="48.19799" lon="-3.07103">
        <ele>163.56</ele>
        <time>2015-12-27T11:18:39Z</time>
      </trkpt>
      <trkpt lat="48.19798" lon="-3.07105">
        <ele>163.56</ele>
        <time>2015-12-27T11:18:40Z</time>
      </trkpt>
      <trkpt lat="48.19777" lon="-3.0714">
        <ele>164.52</ele>
        <time>2015-12-27T11:18:55Z</time>
      </trkpt>
      <trkpt lat="48.19773" lon="-3.07147">
        <ele>165.48</ele>
        <time>2015-12-27T11:18:58Z</time>
      </trkpt>
      <trkpt lat="48.19772" lon="-3.0715">
        <ele>165.96</ele>
        <time>2015-12-27T11:18:59Z</time>
      </trkpt>
      <trkpt lat="48.19772" lon="-3.07153">
        <ele>165.96</ele>
        <time>2015-12-27T11:19:00Z</time>
      </trkpt>
      <trkpt lat="48.19771" lon="-3.07156">
        <ele>166.45</ele>
        <time>2015-12-27T11:19:01Z</time>
      </trkpt>
      <trkpt lat="48.1977" lon="-3.07158">
        <ele>166.45</ele>
        <time>2015-12-27T11:19:02Z</time>
      </trkpt>
      <trkpt lat="48.19768" lon="-3.0716">
        <ele>166.45</ele>
        <time>2015-12-27T11:19:03Z</time>
      </trkpt>
      <trkpt lat="48.19767" lon="-3.07163">
        <ele>166.93</ele>
        <time>2015-12-27T11:19:04Z</time>
      </trkpt>
      <trkpt lat="48.19767" lon="-3.07166">
        <ele>167.41</ele>
        <time>2015-12-27T11:19:05Z</time>
      </trkpt>
      <trkpt lat="48.19766" lon="-3.07169">
        <ele>167.41</ele>
        <time>2015-12-27T11:19:06Z</time>
      </trkpt>
      <trkpt lat="48.19766" lon="-3.07171">
        <ele>167.41</ele>
        <time>2015-12-27T11:19:07Z</time>
      </trkpt>
      <trkpt lat="48.19765" lon="-3.07174">
        <ele>167.89</ele>
        <time>2015-12-27T11:19:08Z</time>
      </trkpt>
      <trkpt lat="48.19764" lon="-3.07177">
        <ele>167.89</ele>
        <time>2015-12-27T11:19:09Z</time>
      </trkpt>
      <trkpt lat="48.19752" lon="-3.0722">
        <ele>167.89</ele>
        <time>2015-12-27T11:19:24Z</time>
      </trkpt>
      <trkpt lat="48.19751" lon="-3.07224">
        <ele>167.89</ele>
        <time>2015-12-27T11:19:25Z</time>
      </trkpt>
      <trkpt lat="48.1975" lon="-3.07227">
        <ele>168.37</ele>
        <time>2015-12-27T11:19:26Z</time>
      </trkpt>
      <trkpt lat="48.19749" lon="-3.07229">
        <ele>168.37</ele>
        <time>2015-12-27T11:19:27Z</time>
      </trkpt>
      <trkpt lat="48.19749" lon="-3.07232">
        <ele>168.85</ele>
        <time>2015-12-27T11:19:28Z</time>
      </trkpt>
      <trkpt lat="48.19743" lon="-3.07255">
        <ele>171.25</ele>
        <time>2015-12-27T11:19:43Z</time>
      </trkpt>
      <trkpt lat="48.19739" lon="-3.07269">
        <ele>172.21</ele>
        <time>2015-12-27T11:20:01Z</time>
      </trkpt>
      <trkpt lat="48.19732" lon="-3.07303">
        <ele>174.62</ele>
        <time>2015-12-27T11:20:14Z</time>
      </trkpt>
      <trkpt lat="48.1972" lon="-3.07349">
        <ele>177.02</ele>
        <time>2015-12-27T11:20:31Z</time>
      </trkpt>
      <trkpt lat="48.19716" lon="-3.07362">
        <ele>177.98</ele>
        <time>2015-12-27T11:20:36Z</time>
      </trkpt>
      <trkpt lat="48.19716" lon="-3.07365">
        <ele>177.98</ele>
        <time>2015-12-27T11:20:37Z</time>
      </trkpt>
      <trkpt lat="48.19718" lon="-3.07367">
        <ele>177.98</ele>
        <time>2015-12-27T11:20:38Z</time>
      </trkpt>
      <trkpt lat="48.19719" lon="-3.07367">
        <ele>178.46</ele>
        <time>2015-12-27T11:20:39Z</time>
      </trkpt>
      <trkpt lat="48.1972" lon="-3.07367">
        <ele>178.94</ele>
        <time>2015-12-27T11:20:40Z</time>
      </trkpt>
      <trkpt lat="48.19724" lon="-3.07365">
        <ele>179.9</ele>
        <time>2015-12-27T11:20:45Z</time>
      </trkpt>
      <trkpt lat="48.19723" lon="-3.07375">
        <ele>179.9</ele>
        <time>2015-12-27T11:20:52Z</time>
      </trkpt>
      <trkpt lat="48.19723" lon="-3.07382">
        <ele>179.9</ele>
        <time>2015-12-27T11:20:57Z</time>
      </trkpt>
      <trkpt lat="48.19721" lon="-3.07385">
        <ele>179.9</ele>
        <time>2015-12-27T11:21:00Z</time>
      </trkpt>
      <trkpt lat="48.1972" lon="-3.07388">
        <ele>180.38</ele>
        <time>2015-12-27T11:21:02Z</time>
      </trkpt>
      <trkpt lat="48.1972" lon="-3.07392">
        <ele>180.38</ele>
        <time>2015-12-27T11:21:04Z</time>
      </trkpt>
      <trkpt lat="48.19708" lon="-3.07426">
        <ele>182.31</ele>
        <time>2015-12-27T11:21:23Z</time>
      </trkpt>
      <trkpt lat="48.197" lon="-3.07451">
        <ele>185.67</ele>
        <time>2015-12-27T11:21:36Z</time>
      </trkpt>
      <trkpt lat="48.19692" lon="-3.07478">
        <ele>188.08</ele>
        <time>2015-12-27T11:21:50Z</time>
      </trkpt>
      <trkpt lat="48.19688" lon="-3.07489">
        <ele>189.04</ele>
        <time>2015-12-27T11:21:55Z</time>
      </trkpt>
      <trkpt lat="48.19686" lon="-3.07492">
        <ele>189.04</ele>
        <time>2015-12-27T11:21:57Z</time>
      </trkpt>
      <trkpt lat="48.19679" lon="-3.07512">
        <ele>190</ele>
        <time>2015-12-27T11:22:08Z</time>
      </trkpt>
      <trkpt lat="48.19673" lon="-3.07527">
        <ele>191.92</ele>
        <time>2015-12-27T11:22:16Z</time>
      </trkpt>
      <trkpt lat="48.19672" lon="-3.0754">
        <ele>191.92</ele>
        <time>2015-12-27T11:22:21Z</time>
      </trkpt>
      <trkpt lat="48.19675" lon="-3.07548">
        <ele>192.88</ele>
        <time>2015-12-27T11:22:27Z</time>
      </trkpt>
      <trkpt lat="48.19688" lon="-3.07549">
        <ele>193.84</ele>
        <time>2015-12-27T11:22:40Z</time>
      </trkpt>
      <trkpt lat="48.19707" lon="-3.07552">
        <ele>194.32</ele>
        <time>2015-12-27T11:22:56Z</time>
      </trkpt>
      <trkpt lat="48.19723" lon="-3.07549">
        <ele>198.17</ele>
        <time>2015-12-27T11:23:12Z</time>
      </trkpt>
      <trkpt lat="48.19728" lon="-3.07547">
        <ele>201.53</ele>
        <time>2015-12-27T11:23:18Z</time>
      </trkpt>
      <trkpt lat="48.19743" lon="-3.07534">
        <ele>207.3</ele>
        <time>2015-12-27T11:23:31Z</time>
      </trkpt>
      <trkpt lat="48.19749" lon="-3.07531">
        <ele>208.26</ele>
        <time>2015-12-27T11:23:36Z</time>
      </trkpt>
      <trkpt lat="48.19763" lon="-3.07529">
        <ele>212.11</ele>
        <time>2015-12-27T11:23:49Z</time>
      </trkpt>
      <trkpt lat="48.19764" lon="-3.07529">
        <ele>212.59</ele>
        <time>2015-12-27T11:23:50Z</time>
      </trkpt>
      <trkpt lat="48.19779" lon="-3.0754">
        <ele>213.55</ele>
        <time>2015-12-27T11:24:03Z</time>
      </trkpt>
      <trkpt lat="48.19781" lon="-3.07543">
        <ele>214.51</ele>
        <time>2015-12-27T11:24:06Z</time>
      </trkpt>
      <trkpt lat="48.19789" lon="-3.07565">
        <ele>216.43</ele>
        <time>2015-12-27T11:24:22Z</time>
      </trkpt>
      <trkpt lat="48.19799" lon="-3.07584">
        <ele>218.36</ele>
        <time>2015-12-27T11:24:38Z</time>
      </trkpt>
      <trkpt lat="48.19808" lon="-3.07601">
        <ele>219.32</ele>
        <time>2015-12-27T11:24:53Z</time>
      </trkpt>
      <trkpt lat="48.1982" lon="-3.076">
        <ele>223.16</ele>
        <time>2015-12-27T11:25:08Z</time>
      </trkpt>
      <trkpt lat="48.19825" lon="-3.07596">
        <ele>224.61</ele>
        <time>2015-12-27T11:25:14Z</time>
      </trkpt>
      <trkpt lat="48.19838" lon="-3.07579">
        <ele>226.05</ele>
        <time>2015-12-27T11:25:29Z</time>
      </trkpt>
      <trkpt lat="48.1985" lon="-3.07574">
        <ele>226.05</ele>
        <time>2015-12-27T11:25:41Z</time>
      </trkpt>
      <trkpt lat="48.19854" lon="-3.07581">
        <ele>226.05</ele>
        <time>2015-12-27T11:25:48Z</time>
      </trkpt>
      <trkpt lat="48.19854" lon="-3.0759">
        <ele>225.57</ele>
        <time>2015-12-27T11:25:55Z</time>
      </trkpt>
      <trkpt lat="48.19862" lon="-3.07614">
        <ele>223.64</ele>
        <time>2015-12-27T11:26:10Z</time>
      </trkpt>
      <trkpt lat="48.19872" lon="-3.07637">
        <ele>224.61</ele>
        <time>2015-12-27T11:26:23Z</time>
      </trkpt>
      <trkpt lat="48.19876" lon="-3.07646">
        <ele>224.61</ele>
        <time>2015-12-27T11:26:30Z</time>
      </trkpt>
      <trkpt lat="48.19888" lon="-3.07663">
        <ele>226.53</ele>
        <time>2015-12-27T11:26:45Z</time>
      </trkpt>
      <trkpt lat="48.199" lon="-3.07681">
        <ele>227.97</ele>
        <time>2015-12-27T11:26:58Z</time>
      </trkpt>
      <trkpt lat="48.19911" lon="-3.07699">
        <ele>229.41</ele>
        <time>2015-12-27T11:27:13Z</time>
      </trkpt>
      <trkpt lat="48.19916" lon="-3.0772">
        <ele>230.85</ele>
        <time>2015-12-27T11:27:27Z</time>
      </trkpt>
      <trkpt lat="48.19927" lon="-3.07747">
        <ele>231.81</ele>
        <time>2015-12-27T11:27:43Z</time>
      </trkpt>
      <trkpt lat="48.1993" lon="-3.07754">
        <ele>232.78</ele>
        <time>2015-12-27T11:27:48Z</time>
      </trkpt>
      <trkpt lat="48.19938" lon="-3.07768">
        <ele>233.74</ele>
        <time>2015-12-27T11:27:58Z</time>
      </trkpt>
      <trkpt lat="48.19947" lon="-3.07792">
        <ele>236.62</ele>
        <time>2015-12-27T11:28:14Z</time>
      </trkpt>
      <trkpt lat="48.1995" lon="-3.07814">
        <ele>238.54</ele>
        <time>2015-12-27T11:28:26Z</time>
      </trkpt>
      <trkpt lat="48.19949" lon="-3.07831">
        <ele>238.54</ele>
        <time>2015-12-27T11:28:34Z</time>
      </trkpt>
      <trkpt lat="48.19949" lon="-3.07844">
        <ele>238.54</ele>
        <time>2015-12-27T11:28:39Z</time>
      </trkpt>
      <trkpt lat="48.19949" lon="-3.07848">
        <ele>238.54</ele>
        <time>2015-12-27T11:28:41Z</time>
      </trkpt>
      <trkpt lat="48.19951" lon="-3.07873">
        <ele>238.54</ele>
        <time>2015-12-27T11:28:49Z</time>
      </trkpt>
      <trkpt lat="48.19955" lon="-3.07882">
        <ele>238.54</ele>
        <time>2015-12-27T11:28:53Z</time>
      </trkpt>
      <trkpt lat="48.19963" lon="-3.07898">
        <ele>237.58</ele>
        <time>2015-12-27T11:29:01Z</time>
      </trkpt>
      <trkpt lat="48.19969" lon="-3.07911">
        <ele>237.58</ele>
        <time>2015-12-27T11:29:08Z</time>
      </trkpt>
      <trkpt lat="48.19978" lon="-3.07934">
        <ele>239.02</ele>
        <time>2015-12-27T11:29:20Z</time>
      </trkpt>
      <trkpt lat="48.19979" lon="-3.07935">
        <ele>240.95</ele>
        <time>2015-12-27T11:29:35Z</time>
      </trkpt>
      <trkpt lat="48.19984" lon="-3.0794">
        <ele>241.91</ele>
        <time>2015-12-27T11:29:48Z</time>
      </trkpt>
      <trkpt lat="48.20003" lon="-3.07948">
        <ele>246.72</ele>
        <time>2015-12-27T11:30:02Z</time>
      </trkpt>
      <trkpt lat="48.20026" lon="-3.07952">
        <ele>245.75</ele>
        <time>2015-12-27T11:30:16Z</time>
      </trkpt>
      <trkpt lat="48.20042" lon="-3.07958">
        <ele>247.2</ele>
        <time>2015-12-27T11:30:25Z</time>
      </trkpt>
      <trkpt lat="48.20065" lon="-3.07965">
        <ele>248.16</ele>
        <time>2015-12-27T11:30:39Z</time>
      </trkpt>
      <trkpt lat="48.20092" lon="-3.07992">
        <ele>247.68</ele>
        <time>2015-12-27T11:30:52Z</time>
      </trkpt>
      <trkpt lat="48.20097" lon="-3.07999">
        <ele>247.2</ele>
        <time>2015-12-27T11:30:54Z</time>
      </trkpt>
      <trkpt lat="48.201" lon="-3.08003">
        <ele>247.2</ele>
        <time>2015-12-27T11:30:55Z</time>
      </trkpt>
      <trkpt lat="48.20102" lon="-3.08007">
        <ele>247.2</ele>
        <time>2015-12-27T11:30:56Z</time>
      </trkpt>
      <trkpt lat="48.20105" lon="-3.0801">
        <ele>247.2</ele>
        <time>2015-12-27T11:30:57Z</time>
      </trkpt>
      <trkpt lat="48.20107" lon="-3.08014">
        <ele>246.72</ele>
        <time>2015-12-27T11:30:58Z</time>
      </trkpt>
      <trkpt lat="48.2011" lon="-3.08018">
        <ele>246.23</ele>
        <time>2015-12-27T11:30:59Z</time>
      </trkpt>
      <trkpt lat="48.20114" lon="-3.08022">
        <ele>246.23</ele>
        <time>2015-12-27T11:31:00Z</time>
      </trkpt>
      <trkpt lat="48.20117" lon="-3.08028">
        <ele>245.75</ele>
        <time>2015-12-27T11:31:01Z</time>
      </trkpt>
      <trkpt lat="48.2014" lon="-3.08059">
        <ele>243.35</ele>
        <time>2015-12-27T11:31:10Z</time>
      </trkpt>
      <trkpt lat="48.20142" lon="-3.08063">
        <ele>242.87</ele>
        <time>2015-12-27T11:31:11Z</time>
      </trkpt>
      <trkpt lat="48.20144" lon="-3.08068">
        <ele>242.87</ele>
        <time>2015-12-27T11:31:12Z</time>
      </trkpt>
      <trkpt lat="48.20146" lon="-3.08073">
        <ele>242.39</ele>
        <time>2015-12-27T11:31:13Z</time>
      </trkpt>
      <trkpt lat="48.20149" lon="-3.08077">
        <ele>241.91</ele>
        <time>2015-12-27T11:31:14Z</time>
      </trkpt>
      <trkpt lat="48.20152" lon="-3.08081">
        <ele>241.91</ele>
        <time>2015-12-27T11:31:15Z</time>
      </trkpt>
      <trkpt lat="48.20155" lon="-3.08086">
        <ele>241.43</ele>
        <time>2015-12-27T11:31:16Z</time>
      </trkpt>
      <trkpt lat="48.20156" lon="-3.08091">
        <ele>240.95</ele>
        <time>2015-12-27T11:31:17Z</time>
      </trkpt>
      <trkpt lat="48.20155" lon="-3.08096">
        <ele>240.95</ele>
        <time>2015-12-27T11:31:18Z</time>
      </trkpt>
      <trkpt lat="48.20155" lon="-3.08101">
        <ele>240.47</ele>
        <time>2015-12-27T11:31:19Z</time>
      </trkpt>
      <trkpt lat="48.20157" lon="-3.08106">
        <ele>239.99</ele>
        <time>2015-12-27T11:31:20Z</time>
      </trkpt>
      <trkpt lat="48.20159" lon="-3.08111">
        <ele>239.99</ele>
        <time>2015-12-27T11:31:21Z</time>
      </trkpt>
      <trkpt lat="48.20161" lon="-3.08116">
        <ele>239.51</ele>
        <time>2015-12-27T11:31:22Z</time>
      </trkpt>
      <trkpt lat="48.20164" lon="-3.08119">
        <ele>239.51</ele>
        <time>2015-12-27T11:31:23Z</time>
      </trkpt>
      <trkpt lat="48.20167" lon="-3.08119">
        <ele>239.99</ele>
        <time>2015-12-27T11:31:24Z</time>
      </trkpt>
      <trkpt lat="48.20171" lon="-3.08119">
        <ele>239.51</ele>
        <time>2015-12-27T11:31:25Z</time>
      </trkpt>
      <trkpt lat="48.20174" lon="-3.0812">
        <ele>239.51</ele>
        <time>2015-12-27T11:31:26Z</time>
      </trkpt>
      <trkpt lat="48.20177" lon="-3.0812">
        <ele>239.51</ele>
        <time>2015-12-27T11:31:27Z</time>
      </trkpt>
      <trkpt lat="48.20185" lon="-3.08117">
        <ele>239.02</ele>
        <time>2015-12-27T11:31:33Z</time>
      </trkpt>
      <trkpt lat="48.20188" lon="-3.08116">
        <ele>239.02</ele>
        <time>2015-12-27T11:31:34Z</time>
      </trkpt>
      <trkpt lat="48.20192" lon="-3.08116">
        <ele>239.02</ele>
        <time>2015-12-27T11:31:35Z</time>
      </trkpt>
      <trkpt lat="48.20197" lon="-3.08117">
        <ele>239.02</ele>
        <time>2015-12-27T11:31:36Z</time>
      </trkpt>
      <trkpt lat="48.20201" lon="-3.0812">
        <ele>239.51</ele>
        <time>2015-12-27T11:31:37Z</time>
      </trkpt>
      <trkpt lat="48.20205" lon="-3.08123">
        <ele>239.51</ele>
        <time>2015-12-27T11:31:38Z</time>
      </trkpt>
      <trkpt lat="48.2021" lon="-3.08126">
        <ele>239.51</ele>
        <time>2015-12-27T11:31:39Z</time>
      </trkpt>
      <trkpt lat="48.20215" lon="-3.08126">
        <ele>239.51</ele>
        <time>2015-12-27T11:31:40Z</time>
      </trkpt>
      <trkpt lat="48.20221" lon="-3.08125">
        <ele>239.51</ele>
        <time>2015-12-27T11:31:41Z</time>
      </trkpt>
      <trkpt lat="48.20228" lon="-3.08123">
        <ele>239.51</ele>
        <time>2015-12-27T11:31:42Z</time>
      </trkpt>
      <trkpt lat="48.20234" lon="-3.0812">
        <ele>239.51</ele>
        <time>2015-12-27T11:31:43Z</time>
      </trkpt>
      <trkpt lat="48.2024" lon="-3.08119">
        <ele>239.02</ele>
        <time>2015-12-27T11:31:44Z</time>
      </trkpt>
      <trkpt lat="48.20244" lon="-3.0812">
        <ele>238.54</ele>
        <time>2015-12-27T11:31:45Z</time>
      </trkpt>
      <trkpt lat="48.20247" lon="-3.08122">
        <ele>238.54</ele>
        <time>2015-12-27T11:31:46Z</time>
      </trkpt>
      <trkpt lat="48.20251" lon="-3.08126">
        <ele>238.06</ele>
        <time>2015-12-27T11:31:47Z</time>
      </trkpt>
      <trkpt lat="48.20255" lon="-3.08131">
        <ele>238.06</ele>
        <time>2015-12-27T11:31:48Z</time>
      </trkpt>
      <trkpt lat="48.2026" lon="-3.08138">
        <ele>238.06</ele>
        <time>2015-12-27T11:31:49Z</time>
      </trkpt>
      <trkpt lat="48.20266" lon="-3.08146">
        <ele>237.58</ele>
        <time>2015-12-27T11:31:50Z</time>
      </trkpt>
      <trkpt lat="48.20272" lon="-3.08152">
        <ele>237.1</ele>
        <time>2015-12-27T11:31:51Z</time>
      </trkpt>
      <trkpt lat="48.20278" lon="-3.08157">
        <ele>236.62</ele>
        <time>2015-12-27T11:31:52Z</time>
      </trkpt>
      <trkpt lat="48.20284" lon="-3.08161">
        <ele>236.14</ele>
        <time>2015-12-27T11:31:53Z</time>
      </trkpt>
      <trkpt lat="48.20291" lon="-3.08165">
        <ele>236.14</ele>
        <time>2015-12-27T11:31:54Z</time>
      </trkpt>
      <trkpt lat="48.20316" lon="-3.08177">
        <ele>236.14</ele>
        <time>2015-12-27T11:31:59Z</time>
      </trkpt>
      <trkpt lat="48.2033" lon="-3.08187">
        <ele>235.66</ele>
        <time>2015-12-27T11:32:02Z</time>
      </trkpt>
      <trkpt lat="48.20334" lon="-3.08188">
        <ele>235.66</ele>
        <time>2015-12-27T11:32:03Z</time>
      </trkpt>
      <trkpt lat="48.20338" lon="-3.08188">
        <ele>236.14</ele>
        <time>2015-12-27T11:32:04Z</time>
      </trkpt>
      <trkpt lat="48.20349" lon="-3.08186">
        <ele>236.14</ele>
        <time>2015-12-27T11:32:06Z</time>
      </trkpt>
      <trkpt lat="48.20355" lon="-3.08185">
        <ele>236.14</ele>
        <time>2015-12-27T11:32:07Z</time>
      </trkpt>
      <trkpt lat="48.20361" lon="-3.08183">
        <ele>236.14</ele>
        <time>2015-12-27T11:32:08Z</time>
      </trkpt>
      <trkpt lat="48.20367" lon="-3.0818">
        <ele>235.66</ele>
        <time>2015-12-27T11:32:09Z</time>
      </trkpt>
      <trkpt lat="48.20373" lon="-3.08176">
        <ele>235.66</ele>
        <time>2015-12-27T11:32:10Z</time>
      </trkpt>
      <trkpt lat="48.2038" lon="-3.08173">
        <ele>235.66</ele>
        <time>2015-12-27T11:32:11Z</time>
      </trkpt>
      <trkpt lat="48.20386" lon="-3.08169">
        <ele>235.18</ele>
        <time>2015-12-27T11:32:12Z</time>
      </trkpt>
      <trkpt lat="48.204" lon="-3.08167">
        <ele>233.26</ele>
        <time>2015-12-27T11:32:14Z</time>
      </trkpt>
      <trkpt lat="48.2042" lon="-3.08174">
        <ele>229.41</ele>
        <time>2015-12-27T11:32:18Z</time>
      </trkpt>
      <trkpt lat="48.20425" lon="-3.08179">
        <ele>228.45</ele>
        <time>2015-12-27T11:32:19Z</time>
      </trkpt>
      <trkpt lat="48.20433" lon="-3.08191">
        <ele>226.53</ele>
        <time>2015-12-27T11:32:21Z</time>
      </trkpt>
      <trkpt lat="48.20437" lon="-3.08195">
        <ele>226.05</ele>
        <time>2015-12-27T11:32:22Z</time>
      </trkpt>
      <trkpt lat="48.2044" lon="-3.08195">
        <ele>225.09</ele>
        <time>2015-12-27T11:32:23Z</time>
      </trkpt>
      <trkpt lat="48.20455" lon="-3.08186">
        <ele>215.95</ele>
        <time>2015-12-27T11:32:37Z</time>
      </trkpt>
      <trkpt lat="48.20456" lon="-3.08182">
        <ele>215.47</ele>
        <time>2015-12-27T11:32:38Z</time>
      </trkpt>
      <trkpt lat="48.20458" lon="-3.08178">
        <ele>214.03</ele>
        <time>2015-12-27T11:32:39Z</time>
      </trkpt>
      <trkpt lat="48.20461" lon="-3.08174">
        <ele>213.07</ele>
        <time>2015-12-27T11:32:40Z</time>
      </trkpt>
      <trkpt lat="48.20465" lon="-3.08169">
        <ele>212.11</ele>
        <time>2015-12-27T11:32:41Z</time>
      </trkpt>
      <trkpt lat="48.20468" lon="-3.08164">
        <ele>210.67</ele>
        <time>2015-12-27T11:32:42Z</time>
      </trkpt>
      <trkpt lat="48.20472" lon="-3.08157">
        <ele>209.7</ele>
        <time>2015-12-27T11:32:43Z</time>
      </trkpt>
      <trkpt lat="48.20476" lon="-3.08151">
        <ele>208.26</ele>
        <time>2015-12-27T11:32:44Z</time>
      </trkpt>
      <trkpt lat="48.2048" lon="-3.08146">
        <ele>206.82</ele>
        <time>2015-12-27T11:32:45Z</time>
      </trkpt>
      <trkpt lat="48.20486" lon="-3.08145">
        <ele>205.86</ele>
        <time>2015-12-27T11:32:46Z</time>
      </trkpt>
      <trkpt lat="48.20491" lon="-3.08146">
        <ele>204.42</ele>
        <time>2015-12-27T11:32:47Z</time>
      </trkpt>
      <trkpt lat="48.20496" lon="-3.08148">
        <ele>202.98</ele>
        <time>2015-12-27T11:32:48Z</time>
      </trkpt>
      <trkpt lat="48.20503" lon="-3.08151">
        <ele>201.53</ele>
        <time>2015-12-27T11:32:49Z</time>
      </trkpt>
      <trkpt lat="48.20515" lon="-3.08159">
        <ele>199.13</ele>
        <time>2015-12-27T11:32:51Z</time>
      </trkpt>
      <trkpt lat="48.20521" lon="-3.08163">
        <ele>197.69</ele>
        <time>2015-12-27T11:32:52Z</time>
      </trkpt>
      <trkpt lat="48.20526" lon="-3.08169">
        <ele>196.73</ele>
        <time>2015-12-27T11:32:53Z</time>
      </trkpt>
      <trkpt lat="48.20532" lon="-3.08176">
        <ele>195.28</ele>
        <time>2015-12-27T11:32:54Z</time>
      </trkpt>
      <trkpt lat="48.20536" lon="-3.08183">
        <ele>194.32</ele>
        <time>2015-12-27T11:32:55Z</time>
      </trkpt>
      <trkpt lat="48.2054" lon="-3.08189">
        <ele>192.88</ele>
        <time>2015-12-27T11:32:56Z</time>
      </trkpt>
      <trkpt lat="48.20544" lon="-3.08194">
        <ele>191.92</ele>
        <time>2015-12-27T11:32:57Z</time>
      </trkpt>
      <trkpt lat="48.20546" lon="-3.08201">
        <ele>190.48</ele>
        <time>2015-12-27T11:32:58Z</time>
      </trkpt>
      <trkpt lat="48.20551" lon="-3.08215">
        <ele>188.08</ele>
        <time>2015-12-27T11:33:00Z</time>
      </trkpt>
      <trkpt lat="48.20553" lon="-3.08222">
        <ele>186.63</ele>
        <time>2015-12-27T11:33:01Z</time>
      </trkpt>
      <trkpt lat="48.20554" lon="-3.08228">
        <ele>185.19</ele>
        <time>2015-12-27T11:33:02Z</time>
      </trkpt>
      <trkpt lat="48.20556" lon="-3.08233">
        <ele>184.23</ele>
        <time>2015-12-27T11:33:03Z</time>
      </trkpt>
      <trkpt lat="48.20559" lon="-3.08237">
        <ele>182.79</ele>
        <time>2015-12-27T11:33:04Z</time>
      </trkpt>
      <trkpt lat="48.20562" lon="-3.0824">
        <ele>181.35</ele>
        <time>2015-12-27T11:33:05Z</time>
      </trkpt>
      <trkpt lat="48.20566" lon="-3.08242">
        <ele>179.9</ele>
        <time>2015-12-27T11:33:06Z</time>
      </trkpt>
      <trkpt lat="48.20571" lon="-3.08243">
        <ele>178.46</ele>
        <time>2015-12-27T11:33:07Z</time>
      </trkpt>
      <trkpt lat="48.20576" lon="-3.08244">
        <ele>176.54</ele>
        <time>2015-12-27T11:33:08Z</time>
      </trkpt>
      <trkpt lat="48.20583" lon="-3.08247">
        <ele>175.58</ele>
        <time>2015-12-27T11:33:09Z</time>
      </trkpt>
      <trkpt lat="48.20596" lon="-3.08252">
        <ele>173.66</ele>
        <time>2015-12-27T11:33:11Z</time>
      </trkpt>
      <trkpt lat="48.20603" lon="-3.08256">
        <ele>172.69</ele>
        <time>2015-12-27T11:33:12Z</time>
      </trkpt>
      <trkpt lat="48.2061" lon="-3.08258">
        <ele>172.21</ele>
        <time>2015-12-27T11:33:13Z</time>
      </trkpt>
      <trkpt lat="48.20617" lon="-3.08258">
        <ele>171.25</ele>
        <time>2015-12-27T11:33:14Z</time>
      </trkpt>
      <trkpt lat="48.20623" lon="-3.08257">
        <ele>170.29</ele>
        <time>2015-12-27T11:33:15Z</time>
      </trkpt>
      <trkpt lat="48.20629" lon="-3.08255">
        <ele>169.33</ele>
        <time>2015-12-27T11:33:16Z</time>
      </trkpt>
      <trkpt lat="48.20635" lon="-3.08252">
        <ele>168.37</ele>
        <time>2015-12-27T11:33:17Z</time>
      </trkpt>
      <trkpt lat="48.2064" lon="-3.08247">
        <ele>167.89</ele>
        <time>2015-12-27T11:33:18Z</time>
      </trkpt>
      <trkpt lat="48.20645" lon="-3.08242">
        <ele>166.93</ele>
        <time>2015-12-27T11:33:19Z</time>
      </trkpt>
      <trkpt lat="48.2065" lon="-3.08237">
        <ele>166.45</ele>
        <time>2015-12-27T11:33:20Z</time>
      </trkpt>
      <trkpt lat="48.2066" lon="-3.08226">
        <ele>165</ele>
        <time>2015-12-27T11:33:22Z</time>
      </trkpt>
      <trkpt lat="48.20666" lon="-3.08212">
        <ele>164.04</ele>
        <time>2015-12-27T11:33:24Z</time>
      </trkpt>
      <trkpt lat="48.20669" lon="-3.08204">
        <ele>163.08</ele>
        <time>2015-12-27T11:33:25Z</time>
      </trkpt>
      <trkpt lat="48.20673" lon="-3.08197">
        <ele>162.6</ele>
        <time>2015-12-27T11:33:26Z</time>
      </trkpt>
      <trkpt lat="48.20686" lon="-3.08172">
        <ele>160.2</ele>
        <time>2015-12-27T11:33:29Z</time>
      </trkpt>
      <trkpt lat="48.2069" lon="-3.08162">
        <ele>159.72</ele>
        <time>2015-12-27T11:33:30Z</time>
      </trkpt>
      <trkpt lat="48.20694" lon="-3.08151">
        <ele>158.75</ele>
        <time>2015-12-27T11:33:31Z</time>
      </trkpt>
      <trkpt lat="48.20703" lon="-3.08135">
        <ele>157.31</ele>
        <time>2015-12-27T11:33:33Z</time>
      </trkpt>
      <trkpt lat="48.20707" lon="-3.08129">
        <ele>156.35</ele>
        <time>2015-12-27T11:33:34Z</time>
      </trkpt>
      <trkpt lat="48.20711" lon="-3.08125">
        <ele>155.87</ele>
        <time>2015-12-27T11:33:35Z</time>
      </trkpt>
      <trkpt lat="48.20715" lon="-3.0812">
        <ele>155.39</ele>
        <time>2015-12-27T11:33:36Z</time>
      </trkpt>
      <trkpt lat="48.20719" lon="-3.08115">
        <ele>155.39</ele>
        <time>2015-12-27T11:33:37Z</time>
      </trkpt>
      <trkpt lat="48.20722" lon="-3.08111">
        <ele>154.91</ele>
        <time>2015-12-27T11:33:38Z</time>
      </trkpt>
      <trkpt lat="48.20734" lon="-3.08104">
        <ele>160.2</ele>
        <time>2015-12-27T11:33:52Z</time>
      </trkpt>
      <trkpt lat="48.20738" lon="-3.08098">
        <ele>162.12</ele>
        <time>2015-12-27T11:34:00Z</time>
      </trkpt>
      <trkpt lat="48.2074" lon="-3.08092">
        <ele>162.12</ele>
        <time>2015-12-27T11:34:02Z</time>
      </trkpt>
      <trkpt lat="48.20742" lon="-3.08087">
        <ele>162.12</ele>
        <time>2015-12-27T11:34:03Z</time>
      </trkpt>
      <trkpt lat="48.20744" lon="-3.08081">
        <ele>162.12</ele>
        <time>2015-12-27T11:34:04Z</time>
      </trkpt>
      <trkpt lat="48.20756" lon="-3.08049">
        <ele>160.68</ele>
        <time>2015-12-27T11:34:08Z</time>
      </trkpt>
      <trkpt lat="48.20803" lon="-3.07951">
        <ele>152.51</ele>
        <time>2015-12-27T11:34:18Z</time>
      </trkpt>
      <trkpt lat="48.20809" lon="-3.07934">
        <ele>150.58</ele>
        <time>2015-12-27T11:34:19Z</time>
      </trkpt>
      <trkpt lat="48.20821" lon="-3.07907">
        <ele>147.22</ele>
        <time>2015-12-27T11:34:22Z</time>
      </trkpt>
      <trkpt lat="48.20833" lon="-3.07895">
        <ele>143.37</ele>
        <time>2015-12-27T11:34:25Z</time>
      </trkpt>
      <trkpt lat="48.20834" lon="-3.07843">
        <ele>136.64</ele>
        <time>2015-12-27T11:34:33Z</time>
      </trkpt>
      <trkpt lat="48.2083" lon="-3.07836">
        <ele>136.16</ele>
        <time>2015-12-27T11:34:34Z</time>
      </trkpt>
      <trkpt lat="48.20827" lon="-3.07832">
        <ele>135.68</ele>
        <time>2015-12-27T11:34:35Z</time>
      </trkpt>
      <trkpt lat="48.20818" lon="-3.0782">
        <ele>133.76</ele>
        <time>2015-12-27T11:34:38Z</time>
      </trkpt>
      <trkpt lat="48.20817" lon="-3.07816">
        <ele>133.28</ele>
        <time>2015-12-27T11:34:39Z</time>
      </trkpt>
      <trkpt lat="48.20817" lon="-3.07812">
        <ele>133.28</ele>
        <time>2015-12-27T11:34:40Z</time>
      </trkpt>
      <trkpt lat="48.20815" lon="-3.07808">
        <ele>132.8</ele>
        <time>2015-12-27T11:34:41Z</time>
      </trkpt>
      <trkpt lat="48.20812" lon="-3.07804">
        <ele>132.32</ele>
        <time>2015-12-27T11:34:42Z</time>
      </trkpt>
      <trkpt lat="48.20809" lon="-3.07801">
        <ele>131.84</ele>
        <time>2015-12-27T11:34:43Z</time>
      </trkpt>
      <trkpt lat="48.2079" lon="-3.0778">
        <ele>131.36</ele>
        <time>2015-12-27T11:34:51Z</time>
      </trkpt>
      <trkpt lat="48.20784" lon="-3.07771">
        <ele>128.95</ele>
        <time>2015-12-27T11:35:03Z</time>
      </trkpt>
      <trkpt lat="48.20775" lon="-3.07763">
        <ele>127.99</ele>
        <time>2015-12-27T11:35:27Z</time>
      </trkpt>
      <trkpt lat="48.20768" lon="-3.0776">
        <ele>128.95</ele>
        <time>2015-12-27T11:35:30Z</time>
      </trkpt>
      <trkpt lat="48.20747" lon="-3.07742">
        <ele>131.36</ele>
        <time>2015-12-27T11:35:41Z</time>
      </trkpt>
      <trkpt lat="48.20729" lon="-3.07725">
        <ele>137.61</ele>
        <time>2015-12-27T11:35:50Z</time>
      </trkpt>
      <trkpt lat="48.20725" lon="-3.07724">
        <ele>139.05</ele>
        <time>2015-12-27T11:36:10Z</time>
      </trkpt>
      <trkpt lat="48.20724" lon="-3.07723">
        <ele>138.09</ele>
        <time>2015-12-27T11:36:34Z</time>
      </trkpt>
      <trkpt lat="48.20708" lon="-3.07711">
        <ele>138.57</ele>
        <time>2015-12-27T11:36:44Z</time>
      </trkpt>
      <trkpt lat="48.20684" lon="-3.07676">
        <ele>138.57</ele>
        <time>2015-12-27T11:36:54Z</time>
      </trkpt>
      <trkpt lat="48.20671" lon="-3.07656">
        <ele>138.09</ele>
        <time>2015-12-27T11:36:58Z</time>
      </trkpt>
      <trkpt lat="48.20668" lon="-3.0765">
        <ele>137.61</ele>
        <time>2015-12-27T11:36:59Z</time>
      </trkpt>
      <trkpt lat="48.20655" lon="-3.0763">
        <ele>138.09</ele>
        <time>2015-12-27T11:37:02Z</time>
      </trkpt>
      <trkpt lat="48.20651" lon="-3.07625">
        <ele>138.09</ele>
        <time>2015-12-27T11:37:03Z</time>
      </trkpt>
      <trkpt lat="48.20638" lon="-3.07608">
        <ele>138.09</ele>
        <time>2015-12-27T11:37:10Z</time>
      </trkpt>
      <trkpt lat="48.20635" lon="-3.07606">
        <ele>137.61</ele>
        <time>2015-12-27T11:37:11Z</time>
      </trkpt>
      <trkpt lat="48.20614" lon="-3.07578">
        <ele>139.53</ele>
        <time>2015-12-27T11:37:19Z</time>
      </trkpt>
      <trkpt lat="48.20606" lon="-3.07564">
        <ele>141.45</ele>
        <time>2015-12-27T11:37:22Z</time>
      </trkpt>
      <trkpt lat="48.206" lon="-3.07558">
        <ele>143.37</ele>
        <time>2015-12-27T11:37:25Z</time>
      </trkpt>
      <trkpt lat="48.20599" lon="-3.07556">
        <ele>143.85</ele>
        <time>2015-12-27T11:37:26Z</time>
      </trkpt>
      <trkpt lat="48.20577" lon="-3.07517">
        <ele>147.22</ele>
        <time>2015-12-27T11:37:39Z</time>
      </trkpt>
      <trkpt lat="48.2056" lon="-3.07489">
        <ele>150.58</ele>
        <time>2015-12-27T11:37:47Z</time>
      </trkpt>
      <trkpt lat="48.20558" lon="-3.07484">
        <ele>150.58</ele>
        <time>2015-12-27T11:37:48Z</time>
      </trkpt>
      <trkpt lat="48.20557" lon="-3.07479">
        <ele>150.58</ele>
        <time>2015-12-27T11:37:49Z</time>
      </trkpt>
      <trkpt lat="48.20555" lon="-3.07474">
        <ele>150.58</ele>
        <time>2015-12-27T11:37:50Z</time>
      </trkpt>
      <trkpt lat="48.20554" lon="-3.07469">
        <ele>150.58</ele>
        <time>2015-12-27T11:37:51Z</time>
      </trkpt>
      <trkpt lat="48.20529" lon="-3.07422">
        <ele>150.1</ele>
        <time>2015-12-27T11:38:02Z</time>
      </trkpt>
      <trkpt lat="48.20501" lon="-3.07387">
        <ele>152.03</ele>
        <time>2015-12-27T11:38:13Z</time>
      </trkpt>
      <trkpt lat="48.20496" lon="-3.07353">
        <ele>153.95</ele>
        <time>2015-12-27T11:38:21Z</time>
      </trkpt>
      <trkpt lat="48.20495" lon="-3.07347">
        <ele>153.95</ele>
        <time>2015-12-27T11:38:22Z</time>
      </trkpt>
      <trkpt lat="48.20485" lon="-3.07317">
        <ele>154.91</ele>
        <time>2015-12-27T11:38:28Z</time>
      </trkpt>
      <trkpt lat="48.20486" lon="-3.07313">
        <ele>154.91</ele>
        <time>2015-12-27T11:38:29Z</time>
      </trkpt>
      <trkpt lat="48.20486" lon="-3.07308">
        <ele>154.91</ele>
        <time>2015-12-27T11:38:30Z</time>
      </trkpt>
      <trkpt lat="48.20486" lon="-3.07303">
        <ele>154.91</ele>
        <time>2015-12-27T11:38:31Z</time>
      </trkpt>
      <trkpt lat="48.20485" lon="-3.07297">
        <ele>154.91</ele>
        <time>2015-12-27T11:38:32Z</time>
      </trkpt>
      <trkpt lat="48.20468" lon="-3.07241">
        <ele>151.06</ele>
        <time>2015-12-27T11:38:43Z</time>
      </trkpt>
      <trkpt lat="48.20468" lon="-3.07232">
        <ele>150.58</ele>
        <time>2015-12-27T11:38:45Z</time>
      </trkpt>
      <trkpt lat="48.20467" lon="-3.07224">
        <ele>150.58</ele>
        <time>2015-12-27T11:38:46Z</time>
      </trkpt>
      <trkpt lat="48.20455" lon="-3.07171">
        <ele>150.1</ele>
        <time>2015-12-27T11:38:55Z</time>
      </trkpt>
      <trkpt lat="48.2045" lon="-3.07132">
        <ele>147.7</ele>
        <time>2015-12-27T11:39:01Z</time>
      </trkpt>
      <trkpt lat="48.2045" lon="-3.07124">
        <ele>146.74</ele>
        <time>2015-12-27T11:39:02Z</time>
      </trkpt>
      <trkpt lat="48.2045" lon="-3.07078">
        <ele>142.41</ele>
        <time>2015-12-27T11:39:06Z</time>
      </trkpt>
      <trkpt lat="48.20448" lon="-3.07065">
        <ele>140.97</ele>
        <time>2015-12-27T11:39:07Z</time>
      </trkpt>
      <trkpt lat="48.20442" lon="-3.07031">
        <ele>137.13</ele>
        <time>2015-12-27T11:39:10Z</time>
      </trkpt>
      <trkpt lat="48.20439" lon="-3.07022">
        <ele>136.16</ele>
        <time>2015-12-27T11:39:11Z</time>
      </trkpt>
      <trkpt lat="48.20428" lon="-3.06999">
        <ele>133.28</ele>
        <time>2015-12-27T11:39:17Z</time>
      </trkpt>
      <trkpt lat="48.20419" lon="-3.06982">
        <ele>134.24</ele>
        <time>2015-12-27T11:39:38Z</time>
      </trkpt>
      <trkpt lat="48.2042" lon="-3.06979">
        <ele>134.24</ele>
        <time>2015-12-27T11:39:39Z</time>
      </trkpt>
      <trkpt lat="48.2042" lon="-3.06977">
        <ele>133.76</ele>
        <time>2015-12-27T11:39:40Z</time>
      </trkpt>
      <trkpt lat="48.20423" lon="-3.06977">
        <ele>129.92</ele>
        <time>2015-12-27T11:39:52Z</time>
      </trkpt>
      <trkpt lat="48.20423" lon="-3.06975">
        <ele>129.43</ele>
        <time>2015-12-27T11:39:54Z</time>
      </trkpt>
      <trkpt lat="48.20423" lon="-3.06973">
        <ele>128.95</ele>
        <time>2015-12-27T11:39:55Z</time>
      </trkpt>
      <trkpt lat="48.20422" lon="-3.06971">
        <ele>128.95</ele>
        <time>2015-12-27T11:39:56Z</time>
      </trkpt>
      <trkpt lat="48.20422" lon="-3.06969">
        <ele>128.95</ele>
        <time>2015-12-27T11:39:57Z</time>
      </trkpt>
      <trkpt lat="48.20422" lon="-3.06966">
        <ele>128.95</ele>
        <time>2015-12-27T11:39:58Z</time>
      </trkpt>
      <trkpt lat="48.20422" lon="-3.06961">
        <ele>128.95</ele>
        <time>2015-12-27T11:39:59Z</time>
      </trkpt>
      <trkpt lat="48.20421" lon="-3.06958">
        <ele>128.95</ele>
        <time>2015-12-27T11:40:00Z</time>
      </trkpt>
      <trkpt lat="48.2042" lon="-3.06955">
        <ele>128.95</ele>
        <time>2015-12-27T11:40:01Z</time>
      </trkpt>
      <trkpt lat="48.20418" lon="-3.06953">
        <ele>128.95</ele>
        <time>2015-12-27T11:40:02Z</time>
      </trkpt>
      <trkpt lat="48.20416" lon="-3.06952">
        <ele>128.47</ele>
        <time>2015-12-27T11:40:03Z</time>
      </trkpt>
      <trkpt lat="48.20413" lon="-3.06951">
        <ele>127.99</ele>
        <time>2015-12-27T11:40:04Z</time>
      </trkpt>
      <trkpt lat="48.2041" lon="-3.06951">
        <ele>127.99</ele>
        <time>2015-12-27T11:40:05Z</time>
      </trkpt>
      <trkpt lat="48.20407" lon="-3.06952">
        <ele>127.99</ele>
        <time>2015-12-27T11:40:06Z</time>
      </trkpt>
      <trkpt lat="48.20404" lon="-3.06953">
        <ele>127.99</ele>
        <time>2015-12-27T11:40:07Z</time>
      </trkpt>
      <trkpt lat="48.204" lon="-3.06951">
        <ele>127.99</ele>
        <time>2015-12-27T11:40:08Z</time>
      </trkpt>
      <trkpt lat="48.20395" lon="-3.06948">
        <ele>127.51</ele>
        <time>2015-12-27T11:40:09Z</time>
      </trkpt>
      <trkpt lat="48.20391" lon="-3.06945">
        <ele>127.03</ele>
        <time>2015-12-27T11:40:10Z</time>
      </trkpt>
      <trkpt lat="48.20385" lon="-3.06941">
        <ele>127.03</ele>
        <time>2015-12-27T11:40:11Z</time>
      </trkpt>
      <trkpt lat="48.20379" lon="-3.06938">
        <ele>126.55</ele>
        <time>2015-12-27T11:40:12Z</time>
      </trkpt>
      <trkpt lat="48.20374" lon="-3.06937">
        <ele>126.07</ele>
        <time>2015-12-27T11:40:13Z</time>
      </trkpt>
      <trkpt lat="48.20369" lon="-3.06936">
        <ele>126.55</ele>
        <time>2015-12-27T11:40:14Z</time>
      </trkpt>
      <trkpt lat="48.20365" lon="-3.06933">
        <ele>126.07</ele>
        <time>2015-12-27T11:40:15Z</time>
      </trkpt>
      <trkpt lat="48.2036" lon="-3.0693">
        <ele>126.07</ele>
        <time>2015-12-27T11:40:16Z</time>
      </trkpt>
      <trkpt lat="48.20356" lon="-3.06927">
        <ele>126.07</ele>
        <time>2015-12-27T11:40:17Z</time>
      </trkpt>
      <trkpt lat="48.2033" lon="-3.06913">
        <ele>127.51</ele>
        <time>2015-12-27T11:40:26Z</time>
      </trkpt>
      <trkpt lat="48.20309" lon="-3.0691">
        <ele>128.47</ele>
        <time>2015-12-27T11:40:34Z</time>
      </trkpt>
      <trkpt lat="48.203" lon="-3.06912">
        <ele>128.95</ele>
        <time>2015-12-27T11:40:37Z</time>
      </trkpt>
      <trkpt lat="48.2028" lon="-3.06912">
        <ele>127.51</ele>
        <time>2015-12-27T11:40:43Z</time>
      </trkpt>
      <trkpt lat="48.20275" lon="-3.06911">
        <ele>127.03</ele>
        <time>2015-12-27T11:40:44Z</time>
      </trkpt>
      <trkpt lat="48.2027" lon="-3.06912">
        <ele>127.03</ele>
        <time>2015-12-27T11:40:45Z</time>
      </trkpt>
      <trkpt lat="48.20266" lon="-3.06914">
        <ele>127.03</ele>
        <time>2015-12-27T11:40:46Z</time>
      </trkpt>
      <trkpt lat="48.20263" lon="-3.06916">
        <ele>127.51</ele>
        <time>2015-12-27T11:40:47Z</time>
      </trkpt>
      <trkpt lat="48.20261" lon="-3.06918">
        <ele>127.51</ele>
        <time>2015-12-27T11:40:48Z</time>
      </trkpt>
      <trkpt lat="48.20259" lon="-3.06919">
        <ele>127.51</ele>
        <time>2015-12-27T11:40:49Z</time>
      </trkpt>
      <trkpt lat="48.20257" lon="-3.06919">
        <ele>127.51</ele>
        <time>2015-12-27T11:40:50Z</time>
      </trkpt>
      <trkpt lat="48.20254" lon="-3.06919">
        <ele>127.99</ele>
        <time>2015-12-27T11:40:51Z</time>
      </trkpt>
      <trkpt lat="48.20244" lon="-3.06918">
        <ele>127.99</ele>
        <time>2015-12-27T11:40:55Z</time>
      </trkpt>
      <trkpt lat="48.20225" lon="-3.06936">
        <ele>125.11</ele>
        <time>2015-12-27T11:41:02Z</time>
      </trkpt>
      <trkpt lat="48.20202" lon="-3.06912">
        <ele>123.19</ele>
        <time>2015-12-27T11:41:15Z</time>
      </trkpt>
      <trkpt lat="48.20201" lon="-3.06907">
        <ele>125.11</ele>
        <time>2015-12-27T11:41:25Z</time>
      </trkpt>
      <trkpt lat="48.20199" lon="-3.06903">
        <ele>126.07</ele>
        <time>2015-12-27T11:41:44Z</time>
      </trkpt>
      <trkpt lat="48.2019" lon="-3.06882">
        <ele>127.51</ele>
        <time>2015-12-27T11:41:53Z</time>
      </trkpt>
      <trkpt lat="48.2019" lon="-3.0688">
        <ele>127.51</ele>
        <time>2015-12-27T11:41:54Z</time>
      </trkpt>
      <trkpt lat="48.20191" lon="-3.06878">
        <ele>127.99</ele>
        <time>2015-12-27T11:41:55Z</time>
      </trkpt>
      <trkpt lat="48.20192" lon="-3.06876">
        <ele>127.99</ele>
        <time>2015-12-27T11:41:56Z</time>
      </trkpt>
      <trkpt lat="48.20193" lon="-3.06874">
        <ele>127.99</ele>
        <time>2015-12-27T11:41:57Z</time>
      </trkpt>
      <trkpt lat="48.2021" lon="-3.06841">
        <ele>127.99</ele>
        <time>2015-12-27T11:42:08Z</time>
      </trkpt>
      <trkpt lat="48.20241" lon="-3.06805">
        <ele>127.51</ele>
        <time>2015-12-27T11:42:19Z</time>
      </trkpt>
      <trkpt lat="48.20289" lon="-3.06773">
        <ele>128.47</ele>
        <time>2015-12-27T11:42:30Z</time>
      </trkpt>
      <trkpt lat="48.20294" lon="-3.06773">
        <ele>127.99</ele>
        <time>2015-12-27T11:42:31Z</time>
      </trkpt>
      <trkpt lat="48.20299" lon="-3.06773">
        <ele>127.99</ele>
        <time>2015-12-27T11:42:32Z</time>
      </trkpt>
      <trkpt lat="48.20325" lon="-3.06774">
        <ele>127.51</ele>
        <time>2015-12-27T11:42:37Z</time>
      </trkpt>
      <trkpt lat="48.2033" lon="-3.06773">
        <ele>127.51</ele>
        <time>2015-12-27T11:42:38Z</time>
      </trkpt>
      <trkpt lat="48.20335" lon="-3.0677">
        <ele>127.51</ele>
        <time>2015-12-27T11:42:39Z</time>
      </trkpt>
      <trkpt lat="48.2034" lon="-3.06767">
        <ele>127.51</ele>
        <time>2015-12-27T11:42:40Z</time>
      </trkpt>
      <trkpt lat="48.20344" lon="-3.06763">
        <ele>127.51</ele>
        <time>2015-12-27T11:42:41Z</time>
      </trkpt>
      <trkpt lat="48.20352" lon="-3.06757">
        <ele>126.55</ele>
        <time>2015-12-27T11:42:43Z</time>
      </trkpt>
      <trkpt lat="48.2038" lon="-3.06737">
        <ele>124.63</ele>
        <time>2015-12-27T11:42:53Z</time>
      </trkpt>
      <trkpt lat="48.20382" lon="-3.06736">
        <ele>124.63</ele>
        <time>2015-12-27T11:42:54Z</time>
      </trkpt>
      <trkpt lat="48.20391" lon="-3.06732">
        <ele>124.15</ele>
        <time>2015-12-27T11:42:57Z</time>
      </trkpt>
      <trkpt lat="48.20393" lon="-3.06727">
        <ele>123.19</ele>
        <time>2015-12-27T11:42:58Z</time>
      </trkpt>
      <trkpt lat="48.20396" lon="-3.06721">
        <ele>122.71</ele>
        <time>2015-12-27T11:42:59Z</time>
      </trkpt>
      <trkpt lat="48.20398" lon="-3.06716">
        <ele>121.74</ele>
        <time>2015-12-27T11:43:00Z</time>
      </trkpt>
      <trkpt lat="48.20399" lon="-3.0671">
        <ele>121.26</ele>
        <time>2015-12-27T11:43:01Z</time>
      </trkpt>
      <trkpt lat="48.20399" lon="-3.06703">
        <ele>120.78</ele>
        <time>2015-12-27T11:43:02Z</time>
      </trkpt>
      <trkpt lat="48.204" lon="-3.06691">
        <ele>120.3</ele>
        <time>2015-12-27T11:43:04Z</time>
      </trkpt>
      <trkpt lat="48.20403" lon="-3.06685">
        <ele>120.3</ele>
        <time>2015-12-27T11:43:05Z</time>
      </trkpt>
      <trkpt lat="48.20406" lon="-3.06678">
        <ele>120.3</ele>
        <time>2015-12-27T11:43:06Z</time>
      </trkpt>
      <trkpt lat="48.20409" lon="-3.06672">
        <ele>120.78</ele>
        <time>2015-12-27T11:43:07Z</time>
      </trkpt>
      <trkpt lat="48.20412" lon="-3.06667">
        <ele>120.78</ele>
        <time>2015-12-27T11:43:08Z</time>
      </trkpt>
      <trkpt lat="48.20415" lon="-3.06663">
        <ele>120.78</ele>
        <time>2015-12-27T11:43:09Z</time>
      </trkpt>
      <trkpt lat="48.20418" lon="-3.06658">
        <ele>120.78</ele>
        <time>2015-12-27T11:43:10Z</time>
      </trkpt>
      <trkpt lat="48.20422" lon="-3.06653">
        <ele>120.3</ele>
        <time>2015-12-27T11:43:11Z</time>
      </trkpt>
      <trkpt lat="48.20426" lon="-3.06647">
        <ele>119.82</ele>
        <time>2015-12-27T11:43:12Z</time>
      </trkpt>
      <trkpt lat="48.2043" lon="-3.06641">
        <ele>119.34</ele>
        <time>2015-12-27T11:43:13Z</time>
      </trkpt>
      <trkpt lat="48.20431" lon="-3.06634">
        <ele>119.34</ele>
        <time>2015-12-27T11:43:14Z</time>
      </trkpt>
      <trkpt lat="48.20429" lon="-3.06607">
        <ele>119.82</ele>
        <time>2015-12-27T11:43:21Z</time>
      </trkpt>
      <trkpt lat="48.20429" lon="-3.06606">
        <ele>120.3</ele>
        <time>2015-12-27T11:43:22Z</time>
      </trkpt>
      <trkpt lat="48.20434" lon="-3.06588">
        <ele>120.3</ele>
        <time>2015-12-27T11:43:27Z</time>
      </trkpt>
      <trkpt lat="48.20431" lon="-3.06575">
        <ele>121.74</ele>
        <time>2015-12-27T11:43:32Z</time>
      </trkpt>
      <trkpt lat="48.20432" lon="-3.06556">
        <ele>123.19</ele>
        <time>2015-12-27T11:43:39Z</time>
      </trkpt>
      <trkpt lat="48.20434" lon="-3.06532">
        <ele>123.67</ele>
        <time>2015-12-27T11:43:46Z</time>
      </trkpt>
      <trkpt lat="48.20433" lon="-3.06499">
        <ele>121.26</ele>
        <time>2015-12-27T11:43:55Z</time>
      </trkpt>
      <trkpt lat="48.20432" lon="-3.06495">
        <ele>121.26</ele>
        <time>2015-12-27T11:43:56Z</time>
      </trkpt>
      <trkpt lat="48.20431" lon="-3.06485">
        <ele>120.78</ele>
        <time>2015-12-27T11:44:00Z</time>
      </trkpt>
      <trkpt lat="48.20431" lon="-3.06483">
        <ele>121.26</ele>
        <time>2015-12-27T11:44:01Z</time>
      </trkpt>
      <trkpt lat="48.20431" lon="-3.06479">
        <ele>121.74</ele>
        <time>2015-12-27T11:44:02Z</time>
      </trkpt>
      <trkpt lat="48.2043" lon="-3.06477">
        <ele>122.22</ele>
        <time>2015-12-27T11:44:03Z</time>
      </trkpt>
      <trkpt lat="48.20431" lon="-3.06464">
        <ele>125.11</ele>
        <time>2015-12-27T11:44:10Z</time>
      </trkpt>
      <trkpt lat="48.20431" lon="-3.06457">
        <ele>126.55</ele>
        <time>2015-12-27T11:44:13Z</time>
      </trkpt>
      <trkpt lat="48.20431" lon="-3.06454">
        <ele>126.55</ele>
        <time>2015-12-27T11:44:14Z</time>
      </trkpt>
      <trkpt lat="48.20432" lon="-3.06452">
        <ele>126.55</ele>
        <time>2015-12-27T11:44:15Z</time>
      </trkpt>
      <trkpt lat="48.20431" lon="-3.06441">
        <ele>126.07</ele>
        <time>2015-12-27T11:44:25Z</time>
      </trkpt>
      <trkpt lat="48.20429" lon="-3.06432">
        <ele>128.95</ele>
        <time>2015-12-27T11:44:36Z</time>
      </trkpt>
      <trkpt lat="48.20426" lon="-3.06424">
        <ele>131.36</ele>
        <time>2015-12-27T11:44:48Z</time>
      </trkpt>
      <trkpt lat="48.20422" lon="-3.06409">
        <ele>133.76</ele>
        <time>2015-12-27T11:45:01Z</time>
      </trkpt>
      <trkpt lat="48.20422" lon="-3.06401">
        <ele>133.28</ele>
        <time>2015-12-27T11:45:05Z</time>
      </trkpt>
      <trkpt lat="48.20422" lon="-3.06398">
        <ele>133.28</ele>
        <time>2015-12-27T11:45:06Z</time>
      </trkpt>
      <trkpt lat="48.20422" lon="-3.06396">
        <ele>132.8</ele>
        <time>2015-12-27T11:45:07Z</time>
      </trkpt>
      <trkpt lat="48.20424" lon="-3.0639">
        <ele>132.32</ele>
        <time>2015-12-27T11:45:09Z</time>
      </trkpt>
      <trkpt lat="48.20424" lon="-3.06387">
        <ele>132.32</ele>
        <time>2015-12-27T11:45:10Z</time>
      </trkpt>
      <trkpt lat="48.20424" lon="-3.06385">
        <ele>131.84</ele>
        <time>2015-12-27T11:45:11Z</time>
      </trkpt>
      <trkpt lat="48.20422" lon="-3.06379">
        <ele>131.36</ele>
        <time>2015-12-27T11:45:14Z</time>
      </trkpt>
      <trkpt lat="48.20422" lon="-3.06376">
        <ele>131.36</ele>
        <time>2015-12-27T11:45:15Z</time>
      </trkpt>
      <trkpt lat="48.20422" lon="-3.06373">
        <ele>130.88</ele>
        <time>2015-12-27T11:45:16Z</time>
      </trkpt>
      <trkpt lat="48.20423" lon="-3.06371">
        <ele>130.88</ele>
        <time>2015-12-27T11:45:17Z</time>
      </trkpt>
      <trkpt lat="48.20423" lon="-3.06368">
        <ele>130.4</ele>
        <time>2015-12-27T11:45:18Z</time>
      </trkpt>
      <trkpt lat="48.20424" lon="-3.06365">
        <ele>129.92</ele>
        <time>2015-12-27T11:45:19Z</time>
      </trkpt>
      <trkpt lat="48.20426" lon="-3.06362">
        <ele>129.43</ele>
        <time>2015-12-27T11:45:20Z</time>
      </trkpt>
      <trkpt lat="48.20427" lon="-3.06358">
        <ele>128.95</ele>
        <time>2015-12-27T11:45:21Z</time>
      </trkpt>
      <trkpt lat="48.20428" lon="-3.06355">
        <ele>128.47</ele>
        <time>2015-12-27T11:45:22Z</time>
      </trkpt>
      <trkpt lat="48.20428" lon="-3.06353">
        <ele>127.99</ele>
        <time>2015-12-27T11:45:23Z</time>
      </trkpt>
      <trkpt lat="48.20428" lon="-3.06343">
        <ele>126.07</ele>
        <time>2015-12-27T11:45:28Z</time>
      </trkpt>
      <trkpt lat="48.20428" lon="-3.0634">
        <ele>125.59</ele>
        <time>2015-12-27T11:45:29Z</time>
      </trkpt>
      <trkpt lat="48.20431" lon="-3.06318">
        <ele>128.95</ele>
        <time>2015-12-27T11:45:38Z</time>
      </trkpt>
      <trkpt lat="48.20432" lon="-3.06307">
        <ele>129.92</ele>
        <time>2015-12-27T11:45:42Z</time>
      </trkpt>
      <trkpt lat="48.20432" lon="-3.06304">
        <ele>130.4</ele>
        <time>2015-12-27T11:45:43Z</time>
      </trkpt>
      <trkpt lat="48.20432" lon="-3.06299">
        <ele>130.88</ele>
        <time>2015-12-27T11:45:45Z</time>
      </trkpt>
      <trkpt lat="48.20432" lon="-3.06297">
        <ele>131.36</ele>
        <time>2015-12-27T11:45:46Z</time>
      </trkpt>
      <trkpt lat="48.20432" lon="-3.06292">
        <ele>134.24</ele>
        <time>2015-12-27T11:45:50Z</time>
      </trkpt>
      <trkpt lat="48.20432" lon="-3.06289">
        <ele>135.2</ele>
        <time>2015-12-27T11:45:51Z</time>
      </trkpt>
      <trkpt lat="48.20431" lon="-3.06286">
        <ele>135.2</ele>
        <time>2015-12-27T11:45:52Z</time>
      </trkpt>
      <trkpt lat="48.20431" lon="-3.06283">
        <ele>135.68</ele>
        <time>2015-12-27T11:45:53Z</time>
      </trkpt>
      <trkpt lat="48.20431" lon="-3.06279">
        <ele>136.16</ele>
        <time>2015-12-27T11:45:54Z</time>
      </trkpt>
      <trkpt lat="48.20432" lon="-3.06276">
        <ele>135.68</ele>
        <time>2015-12-27T11:45:55Z</time>
      </trkpt>
      <trkpt lat="48.20432" lon="-3.06268">
        <ele>136.16</ele>
        <time>2015-12-27T11:45:57Z</time>
      </trkpt>
      <trkpt lat="48.20433" lon="-3.06264">
        <ele>135.68</ele>
        <time>2015-12-27T11:45:58Z</time>
      </trkpt>
      <trkpt lat="48.20435" lon="-3.06261">
        <ele>135.68</ele>
        <time>2015-12-27T11:45:59Z</time>
      </trkpt>
      <trkpt lat="48.20436" lon="-3.06257">
        <ele>136.16</ele>
        <time>2015-12-27T11:46:00Z</time>
      </trkpt>
      <trkpt lat="48.20437" lon="-3.06252">
        <ele>135.68</ele>
        <time>2015-12-27T11:46:01Z</time>
      </trkpt>
      <trkpt lat="48.20439" lon="-3.06248">
        <ele>135.2</ele>
        <time>2015-12-27T11:46:02Z</time>
      </trkpt>
      <trkpt lat="48.20439" lon="-3.06244">
        <ele>135.2</ele>
        <time>2015-12-27T11:46:03Z</time>
      </trkpt>
      <trkpt lat="48.20441" lon="-3.06239">
        <ele>135.2</ele>
        <time>2015-12-27T11:46:04Z</time>
      </trkpt>
      <trkpt lat="48.20441" lon="-3.06233">
        <ele>135.2</ele>
        <time>2015-12-27T11:46:05Z</time>
      </trkpt>
      <trkpt lat="48.20441" lon="-3.06229">
        <ele>135.2</ele>
        <time>2015-12-27T11:46:06Z</time>
      </trkpt>
      <trkpt lat="48.20441" lon="-3.06226">
        <ele>135.2</ele>
        <time>2015-12-27T11:46:07Z</time>
      </trkpt>
      <trkpt lat="48.20441" lon="-3.06222">
        <ele>135.2</ele>
        <time>2015-12-27T11:46:08Z</time>
      </trkpt>
      <trkpt lat="48.20442" lon="-3.06213">
        <ele>134.24</ele>
        <time>2015-12-27T11:46:12Z</time>
      </trkpt>
      <trkpt lat="48.20441" lon="-3.06211">
        <ele>134.24</ele>
        <time>2015-12-27T11:46:13Z</time>
      </trkpt>
      <trkpt lat="48.2044" lon="-3.06199">
        <ele>135.68</ele>
        <time>2015-12-27T11:46:17Z</time>
      </trkpt>
      <trkpt lat="48.2044" lon="-3.06196">
        <ele>135.68</ele>
        <time>2015-12-27T11:46:18Z</time>
      </trkpt>
      <trkpt lat="48.2044" lon="-3.06192">
        <ele>135.2</ele>
        <time>2015-12-27T11:46:19Z</time>
      </trkpt>
      <trkpt lat="48.20441" lon="-3.06178">
        <ele>135.2</ele>
        <time>2015-12-27T11:46:22Z</time>
      </trkpt>
      <trkpt lat="48.20444" lon="-3.0615">
        <ele>135.2</ele>
        <time>2015-12-27T11:46:29Z</time>
      </trkpt>
      <trkpt lat="48.20444" lon="-3.06146">
        <ele>135.68</ele>
        <time>2015-12-27T11:46:30Z</time>
      </trkpt>
      <trkpt lat="48.20445" lon="-3.06141">
        <ele>135.68</ele>
        <time>2015-12-27T11:46:31Z</time>
      </trkpt>
      <trkpt lat="48.20449" lon="-3.06107">
        <ele>132.8</ele>
        <time>2015-12-27T11:46:40Z</time>
      </trkpt>
      <trkpt lat="48.20452" lon="-3.06093">
        <ele>132.8</ele>
        <time>2015-12-27T11:46:44Z</time>
      </trkpt>
      <trkpt lat="48.20452" lon="-3.06089">
        <ele>132.32</ele>
        <time>2015-12-27T11:46:45Z</time>
      </trkpt>
      <trkpt lat="48.20452" lon="-3.06085">
        <ele>131.84</ele>
        <time>2015-12-27T11:46:46Z</time>
      </trkpt>
      <trkpt lat="48.20451" lon="-3.06082">
        <ele>131.84</ele>
        <time>2015-12-27T11:46:47Z</time>
      </trkpt>
      <trkpt lat="48.20451" lon="-3.06078">
        <ele>131.84</ele>
        <time>2015-12-27T11:46:48Z</time>
      </trkpt>
      <trkpt lat="48.20452" lon="-3.06075">
        <ele>132.32</ele>
        <time>2015-12-27T11:46:49Z</time>
      </trkpt>
      <trkpt lat="48.20452" lon="-3.06071">
        <ele>132.32</ele>
        <time>2015-12-27T11:46:50Z</time>
      </trkpt>
      <trkpt lat="48.20453" lon="-3.06068">
        <ele>132.32</ele>
        <time>2015-12-27T11:46:51Z</time>
      </trkpt>
      <trkpt lat="48.20454" lon="-3.06052">
        <ele>132.8</ele>
        <time>2015-12-27T11:46:56Z</time>
      </trkpt>
      <trkpt lat="48.20455" lon="-3.06049">
        <ele>132.8</ele>
        <time>2015-12-27T11:46:57Z</time>
      </trkpt>
      <trkpt lat="48.20456" lon="-3.06045">
        <ele>132.32</ele>
        <time>2015-12-27T11:46:58Z</time>
      </trkpt>
      <trkpt lat="48.20456" lon="-3.06041">
        <ele>132.32</ele>
        <time>2015-12-27T11:46:59Z</time>
      </trkpt>
      <trkpt lat="48.20456" lon="-3.06039">
        <ele>132.8</ele>
        <time>2015-12-27T11:47:00Z</time>
      </trkpt>
      <trkpt lat="48.20457" lon="-3.06033">
        <ele>132.32</ele>
        <time>2015-12-27T11:47:02Z</time>
      </trkpt>
      <trkpt lat="48.20456" lon="-3.06031">
        <ele>132.32</ele>
        <time>2015-12-27T11:47:03Z</time>
      </trkpt>
      <trkpt lat="48.20457" lon="-3.06029">
        <ele>132.32</ele>
        <time>2015-12-27T11:47:04Z</time>
      </trkpt>
      <trkpt lat="48.20458" lon="-3.06026">
        <ele>132.32</ele>
        <time>2015-12-27T11:47:05Z</time>
      </trkpt>
      <trkpt lat="48.20459" lon="-3.06023">
        <ele>131.84</ele>
        <time>2015-12-27T11:47:06Z</time>
      </trkpt>
      <trkpt lat="48.20459" lon="-3.0602">
        <ele>131.36</ele>
        <time>2015-12-27T11:47:07Z</time>
      </trkpt>
      <trkpt lat="48.20459" lon="-3.06017">
        <ele>130.88</ele>
        <time>2015-12-27T11:47:08Z</time>
      </trkpt>
      <trkpt lat="48.20459" lon="-3.06014">
        <ele>130.88</ele>
        <time>2015-12-27T11:47:09Z</time>
      </trkpt>
      <trkpt lat="48.2046" lon="-3.06011">
        <ele>130.88</ele>
        <time>2015-12-27T11:47:10Z</time>
      </trkpt>
      <trkpt lat="48.2046" lon="-3.06008">
        <ele>131.36</ele>
        <time>2015-12-27T11:47:11Z</time>
      </trkpt>
      <trkpt lat="48.20465" lon="-3.05984">
        <ele>130.4</ele>
        <time>2015-12-27T11:47:19Z</time>
      </trkpt>
      <trkpt lat="48.20465" lon="-3.05981">
        <ele>130.4</ele>
        <time>2015-12-27T11:47:20Z</time>
      </trkpt>
      <trkpt lat="48.20465" lon="-3.05975">
        <ele>130.4</ele>
        <time>2015-12-27T11:47:22Z</time>
      </trkpt>
      <trkpt lat="48.20466" lon="-3.05973">
        <ele>130.4</ele>
        <time>2015-12-27T11:47:23Z</time>
      </trkpt>
      <trkpt lat="48.20466" lon="-3.0597">
        <ele>129.92</ele>
        <time>2015-12-27T11:47:24Z</time>
      </trkpt>
      <trkpt lat="48.20466" lon="-3.05967">
        <ele>129.92</ele>
        <time>2015-12-27T11:47:25Z</time>
      </trkpt>
      <trkpt lat="48.20466" lon="-3.05964">
        <ele>129.43</ele>
        <time>2015-12-27T11:47:26Z</time>
      </trkpt>
      <trkpt lat="48.20467" lon="-3.05961">
        <ele>129.43</ele>
        <time>2015-12-27T11:47:27Z</time>
      </trkpt>
      <trkpt lat="48.20468" lon="-3.05958">
        <ele>129.43</ele>
        <time>2015-12-27T11:47:28Z</time>
      </trkpt>
      <trkpt lat="48.20469" lon="-3.05952">
        <ele>128.47</ele>
        <time>2015-12-27T11:47:30Z</time>
      </trkpt>
      <trkpt lat="48.2047" lon="-3.0595">
        <ele>127.99</ele>
        <time>2015-12-27T11:47:31Z</time>
      </trkpt>
      <trkpt lat="48.20472" lon="-3.05948">
        <ele>127.51</ele>
        <time>2015-12-27T11:47:32Z</time>
      </trkpt>
      <trkpt lat="48.20473" lon="-3.05946">
        <ele>127.51</ele>
        <time>2015-12-27T11:47:33Z</time>
      </trkpt>
      <trkpt lat="48.20474" lon="-3.05942">
        <ele>127.03</ele>
        <time>2015-12-27T11:47:34Z</time>
      </trkpt>
      <trkpt lat="48.20474" lon="-3.05937">
        <ele>126.07</ele>
        <time>2015-12-27T11:47:35Z</time>
      </trkpt>
      <trkpt lat="48.20474" lon="-3.05932">
        <ele>126.07</ele>
        <time>2015-12-27T11:47:36Z</time>
      </trkpt>
      <trkpt lat="48.20475" lon="-3.05927">
        <ele>125.11</ele>
        <time>2015-12-27T11:47:37Z</time>
      </trkpt>
      <trkpt lat="48.20476" lon="-3.05922">
        <ele>125.11</ele>
        <time>2015-12-27T11:47:38Z</time>
      </trkpt>
      <trkpt lat="48.20477" lon="-3.05918">
        <ele>125.11</ele>
        <time>2015-12-27T11:47:39Z</time>
      </trkpt>
      <trkpt lat="48.20478" lon="-3.05914">
        <ele>125.59</ele>
        <time>2015-12-27T11:47:40Z</time>
      </trkpt>
      <trkpt lat="48.20479" lon="-3.05908">
        <ele>126.07</ele>
        <time>2015-12-27T11:47:41Z</time>
      </trkpt>
      <trkpt lat="48.20489" lon="-3.05871">
        <ele>128.95</ele>
        <time>2015-12-27T11:47:50Z</time>
      </trkpt>
      <trkpt lat="48.20493" lon="-3.05836">
        <ele>131.84</ele>
        <time>2015-12-27T11:47:59Z</time>
      </trkpt>
      <trkpt lat="48.20494" lon="-3.05831">
        <ele>131.84</ele>
        <time>2015-12-27T11:48:00Z</time>
      </trkpt>
      <trkpt lat="48.20494" lon="-3.05828">
        <ele>131.84</ele>
        <time>2015-12-27T11:48:01Z</time>
      </trkpt>
      <trkpt lat="48.20495" lon="-3.05824">
        <ele>131.84</ele>
        <time>2015-12-27T11:48:02Z</time>
      </trkpt>
      <trkpt lat="48.20495" lon="-3.05821">
        <ele>131.36</ele>
        <time>2015-12-27T11:48:03Z</time>
      </trkpt>
      <trkpt lat="48.20496" lon="-3.05818">
        <ele>130.88</ele>
        <time>2015-12-27T11:48:04Z</time>
      </trkpt>
      <trkpt lat="48.20498" lon="-3.05791">
        <ele>133.28</ele>
        <time>2015-12-27T11:48:13Z</time>
      </trkpt>
      <trkpt lat="48.20498" lon="-3.05789">
        <ele>134.24</ele>
        <time>2015-12-27T11:48:14Z</time>
      </trkpt>
      <trkpt lat="48.20497" lon="-3.05785">
        <ele>135.68</ele>
        <time>2015-12-27T11:48:16Z</time>
      </trkpt>
      <trkpt lat="48.20496" lon="-3.05778">
        <ele>139.53</ele>
        <time>2015-12-27T11:48:21Z</time>
      </trkpt>
      <trkpt lat="48.205" lon="-3.0577">
        <ele>140.49</ele>
        <time>2015-12-27T11:48:23Z</time>
      </trkpt>
      <trkpt lat="48.20515" lon="-3.05732">
        <ele>138.57</ele>
        <time>2015-12-27T11:48:32Z</time>
      </trkpt>
      <trkpt lat="48.20516" lon="-3.05726">
        <ele>138.57</ele>
        <time>2015-12-27T11:48:33Z</time>
      </trkpt>
      <trkpt lat="48.20517" lon="-3.05722">
        <ele>138.57</ele>
        <time>2015-12-27T11:48:34Z</time>
      </trkpt>
      <trkpt lat="48.20519" lon="-3.05718">
        <ele>138.09</ele>
        <time>2015-12-27T11:48:35Z</time>
      </trkpt>
      <trkpt lat="48.2052" lon="-3.05714">
        <ele>137.61</ele>
        <time>2015-12-27T11:48:36Z</time>
      </trkpt>
      <trkpt lat="48.20521" lon="-3.05709">
        <ele>137.61</ele>
        <time>2015-12-27T11:48:37Z</time>
      </trkpt>
      <trkpt lat="48.20521" lon="-3.05705">
        <ele>137.13</ele>
        <time>2015-12-27T11:48:38Z</time>
      </trkpt>
      <trkpt lat="48.20522" lon="-3.057">
        <ele>136.64</ele>
        <time>2015-12-27T11:48:39Z</time>
      </trkpt>
      <trkpt lat="48.20523" lon="-3.05695">
        <ele>136.64</ele>
        <time>2015-12-27T11:48:40Z</time>
      </trkpt>
      <trkpt lat="48.20523" lon="-3.0569">
        <ele>136.16</ele>
        <time>2015-12-27T11:48:41Z</time>
      </trkpt>
      <trkpt lat="48.20524" lon="-3.05684">
        <ele>135.68</ele>
        <time>2015-12-27T11:48:43Z</time>
      </trkpt>
      <trkpt lat="48.20531" lon="-3.05664">
        <ele>134.72</ele>
        <time>2015-12-27T11:48:53Z</time>
      </trkpt>
      <trkpt lat="48.20531" lon="-3.05662">
        <ele>134.72</ele>
        <time>2015-12-27T11:48:54Z</time>
      </trkpt>
      <trkpt lat="48.20532" lon="-3.05642">
        <ele>136.16</ele>
        <time>2015-12-27T11:48:59Z</time>
      </trkpt>
      <trkpt lat="48.20534" lon="-3.05609">
        <ele>136.64</ele>
        <time>2015-12-27T11:49:08Z</time>
      </trkpt>
      <trkpt lat="48.2054" lon="-3.05592">
        <ele>139.05</ele>
        <time>2015-12-27T11:49:15Z</time>
      </trkpt>
      <trkpt lat="48.20544" lon="-3.05583">
        <ele>139.53</ele>
        <time>2015-12-27T11:49:19Z</time>
      </trkpt>
      <trkpt lat="48.2055" lon="-3.05545">
        <ele>137.13</ele>
        <time>2015-12-27T11:49:30Z</time>
      </trkpt>
      <trkpt lat="48.20543" lon="-3.05517">
        <ele>138.09</ele>
        <time>2015-12-27T11:49:41Z</time>
      </trkpt>
      <trkpt lat="48.20531" lon="-3.05473">
        <ele>141.93</ele>
        <time>2015-12-27T11:49:54Z</time>
      </trkpt>
      <trkpt lat="48.20529" lon="-3.05439">
        <ele>142.41</ele>
        <time>2015-12-27T11:50:01Z</time>
      </trkpt>
      <trkpt lat="48.20506" lon="-3.0541">
        <ele>138.57</ele>
        <time>2015-12-27T11:50:12Z</time>
      </trkpt>
      <trkpt lat="48.20469" lon="-3.05362">
        <ele>136.64</ele>
        <time>2015-12-27T11:50:25Z</time>
      </trkpt>
      <trkpt lat="48.20462" lon="-3.05348">
        <ele>135.68</ele>
        <time>2015-12-27T11:50:35Z</time>
      </trkpt>
      <trkpt lat="48.20458" lon="-3.05346">
        <ele>133.76</ele>
        <time>2015-12-27T11:50:42Z</time>
      </trkpt>
      <trkpt lat="48.20473" lon="-3.05363">
        <ele>129.92</ele>
        <time>2015-12-27T11:50:53Z</time>
      </trkpt>
      <trkpt lat="48.20483" lon="-3.05375">
        <ele>127.99</ele>
        <time>2015-12-27T11:50:58Z</time>
      </trkpt>
      <trkpt lat="48.20489" lon="-3.05383">
        <ele>128.47</ele>
        <time>2015-12-27T11:51:02Z</time>
      </trkpt>
      <trkpt lat="48.20493" lon="-3.05394">
        <ele>128.95</ele>
        <time>2015-12-27T11:51:06Z</time>
      </trkpt>
      <trkpt lat="48.20492" lon="-3.054">
        <ele>128.47</ele>
        <time>2015-12-27T11:51:09Z</time>
      </trkpt>
      <trkpt lat="48.20488" lon="-3.05408">
        <ele>129.43</ele>
        <time>2015-12-27T11:51:14Z</time>
      </trkpt>
      <trkpt lat="48.20468" lon="-3.05403">
        <ele>133.28</ele>
        <time>2015-12-27T11:51:25Z</time>
      </trkpt>
      <trkpt lat="48.20454" lon="-3.05402">
        <ele>137.13</ele>
        <time>2015-12-27T11:51:38Z</time>
      </trkpt>
      <trkpt lat="48.20452" lon="-3.05401">
        <ele>139.05</ele>
        <time>2015-12-27T11:51:44Z</time>
      </trkpt>
      <trkpt lat="48.20445" lon="-3.05404">
        <ele>138.57</ele>
        <time>2015-12-27T11:51:58Z</time>
      </trkpt>
      <trkpt lat="48.20443" lon="-3.05406">
        <ele>138.09</ele>
        <time>2015-12-27T11:52:10Z</time>
      </trkpt>
      <trkpt lat="48.20441" lon="-3.05407">
        <ele>137.61</ele>
        <time>2015-12-27T11:52:16Z</time>
      </trkpt>
      <trkpt lat="48.20437" lon="-3.05417">
        <ele>137.13</ele>
        <time>2015-12-27T11:52:28Z</time>
      </trkpt>
      <trkpt lat="48.2043" lon="-3.05433">
        <ele>139.05</ele>
        <time>2015-12-27T11:52:41Z</time>
      </trkpt>
      <trkpt lat="48.20424" lon="-3.05445">
        <ele>141.45</ele>
        <time>2015-12-27T11:52:53Z</time>
      </trkpt>
      <trkpt lat="48.20421" lon="-3.05451">
        <ele>142.89</ele>
        <time>2015-12-27T11:53:00Z</time>
      </trkpt>
      <trkpt lat="48.2042" lon="-3.05468">
        <ele>141.93</ele>
        <time>2015-12-27T11:53:13Z</time>
      </trkpt>
      <trkpt lat="48.20421" lon="-3.05486">
        <ele>143.85</ele>
        <time>2015-12-27T11:53:29Z</time>
      </trkpt>
      <trkpt lat="48.20419" lon="-3.05489">
        <ele>144.82</ele>
        <time>2015-12-27T11:53:49Z</time>
      </trkpt>
      <trkpt lat="48.20419" lon="-3.05492">
        <ele>148.18</ele>
        <time>2015-12-27T11:54:16Z</time>
      </trkpt>
      <trkpt lat="48.20419" lon="-3.05512">
        <ele>151.54</ele>
        <time>2015-12-27T11:54:28Z</time>
      </trkpt>
      <trkpt lat="48.20417" lon="-3.05526">
        <ele>152.51</ele>
        <time>2015-12-27T11:54:37Z</time>
      </trkpt>
      <trkpt lat="48.20408" lon="-3.05548">
        <ele>152.99</ele>
        <time>2015-12-27T11:54:51Z</time>
      </trkpt>
      <trkpt lat="48.20406" lon="-3.05555">
        <ele>152.99</ele>
        <time>2015-12-27T11:54:56Z</time>
      </trkpt>
      <trkpt lat="48.20395" lon="-3.05565">
        <ele>154.91</ele>
        <time>2015-12-27T11:55:07Z</time>
      </trkpt>
      <trkpt lat="48.20387" lon="-3.05568">
        <ele>155.39</ele>
        <time>2015-12-27T11:55:16Z</time>
      </trkpt>
      <trkpt lat="48.20378" lon="-3.05571">
        <ele>157.31</ele>
        <time>2015-12-27T11:55:23Z</time>
      </trkpt>
      <trkpt lat="48.20365" lon="-3.05566">
        <ele>158.75</ele>
        <time>2015-12-27T11:55:34Z</time>
      </trkpt>
      <trkpt lat="48.20353" lon="-3.05557">
        <ele>161.64</ele>
        <time>2015-12-27T11:55:46Z</time>
      </trkpt>
      <trkpt lat="48.20343" lon="-3.05548">
        <ele>163.56</ele>
        <time>2015-12-27T11:55:56Z</time>
      </trkpt>
      <trkpt lat="48.20331" lon="-3.05537">
        <ele>165.48</ele>
        <time>2015-12-27T11:56:07Z</time>
      </trkpt>
      <trkpt lat="48.20318" lon="-3.05524">
        <ele>167.41</ele>
        <time>2015-12-27T11:56:20Z</time>
      </trkpt>
      <trkpt lat="48.20306" lon="-3.05515">
        <ele>168.85</ele>
        <time>2015-12-27T11:56:31Z</time>
      </trkpt>
      <trkpt lat="48.2029" lon="-3.05512">
        <ele>168.37</ele>
        <time>2015-12-27T11:56:45Z</time>
      </trkpt>
      <trkpt lat="48.20283" lon="-3.05512">
        <ele>168.85</ele>
        <time>2015-12-27T11:56:59Z</time>
      </trkpt>
      <trkpt lat="48.20275" lon="-3.05512">
        <ele>169.33</ele>
        <time>2015-12-27T11:57:06Z</time>
      </trkpt>
      <trkpt lat="48.20262" lon="-3.05511">
        <ele>171.25</ele>
        <time>2015-12-27T11:57:18Z</time>
      </trkpt>
      <trkpt lat="48.20251" lon="-3.05505">
        <ele>173.17</ele>
        <time>2015-12-27T11:57:32Z</time>
      </trkpt>
      <trkpt lat="48.20246" lon="-3.05504">
        <ele>174.62</ele>
        <time>2015-12-27T11:57:42Z</time>
      </trkpt>
      <trkpt lat="48.20239" lon="-3.05497">
        <ele>176.06</ele>
        <time>2015-12-27T11:57:53Z</time>
      </trkpt>
      <trkpt lat="48.20226" lon="-3.05491">
        <ele>177.98</ele>
        <time>2015-12-27T11:58:09Z</time>
      </trkpt>
      <trkpt lat="48.20221" lon="-3.05483">
        <ele>178.46</ele>
        <time>2015-12-27T11:58:14Z</time>
      </trkpt>
      <trkpt lat="48.2021" lon="-3.05463">
        <ele>179.9</ele>
        <time>2015-12-27T11:58:28Z</time>
      </trkpt>
      <trkpt lat="48.20194" lon="-3.05453">
        <ele>180.87</ele>
        <time>2015-12-27T11:58:40Z</time>
      </trkpt>
      <trkpt lat="48.20192" lon="-3.05451">
        <ele>181.35</ele>
        <time>2015-12-27T11:58:43Z</time>
      </trkpt>
      <trkpt lat="48.2019" lon="-3.05451">
        <ele>181.83</ele>
        <time>2015-12-27T11:58:44Z</time>
      </trkpt>
      <trkpt lat="48.20189" lon="-3.0545">
        <ele>181.83</ele>
        <time>2015-12-27T11:58:45Z</time>
      </trkpt>
      <trkpt lat="48.20168" lon="-3.05437">
        <ele>183.27</ele>
        <time>2015-12-27T11:59:00Z</time>
      </trkpt>
      <trkpt lat="48.20155" lon="-3.05424">
        <ele>185.19</ele>
        <time>2015-12-27T11:59:12Z</time>
      </trkpt>
      <trkpt lat="48.20137" lon="-3.05411">
        <ele>185.67</ele>
        <time>2015-12-27T11:59:23Z</time>
      </trkpt>
      <trkpt lat="48.2012" lon="-3.05404">
        <ele>187.11</ele>
        <time>2015-12-27T11:59:34Z</time>
      </trkpt>
      <trkpt lat="48.20105" lon="-3.05401">
        <ele>187.59</ele>
        <time>2015-12-27T11:59:45Z</time>
      </trkpt>
      <trkpt lat="48.20104" lon="-3.054">
        <ele>187.59</ele>
        <time>2015-12-27T11:59:46Z</time>
      </trkpt>
      <trkpt lat="48.20096" lon="-3.05386">
        <ele>187.59</ele>
        <time>2015-12-27T11:59:58Z</time>
      </trkpt>
      <trkpt lat="48.20095" lon="-3.0538">
        <ele>186.63</ele>
        <time>2015-12-27T12:00:02Z</time>
      </trkpt>
      <trkpt lat="48.20096" lon="-3.05378">
        <ele>186.15</ele>
        <time>2015-12-27T12:00:03Z</time>
      </trkpt>
      <trkpt lat="48.20098" lon="-3.05375">
        <ele>185.67</ele>
        <time>2015-12-27T12:00:04Z</time>
      </trkpt>
      <trkpt lat="48.201" lon="-3.05372">
        <ele>185.19</ele>
        <time>2015-12-27T12:00:05Z</time>
      </trkpt>
      <trkpt lat="48.20102" lon="-3.05365">
        <ele>184.71</ele>
        <time>2015-12-27T12:00:06Z</time>
      </trkpt>
      <trkpt lat="48.20103" lon="-3.05359">
        <ele>184.23</ele>
        <time>2015-12-27T12:00:07Z</time>
      </trkpt>
      <trkpt lat="48.20105" lon="-3.0535">
        <ele>183.75</ele>
        <time>2015-12-27T12:00:08Z</time>
      </trkpt>
      <trkpt lat="48.20106" lon="-3.05341">
        <ele>182.79</ele>
        <time>2015-12-27T12:00:09Z</time>
      </trkpt>
      <trkpt lat="48.20106" lon="-3.05331">
        <ele>181.83</ele>
        <time>2015-12-27T12:00:10Z</time>
      </trkpt>
      <trkpt lat="48.20106" lon="-3.05278">
        <ele>176.06</ele>
        <time>2015-12-27T12:00:19Z</time>
      </trkpt>
      <trkpt lat="48.20096" lon="-3.05254">
        <ele>177.98</ele>
        <time>2015-12-27T12:00:28Z</time>
      </trkpt>
      <trkpt lat="48.20096" lon="-3.05252">
        <ele>177.98</ele>
        <time>2015-12-27T12:00:29Z</time>
      </trkpt>
      <trkpt lat="48.20096" lon="-3.05249">
        <ele>177.98</ele>
        <time>2015-12-27T12:00:30Z</time>
      </trkpt>
      <trkpt lat="48.20092" lon="-3.05231">
        <ele>181.35</ele>
        <time>2015-12-27T12:00:37Z</time>
      </trkpt>
      <trkpt lat="48.20092" lon="-3.05228">
        <ele>181.35</ele>
        <time>2015-12-27T12:00:38Z</time>
      </trkpt>
      <trkpt lat="48.20092" lon="-3.05226">
        <ele>181.83</ele>
        <time>2015-12-27T12:00:39Z</time>
      </trkpt>
      <trkpt lat="48.20092" lon="-3.05225">
        <ele>181.83</ele>
        <time>2015-12-27T12:00:40Z</time>
      </trkpt>
      <trkpt lat="48.20093" lon="-3.05223">
        <ele>182.31</ele>
        <time>2015-12-27T12:00:41Z</time>
      </trkpt>
      <trkpt lat="48.20093" lon="-3.05221">
        <ele>182.79</ele>
        <time>2015-12-27T12:00:42Z</time>
      </trkpt>
      <trkpt lat="48.20092" lon="-3.05218">
        <ele>183.27</ele>
        <time>2015-12-27T12:00:43Z</time>
      </trkpt>
      <trkpt lat="48.20091" lon="-3.05209">
        <ele>183.75</ele>
        <time>2015-12-27T12:00:47Z</time>
      </trkpt>
      <trkpt lat="48.20091" lon="-3.05206">
        <ele>183.75</ele>
        <time>2015-12-27T12:00:48Z</time>
      </trkpt>
      <trkpt lat="48.20091" lon="-3.05204">
        <ele>184.23</ele>
        <time>2015-12-27T12:00:49Z</time>
      </trkpt>
      <trkpt lat="48.20091" lon="-3.05201">
        <ele>184.71</ele>
        <time>2015-12-27T12:00:50Z</time>
      </trkpt>
      <trkpt lat="48.20095" lon="-3.0518">
        <ele>190</ele>
        <time>2015-12-27T12:01:02Z</time>
      </trkpt>
      <trkpt lat="48.20101" lon="-3.05163">
        <ele>191.92</ele>
        <time>2015-12-27T12:01:13Z</time>
      </trkpt>
      <trkpt lat="48.20102" lon="-3.05159">
        <ele>192.4</ele>
        <time>2015-12-27T12:01:15Z</time>
      </trkpt>
      <trkpt lat="48.20103" lon="-3.05157">
        <ele>192.4</ele>
        <time>2015-12-27T12:01:16Z</time>
      </trkpt>
      <trkpt lat="48.20105" lon="-3.05148">
        <ele>193.36</ele>
        <time>2015-12-27T12:01:22Z</time>
      </trkpt>
      <trkpt lat="48.20116" lon="-3.05124">
        <ele>193.36</ele>
        <time>2015-12-27T12:01:35Z</time>
      </trkpt>
      <trkpt lat="48.20117" lon="-3.05122">
        <ele>193.36</ele>
        <time>2015-12-27T12:01:36Z</time>
      </trkpt>
      <trkpt lat="48.20118" lon="-3.05116">
        <ele>193.36</ele>
        <time>2015-12-27T12:01:39Z</time>
      </trkpt>
      <trkpt lat="48.20118" lon="-3.05092">
        <ele>195.28</ele>
        <time>2015-12-27T12:01:52Z</time>
      </trkpt>
      <trkpt lat="48.20118" lon="-3.05091">
        <ele>195.77</ele>
        <time>2015-12-27T12:01:53Z</time>
      </trkpt>
      <trkpt lat="48.20114" lon="-3.05074">
        <ele>202.01</ele>
        <time>2015-12-27T12:02:05Z</time>
      </trkpt>
      <trkpt lat="48.20111" lon="-3.05061">
        <ele>202.49</ele>
        <time>2015-12-27T12:02:12Z</time>
      </trkpt>
      <trkpt lat="48.2011" lon="-3.05057">
        <ele>202.01</ele>
        <time>2015-12-27T12:02:14Z</time>
      </trkpt>
      <trkpt lat="48.20101" lon="-3.0503">
        <ele>202.98</ele>
        <time>2015-12-27T12:02:28Z</time>
      </trkpt>
      <trkpt lat="48.20099" lon="-3.05024">
        <ele>201.53</ele>
        <time>2015-12-27T12:02:31Z</time>
      </trkpt>
      <trkpt lat="48.20099" lon="-3.05021">
        <ele>201.05</ele>
        <time>2015-12-27T12:02:32Z</time>
      </trkpt>
      <trkpt lat="48.20091" lon="-3.04994">
        <ele>200.57</ele>
        <time>2015-12-27T12:02:48Z</time>
      </trkpt>
      <trkpt lat="48.20087" lon="-3.04974">
        <ele>203.46</ele>
        <time>2015-12-27T12:03:01Z</time>
      </trkpt>
      <trkpt lat="48.20086" lon="-3.04967">
        <ele>206.34</ele>
        <time>2015-12-27T12:03:06Z</time>
      </trkpt>
      <trkpt lat="48.20081" lon="-3.04945">
        <ele>212.59</ele>
        <time>2015-12-27T12:03:19Z</time>
      </trkpt>
      <trkpt lat="48.20079" lon="-3.04922">
        <ele>216.43</ele>
        <time>2015-12-27T12:03:33Z</time>
      </trkpt>
      <trkpt lat="48.20079" lon="-3.04911">
        <ele>217.88</ele>
        <time>2015-12-27T12:03:39Z</time>
      </trkpt>
      <trkpt lat="48.20078" lon="-3.04882">
        <ele>218.36</ele>
        <time>2015-12-27T12:03:51Z</time>
      </trkpt>
      <trkpt lat="48.20078" lon="-3.04862">
        <ele>214.99</ele>
        <time>2015-12-27T12:03:55Z</time>
      </trkpt>
      <trkpt lat="48.20081" lon="-3.04819">
        <ele>207.3</ele>
        <time>2015-12-27T12:04:06Z</time>
      </trkpt>
      <trkpt lat="48.20081" lon="-3.04794">
        <ele>204.42</ele>
        <time>2015-12-27T12:04:11Z</time>
      </trkpt>
      <trkpt lat="48.2008" lon="-3.04785">
        <ele>203.46</ele>
        <time>2015-12-27T12:04:12Z</time>
      </trkpt>
      <trkpt lat="48.20078" lon="-3.04776">
        <ele>202.49</ele>
        <time>2015-12-27T12:04:13Z</time>
      </trkpt>
      <trkpt lat="48.20076" lon="-3.04767">
        <ele>201.53</ele>
        <time>2015-12-27T12:04:14Z</time>
      </trkpt>
      <trkpt lat="48.20072" lon="-3.04758">
        <ele>201.05</ele>
        <time>2015-12-27T12:04:15Z</time>
      </trkpt>
      <trkpt lat="48.20067" lon="-3.04748">
        <ele>200.09</ele>
        <time>2015-12-27T12:04:16Z</time>
      </trkpt>
      <trkpt lat="48.20061" lon="-3.04737">
        <ele>199.61</ele>
        <time>2015-12-27T12:04:17Z</time>
      </trkpt>
      <trkpt lat="48.20056" lon="-3.04725">
        <ele>198.65</ele>
        <time>2015-12-27T12:04:18Z</time>
      </trkpt>
      <trkpt lat="48.20051" lon="-3.04713">
        <ele>198.17</ele>
        <time>2015-12-27T12:04:19Z</time>
      </trkpt>
      <trkpt lat="48.20047" lon="-3.047">
        <ele>197.69</ele>
        <time>2015-12-27T12:04:20Z</time>
      </trkpt>
      <trkpt lat="48.20038" lon="-3.04668">
        <ele>196.73</ele>
        <time>2015-12-27T12:04:23Z</time>
      </trkpt>
      <trkpt lat="48.20036" lon="-3.04659">
        <ele>196.73</ele>
        <time>2015-12-27T12:04:24Z</time>
      </trkpt>
      <trkpt lat="48.20034" lon="-3.04648">
        <ele>196.73</ele>
        <time>2015-12-27T12:04:26Z</time>
      </trkpt>
      <trkpt lat="48.20033" lon="-3.04622">
        <ele>200.09</ele>
        <time>2015-12-27T12:04:37Z</time>
      </trkpt>
      <trkpt lat="48.20033" lon="-3.04588">
        <ele>206.82</ele>
        <time>2015-12-27T12:04:50Z</time>
      </trkpt>
      <trkpt lat="48.20026" lon="-3.04546">
        <ele>204.42</ele>
        <time>2015-12-27T12:05:02Z</time>
      </trkpt>
      <trkpt lat="48.20018" lon="-3.04506">
        <ele>203.46</ele>
        <time>2015-12-27T12:05:16Z</time>
      </trkpt>
      <trkpt lat="48.20009" lon="-3.04467">
        <ele>207.3</ele>
        <time>2015-12-27T12:05:30Z</time>
      </trkpt>
      <trkpt lat="48.20009" lon="-3.04459">
        <ele>209.22</ele>
        <time>2015-12-27T12:05:34Z</time>
      </trkpt>
      <trkpt lat="48.20012" lon="-3.04448">
        <ele>210.19</ele>
        <time>2015-12-27T12:05:40Z</time>
      </trkpt>
      <trkpt lat="48.2001" lon="-3.04443">
        <ele>210.67</ele>
        <time>2015-12-27T12:05:41Z</time>
      </trkpt>
      <trkpt lat="48.20009" lon="-3.04439">
        <ele>210.19</ele>
        <time>2015-12-27T12:05:42Z</time>
      </trkpt>
      <trkpt lat="48.20007" lon="-3.04435">
        <ele>210.19</ele>
        <time>2015-12-27T12:05:43Z</time>
      </trkpt>
      <trkpt lat="48.20005" lon="-3.04429">
        <ele>210.19</ele>
        <time>2015-12-27T12:05:44Z</time>
      </trkpt>
      <trkpt lat="48.1999" lon="-3.04388">
        <ele>209.22</ele>
        <time>2015-12-27T12:05:58Z</time>
      </trkpt>
      <trkpt lat="48.19986" lon="-3.04377">
        <ele>208.74</ele>
        <time>2015-12-27T12:06:03Z</time>
      </trkpt>
      <trkpt lat="48.19985" lon="-3.04374">
        <ele>208.74</ele>
        <time>2015-12-27T12:06:04Z</time>
      </trkpt>
      <trkpt lat="48.19985" lon="-3.04371">
        <ele>208.74</ele>
        <time>2015-12-27T12:06:05Z</time>
      </trkpt>
      <trkpt lat="48.19978" lon="-3.04329">
        <ele>209.7</ele>
        <time>2015-12-27T12:06:20Z</time>
      </trkpt>
      <trkpt lat="48.19972" lon="-3.04285">
        <ele>211.15</ele>
        <time>2015-12-27T12:06:35Z</time>
      </trkpt>
      <trkpt lat="48.19962" lon="-3.04248">
        <ele>211.63</ele>
        <time>2015-12-27T12:06:50Z</time>
      </trkpt>
      <trkpt lat="48.1996" lon="-3.04247">
        <ele>211.63</ele>
        <time>2015-12-27T12:06:51Z</time>
      </trkpt>
      <trkpt lat="48.19959" lon="-3.04246">
        <ele>212.11</ele>
        <time>2015-12-27T12:06:52Z</time>
      </trkpt>
      <trkpt lat="48.19958" lon="-3.04243">
        <ele>212.11</ele>
        <time>2015-12-27T12:06:53Z</time>
      </trkpt>
      <trkpt lat="48.19957" lon="-3.04241">
        <ele>212.59</ele>
        <time>2015-12-27T12:06:54Z</time>
      </trkpt>
      <trkpt lat="48.19956" lon="-3.04239">
        <ele>213.07</ele>
        <time>2015-12-27T12:06:55Z</time>
      </trkpt>
      <trkpt lat="48.19955" lon="-3.04237">
        <ele>213.07</ele>
        <time>2015-12-27T12:06:56Z</time>
      </trkpt>
      <trkpt lat="48.19954" lon="-3.04235">
        <ele>213.55</ele>
        <time>2015-12-27T12:06:57Z</time>
      </trkpt>
      <trkpt lat="48.19954" lon="-3.04233">
        <ele>214.03</ele>
        <time>2015-12-27T12:06:58Z</time>
      </trkpt>
      <trkpt lat="48.19953" lon="-3.04231">
        <ele>214.51</ele>
        <time>2015-12-27T12:06:59Z</time>
      </trkpt>
      <trkpt lat="48.19952" lon="-3.04229">
        <ele>214.51</ele>
        <time>2015-12-27T12:07:00Z</time>
      </trkpt>
      <trkpt lat="48.19951" lon="-3.04226">
        <ele>214.99</ele>
        <time>2015-12-27T12:07:01Z</time>
      </trkpt>
      <trkpt lat="48.19935" lon="-3.04196">
        <ele>217.88</ele>
        <time>2015-12-27T12:07:16Z</time>
      </trkpt>
      <trkpt lat="48.19933" lon="-3.04193">
        <ele>218.36</ele>
        <time>2015-12-27T12:07:17Z</time>
      </trkpt>
      <trkpt lat="48.19933" lon="-3.04191">
        <ele>218.36</ele>
        <time>2015-12-27T12:07:18Z</time>
      </trkpt>
      <trkpt lat="48.19932" lon="-3.04189">
        <ele>218.36</ele>
        <time>2015-12-27T12:07:19Z</time>
      </trkpt>
      <trkpt lat="48.19931" lon="-3.04187">
        <ele>218.84</ele>
        <time>2015-12-27T12:07:20Z</time>
      </trkpt>
      <trkpt lat="48.19929" lon="-3.04185">
        <ele>218.84</ele>
        <time>2015-12-27T12:07:21Z</time>
      </trkpt>
      <trkpt lat="48.19928" lon="-3.04183">
        <ele>218.84</ele>
        <time>2015-12-27T12:07:22Z</time>
      </trkpt>
      <trkpt lat="48.19927" lon="-3.04181">
        <ele>219.32</ele>
        <time>2015-12-27T12:07:23Z</time>
      </trkpt>
      <trkpt lat="48.19926" lon="-3.04179">
        <ele>219.32</ele>
        <time>2015-12-27T12:07:24Z</time>
      </trkpt>
      <trkpt lat="48.19924" lon="-3.04177">
        <ele>219.32</ele>
        <time>2015-12-27T12:07:25Z</time>
      </trkpt>
      <trkpt lat="48.19911" lon="-3.04143">
        <ele>219.8</ele>
        <time>2015-12-27T12:07:39Z</time>
      </trkpt>
      <trkpt lat="48.19896" lon="-3.0409">
        <ele>217.88</ele>
        <time>2015-12-27T12:07:54Z</time>
      </trkpt>
      <trkpt lat="48.1987" lon="-3.04041">
        <ele>216.91</ele>
        <time>2015-12-27T12:08:05Z</time>
      </trkpt>
      <trkpt lat="48.19859" lon="-3.04025">
        <ele>215.47</ele>
        <time>2015-12-27T12:08:08Z</time>
      </trkpt>
      <trkpt lat="48.19854" lon="-3.04021">
        <ele>214.51</ele>
        <time>2015-12-27T12:08:09Z</time>
      </trkpt>
      <trkpt lat="48.19849" lon="-3.04018">
        <ele>214.03</ele>
        <time>2015-12-27T12:08:10Z</time>
      </trkpt>
      <trkpt lat="48.19843" lon="-3.04015">
        <ele>213.55</ele>
        <time>2015-12-27T12:08:11Z</time>
      </trkpt>
      <trkpt lat="48.19837" lon="-3.04013">
        <ele>213.07</ele>
        <time>2015-12-27T12:08:12Z</time>
      </trkpt>
      <trkpt lat="48.1983" lon="-3.04012">
        <ele>212.59</ele>
        <time>2015-12-27T12:08:13Z</time>
      </trkpt>
      <trkpt lat="48.19763" lon="-3.03999">
        <ele>206.82</ele>
        <time>2015-12-27T12:08:21Z</time>
      </trkpt>
      <trkpt lat="48.19727" lon="-3.04002">
        <ele>202.49</ele>
        <time>2015-12-27T12:08:26Z</time>
      </trkpt>
      <trkpt lat="48.19721" lon="-3.04001">
        <ele>202.01</ele>
        <time>2015-12-27T12:08:27Z</time>
      </trkpt>
      <trkpt lat="48.19703" lon="-3.03998">
        <ele>201.53</ele>
        <time>2015-12-27T12:08:35Z</time>
      </trkpt>
      <trkpt lat="48.19687" lon="-3.03994">
        <ele>201.53</ele>
        <time>2015-12-27T12:08:43Z</time>
      </trkpt>
      <trkpt lat="48.19683" lon="-3.03986">
        <ele>201.53</ele>
        <time>2015-12-27T12:08:45Z</time>
      </trkpt>
      <trkpt lat="48.19681" lon="-3.0398">
        <ele>201.05</ele>
        <time>2015-12-27T12:08:46Z</time>
      </trkpt>
      <trkpt lat="48.19679" lon="-3.03973">
        <ele>200.57</ele>
        <time>2015-12-27T12:08:47Z</time>
      </trkpt>
      <trkpt lat="48.19676" lon="-3.03966">
        <ele>200.09</ele>
        <time>2015-12-27T12:08:48Z</time>
      </trkpt>
      <trkpt lat="48.19675" lon="-3.03958">
        <ele>200.09</ele>
        <time>2015-12-27T12:08:49Z</time>
      </trkpt>
      <trkpt lat="48.19675" lon="-3.03952">
        <ele>199.61</ele>
        <time>2015-12-27T12:08:50Z</time>
      </trkpt>
      <trkpt lat="48.19675" lon="-3.03947">
        <ele>199.61</ele>
        <time>2015-12-27T12:08:51Z</time>
      </trkpt>
      <trkpt lat="48.19675" lon="-3.03943">
        <ele>199.13</ele>
        <time>2015-12-27T12:08:52Z</time>
      </trkpt>
      <trkpt lat="48.19675" lon="-3.0394">
        <ele>199.13</ele>
        <time>2015-12-27T12:08:53Z</time>
      </trkpt>
      <trkpt lat="48.19675" lon="-3.03937">
        <ele>198.65</ele>
        <time>2015-12-27T12:08:54Z</time>
      </trkpt>
      <trkpt lat="48.19673" lon="-3.0393">
        <ele>197.69</ele>
        <time>2015-12-27T12:08:57Z</time>
      </trkpt>
      <trkpt lat="48.19672" lon="-3.03925">
        <ele>196.73</ele>
        <time>2015-12-27T12:09:00Z</time>
      </trkpt>
      <trkpt lat="48.19671" lon="-3.03922">
        <ele>196.73</ele>
        <time>2015-12-27T12:09:01Z</time>
      </trkpt>
      <trkpt lat="48.19664" lon="-3.0391">
        <ele>199.13</ele>
        <time>2015-12-27T12:09:10Z</time>
      </trkpt>
      <trkpt lat="48.1965" lon="-3.03902">
        <ele>204.42</ele>
        <time>2015-12-27T12:09:23Z</time>
      </trkpt>
      <trkpt lat="48.19632" lon="-3.03897">
        <ele>209.22</ele>
        <time>2015-12-27T12:09:36Z</time>
      </trkpt>
      <trkpt lat="48.19627" lon="-3.03894">
        <ele>209.22</ele>
        <time>2015-12-27T12:09:40Z</time>
      </trkpt>
      <trkpt lat="48.19625" lon="-3.03894">
        <ele>209.7</ele>
        <time>2015-12-27T12:09:42Z</time>
      </trkpt>
      <trkpt lat="48.19619" lon="-3.03891">
        <ele>212.11</ele>
        <time>2015-12-27T12:09:48Z</time>
      </trkpt>
      <trkpt lat="48.19606" lon="-3.03882">
        <ele>211.63</ele>
        <time>2015-12-27T12:10:01Z</time>
      </trkpt>
      <trkpt lat="48.19599" lon="-3.03866">
        <ele>211.15</ele>
        <time>2015-12-27T12:10:13Z</time>
      </trkpt>
      <trkpt lat="48.19599" lon="-3.0385">
        <ele>210.19</ele>
        <time>2015-12-27T12:10:22Z</time>
      </trkpt>
      <trkpt lat="48.19601" lon="-3.03843">
        <ele>209.7</ele>
        <time>2015-12-27T12:10:26Z</time>
      </trkpt>
      <trkpt lat="48.19607" lon="-3.03811">
        <ele>206.34</ele>
        <time>2015-12-27T12:10:44Z</time>
      </trkpt>
      <trkpt lat="48.19609" lon="-3.03802">
        <ele>204.9</ele>
        <time>2015-12-27T12:10:49Z</time>
      </trkpt>
      <trkpt lat="48.19611" lon="-3.03773">
        <ele>205.86</ele>
        <time>2015-12-27T12:11:04Z</time>
      </trkpt>
      <trkpt lat="48.19604" lon="-3.03754">
        <ele>209.7</ele>
        <time>2015-12-27T12:11:19Z</time>
      </trkpt>
      <trkpt lat="48.19595" lon="-3.03735">
        <ele>215.95</ele>
        <time>2015-12-27T12:11:32Z</time>
      </trkpt>
      <trkpt lat="48.19591" lon="-3.03728">
        <ele>217.88</ele>
        <time>2015-12-27T12:11:39Z</time>
      </trkpt>
      <trkpt lat="48.19586" lon="-3.03713">
        <ele>220.76</ele>
        <time>2015-12-27T12:11:52Z</time>
      </trkpt>
      <trkpt lat="48.19582" lon="-3.03692">
        <ele>221.72</ele>
        <time>2015-12-27T12:12:05Z</time>
      </trkpt>
      <trkpt lat="48.19582" lon="-3.03669">
        <ele>222.68</ele>
        <time>2015-12-27T12:12:21Z</time>
      </trkpt>
      <trkpt lat="48.19582" lon="-3.03656">
        <ele>223.16</ele>
        <time>2015-12-27T12:12:30Z</time>
      </trkpt>
      <trkpt lat="48.19582" lon="-3.03631">
        <ele>221.72</ele>
        <time>2015-12-27T12:12:45Z</time>
      </trkpt>
      <trkpt lat="48.19575" lon="-3.03621">
        <ele>223.16</ele>
        <time>2015-12-27T12:12:57Z</time>
      </trkpt>
      <trkpt lat="48.19573" lon="-3.03619">
        <ele>223.16</ele>
        <time>2015-12-27T12:12:59Z</time>
      </trkpt>
      <trkpt lat="48.19558" lon="-3.03607">
        <ele>227.97</ele>
        <time>2015-12-27T12:13:12Z</time>
      </trkpt>
      <trkpt lat="48.19556" lon="-3.03604">
        <ele>228.93</ele>
        <time>2015-12-27T12:13:14Z</time>
      </trkpt>
      <trkpt lat="48.19554" lon="-3.03604">
        <ele>229.89</ele>
        <time>2015-12-27T12:13:15Z</time>
      </trkpt>
      <trkpt lat="48.19552" lon="-3.03604">
        <ele>230.37</ele>
        <time>2015-12-27T12:13:16Z</time>
      </trkpt>
      <trkpt lat="48.19551" lon="-3.03603">
        <ele>230.85</ele>
        <time>2015-12-27T12:13:17Z</time>
      </trkpt>
      <trkpt lat="48.19549" lon="-3.03603">
        <ele>231.33</ele>
        <time>2015-12-27T12:13:18Z</time>
      </trkpt>
      <trkpt lat="48.19543" lon="-3.03598">
        <ele>233.74</ele>
        <time>2015-12-27T12:13:22Z</time>
      </trkpt>
      <trkpt lat="48.19541" lon="-3.03597">
        <ele>233.74</ele>
        <time>2015-12-27T12:13:23Z</time>
      </trkpt>
      <trkpt lat="48.19534" lon="-3.03595">
        <ele>235.18</ele>
        <time>2015-12-27T12:13:29Z</time>
      </trkpt>
      <trkpt lat="48.19532" lon="-3.03594">
        <ele>235.18</ele>
        <time>2015-12-27T12:13:30Z</time>
      </trkpt>
      <trkpt lat="48.19525" lon="-3.03591">
        <ele>236.14</ele>
        <time>2015-12-27T12:13:34Z</time>
      </trkpt>
      <trkpt lat="48.19523" lon="-3.0359">
        <ele>236.62</ele>
        <time>2015-12-27T12:13:35Z</time>
      </trkpt>
      <trkpt lat="48.19522" lon="-3.03589">
        <ele>236.62</ele>
        <time>2015-12-27T12:13:36Z</time>
      </trkpt>
      <trkpt lat="48.1952" lon="-3.03588">
        <ele>237.1</ele>
        <time>2015-12-27T12:13:37Z</time>
      </trkpt>
      <trkpt lat="48.19518" lon="-3.03587">
        <ele>237.1</ele>
        <time>2015-12-27T12:13:38Z</time>
      </trkpt>
      <trkpt lat="48.19491" lon="-3.03572">
        <ele>236.62</ele>
        <time>2015-12-27T12:13:50Z</time>
      </trkpt>
      <trkpt lat="48.19459" lon="-3.03554">
        <ele>236.14</ele>
        <time>2015-12-27T12:14:00Z</time>
      </trkpt>
      <trkpt lat="48.19452" lon="-3.03547">
        <ele>235.66</ele>
        <time>2015-12-27T12:14:02Z</time>
      </trkpt>
      <trkpt lat="48.1945" lon="-3.03541">
        <ele>235.66</ele>
        <time>2015-12-27T12:14:03Z</time>
      </trkpt>
      <trkpt lat="48.19446" lon="-3.03527">
        <ele>232.78</ele>
        <time>2015-12-27T12:14:05Z</time>
      </trkpt>
      <trkpt lat="48.19445" lon="-3.0352">
        <ele>231.33</ele>
        <time>2015-12-27T12:14:06Z</time>
      </trkpt>
      <trkpt lat="48.19444" lon="-3.03513">
        <ele>230.37</ele>
        <time>2015-12-27T12:14:07Z</time>
      </trkpt>
      <trkpt lat="48.19443" lon="-3.03507">
        <ele>229.41</ele>
        <time>2015-12-27T12:14:08Z</time>
      </trkpt>
      <trkpt lat="48.19442" lon="-3.03501">
        <ele>228.93</ele>
        <time>2015-12-27T12:14:09Z</time>
      </trkpt>
      <trkpt lat="48.19441" lon="-3.03494">
        <ele>227.97</ele>
        <time>2015-12-27T12:14:10Z</time>
      </trkpt>
      <trkpt lat="48.1944" lon="-3.03488">
        <ele>227.01</ele>
        <time>2015-12-27T12:14:11Z</time>
      </trkpt>
      <trkpt lat="48.19438" lon="-3.03482">
        <ele>226.05</ele>
        <time>2015-12-27T12:14:12Z</time>
      </trkpt>
      <trkpt lat="48.19437" lon="-3.03476">
        <ele>225.09</ele>
        <time>2015-12-27T12:14:13Z</time>
      </trkpt>
      <trkpt lat="48.19436" lon="-3.0347">
        <ele>224.12</ele>
        <time>2015-12-27T12:14:14Z</time>
      </trkpt>
      <trkpt lat="48.19435" lon="-3.03463">
        <ele>223.16</ele>
        <time>2015-12-27T12:14:15Z</time>
      </trkpt>
      <trkpt lat="48.19434" lon="-3.03457">
        <ele>222.2</ele>
        <time>2015-12-27T12:14:16Z</time>
      </trkpt>
      <trkpt lat="48.19433" lon="-3.03451">
        <ele>220.76</ele>
        <time>2015-12-27T12:14:17Z</time>
      </trkpt>
      <trkpt lat="48.19432" lon="-3.03445">
        <ele>219.8</ele>
        <time>2015-12-27T12:14:18Z</time>
      </trkpt>
      <trkpt lat="48.19431" lon="-3.03439">
        <ele>218.84</ele>
        <time>2015-12-27T12:14:19Z</time>
      </trkpt>
      <trkpt lat="48.1943" lon="-3.03432">
        <ele>217.4</ele>
        <time>2015-12-27T12:14:20Z</time>
      </trkpt>
      <trkpt lat="48.1943" lon="-3.03425">
        <ele>216.43</ele>
        <time>2015-12-27T12:14:21Z</time>
      </trkpt>
      <trkpt lat="48.19432" lon="-3.03401">
        <ele>213.07</ele>
        <time>2015-12-27T12:14:24Z</time>
      </trkpt>
      <trkpt lat="48.19432" lon="-3.03393">
        <ele>211.63</ele>
        <time>2015-12-27T12:14:25Z</time>
      </trkpt>
      <trkpt lat="48.19433" lon="-3.03384">
        <ele>210.67</ele>
        <time>2015-12-27T12:14:26Z</time>
      </trkpt>
      <trkpt lat="48.19434" lon="-3.03367">
        <ele>209.22</ele>
        <time>2015-12-27T12:14:28Z</time>
      </trkpt>
      <trkpt lat="48.19435" lon="-3.03358">
        <ele>208.26</ele>
        <time>2015-12-27T12:14:29Z</time>
      </trkpt>
      <trkpt lat="48.19436" lon="-3.0335">
        <ele>207.3</ele>
        <time>2015-12-27T12:14:30Z</time>
      </trkpt>
      <trkpt lat="48.19438" lon="-3.03323">
        <ele>205.38</ele>
        <time>2015-12-27T12:14:33Z</time>
      </trkpt>
      <trkpt lat="48.1944" lon="-3.03301">
        <ele>202.98</ele>
        <time>2015-12-27T12:14:37Z</time>
      </trkpt>
      <trkpt lat="48.19439" lon="-3.03298">
        <ele>202.49</ele>
        <time>2015-12-27T12:14:38Z</time>
      </trkpt>
      <trkpt lat="48.1944" lon="-3.03294">
        <ele>201.53</ele>
        <time>2015-12-27T12:14:39Z</time>
      </trkpt>
      <trkpt lat="48.19443" lon="-3.03273">
        <ele>197.21</ele>
        <time>2015-12-27T12:14:43Z</time>
      </trkpt>
      <trkpt lat="48.19444" lon="-3.03264">
        <ele>195.77</ele>
        <time>2015-12-27T12:14:44Z</time>
      </trkpt>
      <trkpt lat="48.19444" lon="-3.03255">
        <ele>194.8</ele>
        <time>2015-12-27T12:14:45Z</time>
      </trkpt>
      <trkpt lat="48.19442" lon="-3.03249">
        <ele>193.84</ele>
        <time>2015-12-27T12:14:46Z</time>
      </trkpt>
      <trkpt lat="48.1944" lon="-3.03244">
        <ele>193.36</ele>
        <time>2015-12-27T12:14:47Z</time>
      </trkpt>
      <trkpt lat="48.19438" lon="-3.03242">
        <ele>192.88</ele>
        <time>2015-12-27T12:14:48Z</time>
      </trkpt>
      <trkpt lat="48.19435" lon="-3.03238">
        <ele>191.92</ele>
        <time>2015-12-27T12:14:49Z</time>
      </trkpt>
      <trkpt lat="48.19433" lon="-3.03234">
        <ele>191.44</ele>
        <time>2015-12-27T12:14:50Z</time>
      </trkpt>
      <trkpt lat="48.1943" lon="-3.03229">
        <ele>190.96</ele>
        <time>2015-12-27T12:14:51Z</time>
      </trkpt>
      <trkpt lat="48.19427" lon="-3.03223">
        <ele>190.48</ele>
        <time>2015-12-27T12:14:52Z</time>
      </trkpt>
      <trkpt lat="48.19426" lon="-3.03218">
        <ele>189.52</ele>
        <time>2015-12-27T12:14:53Z</time>
      </trkpt>
      <trkpt lat="48.19423" lon="-3.03203">
        <ele>187.11</ele>
        <time>2015-12-27T12:14:55Z</time>
      </trkpt>
      <trkpt lat="48.19421" lon="-3.03173">
        <ele>183.75</ele>
        <time>2015-12-27T12:14:58Z</time>
      </trkpt>
      <trkpt lat="48.19421" lon="-3.03166">
        <ele>183.27</ele>
        <time>2015-12-27T12:14:59Z</time>
      </trkpt>
      <trkpt lat="48.19424" lon="-3.03122">
        <ele>181.35</ele>
        <time>2015-12-27T12:15:08Z</time>
      </trkpt>
      <trkpt lat="48.19424" lon="-3.03116">
        <ele>182.31</ele>
        <time>2015-12-27T12:15:10Z</time>
      </trkpt>
      <trkpt lat="48.19425" lon="-3.03113">
        <ele>182.79</ele>
        <time>2015-12-27T12:15:11Z</time>
      </trkpt>
      <trkpt lat="48.19425" lon="-3.03111">
        <ele>182.79</ele>
        <time>2015-12-27T12:15:12Z</time>
      </trkpt>
      <trkpt lat="48.19425" lon="-3.03108">
        <ele>183.27</ele>
        <time>2015-12-27T12:15:13Z</time>
      </trkpt>
      <trkpt lat="48.19425" lon="-3.03105">
        <ele>183.75</ele>
        <time>2015-12-27T12:15:14Z</time>
      </trkpt>
      <trkpt lat="48.19426" lon="-3.03101">
        <ele>184.23</ele>
        <time>2015-12-27T12:15:15Z</time>
      </trkpt>
      <trkpt lat="48.19435" lon="-3.03046">
        <ele>185.67</ele>
        <time>2015-12-27T12:15:26Z</time>
      </trkpt>
      <trkpt lat="48.19422" lon="-3.0299">
        <ele>186.15</ele>
        <time>2015-12-27T12:15:38Z</time>
      </trkpt>
      <trkpt lat="48.19403" lon="-3.02934">
        <ele>189.52</ele>
        <time>2015-12-27T12:15:50Z</time>
      </trkpt>
      <trkpt lat="48.19403" lon="-3.02928">
        <ele>190</ele>
        <time>2015-12-27T12:15:51Z</time>
      </trkpt>
      <trkpt lat="48.19403" lon="-3.02922">
        <ele>190</ele>
        <time>2015-12-27T12:15:52Z</time>
      </trkpt>
      <trkpt lat="48.19403" lon="-3.02916">
        <ele>190.48</ele>
        <time>2015-12-27T12:15:53Z</time>
      </trkpt>
      <trkpt lat="48.19404" lon="-3.0291">
        <ele>190.96</ele>
        <time>2015-12-27T12:15:54Z</time>
      </trkpt>
      <trkpt lat="48.19404" lon="-3.02904">
        <ele>190.96</ele>
        <time>2015-12-27T12:15:55Z</time>
      </trkpt>
      <trkpt lat="48.19409" lon="-3.02864">
        <ele>192.88</ele>
        <time>2015-12-27T12:16:01Z</time>
      </trkpt>
      <trkpt lat="48.19412" lon="-3.02815">
        <ele>193.36</ele>
        <time>2015-12-27T12:16:08Z</time>
      </trkpt>
      <trkpt lat="48.1941" lon="-3.02786">
        <ele>192.4</ele>
        <time>2015-12-27T12:16:12Z</time>
      </trkpt>
      <trkpt lat="48.19409" lon="-3.02779">
        <ele>192.4</ele>
        <time>2015-12-27T12:16:13Z</time>
      </trkpt>
      <trkpt lat="48.19413" lon="-3.02721">
        <ele>189.52</ele>
        <time>2015-12-27T12:16:23Z</time>
      </trkpt>
      <trkpt lat="48.19415" lon="-3.02715">
        <ele>189.52</ele>
        <time>2015-12-27T12:16:24Z</time>
      </trkpt>
      <trkpt lat="48.19416" lon="-3.0268">
        <ele>187.11</ele>
        <time>2015-12-27T12:16:28Z</time>
      </trkpt>
      <trkpt lat="48.19422" lon="-3.02605">
        <ele>183.75</ele>
        <time>2015-12-27T12:16:35Z</time>
      </trkpt>
      <trkpt lat="48.19423" lon="-3.02599">
        <ele>183.27</ele>
        <time>2015-12-27T12:16:36Z</time>
      </trkpt>
      <trkpt lat="48.19423" lon="-3.02594">
        <ele>183.27</ele>
        <time>2015-12-27T12:16:37Z</time>
      </trkpt>
      <trkpt lat="48.19423" lon="-3.02589">
        <ele>183.27</ele>
        <time>2015-12-27T12:16:38Z</time>
      </trkpt>
      <trkpt lat="48.19423" lon="-3.02584">
        <ele>183.27</ele>
        <time>2015-12-27T12:16:39Z</time>
      </trkpt>
      <trkpt lat="48.19422" lon="-3.02554">
        <ele>183.75</ele>
        <time>2015-12-27T12:16:46Z</time>
      </trkpt>
      <trkpt lat="48.19422" lon="-3.02549">
        <ele>184.23</ele>
        <time>2015-12-27T12:16:47Z</time>
      </trkpt>
      <trkpt lat="48.19422" lon="-3.02546">
        <ele>184.71</ele>
        <time>2015-12-27T12:16:48Z</time>
      </trkpt>
      <trkpt lat="48.19422" lon="-3.02542">
        <ele>184.71</ele>
        <time>2015-12-27T12:16:49Z</time>
      </trkpt>
      <trkpt lat="48.19421" lon="-3.02539">
        <ele>184.71</ele>
        <time>2015-12-27T12:16:50Z</time>
      </trkpt>
      <trkpt lat="48.19421" lon="-3.02535">
        <ele>184.23</ele>
        <time>2015-12-27T12:16:51Z</time>
      </trkpt>
      <trkpt lat="48.1942" lon="-3.02531">
        <ele>184.23</ele>
        <time>2015-12-27T12:16:52Z</time>
      </trkpt>
      <trkpt lat="48.19426" lon="-3.02478">
        <ele>182.79</ele>
        <time>2015-12-27T12:17:01Z</time>
      </trkpt>
      <trkpt lat="48.19427" lon="-3.02453">
        <ele>182.31</ele>
        <time>2015-12-27T12:17:04Z</time>
      </trkpt>
      <trkpt lat="48.19426" lon="-3.02444">
        <ele>182.31</ele>
        <time>2015-12-27T12:17:05Z</time>
      </trkpt>
      <trkpt lat="48.1942" lon="-3.02409">
        <ele>181.83</ele>
        <time>2015-12-27T12:17:09Z</time>
      </trkpt>
      <trkpt lat="48.19419" lon="-3.02402">
        <ele>181.83</ele>
        <time>2015-12-27T12:17:10Z</time>
      </trkpt>
      <trkpt lat="48.1942" lon="-3.02397">
        <ele>181.83</ele>
        <time>2015-12-27T12:17:11Z</time>
      </trkpt>
      <trkpt lat="48.1942" lon="-3.02392">
        <ele>181.83</ele>
        <time>2015-12-27T12:17:12Z</time>
      </trkpt>
      <trkpt lat="48.1942" lon="-3.02389">
        <ele>181.83</ele>
        <time>2015-12-27T12:17:13Z</time>
      </trkpt>
      <trkpt lat="48.19421" lon="-3.02385">
        <ele>181.83</ele>
        <time>2015-12-27T12:17:14Z</time>
      </trkpt>
      <trkpt lat="48.19422" lon="-3.02381">
        <ele>181.83</ele>
        <time>2015-12-27T12:17:15Z</time>
      </trkpt>
      <trkpt lat="48.19423" lon="-3.02377">
        <ele>182.31</ele>
        <time>2015-12-27T12:17:16Z</time>
      </trkpt>
      <trkpt lat="48.19424" lon="-3.02372">
        <ele>182.31</ele>
        <time>2015-12-27T12:17:17Z</time>
      </trkpt>
      <trkpt lat="48.19425" lon="-3.02367">
        <ele>182.31</ele>
        <time>2015-12-27T12:17:18Z</time>
      </trkpt>
      <trkpt lat="48.19426" lon="-3.02355">
        <ele>182.31</ele>
        <time>2015-12-27T12:17:20Z</time>
      </trkpt>
      <trkpt lat="48.19425" lon="-3.0235">
        <ele>181.83</ele>
        <time>2015-12-27T12:17:21Z</time>
      </trkpt>
      <trkpt lat="48.19423" lon="-3.02345">
        <ele>181.83</ele>
        <time>2015-12-27T12:17:22Z</time>
      </trkpt>
      <trkpt lat="48.19421" lon="-3.02341">
        <ele>181.35</ele>
        <time>2015-12-27T12:17:23Z</time>
      </trkpt>
      <trkpt lat="48.19421" lon="-3.02337">
        <ele>181.35</ele>
        <time>2015-12-27T12:17:24Z</time>
      </trkpt>
      <trkpt lat="48.1942" lon="-3.02333">
        <ele>181.83</ele>
        <time>2015-12-27T12:17:25Z</time>
      </trkpt>
      <trkpt lat="48.19419" lon="-3.0233">
        <ele>181.35</ele>
        <time>2015-12-27T12:17:26Z</time>
      </trkpt>
      <trkpt lat="48.19416" lon="-3.02303">
        <ele>180.87</ele>
        <time>2015-12-27T12:17:37Z</time>
      </trkpt>
      <trkpt lat="48.19416" lon="-3.02299">
        <ele>184.23</ele>
        <time>2015-12-27T12:18:03Z</time>
      </trkpt>
      <trkpt lat="48.19414" lon="-3.02303">
        <ele>184.23</ele>
        <time>2015-12-27T12:18:06Z</time>
      </trkpt>
      <trkpt lat="48.19414" lon="-3.02305">
        <ele>184.23</ele>
        <time>2015-12-27T12:18:07Z</time>
      </trkpt>
      <trkpt lat="48.1942" lon="-3.02311">
        <ele>184.71</ele>
        <time>2015-12-27T12:18:11Z</time>
      </trkpt>
      <trkpt lat="48.19422" lon="-3.02312">
        <ele>184.71</ele>
        <time>2015-12-27T12:18:12Z</time>
      </trkpt>
      <trkpt lat="48.19424" lon="-3.02312">
        <ele>184.71</ele>
        <time>2015-12-27T12:18:13Z</time>
      </trkpt>
      <trkpt lat="48.19426" lon="-3.02311">
        <ele>184.23</ele>
        <time>2015-12-27T12:18:14Z</time>
      </trkpt>
      <trkpt lat="48.1944" lon="-3.023">
        <ele>183.27</ele>
        <time>2015-12-27T12:18:21Z</time>
      </trkpt>
      <trkpt lat="48.19447" lon="-3.02282">
        <ele>183.27</ele>
        <time>2015-12-27T12:18:25Z</time>
      </trkpt>
      <trkpt lat="48.19454" lon="-3.02264">
        <ele>182.79</ele>
        <time>2015-12-27T12:18:28Z</time>
      </trkpt>
      <trkpt lat="48.19455" lon="-3.02258">
        <ele>182.31</ele>
        <time>2015-12-27T12:18:29Z</time>
      </trkpt>
      <trkpt lat="48.19456" lon="-3.02251">
        <ele>182.31</ele>
        <time>2015-12-27T12:18:30Z</time>
      </trkpt>
      <trkpt lat="48.19456" lon="-3.02245">
        <ele>182.79</ele>
        <time>2015-12-27T12:18:31Z</time>
      </trkpt>
      <trkpt lat="48.19456" lon="-3.02238">
        <ele>182.31</ele>
        <time>2015-12-27T12:18:32Z</time>
      </trkpt>
      <trkpt lat="48.19457" lon="-3.02232">
        <ele>182.31</ele>
        <time>2015-12-27T12:18:33Z</time>
      </trkpt>
      <trkpt lat="48.19459" lon="-3.02226">
        <ele>182.31</ele>
        <time>2015-12-27T12:18:34Z</time>
      </trkpt>
      <trkpt lat="48.19461" lon="-3.02222">
        <ele>181.83</ele>
        <time>2015-12-27T12:18:35Z</time>
      </trkpt>
      <trkpt lat="48.19469" lon="-3.02208">
        <ele>180.38</ele>
        <time>2015-12-27T12:18:38Z</time>
      </trkpt>
      <trkpt lat="48.19472" lon="-3.02201">
        <ele>179.9</ele>
        <time>2015-12-27T12:18:39Z</time>
      </trkpt>
      <trkpt lat="48.19481" lon="-3.02181">
        <ele>177.98</ele>
        <time>2015-12-27T12:18:42Z</time>
      </trkpt>
      <trkpt lat="48.195" lon="-3.02151">
        <ele>172.69</ele>
        <time>2015-12-27T12:18:49Z</time>
      </trkpt>
      <trkpt lat="48.19511" lon="-3.02121">
        <ele>169.81</ele>
        <time>2015-12-27T12:19:01Z</time>
      </trkpt>
      <trkpt lat="48.19514" lon="-3.02117">
        <ele>169.81</ele>
        <time>2015-12-27T12:19:02Z</time>
      </trkpt>
      <trkpt lat="48.19524" lon="-3.0211">
        <ele>168.85</ele>
        <time>2015-12-27T12:19:04Z</time>
      </trkpt>
      <trkpt lat="48.19537" lon="-3.02099">
        <ele>166.93</ele>
        <time>2015-12-27T12:19:07Z</time>
      </trkpt>
      <trkpt lat="48.1954" lon="-3.02095">
        <ele>166.45</ele>
        <time>2015-12-27T12:19:08Z</time>
      </trkpt>
      <trkpt lat="48.19543" lon="-3.02092">
        <ele>165.96</ele>
        <time>2015-12-27T12:19:09Z</time>
      </trkpt>
      <trkpt lat="48.19546" lon="-3.02089">
        <ele>164.52</ele>
        <time>2015-12-27T12:19:10Z</time>
      </trkpt>
      <trkpt lat="48.19549" lon="-3.02086">
        <ele>163.08</ele>
        <time>2015-12-27T12:19:11Z</time>
      </trkpt>
      <trkpt lat="48.19553" lon="-3.02083">
        <ele>162.12</ele>
        <time>2015-12-27T12:19:12Z</time>
      </trkpt>
      <trkpt lat="48.19556" lon="-3.0208">
        <ele>160.68</ele>
        <time>2015-12-27T12:19:13Z</time>
      </trkpt>
      <trkpt lat="48.19558" lon="-3.02075">
        <ele>159.24</ele>
        <time>2015-12-27T12:19:14Z</time>
      </trkpt>
      <trkpt lat="48.19562" lon="-3.02072">
        <ele>156.83</ele>
        <time>2015-12-27T12:19:15Z</time>
      </trkpt>
      <trkpt lat="48.19565" lon="-3.02069">
        <ele>154.91</ele>
        <time>2015-12-27T12:19:16Z</time>
      </trkpt>
      <trkpt lat="48.19566" lon="-3.02065">
        <ele>153.95</ele>
        <time>2015-12-27T12:19:17Z</time>
      </trkpt>
      <trkpt lat="48.19568" lon="-3.02062">
        <ele>152.51</ele>
        <time>2015-12-27T12:19:18Z</time>
      </trkpt>
      <trkpt lat="48.19568" lon="-3.02059">
        <ele>152.03</ele>
        <time>2015-12-27T12:19:19Z</time>
      </trkpt>
      <trkpt lat="48.19565" lon="-3.02055">
        <ele>150.58</ele>
        <time>2015-12-27T12:19:21Z</time>
      </trkpt>
      <trkpt lat="48.19563" lon="-3.02055">
        <ele>150.1</ele>
        <time>2015-12-27T12:19:22Z</time>
      </trkpt>
      <trkpt lat="48.19561" lon="-3.02055">
        <ele>150.1</ele>
        <time>2015-12-27T12:19:23Z</time>
      </trkpt>
      <trkpt lat="48.19559" lon="-3.02056">
        <ele>149.62</ele>
        <time>2015-12-27T12:19:24Z</time>
      </trkpt>
      <trkpt lat="48.19557" lon="-3.02056">
        <ele>149.62</ele>
        <time>2015-12-27T12:19:25Z</time>
      </trkpt>
      <trkpt lat="48.19527" lon="-3.02064">
        <ele>146.74</ele>
        <time>2015-12-27T12:19:40Z</time>
      </trkpt>
      <trkpt lat="48.19507" lon="-3.02072">
        <ele>146.74</ele>
        <time>2015-12-27T12:19:52Z</time>
      </trkpt>
      <trkpt lat="48.19506" lon="-3.0207">
        <ele>146.26</ele>
        <time>2015-12-27T12:19:53Z</time>
      </trkpt>
      <trkpt lat="48.19504" lon="-3.02069">
        <ele>146.26</ele>
        <time>2015-12-27T12:19:54Z</time>
      </trkpt>
      <trkpt lat="48.19504" lon="-3.02066">
        <ele>146.74</ele>
        <time>2015-12-27T12:19:55Z</time>
      </trkpt>
      <trkpt lat="48.19506" lon="-3.02063">
        <ele>146.26</ele>
        <time>2015-12-27T12:19:56Z</time>
      </trkpt>
      <trkpt lat="48.19507" lon="-3.02061">
        <ele>146.26</ele>
        <time>2015-12-27T12:19:57Z</time>
      </trkpt>
      <trkpt lat="48.1951" lon="-3.02059">
        <ele>145.78</ele>
        <time>2015-12-27T12:19:58Z</time>
      </trkpt>
      <trkpt lat="48.19512" lon="-3.02057">
        <ele>145.78</ele>
        <time>2015-12-27T12:19:59Z</time>
      </trkpt>
      <trkpt lat="48.19513" lon="-3.02054">
        <ele>145.78</ele>
        <time>2015-12-27T12:20:00Z</time>
      </trkpt>
      <trkpt lat="48.19515" lon="-3.0205">
        <ele>145.3</ele>
        <time>2015-12-27T12:20:01Z</time>
      </trkpt>
      <trkpt lat="48.19517" lon="-3.02046">
        <ele>145.3</ele>
        <time>2015-12-27T12:20:02Z</time>
      </trkpt>
      <trkpt lat="48.1952" lon="-3.02042">
        <ele>145.3</ele>
        <time>2015-12-27T12:20:03Z</time>
      </trkpt>
      <trkpt lat="48.19523" lon="-3.02037">
        <ele>145.3</ele>
        <time>2015-12-27T12:20:04Z</time>
      </trkpt>
      <trkpt lat="48.19525" lon="-3.02032">
        <ele>145.3</ele>
        <time>2015-12-27T12:20:05Z</time>
      </trkpt>
      <trkpt lat="48.19528" lon="-3.02027">
        <ele>145.3</ele>
        <time>2015-12-27T12:20:06Z</time>
      </trkpt>
      <trkpt lat="48.1953" lon="-3.0202">
        <ele>145.78</ele>
        <time>2015-12-27T12:20:07Z</time>
      </trkpt>
      <trkpt lat="48.19533" lon="-3.02014">
        <ele>145.78</ele>
        <time>2015-12-27T12:20:08Z</time>
      </trkpt>
      <trkpt lat="48.19536" lon="-3.02007">
        <ele>145.78</ele>
        <time>2015-12-27T12:20:09Z</time>
      </trkpt>
      <trkpt lat="48.19544" lon="-3.01996">
        <ele>145.78</ele>
        <time>2015-12-27T12:20:11Z</time>
      </trkpt>
      <trkpt lat="48.19549" lon="-3.01992">
        <ele>145.78</ele>
        <time>2015-12-27T12:20:12Z</time>
      </trkpt>
      <trkpt lat="48.19555" lon="-3.01991">
        <ele>145.78</ele>
        <time>2015-12-27T12:20:13Z</time>
      </trkpt>
      <trkpt lat="48.19559" lon="-3.01992">
        <ele>145.78</ele>
        <time>2015-12-27T12:20:14Z</time>
      </trkpt>
      <trkpt lat="48.19563" lon="-3.01992">
        <ele>145.78</ele>
        <time>2015-12-27T12:20:15Z</time>
      </trkpt>
      <trkpt lat="48.19566" lon="-3.01989">
        <ele>145.78</ele>
        <time>2015-12-27T12:20:16Z</time>
      </trkpt>
      <trkpt lat="48.19566" lon="-3.01985">
        <ele>145.78</ele>
        <time>2015-12-27T12:20:17Z</time>
      </trkpt>
      <trkpt lat="48.19566" lon="-3.01981">
        <ele>145.78</ele>
        <time>2015-12-27T12:20:18Z</time>
      </trkpt>
      <trkpt lat="48.19566" lon="-3.01978">
        <ele>145.3</ele>
        <time>2015-12-27T12:20:19Z</time>
      </trkpt>
      <trkpt lat="48.19564" lon="-3.01975">
        <ele>144.82</ele>
        <time>2015-12-27T12:20:20Z</time>
      </trkpt>
      <trkpt lat="48.19561" lon="-3.0197">
        <ele>143.85</ele>
        <time>2015-12-27T12:20:21Z</time>
      </trkpt>
      <trkpt lat="48.19558" lon="-3.01965">
        <ele>143.37</ele>
        <time>2015-12-27T12:20:22Z</time>
      </trkpt>
      <trkpt lat="48.19557" lon="-3.01957">
        <ele>142.41</ele>
        <time>2015-12-27T12:20:23Z</time>
      </trkpt>
      <trkpt lat="48.19556" lon="-3.0195">
        <ele>141.45</ele>
        <time>2015-12-27T12:20:24Z</time>
      </trkpt>
      <trkpt lat="48.19556" lon="-3.01942">
        <ele>140.49</ele>
        <time>2015-12-27T12:20:25Z</time>
      </trkpt>
      <trkpt lat="48.19557" lon="-3.01935">
        <ele>140.01</ele>
        <time>2015-12-27T12:20:26Z</time>
      </trkpt>
      <trkpt lat="48.19558" lon="-3.01929">
        <ele>139.53</ele>
        <time>2015-12-27T12:20:27Z</time>
      </trkpt>
      <trkpt lat="48.19559" lon="-3.01923">
        <ele>139.05</ele>
        <time>2015-12-27T12:20:28Z</time>
      </trkpt>
      <trkpt lat="48.19561" lon="-3.01917">
        <ele>138.57</ele>
        <time>2015-12-27T12:20:29Z</time>
      </trkpt>
      <trkpt lat="48.19562" lon="-3.01912">
        <ele>138.09</ele>
        <time>2015-12-27T12:20:30Z</time>
      </trkpt>
      <trkpt lat="48.19563" lon="-3.01907">
        <ele>137.13</ele>
        <time>2015-12-27T12:20:31Z</time>
      </trkpt>
      <trkpt lat="48.19565" lon="-3.01903">
        <ele>136.64</ele>
        <time>2015-12-27T12:20:32Z</time>
      </trkpt>
      <trkpt lat="48.19565" lon="-3.01898">
        <ele>136.16</ele>
        <time>2015-12-27T12:20:33Z</time>
      </trkpt>
      <trkpt lat="48.19585" lon="-3.01866">
        <ele>133.28</ele>
        <time>2015-12-27T12:20:43Z</time>
      </trkpt>
      <trkpt lat="48.19599" lon="-3.01822">
        <ele>127.03</ele>
        <time>2015-12-27T12:20:54Z</time>
      </trkpt>
      <trkpt lat="48.19603" lon="-3.01814">
        <ele>124.15</ele>
        <time>2015-12-27T12:21:05Z</time>
      </trkpt>
      <trkpt lat="48.19603" lon="-3.01815">
        <ele>123.67</ele>
        <time>2015-12-27T12:21:17Z</time>
      </trkpt>
      <trkpt lat="48.19603" lon="-3.0182">
        <ele>124.15</ele>
        <time>2015-12-27T12:21:24Z</time>
      </trkpt>
      <trkpt lat="48.19597" lon="-3.01838">
        <ele>124.63</ele>
        <time>2015-12-27T12:21:36Z</time>
      </trkpt>
      <trkpt lat="48.19585" lon="-3.01872">
        <ele>129.43</ele>
        <time>2015-12-27T12:21:52Z</time>
      </trkpt>
      <trkpt lat="48.1957" lon="-3.01892">
        <ele>133.76</ele>
        <time>2015-12-27T12:22:04Z</time>
      </trkpt>
      <trkpt lat="48.19563" lon="-3.01912">
        <ele>137.13</ele>
        <time>2015-12-27T12:22:14Z</time>
      </trkpt>
      <trkpt lat="48.19541" lon="-3.01914">
        <ele>136.16</ele>
        <time>2015-12-27T12:22:23Z</time>
      </trkpt>
      <trkpt lat="48.19513" lon="-3.01923">
        <ele>133.76</ele>
        <time>2015-12-27T12:22:31Z</time>
      </trkpt>
      <trkpt lat="48.19512" lon="-3.01927">
        <ele>133.28</ele>
        <time>2015-12-27T12:22:32Z</time>
      </trkpt>
      <trkpt lat="48.1951" lon="-3.01932">
        <ele>132.8</ele>
        <time>2015-12-27T12:22:33Z</time>
      </trkpt>
      <trkpt lat="48.19509" lon="-3.01936">
        <ele>132.8</ele>
        <time>2015-12-27T12:22:34Z</time>
      </trkpt>
      <trkpt lat="48.19509" lon="-3.0194">
        <ele>132.8</ele>
        <time>2015-12-27T12:22:35Z</time>
      </trkpt>
      <trkpt lat="48.19508" lon="-3.01943">
        <ele>132.32</ele>
        <time>2015-12-27T12:22:36Z</time>
      </trkpt>
      <trkpt lat="48.19508" lon="-3.01946">
        <ele>131.84</ele>
        <time>2015-12-27T12:22:37Z</time>
      </trkpt>
      <trkpt lat="48.19508" lon="-3.01949">
        <ele>131.36</ele>
        <time>2015-12-27T12:22:38Z</time>
      </trkpt>
      <trkpt lat="48.19506" lon="-3.01951">
        <ele>131.36</ele>
        <time>2015-12-27T12:22:39Z</time>
      </trkpt>
      <trkpt lat="48.19505" lon="-3.01953">
        <ele>131.36</ele>
        <time>2015-12-27T12:22:40Z</time>
      </trkpt>
      <trkpt lat="48.19503" lon="-3.01956">
        <ele>131.36</ele>
        <time>2015-12-27T12:22:41Z</time>
      </trkpt>
      <trkpt lat="48.19502" lon="-3.01957">
        <ele>131.36</ele>
        <time>2015-12-27T12:22:42Z</time>
      </trkpt>
      <trkpt lat="48.19499" lon="-3.01959">
        <ele>130.88</ele>
        <time>2015-12-27T12:22:43Z</time>
      </trkpt>
      <trkpt lat="48.19496" lon="-3.0196">
        <ele>130.88</ele>
        <time>2015-12-27T12:22:44Z</time>
      </trkpt>
      <trkpt lat="48.19493" lon="-3.01962">
        <ele>130.4</ele>
        <time>2015-12-27T12:22:45Z</time>
      </trkpt>
      <trkpt lat="48.1949" lon="-3.01964">
        <ele>130.4</ele>
        <time>2015-12-27T12:22:46Z</time>
      </trkpt>
      <trkpt lat="48.19486" lon="-3.01966">
        <ele>129.92</ele>
        <time>2015-12-27T12:22:47Z</time>
      </trkpt>
      <trkpt lat="48.19481" lon="-3.01966">
        <ele>129.92</ele>
        <time>2015-12-27T12:22:48Z</time>
      </trkpt>
      <trkpt lat="48.1945" lon="-3.01976">
        <ele>128.47</ele>
        <time>2015-12-27T12:22:56Z</time>
      </trkpt>
      <trkpt lat="48.19447" lon="-3.01976">
        <ele>127.99</ele>
        <time>2015-12-27T12:22:57Z</time>
      </trkpt>
      <trkpt lat="48.19444" lon="-3.01977">
        <ele>126.55</ele>
        <time>2015-12-27T12:22:58Z</time>
      </trkpt>
      <trkpt lat="48.19437" lon="-3.01979">
        <ele>125.11</ele>
        <time>2015-12-27T12:23:01Z</time>
      </trkpt>
      <trkpt lat="48.19434" lon="-3.01981">
        <ele>124.63</ele>
        <time>2015-12-27T12:23:02Z</time>
      </trkpt>
      <trkpt lat="48.19431" lon="-3.01982">
        <ele>123.67</ele>
        <time>2015-12-27T12:23:03Z</time>
      </trkpt>
      <trkpt lat="48.19422" lon="-3.01991">
        <ele>117.42</ele>
        <time>2015-12-27T12:23:14Z</time>
      </trkpt>
      <trkpt lat="48.19416" lon="-3.02">
        <ele>116.94</ele>
        <time>2015-12-27T12:23:18Z</time>
      </trkpt>
      <trkpt lat="48.19413" lon="-3.02004">
        <ele>117.42</ele>
        <time>2015-12-27T12:23:20Z</time>
      </trkpt>
      <trkpt lat="48.19411" lon="-3.02006">
        <ele>117.9</ele>
        <time>2015-12-27T12:23:21Z</time>
      </trkpt>
      <trkpt lat="48.19409" lon="-3.02007">
        <ele>117.9</ele>
        <time>2015-12-27T12:23:22Z</time>
      </trkpt>
      <trkpt lat="48.19406" lon="-3.0201">
        <ele>118.38</ele>
        <time>2015-12-27T12:23:23Z</time>
      </trkpt>
      <trkpt lat="48.19404" lon="-3.02012">
        <ele>118.38</ele>
        <time>2015-12-27T12:23:24Z</time>
      </trkpt>
      <trkpt lat="48.19402" lon="-3.02014">
        <ele>118.38</ele>
        <time>2015-12-27T12:23:25Z</time>
      </trkpt>
      <trkpt lat="48.194" lon="-3.02016">
        <ele>118.38</ele>
        <time>2015-12-27T12:23:26Z</time>
      </trkpt>
      <trkpt lat="48.19398" lon="-3.02019">
        <ele>118.38</ele>
        <time>2015-12-27T12:23:27Z</time>
      </trkpt>
      <trkpt lat="48.19396" lon="-3.02022">
        <ele>118.38</ele>
        <time>2015-12-27T12:23:28Z</time>
      </trkpt>
      <trkpt lat="48.19394" lon="-3.02022">
        <ele>118.38</ele>
        <time>2015-12-27T12:23:29Z</time>
      </trkpt>
      <trkpt lat="48.19393" lon="-3.02023">
        <ele>118.38</ele>
        <time>2015-12-27T12:23:30Z</time>
      </trkpt>
      <trkpt lat="48.19369" lon="-3.02049">
        <ele>118.86</ele>
        <time>2015-12-27T12:23:40Z</time>
      </trkpt>
      <trkpt lat="48.19366" lon="-3.02052">
        <ele>118.86</ele>
        <time>2015-12-27T12:23:41Z</time>
      </trkpt>
      <trkpt lat="48.19364" lon="-3.02053">
        <ele>118.86</ele>
        <time>2015-12-27T12:23:42Z</time>
      </trkpt>
      <trkpt lat="48.19338" lon="-3.02076">
        <ele>118.38</ele>
        <time>2015-12-27T12:23:52Z</time>
      </trkpt>
      <trkpt lat="48.19315" lon="-3.02087">
        <ele>112.13</ele>
        <time>2015-12-27T12:24:03Z</time>
      </trkpt>
      <trkpt lat="48.1931" lon="-3.02087">
        <ele>110.69</ele>
        <time>2015-12-27T12:24:09Z</time>
      </trkpt>
      <trkpt lat="48.19308" lon="-3.02085">
        <ele>110.21</ele>
        <time>2015-12-27T12:24:10Z</time>
      </trkpt>
      <trkpt lat="48.19307" lon="-3.02084">
        <ele>109.25</ele>
        <time>2015-12-27T12:24:11Z</time>
      </trkpt>
      <trkpt lat="48.19297" lon="-3.0208">
        <ele>103</ele>
        <time>2015-12-27T12:24:22Z</time>
      </trkpt>
      <trkpt lat="48.1929" lon="-3.02079">
        <ele>101.08</ele>
        <time>2015-12-27T12:24:26Z</time>
      </trkpt>
      <trkpt lat="48.1928" lon="-3.02076">
        <ele>95.31</ele>
        <time>2015-12-27T12:24:39Z</time>
      </trkpt>
      <trkpt lat="48.1928" lon="-3.02078">
        <ele>94.35</ele>
        <time>2015-12-27T12:24:43Z</time>
      </trkpt>
      <trkpt lat="48.19278" lon="-3.02078">
        <ele>93.87</ele>
        <time>2015-12-27T12:24:44Z</time>
      </trkpt>
      <trkpt lat="48.19277" lon="-3.02077">
        <ele>93.87</ele>
        <time>2015-12-27T12:24:45Z</time>
      </trkpt>
      <trkpt lat="48.19276" lon="-3.02077">
        <ele>93.87</ele>
        <time>2015-12-27T12:24:46Z</time>
      </trkpt>
      <trkpt lat="48.19274" lon="-3.02076">
        <ele>93.39</ele>
        <time>2015-12-27T12:24:47Z</time>
      </trkpt>
      <trkpt lat="48.19272" lon="-3.02076">
        <ele>93.39</ele>
        <time>2015-12-27T12:24:48Z</time>
      </trkpt>
      <trkpt lat="48.1927" lon="-3.02076">
        <ele>93.39</ele>
        <time>2015-12-27T12:24:49Z</time>
      </trkpt>
      <trkpt lat="48.19268" lon="-3.02076">
        <ele>92.9</ele>
        <time>2015-12-27T12:24:50Z</time>
      </trkpt>
      <trkpt lat="48.19246" lon="-3.02089">
        <ele>88.1</ele>
        <time>2015-12-27T12:25:02Z</time>
      </trkpt>
      <trkpt lat="48.19217" lon="-3.02096">
        <ele>84.25</ele>
        <time>2015-12-27T12:25:14Z</time>
      </trkpt>
      <trkpt lat="48.19189" lon="-3.02084">
        <ele>78.97</ele>
        <time>2015-12-27T12:25:27Z</time>
      </trkpt>
      <trkpt lat="48.19169" lon="-3.02068">
        <ele>78</ele>
        <time>2015-12-27T12:25:36Z</time>
      </trkpt>
      <trkpt lat="48.19148" lon="-3.02053">
        <ele>78.48</ele>
        <time>2015-12-27T12:25:46Z</time>
      </trkpt>
      <trkpt lat="48.19124" lon="-3.0203">
        <ele>77.04</ele>
        <time>2015-12-27T12:25:57Z</time>
      </trkpt>
      <trkpt lat="48.19098" lon="-3.02008">
        <ele>70.79</ele>
        <time>2015-12-27T12:26:08Z</time>
      </trkpt>
      <trkpt lat="48.19093" lon="-3.02003">
        <ele>69.35</ele>
        <time>2015-12-27T12:26:10Z</time>
      </trkpt>
      <trkpt lat="48.19092" lon="-3.02">
        <ele>69.35</ele>
        <time>2015-12-27T12:26:11Z</time>
      </trkpt>
      <trkpt lat="48.19089" lon="-3.01996">
        <ele>69.83</ele>
        <time>2015-12-27T12:26:12Z</time>
      </trkpt>
      <trkpt lat="48.19071" lon="-3.01971">
        <ele>71.27</ele>
        <time>2015-12-27T12:26:21Z</time>
      </trkpt>
      <trkpt lat="48.19064" lon="-3.01958">
        <ele>72.24</ele>
        <time>2015-12-27T12:26:25Z</time>
      </trkpt>
      <trkpt lat="48.19058" lon="-3.01951">
        <ele>73.2</ele>
        <time>2015-12-27T12:26:28Z</time>
      </trkpt>
      <trkpt lat="48.1903" lon="-3.01938">
        <ele>74.16</ele>
        <time>2015-12-27T12:26:36Z</time>
      </trkpt>
      <trkpt lat="48.18999" lon="-3.01918">
        <ele>74.64</ele>
        <time>2015-12-27T12:26:46Z</time>
      </trkpt>
      <trkpt lat="48.1898" lon="-3.01908">
        <ele>78.48</ele>
        <time>2015-12-27T12:26:55Z</time>
      </trkpt>
      <trkpt lat="48.18979" lon="-3.01905">
        <ele>78.97</ele>
        <time>2015-12-27T12:26:56Z</time>
      </trkpt>
      <trkpt lat="48.18977" lon="-3.01903">
        <ele>79.45</ele>
        <time>2015-12-27T12:26:57Z</time>
      </trkpt>
      <trkpt lat="48.18976" lon="-3.019">
        <ele>79.93</ele>
        <time>2015-12-27T12:26:58Z</time>
      </trkpt>
      <trkpt lat="48.18975" lon="-3.01897">
        <ele>79.93</ele>
        <time>2015-12-27T12:26:59Z</time>
      </trkpt>
      <trkpt lat="48.18969" lon="-3.01884">
        <ele>81.85</ele>
        <time>2015-12-27T12:27:04Z</time>
      </trkpt>
      <trkpt lat="48.18968" lon="-3.01882">
        <ele>81.85</ele>
        <time>2015-12-27T12:27:05Z</time>
      </trkpt>
      <trkpt lat="48.18967" lon="-3.0188">
        <ele>82.33</ele>
        <time>2015-12-27T12:27:06Z</time>
      </trkpt>
      <trkpt lat="48.18966" lon="-3.01878">
        <ele>82.81</ele>
        <time>2015-12-27T12:27:07Z</time>
      </trkpt>
      <trkpt lat="48.18966" lon="-3.01876">
        <ele>82.81</ele>
        <time>2015-12-27T12:27:08Z</time>
      </trkpt>
      <trkpt lat="48.18964" lon="-3.01873">
        <ele>82.81</ele>
        <time>2015-12-27T12:27:09Z</time>
      </trkpt>
      <trkpt lat="48.18958" lon="-3.01852">
        <ele>83.29</ele>
        <time>2015-12-27T12:27:15Z</time>
      </trkpt>
      <trkpt lat="48.18953" lon="-3.01828">
        <ele>86.66</ele>
        <time>2015-12-27T12:27:19Z</time>
      </trkpt>
      <trkpt lat="48.18951" lon="-3.0182">
        <ele>87.62</ele>
        <time>2015-12-27T12:27:20Z</time>
      </trkpt>
      <trkpt lat="48.18966" lon="-3.01773">
        <ele>89.06</ele>
        <time>2015-12-27T12:27:33Z</time>
      </trkpt>
      <trkpt lat="48.18987" lon="-3.01742">
        <ele>87.14</ele>
        <time>2015-12-27T12:27:43Z</time>
      </trkpt>
      <trkpt lat="48.18989" lon="-3.01741">
        <ele>87.14</ele>
        <time>2015-12-27T12:27:44Z</time>
      </trkpt>
      <trkpt lat="48.18992" lon="-3.01741">
        <ele>86.66</ele>
        <time>2015-12-27T12:27:45Z</time>
      </trkpt>
      <trkpt lat="48.18994" lon="-3.0174">
        <ele>86.66</ele>
        <time>2015-12-27T12:27:46Z</time>
      </trkpt>
      <trkpt lat="48.18996" lon="-3.01738">
        <ele>86.66</ele>
        <time>2015-12-27T12:27:47Z</time>
      </trkpt>
      <trkpt lat="48.18998" lon="-3.01736">
        <ele>86.66</ele>
        <time>2015-12-27T12:27:48Z</time>
      </trkpt>
      <trkpt lat="48.18999" lon="-3.01735">
        <ele>86.66</ele>
        <time>2015-12-27T12:27:49Z</time>
      </trkpt>
      <trkpt lat="48.19001" lon="-3.01734">
        <ele>86.66</ele>
        <time>2015-12-27T12:27:50Z</time>
      </trkpt>
      <trkpt lat="48.19002" lon="-3.01732">
        <ele>86.18</ele>
        <time>2015-12-27T12:27:51Z</time>
      </trkpt>
      <trkpt lat="48.19005" lon="-3.0173">
        <ele>86.18</ele>
        <time>2015-12-27T12:28:01Z</time>
      </trkpt>
      <trkpt lat="48.19006" lon="-3.01729">
        <ele>85.21</ele>
        <time>2015-12-27T12:28:28Z</time>
      </trkpt>
      <trkpt lat="48.19007" lon="-3.01727">
        <ele>85.21</ele>
        <time>2015-12-27T12:28:29Z</time>
      </trkpt>
      <trkpt lat="48.19007" lon="-3.01726">
        <ele>84.73</ele>
        <time>2015-12-27T12:28:30Z</time>
      </trkpt>
      <trkpt lat="48.19008" lon="-3.01724">
        <ele>84.73</ele>
        <time>2015-12-27T12:28:31Z</time>
      </trkpt>
      <trkpt lat="48.19008" lon="-3.01722">
        <ele>84.25</ele>
        <time>2015-12-27T12:28:32Z</time>
      </trkpt>
      <trkpt lat="48.19008" lon="-3.01719">
        <ele>84.25</ele>
        <time>2015-12-27T12:28:33Z</time>
      </trkpt>
      <trkpt lat="48.19008" lon="-3.01717">
        <ele>83.77</ele>
        <time>2015-12-27T12:28:34Z</time>
      </trkpt>
      <trkpt lat="48.19007" lon="-3.01714">
        <ele>83.77</ele>
        <time>2015-12-27T12:28:35Z</time>
      </trkpt>
      <trkpt lat="48.19007" lon="-3.01711">
        <ele>83.77</ele>
        <time>2015-12-27T12:28:36Z</time>
      </trkpt>
      <trkpt lat="48.19002" lon="-3.01669">
        <ele>82.33</ele>
        <time>2015-12-27T12:28:49Z</time>
      </trkpt>
      <trkpt lat="48.19003" lon="-3.01629">
        <ele>78</ele>
        <time>2015-12-27T12:29:02Z</time>
      </trkpt>
      <trkpt lat="48.18998" lon="-3.01602">
        <ele>76.56</ele>
        <time>2015-12-27T12:29:11Z</time>
      </trkpt>
      <trkpt lat="48.18997" lon="-3.01599">
        <ele>76.08</ele>
        <time>2015-12-27T12:29:12Z</time>
      </trkpt>
      <trkpt lat="48.18996" lon="-3.01595">
        <ele>76.08</ele>
        <time>2015-12-27T12:29:13Z</time>
      </trkpt>
      <trkpt lat="48.18996" lon="-3.01592">
        <ele>76.08</ele>
        <time>2015-12-27T12:29:14Z</time>
      </trkpt>
      <trkpt lat="48.18995" lon="-3.01588">
        <ele>76.08</ele>
        <time>2015-12-27T12:29:15Z</time>
      </trkpt>
      <trkpt lat="48.18995" lon="-3.01572">
        <ele>75.6</ele>
        <time>2015-12-27T12:29:20Z</time>
      </trkpt>
      <trkpt lat="48.18994" lon="-3.01568">
        <ele>76.08</ele>
        <time>2015-12-27T12:29:21Z</time>
      </trkpt>
      <trkpt lat="48.18975" lon="-3.01526">
        <ele>82.33</ele>
        <time>2015-12-27T12:29:34Z</time>
      </trkpt>
      <trkpt lat="48.18952" lon="-3.01477">
        <ele>88.58</ele>
        <time>2015-12-27T12:29:48Z</time>
      </trkpt>
      <trkpt lat="48.18929" lon="-3.01436">
        <ele>90.5</ele>
        <time>2015-12-27T12:30:01Z</time>
      </trkpt>
      <trkpt lat="48.18914" lon="-3.01412">
        <ele>92.9</ele>
        <time>2015-12-27T12:30:11Z</time>
      </trkpt>
      <trkpt lat="48.18913" lon="-3.0141">
        <ele>92.9</ele>
        <time>2015-12-27T12:30:12Z</time>
      </trkpt>
      <trkpt lat="48.18911" lon="-3.01409">
        <ele>92.9</ele>
        <time>2015-12-27T12:30:13Z</time>
      </trkpt>
      <trkpt lat="48.18909" lon="-3.01405">
        <ele>93.87</ele>
        <time>2015-12-27T12:30:15Z</time>
      </trkpt>
      <trkpt lat="48.18908" lon="-3.01403">
        <ele>93.87</ele>
        <time>2015-12-27T12:30:16Z</time>
      </trkpt>
      <trkpt lat="48.18907" lon="-3.01401">
        <ele>94.35</ele>
        <time>2015-12-27T12:30:17Z</time>
      </trkpt>
      <trkpt lat="48.18906" lon="-3.014">
        <ele>94.35</ele>
        <time>2015-12-27T12:30:18Z</time>
      </trkpt>
      <trkpt lat="48.18905" lon="-3.01398">
        <ele>94.35</ele>
        <time>2015-12-27T12:30:19Z</time>
      </trkpt>
      <trkpt lat="48.18895" lon="-3.01384">
        <ele>98.67</ele>
        <time>2015-12-27T12:30:31Z</time>
      </trkpt>
      <trkpt lat="48.18885" lon="-3.01374">
        <ele>101.08</ele>
        <time>2015-12-27T12:30:38Z</time>
      </trkpt>
      <trkpt lat="48.18883" lon="-3.01372">
        <ele>101.08</ele>
        <time>2015-12-27T12:30:39Z</time>
      </trkpt>
      <trkpt lat="48.18881" lon="-3.0137">
        <ele>101.56</ele>
        <time>2015-12-27T12:30:40Z</time>
      </trkpt>
      <trkpt lat="48.1888" lon="-3.01369">
        <ele>102.52</ele>
        <time>2015-12-27T12:30:41Z</time>
      </trkpt>
      <trkpt lat="48.18878" lon="-3.01368">
        <ele>103</ele>
        <time>2015-12-27T12:30:42Z</time>
      </trkpt>
      <trkpt lat="48.18877" lon="-3.01367">
        <ele>103.48</ele>
        <time>2015-12-27T12:30:43Z</time>
      </trkpt>
      <trkpt lat="48.18866" lon="-3.01357">
        <ele>109.25</ele>
        <time>2015-12-27T12:30:53Z</time>
      </trkpt>
      <trkpt lat="48.18849" lon="-3.01328">
        <ele>113.57</ele>
        <time>2015-12-27T12:31:11Z</time>
      </trkpt>
      <trkpt lat="48.18847" lon="-3.01325">
        <ele>107.32</ele>
        <time>2015-12-27T12:31:25Z</time>
      </trkpt>
      <trkpt lat="48.18846" lon="-3.01324">
        <ele>103.96</ele>
        <time>2015-12-27T12:31:47Z</time>
      </trkpt>
      <trkpt lat="48.18847" lon="-3.01324">
        <ele>103.96</ele>
        <time>2015-12-27T12:31:48Z</time>
      </trkpt>
      <trkpt lat="48.18848" lon="-3.01324">
        <ele>103.96</ele>
        <time>2015-12-27T12:31:49Z</time>
      </trkpt>
      <trkpt lat="48.18849" lon="-3.01319">
        <ele>104.44</ele>
        <time>2015-12-27T12:31:52Z</time>
      </trkpt>
      <trkpt lat="48.18848" lon="-3.01314">
        <ele>105.4</ele>
        <time>2015-12-27T12:31:55Z</time>
      </trkpt>
      <trkpt lat="48.18848" lon="-3.01313">
        <ele>105.4</ele>
        <time>2015-12-27T12:31:56Z</time>
      </trkpt>
      <trkpt lat="48.18849" lon="-3.01312">
        <ele>105.4</ele>
        <time>2015-12-27T12:31:57Z</time>
      </trkpt>
      <trkpt lat="48.18851" lon="-3.01308">
        <ele>104.92</ele>
        <time>2015-12-27T12:32:00Z</time>
      </trkpt>
      <trkpt lat="48.18861" lon="-3.01298">
        <ele>105.88</ele>
        <time>2015-12-27T12:32:11Z</time>
      </trkpt>
      <trkpt lat="48.18866" lon="-3.01293">
        <ele>105.88</ele>
        <time>2015-12-27T12:32:16Z</time>
      </trkpt>
      <trkpt lat="48.18867" lon="-3.01291">
        <ele>105.88</ele>
        <time>2015-12-27T12:32:17Z</time>
      </trkpt>
      <trkpt lat="48.1887" lon="-3.01289">
        <ele>106.36</ele>
        <time>2015-12-27T12:32:20Z</time>
      </trkpt>
      <trkpt lat="48.18872" lon="-3.01288">
        <ele>106.84</ele>
        <time>2015-12-27T12:32:22Z</time>
      </trkpt>
      <trkpt lat="48.18876" lon="-3.01284">
        <ele>107.81</ele>
        <time>2015-12-27T12:32:27Z</time>
      </trkpt>
      <trkpt lat="48.18877" lon="-3.01282">
        <ele>108.29</ele>
        <time>2015-12-27T12:32:28Z</time>
      </trkpt>
      <trkpt lat="48.18877" lon="-3.0128">
        <ele>108.29</ele>
        <time>2015-12-27T12:32:29Z</time>
      </trkpt>
      <trkpt lat="48.18878" lon="-3.01279">
        <ele>108.29</ele>
        <time>2015-12-27T12:32:30Z</time>
      </trkpt>
      <trkpt lat="48.18878" lon="-3.01277">
        <ele>109.25</ele>
        <time>2015-12-27T12:32:31Z</time>
      </trkpt>
      <trkpt lat="48.18879" lon="-3.01276">
        <ele>109.25</ele>
        <time>2015-12-27T12:32:32Z</time>
      </trkpt>
      <trkpt lat="48.18885" lon="-3.01268">
        <ele>110.69</ele>
        <time>2015-12-27T12:32:39Z</time>
      </trkpt>
      <trkpt lat="48.18885" lon="-3.01266">
        <ele>110.69</ele>
        <time>2015-12-27T12:32:40Z</time>
      </trkpt>
      <trkpt lat="48.18888" lon="-3.01262">
        <ele>111.17</ele>
        <time>2015-12-27T12:32:43Z</time>
      </trkpt>
      <trkpt lat="48.18888" lon="-3.01262">
        <ele>111.17</ele>
        <time>2015-12-27T12:32:44Z</time>
      </trkpt>
      <trkpt lat="48.18889" lon="-3.01261">
        <ele>111.65</ele>
        <time>2015-12-27T12:32:45Z</time>
      </trkpt>
      <trkpt lat="48.18897" lon="-3.01252">
        <ele>111.65</ele>
        <time>2015-12-27T12:32:54Z</time>
      </trkpt>
      <trkpt lat="48.18897" lon="-3.0125">
        <ele>111.65</ele>
        <time>2015-12-27T12:32:55Z</time>
      </trkpt>
      <trkpt lat="48.18898" lon="-3.01249">
        <ele>112.13</ele>
        <time>2015-12-27T12:32:56Z</time>
      </trkpt>
      <trkpt lat="48.18899" lon="-3.01248">
        <ele>112.13</ele>
        <time>2015-12-27T12:32:57Z</time>
      </trkpt>
      <trkpt lat="48.189" lon="-3.01247">
        <ele>112.13</ele>
        <time>2015-12-27T12:32:58Z</time>
      </trkpt>
      <trkpt lat="48.18901" lon="-3.01245">
        <ele>112.13</ele>
        <time>2015-12-27T12:32:59Z</time>
      </trkpt>
      <trkpt lat="48.18902" lon="-3.01245">
        <ele>112.13</ele>
        <time>2015-12-27T12:33:00Z</time>
      </trkpt>
      <trkpt lat="48.18903" lon="-3.01244">
        <ele>112.61</ele>
        <time>2015-12-27T12:33:01Z</time>
      </trkpt>
      <trkpt lat="48.18904" lon="-3.01243">
        <ele>112.61</ele>
        <time>2015-12-27T12:33:02Z</time>
      </trkpt>
      <trkpt lat="48.18909" lon="-3.01236">
        <ele>113.57</ele>
        <time>2015-12-27T12:33:08Z</time>
      </trkpt>
      <trkpt lat="48.18909" lon="-3.01235">
        <ele>114.05</ele>
        <time>2015-12-27T12:33:09Z</time>
      </trkpt>
      <trkpt lat="48.1891" lon="-3.01234">
        <ele>114.05</ele>
        <time>2015-12-27T12:33:10Z</time>
      </trkpt>
      <trkpt lat="48.18911" lon="-3.01232">
        <ele>113.57</ele>
        <time>2015-12-27T12:33:11Z</time>
      </trkpt>
      <trkpt lat="48.18912" lon="-3.01231">
        <ele>114.05</ele>
        <time>2015-12-27T12:33:12Z</time>
      </trkpt>
      <trkpt lat="48.18913" lon="-3.01228">
        <ele>114.53</ele>
        <time>2015-12-27T12:33:14Z</time>
      </trkpt>
      <trkpt lat="48.18927" lon="-3.01212">
        <ele>115.98</ele>
        <time>2015-12-27T12:33:30Z</time>
      </trkpt>
      <trkpt lat="48.18928" lon="-3.01211">
        <ele>115.98</ele>
        <time>2015-12-27T12:33:31Z</time>
      </trkpt>
      <trkpt lat="48.18929" lon="-3.01211">
        <ele>115.98</ele>
        <time>2015-12-27T12:33:32Z</time>
      </trkpt>
      <trkpt lat="48.1893" lon="-3.0121">
        <ele>115.98</ele>
        <time>2015-12-27T12:33:33Z</time>
      </trkpt>
      <trkpt lat="48.18941" lon="-3.01197">
        <ele>117.9</ele>
        <time>2015-12-27T12:33:45Z</time>
      </trkpt>
      <trkpt lat="48.18942" lon="-3.01196">
        <ele>118.38</ele>
        <time>2015-12-27T12:33:46Z</time>
      </trkpt>
      <trkpt lat="48.18943" lon="-3.01194">
        <ele>118.86</ele>
        <time>2015-12-27T12:33:47Z</time>
      </trkpt>
      <trkpt lat="48.18944" lon="-3.01193">
        <ele>119.34</ele>
        <time>2015-12-27T12:33:48Z</time>
      </trkpt>
      <trkpt lat="48.18944" lon="-3.01192">
        <ele>119.34</ele>
        <time>2015-12-27T12:33:49Z</time>
      </trkpt>
      <trkpt lat="48.18946" lon="-3.01191">
        <ele>119.34</ele>
        <time>2015-12-27T12:33:50Z</time>
      </trkpt>
      <trkpt lat="48.18946" lon="-3.0119">
        <ele>119.34</ele>
        <time>2015-12-27T12:33:51Z</time>
      </trkpt>
      <trkpt lat="48.18947" lon="-3.01188">
        <ele>119.82</ele>
        <time>2015-12-27T12:33:52Z</time>
      </trkpt>
      <trkpt lat="48.18962" lon="-3.01172">
        <ele>120.3</ele>
        <time>2015-12-27T12:34:07Z</time>
      </trkpt>
      <trkpt lat="48.18963" lon="-3.01171">
        <ele>120.78</ele>
        <time>2015-12-27T12:34:08Z</time>
      </trkpt>
      <trkpt lat="48.18964" lon="-3.0117">
        <ele>120.78</ele>
        <time>2015-12-27T12:34:09Z</time>
      </trkpt>
      <trkpt lat="48.18965" lon="-3.01168">
        <ele>120.78</ele>
        <time>2015-12-27T12:34:10Z</time>
      </trkpt>
      <trkpt lat="48.18966" lon="-3.01167">
        <ele>121.26</ele>
        <time>2015-12-27T12:34:11Z</time>
      </trkpt>
      <trkpt lat="48.18967" lon="-3.01167">
        <ele>121.26</ele>
        <time>2015-12-27T12:34:12Z</time>
      </trkpt>
      <trkpt lat="48.18968" lon="-3.01165">
        <ele>121.26</ele>
        <time>2015-12-27T12:34:13Z</time>
      </trkpt>
      <trkpt lat="48.18969" lon="-3.01164">
        <ele>121.26</ele>
        <time>2015-12-27T12:34:14Z</time>
      </trkpt>
      <trkpt lat="48.1898" lon="-3.01151">
        <ele>122.71</ele>
        <time>2015-12-27T12:34:25Z</time>
      </trkpt>
      <trkpt lat="48.18981" lon="-3.0115">
        <ele>123.19</ele>
        <time>2015-12-27T12:34:26Z</time>
      </trkpt>
      <trkpt lat="48.18994" lon="-3.01129">
        <ele>125.11</ele>
        <time>2015-12-27T12:34:41Z</time>
      </trkpt>
      <trkpt lat="48.19007" lon="-3.01105">
        <ele>126.55</ele>
        <time>2015-12-27T12:34:57Z</time>
      </trkpt>
      <trkpt lat="48.19024" lon="-3.01074">
        <ele>128.95</ele>
        <time>2015-12-27T12:35:12Z</time>
      </trkpt>
      <trkpt lat="48.19039" lon="-3.01046">
        <ele>130.4</ele>
        <time>2015-12-27T12:35:26Z</time>
      </trkpt>
      <trkpt lat="48.19057" lon="-3.01011">
        <ele>130.88</ele>
        <time>2015-12-27T12:35:44Z</time>
      </trkpt>
      <trkpt lat="48.19074" lon="-3.00988">
        <ele>131.84</ele>
        <time>2015-12-27T12:35:58Z</time>
      </trkpt>
      <trkpt lat="48.19075" lon="-3.00986">
        <ele>131.84</ele>
        <time>2015-12-27T12:35:59Z</time>
      </trkpt>
      <trkpt lat="48.19081" lon="-3.00976">
        <ele>132.32</ele>
        <time>2015-12-27T12:36:05Z</time>
      </trkpt>
      <trkpt lat="48.19083" lon="-3.00975">
        <ele>132.32</ele>
        <time>2015-12-27T12:36:06Z</time>
      </trkpt>
      <trkpt lat="48.19084" lon="-3.00974">
        <ele>132.32</ele>
        <time>2015-12-27T12:36:07Z</time>
      </trkpt>
      <trkpt lat="48.191" lon="-3.00968">
        <ele>134.72</ele>
        <time>2015-12-27T12:36:19Z</time>
      </trkpt>
      <trkpt lat="48.19101" lon="-3.00967">
        <ele>134.72</ele>
        <time>2015-12-27T12:36:20Z</time>
      </trkpt>
      <trkpt lat="48.19114" lon="-3.00962">
        <ele>135.68</ele>
        <time>2015-12-27T12:36:31Z</time>
      </trkpt>
      <trkpt lat="48.19129" lon="-3.00956">
        <ele>137.61</ele>
        <time>2015-12-27T12:36:45Z</time>
      </trkpt>
      <trkpt lat="48.19131" lon="-3.00954">
        <ele>137.61</ele>
        <time>2015-12-27T12:36:47Z</time>
      </trkpt>
      <trkpt lat="48.19133" lon="-3.00953">
        <ele>137.61</ele>
        <time>2015-12-27T12:36:49Z</time>
      </trkpt>
      <trkpt lat="48.19134" lon="-3.00952">
        <ele>137.61</ele>
        <time>2015-12-27T12:36:50Z</time>
      </trkpt>
      <trkpt lat="48.19135" lon="-3.00952">
        <ele>138.09</ele>
        <time>2015-12-27T12:36:51Z</time>
      </trkpt>
      <trkpt lat="48.19136" lon="-3.00952">
        <ele>138.09</ele>
        <time>2015-12-27T12:36:52Z</time>
      </trkpt>
      <trkpt lat="48.19138" lon="-3.00951">
        <ele>138.57</ele>
        <time>2015-12-27T12:36:53Z</time>
      </trkpt>
      <trkpt lat="48.19139" lon="-3.00951">
        <ele>139.05</ele>
        <time>2015-12-27T12:36:54Z</time>
      </trkpt>
      <trkpt lat="48.1914" lon="-3.0095">
        <ele>139.05</ele>
        <time>2015-12-27T12:36:55Z</time>
      </trkpt>
      <trkpt lat="48.19141" lon="-3.0095">
        <ele>139.53</ele>
        <time>2015-12-27T12:36:56Z</time>
      </trkpt>
      <trkpt lat="48.19142" lon="-3.00949">
        <ele>139.53</ele>
        <time>2015-12-27T12:36:57Z</time>
      </trkpt>
      <trkpt lat="48.19143" lon="-3.00948">
        <ele>139.53</ele>
        <time>2015-12-27T12:36:58Z</time>
      </trkpt>
      <trkpt lat="48.19144" lon="-3.00948">
        <ele>140.01</ele>
        <time>2015-12-27T12:36:59Z</time>
      </trkpt>
      <trkpt lat="48.19145" lon="-3.00948">
        <ele>140.01</ele>
        <time>2015-12-27T12:37:00Z</time>
      </trkpt>
      <trkpt lat="48.19146" lon="-3.00947">
        <ele>140.01</ele>
        <time>2015-12-27T12:37:01Z</time>
      </trkpt>
      <trkpt lat="48.19153" lon="-3.00943">
        <ele>140.01</ele>
        <time>2015-12-27T12:37:07Z</time>
      </trkpt>
      <trkpt lat="48.19169" lon="-3.00936">
        <ele>141.93</ele>
        <time>2015-12-27T12:37:24Z</time>
      </trkpt>
      <trkpt lat="48.19169" lon="-3.00935">
        <ele>142.89</ele>
        <time>2015-12-27T12:37:43Z</time>
      </trkpt>
      <trkpt lat="48.19187" lon="-3.0093">
        <ele>144.34</ele>
        <time>2015-12-27T12:37:56Z</time>
      </trkpt>
      <trkpt lat="48.19216" lon="-3.0092">
        <ele>145.3</ele>
        <time>2015-12-27T12:38:11Z</time>
      </trkpt>
      <trkpt lat="48.19247" lon="-3.00912">
        <ele>147.7</ele>
        <time>2015-12-27T12:38:24Z</time>
      </trkpt>
      <trkpt lat="48.1929" lon="-3.00899">
        <ele>149.14</ele>
        <time>2015-12-27T12:38:41Z</time>
      </trkpt>
      <trkpt lat="48.19324" lon="-3.00895">
        <ele>150.58</ele>
        <time>2015-12-27T12:38:55Z</time>
      </trkpt>
      <trkpt lat="48.19366" lon="-3.00895">
        <ele>152.03</ele>
        <time>2015-12-27T12:39:13Z</time>
      </trkpt>
      <trkpt lat="48.19407" lon="-3.00896">
        <ele>153.47</ele>
        <time>2015-12-27T12:39:30Z</time>
      </trkpt>
      <trkpt lat="48.19457" lon="-3.00897">
        <ele>155.39</ele>
        <time>2015-12-27T12:39:47Z</time>
      </trkpt>
      <trkpt lat="48.19469" lon="-3.00896">
        <ele>155.87</ele>
        <time>2015-12-27T12:39:53Z</time>
      </trkpt>
      <trkpt lat="48.19471" lon="-3.00895">
        <ele>155.87</ele>
        <time>2015-12-27T12:39:54Z</time>
      </trkpt>
      <trkpt lat="48.19473" lon="-3.00894">
        <ele>155.87</ele>
        <time>2015-12-27T12:39:55Z</time>
      </trkpt>
      <trkpt lat="48.19476" lon="-3.00894">
        <ele>155.87</ele>
        <time>2015-12-27T12:39:56Z</time>
      </trkpt>
      <trkpt lat="48.19478" lon="-3.00894">
        <ele>155.87</ele>
        <time>2015-12-27T12:39:57Z</time>
      </trkpt>
      <trkpt lat="48.19512" lon="-3.00887">
        <ele>158.27</ele>
        <time>2015-12-27T12:40:11Z</time>
      </trkpt>
      <trkpt lat="48.19556" lon="-3.0087">
        <ele>153.95</ele>
        <time>2015-12-27T12:40:27Z</time>
      </trkpt>
      <trkpt lat="48.19594" lon="-3.00861">
        <ele>150.58</ele>
        <time>2015-12-27T12:40:41Z</time>
      </trkpt>
      <trkpt lat="48.1963" lon="-3.00866">
        <ele>149.14</ele>
        <time>2015-12-27T12:40:53Z</time>
      </trkpt>
      <trkpt lat="48.19656" lon="-3.00864">
        <ele>148.18</ele>
        <time>2015-12-27T12:41:02Z</time>
      </trkpt>
      <trkpt lat="48.19658" lon="-3.00867">
        <ele>148.18</ele>
        <time>2015-12-27T12:41:03Z</time>
      </trkpt>
      <trkpt lat="48.1966" lon="-3.00871">
        <ele>148.18</ele>
        <time>2015-12-27T12:41:04Z</time>
      </trkpt>
      <trkpt lat="48.1966" lon="-3.00875">
        <ele>147.7</ele>
        <time>2015-12-27T12:41:05Z</time>
      </trkpt>
      <trkpt lat="48.19663" lon="-3.00879">
        <ele>147.7</ele>
        <time>2015-12-27T12:41:06Z</time>
      </trkpt>
      <trkpt lat="48.19665" lon="-3.00882">
        <ele>148.18</ele>
        <time>2015-12-27T12:41:07Z</time>
      </trkpt>
      <trkpt lat="48.19668" lon="-3.00885">
        <ele>150.58</ele>
        <time>2015-12-27T12:41:18Z</time>
      </trkpt>
      <trkpt lat="48.19674" lon="-3.00883">
        <ele>149.14</ele>
        <time>2015-12-27T12:41:45Z</time>
      </trkpt>
      <trkpt lat="48.19675" lon="-3.00886">
        <ele>149.14</ele>
        <time>2015-12-27T12:41:46Z</time>
      </trkpt>
      <trkpt lat="48.19676" lon="-3.00888">
        <ele>149.14</ele>
        <time>2015-12-27T12:41:47Z</time>
      </trkpt>
      <trkpt lat="48.19694" lon="-3.00925">
        <ele>147.7</ele>
        <time>2015-12-27T12:41:57Z</time>
      </trkpt>
      <trkpt lat="48.19704" lon="-3.00946">
        <ele>147.22</ele>
        <time>2015-12-27T12:42:01Z</time>
      </trkpt>
      <trkpt lat="48.19713" lon="-3.00965">
        <ele>146.26</ele>
        <time>2015-12-27T12:42:04Z</time>
      </trkpt>
      <trkpt lat="48.19731" lon="-3.00996">
        <ele>142.89</ele>
        <time>2015-12-27T12:42:09Z</time>
      </trkpt>
      <trkpt lat="48.19735" lon="-3.01">
        <ele>142.41</ele>
        <time>2015-12-27T12:42:10Z</time>
      </trkpt>
      <trkpt lat="48.19739" lon="-3.01003">
        <ele>141.45</ele>
        <time>2015-12-27T12:42:11Z</time>
      </trkpt>
      <trkpt lat="48.1975" lon="-3.01014">
        <ele>139.53</ele>
        <time>2015-12-27T12:42:15Z</time>
      </trkpt>
      <trkpt lat="48.19751" lon="-3.01015">
        <ele>139.05</ele>
        <time>2015-12-27T12:42:16Z</time>
      </trkpt>
      <trkpt lat="48.19754" lon="-3.01015">
        <ele>138.57</ele>
        <time>2015-12-27T12:42:17Z</time>
      </trkpt>
      <trkpt lat="48.19755" lon="-3.01013">
        <ele>138.09</ele>
        <time>2015-12-27T12:42:18Z</time>
      </trkpt>
      <trkpt lat="48.19757" lon="-3.0101">
        <ele>138.09</ele>
        <time>2015-12-27T12:42:19Z</time>
      </trkpt>
      <trkpt lat="48.19759" lon="-3.01008">
        <ele>138.09</ele>
        <time>2015-12-27T12:42:20Z</time>
      </trkpt>
      <trkpt lat="48.19761" lon="-3.01005">
        <ele>138.57</ele>
        <time>2015-12-27T12:42:21Z</time>
      </trkpt>
      <trkpt lat="48.19763" lon="-3.01003">
        <ele>138.57</ele>
        <time>2015-12-27T12:42:22Z</time>
      </trkpt>
      <trkpt lat="48.19765" lon="-3.01">
        <ele>139.05</ele>
        <time>2015-12-27T12:42:23Z</time>
      </trkpt>
      <trkpt lat="48.19766" lon="-3.00998">
        <ele>139.05</ele>
        <time>2015-12-27T12:42:24Z</time>
      </trkpt>
      <trkpt lat="48.19768" lon="-3.00996">
        <ele>139.05</ele>
        <time>2015-12-27T12:42:25Z</time>
      </trkpt>
      <trkpt lat="48.1977" lon="-3.00994">
        <ele>139.05</ele>
        <time>2015-12-27T12:42:26Z</time>
      </trkpt>
      <trkpt lat="48.19772" lon="-3.00993">
        <ele>139.05</ele>
        <time>2015-12-27T12:42:27Z</time>
      </trkpt>
      <trkpt lat="48.19775" lon="-3.00992">
        <ele>139.53</ele>
        <time>2015-12-27T12:42:28Z</time>
      </trkpt>
      <trkpt lat="48.19777" lon="-3.00992">
        <ele>139.53</ele>
        <time>2015-12-27T12:42:29Z</time>
      </trkpt>
      <trkpt lat="48.19779" lon="-3.00994">
        <ele>139.53</ele>
        <time>2015-12-27T12:42:30Z</time>
      </trkpt>
      <trkpt lat="48.19781" lon="-3.00995">
        <ele>139.53</ele>
        <time>2015-12-27T12:42:31Z</time>
      </trkpt>
      <trkpt lat="48.19783" lon="-3.00996">
        <ele>139.53</ele>
        <time>2015-12-27T12:42:32Z</time>
      </trkpt>
      <trkpt lat="48.19786" lon="-3.00997">
        <ele>140.01</ele>
        <time>2015-12-27T12:42:33Z</time>
      </trkpt>
      <trkpt lat="48.19788" lon="-3.00998">
        <ele>140.01</ele>
        <time>2015-12-27T12:42:34Z</time>
      </trkpt>
      <trkpt lat="48.1979" lon="-3.01">
        <ele>139.53</ele>
        <time>2015-12-27T12:42:35Z</time>
      </trkpt>
      <trkpt lat="48.19791" lon="-3.01003">
        <ele>139.53</ele>
        <time>2015-12-27T12:42:36Z</time>
      </trkpt>
      <trkpt lat="48.198" lon="-3.01059">
        <ele>139.05</ele>
        <time>2015-12-27T12:42:50Z</time>
      </trkpt>
      <trkpt lat="48.19813" lon="-3.01123">
        <ele>138.09</ele>
        <time>2015-12-27T12:43:03Z</time>
      </trkpt>
      <trkpt lat="48.19818" lon="-3.0115">
        <ele>137.61</ele>
        <time>2015-12-27T12:43:07Z</time>
      </trkpt>
      <trkpt lat="48.19819" lon="-3.01157">
        <ele>137.61</ele>
        <time>2015-12-27T12:43:08Z</time>
      </trkpt>
      <trkpt lat="48.19822" lon="-3.01178">
        <ele>137.13</ele>
        <time>2015-12-27T12:43:11Z</time>
      </trkpt>
      <trkpt lat="48.19823" lon="-3.01185">
        <ele>136.64</ele>
        <time>2015-12-27T12:43:12Z</time>
      </trkpt>
      <trkpt lat="48.19825" lon="-3.01206">
        <ele>136.64</ele>
        <time>2015-12-27T12:43:15Z</time>
      </trkpt>
      <trkpt lat="48.19827" lon="-3.01212">
        <ele>136.64</ele>
        <time>2015-12-27T12:43:16Z</time>
      </trkpt>
      <trkpt lat="48.19856" lon="-3.0128">
        <ele>137.13</ele>
        <time>2015-12-27T12:43:31Z</time>
      </trkpt>
      <trkpt lat="48.19878" lon="-3.01333">
        <ele>139.53</ele>
        <time>2015-12-27T12:43:45Z</time>
      </trkpt>
      <trkpt lat="48.19881" lon="-3.0134">
        <ele>140.01</ele>
        <time>2015-12-27T12:43:47Z</time>
      </trkpt>
      <trkpt lat="48.19883" lon="-3.01342">
        <ele>140.01</ele>
        <time>2015-12-27T12:43:48Z</time>
      </trkpt>
      <trkpt lat="48.19885" lon="-3.01343">
        <ele>139.53</ele>
        <time>2015-12-27T12:43:49Z</time>
      </trkpt>
      <trkpt lat="48.19888" lon="-3.01343">
        <ele>139.05</ele>
        <time>2015-12-27T12:43:50Z</time>
      </trkpt>
      <trkpt lat="48.19891" lon="-3.01343">
        <ele>138.57</ele>
        <time>2015-12-27T12:43:51Z</time>
      </trkpt>
      <trkpt lat="48.19893" lon="-3.01341">
        <ele>138.57</ele>
        <time>2015-12-27T12:43:52Z</time>
      </trkpt>
      <trkpt lat="48.19895" lon="-3.0134">
        <ele>138.09</ele>
        <time>2015-12-27T12:43:53Z</time>
      </trkpt>
      <trkpt lat="48.19897" lon="-3.0134">
        <ele>138.09</ele>
        <time>2015-12-27T12:43:54Z</time>
      </trkpt>
      <trkpt lat="48.19899" lon="-3.01342">
        <ele>138.57</ele>
        <time>2015-12-27T12:43:55Z</time>
      </trkpt>
      <trkpt lat="48.19901" lon="-3.01344">
        <ele>138.09</ele>
        <time>2015-12-27T12:43:56Z</time>
      </trkpt>
      <trkpt lat="48.19903" lon="-3.01347">
        <ele>138.09</ele>
        <time>2015-12-27T12:43:57Z</time>
      </trkpt>
      <trkpt lat="48.19905" lon="-3.01349">
        <ele>138.09</ele>
        <time>2015-12-27T12:43:58Z</time>
      </trkpt>
      <trkpt lat="48.19914" lon="-3.01361">
        <ele>138.57</ele>
        <time>2015-12-27T12:44:03Z</time>
      </trkpt>
      <trkpt lat="48.19939" lon="-3.01357">
        <ele>138.09</ele>
        <time>2015-12-27T12:44:16Z</time>
      </trkpt>
      <trkpt lat="48.19942" lon="-3.01357">
        <ele>138.57</ele>
        <time>2015-12-27T12:44:18Z</time>
      </trkpt>
      <trkpt lat="48.19947" lon="-3.01353">
        <ele>140.49</ele>
        <time>2015-12-27T12:44:24Z</time>
      </trkpt>
      <trkpt lat="48.1995" lon="-3.0135">
        <ele>140.97</ele>
        <time>2015-12-27T12:44:27Z</time>
      </trkpt>
      <trkpt lat="48.19953" lon="-3.01345">
        <ele>141.93</ele>
        <time>2015-12-27T12:44:32Z</time>
      </trkpt>
      <trkpt lat="48.19955" lon="-3.01344">
        <ele>142.41</ele>
        <time>2015-12-27T12:44:34Z</time>
      </trkpt>
      <trkpt lat="48.19959" lon="-3.01341">
        <ele>143.85</ele>
        <time>2015-12-27T12:44:40Z</time>
      </trkpt>
      <trkpt lat="48.19972" lon="-3.01337">
        <ele>145.78</ele>
        <time>2015-12-27T12:44:52Z</time>
      </trkpt>
      <trkpt lat="48.19977" lon="-3.01343">
        <ele>146.74</ele>
        <time>2015-12-27T12:45:05Z</time>
      </trkpt>
      <trkpt lat="48.19979" lon="-3.01348">
        <ele>150.1</ele>
        <time>2015-12-27T12:45:11Z</time>
      </trkpt>
      <trkpt lat="48.19979" lon="-3.0135">
        <ele>150.58</ele>
        <time>2015-12-27T12:45:12Z</time>
      </trkpt>
      <trkpt lat="48.1998" lon="-3.01353">
        <ele>150.58</ele>
        <time>2015-12-27T12:45:13Z</time>
      </trkpt>
      <trkpt lat="48.19981" lon="-3.01356">
        <ele>150.58</ele>
        <time>2015-12-27T12:45:14Z</time>
      </trkpt>
      <trkpt lat="48.19982" lon="-3.01359">
        <ele>151.06</ele>
        <time>2015-12-27T12:45:15Z</time>
      </trkpt>
      <trkpt lat="48.20002" lon="-3.01393">
        <ele>150.1</ele>
        <time>2015-12-27T12:45:26Z</time>
      </trkpt>
      <trkpt lat="48.20006" lon="-3.01395">
        <ele>149.62</ele>
        <time>2015-12-27T12:45:27Z</time>
      </trkpt>
      <trkpt lat="48.20011" lon="-3.01397">
        <ele>149.14</ele>
        <time>2015-12-27T12:45:28Z</time>
      </trkpt>
      <trkpt lat="48.20016" lon="-3.014">
        <ele>148.66</ele>
        <time>2015-12-27T12:45:29Z</time>
      </trkpt>
      <trkpt lat="48.20032" lon="-3.01405">
        <ele>147.7</ele>
        <time>2015-12-27T12:45:32Z</time>
      </trkpt>
      <trkpt lat="48.20048" lon="-3.01412">
        <ele>148.18</ele>
        <time>2015-12-27T12:45:40Z</time>
      </trkpt>
      <trkpt lat="48.2005" lon="-3.01412">
        <ele>147.7</ele>
        <time>2015-12-27T12:45:50Z</time>
      </trkpt>
      <trkpt lat="48.20064" lon="-3.01417">
        <ele>146.74</ele>
        <time>2015-12-27T12:46:13Z</time>
      </trkpt>
      <trkpt lat="48.2008" lon="-3.01414">
        <ele>144.82</ele>
        <time>2015-12-27T12:46:17Z</time>
      </trkpt>
      <trkpt lat="48.20084" lon="-3.01409">
        <ele>143.85</ele>
        <time>2015-12-27T12:46:18Z</time>
      </trkpt>
      <trkpt lat="48.20086" lon="-3.01403">
        <ele>142.89</ele>
        <time>2015-12-27T12:46:19Z</time>
      </trkpt>
      <trkpt lat="48.20086" lon="-3.01397">
        <ele>142.41</ele>
        <time>2015-12-27T12:46:20Z</time>
      </trkpt>
      <trkpt lat="48.20087" lon="-3.01391">
        <ele>141.93</ele>
        <time>2015-12-27T12:46:21Z</time>
      </trkpt>
      <trkpt lat="48.20095" lon="-3.01339">
        <ele>138.57</ele>
        <time>2015-12-27T12:46:29Z</time>
      </trkpt>
      <trkpt lat="48.20098" lon="-3.01325">
        <ele>138.09</ele>
        <time>2015-12-27T12:46:31Z</time>
      </trkpt>
      <trkpt lat="48.20101" lon="-3.01319">
        <ele>137.61</ele>
        <time>2015-12-27T12:46:32Z</time>
      </trkpt>
      <trkpt lat="48.20105" lon="-3.01314">
        <ele>137.61</ele>
        <time>2015-12-27T12:46:33Z</time>
      </trkpt>
      <trkpt lat="48.2011" lon="-3.01308">
        <ele>137.61</ele>
        <time>2015-12-27T12:46:34Z</time>
      </trkpt>
      <trkpt lat="48.20115" lon="-3.01302">
        <ele>137.61</ele>
        <time>2015-12-27T12:46:35Z</time>
      </trkpt>
      <trkpt lat="48.20119" lon="-3.01296">
        <ele>137.61</ele>
        <time>2015-12-27T12:46:36Z</time>
      </trkpt>
      <trkpt lat="48.20129" lon="-3.01287">
        <ele>136.64</ele>
        <time>2015-12-27T12:46:38Z</time>
      </trkpt>
      <trkpt lat="48.20133" lon="-3.01283">
        <ele>136.64</ele>
        <time>2015-12-27T12:46:39Z</time>
      </trkpt>
      <trkpt lat="48.20137" lon="-3.0128">
        <ele>136.16</ele>
        <time>2015-12-27T12:46:40Z</time>
      </trkpt>
      <trkpt lat="48.20141" lon="-3.01276">
        <ele>136.16</ele>
        <time>2015-12-27T12:46:41Z</time>
      </trkpt>
      <trkpt lat="48.20143" lon="-3.01273">
        <ele>136.16</ele>
        <time>2015-12-27T12:46:42Z</time>
      </trkpt>
      <trkpt lat="48.2016" lon="-3.01264">
        <ele>135.68</ele>
        <time>2015-12-27T12:46:50Z</time>
      </trkpt>
      <trkpt lat="48.20162" lon="-3.01262">
        <ele>135.68</ele>
        <time>2015-12-27T12:46:51Z</time>
      </trkpt>
      <trkpt lat="48.20164" lon="-3.01261">
        <ele>135.68</ele>
        <time>2015-12-27T12:46:52Z</time>
      </trkpt>
      <trkpt lat="48.20166" lon="-3.01261">
        <ele>135.68</ele>
        <time>2015-12-27T12:46:53Z</time>
      </trkpt>
      <trkpt lat="48.20168" lon="-3.01261">
        <ele>135.68</ele>
        <time>2015-12-27T12:46:54Z</time>
      </trkpt>
      <trkpt lat="48.2017" lon="-3.01262">
        <ele>136.16</ele>
        <time>2015-12-27T12:46:55Z</time>
      </trkpt>
      <trkpt lat="48.20192" lon="-3.0127">
        <ele>137.13</ele>
        <time>2015-12-27T12:47:06Z</time>
      </trkpt>
      <trkpt lat="48.20208" lon="-3.01283">
        <ele>138.09</ele>
        <time>2015-12-27T12:47:15Z</time>
      </trkpt>
      <trkpt lat="48.20231" lon="-3.01299">
        <ele>139.05</ele>
        <time>2015-12-27T12:47:27Z</time>
      </trkpt>
      <trkpt lat="48.2025" lon="-3.01307">
        <ele>142.41</ele>
        <time>2015-12-27T12:47:37Z</time>
      </trkpt>
      <trkpt lat="48.20253" lon="-3.01307">
        <ele>142.89</ele>
        <time>2015-12-27T12:47:39Z</time>
      </trkpt>
      <trkpt lat="48.20261" lon="-3.01299">
        <ele>143.85</ele>
        <time>2015-12-27T12:47:48Z</time>
      </trkpt>
      <trkpt lat="48.20267" lon="-3.01291">
        <ele>145.78</ele>
        <time>2015-12-27T12:48:00Z</time>
      </trkpt>
      <trkpt lat="48.20267" lon="-3.01282">
        <ele>147.22</ele>
        <time>2015-12-27T12:48:06Z</time>
      </trkpt>
      <trkpt lat="48.20266" lon="-3.01266">
        <ele>150.1</ele>
        <time>2015-12-27T12:48:17Z</time>
      </trkpt>
      <trkpt lat="48.20265" lon="-3.01261">
        <ele>152.03</ele>
        <time>2015-12-27T12:48:22Z</time>
      </trkpt>
      <trkpt lat="48.20254" lon="-3.01244">
        <ele>155.39</ele>
        <time>2015-12-27T12:48:35Z</time>
      </trkpt>
      <trkpt lat="48.20245" lon="-3.01223">
        <ele>158.27</ele>
        <time>2015-12-27T12:48:47Z</time>
      </trkpt>
      <trkpt lat="48.20244" lon="-3.01207">
        <ele>157.31</ele>
        <time>2015-12-27T12:48:56Z</time>
      </trkpt>
      <trkpt lat="48.20239" lon="-3.01196">
        <ele>157.79</ele>
        <time>2015-12-27T12:49:02Z</time>
      </trkpt>
      <trkpt lat="48.20235" lon="-3.01177">
        <ele>160.2</ele>
        <time>2015-12-27T12:49:09Z</time>
      </trkpt>
      <trkpt lat="48.20236" lon="-3.01175">
        <ele>160.2</ele>
        <time>2015-12-27T12:49:10Z</time>
      </trkpt>
      <trkpt lat="48.20237" lon="-3.01174">
        <ele>160.2</ele>
        <time>2015-12-27T12:49:11Z</time>
      </trkpt>
      <trkpt lat="48.20237" lon="-3.01172">
        <ele>160.2</ele>
        <time>2015-12-27T12:49:12Z</time>
      </trkpt>
      <trkpt lat="48.20237" lon="-3.01169">
        <ele>160.2</ele>
        <time>2015-12-27T12:49:13Z</time>
      </trkpt>
      <trkpt lat="48.20238" lon="-3.01167">
        <ele>160.2</ele>
        <time>2015-12-27T12:49:14Z</time>
      </trkpt>
      <trkpt lat="48.20239" lon="-3.01165">
        <ele>160.2</ele>
        <time>2015-12-27T12:49:15Z</time>
      </trkpt>
      <trkpt lat="48.2024" lon="-3.01145">
        <ele>162.12</ele>
        <time>2015-12-27T12:49:22Z</time>
      </trkpt>
      <trkpt lat="48.20243" lon="-3.01141">
        <ele>162.12</ele>
        <time>2015-12-27T12:49:24Z</time>
      </trkpt>
      <trkpt lat="48.20245" lon="-3.01138">
        <ele>162.12</ele>
        <time>2015-12-27T12:49:25Z</time>
      </trkpt>
      <trkpt lat="48.20246" lon="-3.01135">
        <ele>162.12</ele>
        <time>2015-12-27T12:49:26Z</time>
      </trkpt>
      <trkpt lat="48.20246" lon="-3.01132">
        <ele>162.6</ele>
        <time>2015-12-27T12:49:27Z</time>
      </trkpt>
      <trkpt lat="48.20267" lon="-3.01089">
        <ele>163.08</ele>
        <time>2015-12-27T12:49:38Z</time>
      </trkpt>
      <trkpt lat="48.20282" lon="-3.01078">
        <ele>163.56</ele>
        <time>2015-12-27T12:49:44Z</time>
      </trkpt>
      <trkpt lat="48.20286" lon="-3.0108">
        <ele>163.56</ele>
        <time>2015-12-27T12:49:45Z</time>
      </trkpt>
      <trkpt lat="48.2029" lon="-3.01082">
        <ele>163.56</ele>
        <time>2015-12-27T12:49:46Z</time>
      </trkpt>
      <trkpt lat="48.2034" lon="-3.01097">
        <ele>163.56</ele>
        <time>2015-12-27T12:49:54Z</time>
      </trkpt>
      <trkpt lat="48.20362" lon="-3.01103">
        <ele>162.6</ele>
        <time>2015-12-27T12:49:58Z</time>
      </trkpt>
      <trkpt lat="48.20367" lon="-3.01105">
        <ele>162.6</ele>
        <time>2015-12-27T12:49:59Z</time>
      </trkpt>
      <trkpt lat="48.20396" lon="-3.01112">
        <ele>161.16</ele>
        <time>2015-12-27T12:50:07Z</time>
      </trkpt>
      <trkpt lat="48.20419" lon="-3.0111">
        <ele>160.2</ele>
        <time>2015-12-27T12:50:14Z</time>
      </trkpt>
      <trkpt lat="48.20422" lon="-3.01108">
        <ele>159.72</ele>
        <time>2015-12-27T12:50:15Z</time>
      </trkpt>
      <trkpt lat="48.20443" lon="-3.01095">
        <ele>157.31</ele>
        <time>2015-12-27T12:50:22Z</time>
      </trkpt>
      <trkpt lat="48.20475" lon="-3.01098">
        <ele>154.43</ele>
        <time>2015-12-27T12:50:32Z</time>
      </trkpt>
      <trkpt lat="48.20513" lon="-3.01125">
        <ele>153.95</ele>
        <time>2015-12-27T12:50:42Z</time>
      </trkpt>
      <trkpt lat="48.20517" lon="-3.01128">
        <ele>153.47</ele>
        <time>2015-12-27T12:50:43Z</time>
      </trkpt>
      <trkpt lat="48.20521" lon="-3.01131">
        <ele>153.47</ele>
        <time>2015-12-27T12:50:44Z</time>
      </trkpt>
      <trkpt lat="48.20525" lon="-3.01133">
        <ele>153.47</ele>
        <time>2015-12-27T12:50:45Z</time>
      </trkpt>
      <trkpt lat="48.20529" lon="-3.01135">
        <ele>153.47</ele>
        <time>2015-12-27T12:50:46Z</time>
      </trkpt>
      <trkpt lat="48.20533" lon="-3.01138">
        <ele>152.99</ele>
        <time>2015-12-27T12:50:47Z</time>
      </trkpt>
      <trkpt lat="48.20537" lon="-3.01141">
        <ele>152.99</ele>
        <time>2015-12-27T12:50:48Z</time>
      </trkpt>
      <trkpt lat="48.2054" lon="-3.01144">
        <ele>152.99</ele>
        <time>2015-12-27T12:50:49Z</time>
      </trkpt>
      <trkpt lat="48.20548" lon="-3.01149">
        <ele>152.99</ele>
        <time>2015-12-27T12:50:51Z</time>
      </trkpt>
      <trkpt lat="48.20589" lon="-3.01176">
        <ele>151.54</ele>
        <time>2015-12-27T12:51:02Z</time>
      </trkpt>
      <trkpt lat="48.20622" lon="-3.01202">
        <ele>147.7</ele>
        <time>2015-12-27T12:51:12Z</time>
      </trkpt>
      <trkpt lat="48.20643" lon="-3.01221">
        <ele>147.22</ele>
        <time>2015-12-27T12:51:18Z</time>
      </trkpt>
      <trkpt lat="48.20647" lon="-3.01225">
        <ele>147.22</ele>
        <time>2015-12-27T12:51:19Z</time>
      </trkpt>
      <trkpt lat="48.2065" lon="-3.0123">
        <ele>147.22</ele>
        <time>2015-12-27T12:51:20Z</time>
      </trkpt>
      <trkpt lat="48.20652" lon="-3.01234">
        <ele>147.22</ele>
        <time>2015-12-27T12:51:21Z</time>
      </trkpt>
      <trkpt lat="48.20656" lon="-3.01238">
        <ele>147.7</ele>
        <time>2015-12-27T12:51:22Z</time>
      </trkpt>
      <trkpt lat="48.20659" lon="-3.01243">
        <ele>147.7</ele>
        <time>2015-12-27T12:51:23Z</time>
      </trkpt>
      <trkpt lat="48.20675" lon="-3.01259">
        <ele>148.18</ele>
        <time>2015-12-27T12:51:27Z</time>
      </trkpt>
      <trkpt lat="48.20687" lon="-3.01273">
        <ele>148.66</ele>
        <time>2015-12-27T12:51:30Z</time>
      </trkpt>
      <trkpt lat="48.20691" lon="-3.01276">
        <ele>148.66</ele>
        <time>2015-12-27T12:51:31Z</time>
      </trkpt>
      <trkpt lat="48.20695" lon="-3.0128">
        <ele>148.18</ele>
        <time>2015-12-27T12:51:32Z</time>
      </trkpt>
      <trkpt lat="48.207" lon="-3.01286">
        <ele>148.18</ele>
        <time>2015-12-27T12:51:33Z</time>
      </trkpt>
      <trkpt lat="48.20704" lon="-3.01292">
        <ele>147.7</ele>
        <time>2015-12-27T12:51:34Z</time>
      </trkpt>
      <trkpt lat="48.20724" lon="-3.01315">
        <ele>146.74</ele>
        <time>2015-12-27T12:51:38Z</time>
      </trkpt>
      <trkpt lat="48.20729" lon="-3.01321">
        <ele>146.26</ele>
        <time>2015-12-27T12:51:39Z</time>
      </trkpt>
      <trkpt lat="48.20734" lon="-3.01328">
        <ele>145.78</ele>
        <time>2015-12-27T12:51:40Z</time>
      </trkpt>
      <trkpt lat="48.20738" lon="-3.01334">
        <ele>145.78</ele>
        <time>2015-12-27T12:51:41Z</time>
      </trkpt>
      <trkpt lat="48.20743" lon="-3.0134">
        <ele>145.3</ele>
        <time>2015-12-27T12:51:42Z</time>
      </trkpt>
      <trkpt lat="48.20747" lon="-3.01344">
        <ele>144.82</ele>
        <time>2015-12-27T12:51:43Z</time>
      </trkpt>
      <trkpt lat="48.20749" lon="-3.01347">
        <ele>144.34</ele>
        <time>2015-12-27T12:51:44Z</time>
      </trkpt>
      <trkpt lat="48.20751" lon="-3.01352">
        <ele>144.34</ele>
        <time>2015-12-27T12:51:45Z</time>
      </trkpt>
      <trkpt lat="48.20753" lon="-3.01357">
        <ele>143.85</ele>
        <time>2015-12-27T12:51:46Z</time>
      </trkpt>
      <trkpt lat="48.20755" lon="-3.01361">
        <ele>143.37</ele>
        <time>2015-12-27T12:51:47Z</time>
      </trkpt>
      <trkpt lat="48.20758" lon="-3.01366">
        <ele>142.89</ele>
        <time>2015-12-27T12:51:48Z</time>
      </trkpt>
      <trkpt lat="48.2076" lon="-3.0137">
        <ele>142.89</ele>
        <time>2015-12-27T12:51:49Z</time>
      </trkpt>
      <trkpt lat="48.20763" lon="-3.01375">
        <ele>142.41</ele>
        <time>2015-12-27T12:51:50Z</time>
      </trkpt>
      <trkpt lat="48.20765" lon="-3.01379">
        <ele>142.41</ele>
        <time>2015-12-27T12:51:51Z</time>
      </trkpt>
      <trkpt lat="48.20767" lon="-3.01383">
        <ele>141.93</ele>
        <time>2015-12-27T12:51:52Z</time>
      </trkpt>
      <trkpt lat="48.20769" lon="-3.01386">
        <ele>141.45</ele>
        <time>2015-12-27T12:51:53Z</time>
      </trkpt>
      <trkpt lat="48.20772" lon="-3.01389">
        <ele>141.45</ele>
        <time>2015-12-27T12:51:54Z</time>
      </trkpt>
      <trkpt lat="48.20775" lon="-3.0139">
        <ele>140.97</ele>
        <time>2015-12-27T12:51:55Z</time>
      </trkpt>
      <trkpt lat="48.20777" lon="-3.0139">
        <ele>140.97</ele>
        <time>2015-12-27T12:51:56Z</time>
      </trkpt>
      <trkpt lat="48.20778" lon="-3.01389">
        <ele>140.97</ele>
        <time>2015-12-27T12:51:57Z</time>
      </trkpt>
      <trkpt lat="48.20783" lon="-3.01391">
        <ele>141.45</ele>
        <time>2015-12-27T12:52:01Z</time>
      </trkpt>
      <trkpt lat="48.20781" lon="-3.01387">
        <ele>141.45</ele>
        <time>2015-12-27T12:52:04Z</time>
      </trkpt>
      <trkpt lat="48.2078" lon="-3.01386">
        <ele>141.93</ele>
        <time>2015-12-27T12:52:05Z</time>
      </trkpt>
      <trkpt lat="48.2078" lon="-3.01384">
        <ele>141.93</ele>
        <time>2015-12-27T12:52:06Z</time>
      </trkpt>
      <trkpt lat="48.20781" lon="-3.01382">
        <ele>142.41</ele>
        <time>2015-12-27T12:52:07Z</time>
      </trkpt>
      <trkpt lat="48.20782" lon="-3.0138">
        <ele>142.41</ele>
        <time>2015-12-27T12:52:08Z</time>
      </trkpt>
      <trkpt lat="48.20784" lon="-3.01378">
        <ele>142.89</ele>
        <time>2015-12-27T12:52:09Z</time>
      </trkpt>
      <trkpt lat="48.20785" lon="-3.01375">
        <ele>142.89</ele>
        <time>2015-12-27T12:52:10Z</time>
      </trkpt>
      <trkpt lat="48.20786" lon="-3.01371">
        <ele>143.37</ele>
        <time>2015-12-27T12:52:11Z</time>
      </trkpt>
      <trkpt lat="48.20787" lon="-3.01368">
        <ele>143.37</ele>
        <time>2015-12-27T12:52:12Z</time>
      </trkpt>
      <trkpt lat="48.2079" lon="-3.01358">
        <ele>143.85</ele>
        <time>2015-12-27T12:52:15Z</time>
      </trkpt>
      <trkpt lat="48.20801" lon="-3.01332">
        <ele>142.89</ele>
        <time>2015-12-27T12:52:26Z</time>
      </trkpt>
      <trkpt lat="48.20817" lon="-3.01323">
        <ele>141.45</ele>
        <time>2015-12-27T12:52:34Z</time>
      </trkpt>
      <trkpt lat="48.2082" lon="-3.01324">
        <ele>140.97</ele>
        <time>2015-12-27T12:52:35Z</time>
      </trkpt>
      <trkpt lat="48.20841" lon="-3.01331">
        <ele>140.01</ele>
        <time>2015-12-27T12:52:41Z</time>
      </trkpt>
      <trkpt lat="48.20845" lon="-3.01328">
        <ele>139.53</ele>
        <time>2015-12-27T12:52:42Z</time>
      </trkpt>
      <trkpt lat="48.20849" lon="-3.01324">
        <ele>139.53</ele>
        <time>2015-12-27T12:52:43Z</time>
      </trkpt>
      <trkpt lat="48.20851" lon="-3.01319">
        <ele>139.53</ele>
        <time>2015-12-27T12:52:44Z</time>
      </trkpt>
      <trkpt lat="48.20852" lon="-3.01314">
        <ele>139.05</ele>
        <time>2015-12-27T12:52:45Z</time>
      </trkpt>
      <trkpt lat="48.20854" lon="-3.0131">
        <ele>139.05</ele>
        <time>2015-12-27T12:52:46Z</time>
      </trkpt>
      <trkpt lat="48.20857" lon="-3.01308">
        <ele>138.57</ele>
        <time>2015-12-27T12:52:47Z</time>
      </trkpt>
      <trkpt lat="48.2086" lon="-3.01307">
        <ele>138.09</ele>
        <time>2015-12-27T12:52:48Z</time>
      </trkpt>
      <trkpt lat="48.20864" lon="-3.01307">
        <ele>137.61</ele>
        <time>2015-12-27T12:52:49Z</time>
      </trkpt>
      <trkpt lat="48.20873" lon="-3.01308">
        <ele>136.64</ele>
        <time>2015-12-27T12:52:51Z</time>
      </trkpt>
      <trkpt lat="48.20927" lon="-3.01308">
        <ele>131.36</ele>
        <time>2015-12-27T12:52:59Z</time>
      </trkpt>
      <trkpt lat="48.20934" lon="-3.01309">
        <ele>130.88</ele>
        <time>2015-12-27T12:53:00Z</time>
      </trkpt>
      <trkpt lat="48.20972" lon="-3.01303">
        <ele>125.59</ele>
        <time>2015-12-27T12:53:08Z</time>
      </trkpt>
      <trkpt lat="48.20973" lon="-3.01299">
        <ele>125.59</ele>
        <time>2015-12-27T12:53:09Z</time>
      </trkpt>
      <trkpt lat="48.20972" lon="-3.01296">
        <ele>125.11</ele>
        <time>2015-12-27T12:53:10Z</time>
      </trkpt>
      <trkpt lat="48.20971" lon="-3.01248">
        <ele>125.59</ele>
        <time>2015-12-27T12:53:21Z</time>
      </trkpt>
      <trkpt lat="48.20974" lon="-3.0118">
        <ele>126.55</ele>
        <time>2015-12-27T12:53:34Z</time>
      </trkpt>
      <trkpt lat="48.20975" lon="-3.0112">
        <ele>125.59</ele>
        <time>2015-12-27T12:53:47Z</time>
      </trkpt>
      <trkpt lat="48.20972" lon="-3.01053">
        <ele>125.59</ele>
        <time>2015-12-27T12:53:59Z</time>
      </trkpt>
      <trkpt lat="48.20983" lon="-3.01024">
        <ele>125.59</ele>
        <time>2015-12-27T12:54:07Z</time>
      </trkpt>
      <trkpt lat="48.20988" lon="-3.01023">
        <ele>125.59</ele>
        <time>2015-12-27T12:54:08Z</time>
      </trkpt>
      <trkpt lat="48.20993" lon="-3.01024">
        <ele>125.11</ele>
        <time>2015-12-27T12:54:09Z</time>
      </trkpt>
      <trkpt lat="48.20999" lon="-3.01027">
        <ele>125.11</ele>
        <time>2015-12-27T12:54:10Z</time>
      </trkpt>
      <trkpt lat="48.21004" lon="-3.01033">
        <ele>124.63</ele>
        <time>2015-12-27T12:54:11Z</time>
      </trkpt>
      <trkpt lat="48.21008" lon="-3.01039">
        <ele>124.63</ele>
        <time>2015-12-27T12:54:12Z</time>
      </trkpt>
      <trkpt lat="48.21012" lon="-3.01045">
        <ele>124.63</ele>
        <time>2015-12-27T12:54:13Z</time>
      </trkpt>
      <trkpt lat="48.21019" lon="-3.01056">
        <ele>124.15</ele>
        <time>2015-12-27T12:54:15Z</time>
      </trkpt>
      <trkpt lat="48.21023" lon="-3.01061">
        <ele>123.67</ele>
        <time>2015-12-27T12:54:16Z</time>
      </trkpt>
      <trkpt lat="48.21027" lon="-3.01065">
        <ele>123.67</ele>
        <time>2015-12-27T12:54:17Z</time>
      </trkpt>
      <trkpt lat="48.2103" lon="-3.0107">
        <ele>123.67</ele>
        <time>2015-12-27T12:54:18Z</time>
      </trkpt>
      <trkpt lat="48.21033" lon="-3.01074">
        <ele>123.67</ele>
        <time>2015-12-27T12:54:19Z</time>
      </trkpt>
      <trkpt lat="48.21037" lon="-3.01078">
        <ele>123.19</ele>
        <time>2015-12-27T12:54:20Z</time>
      </trkpt>
      <trkpt lat="48.21073" lon="-3.01113">
        <ele>122.71</ele>
        <time>2015-12-27T12:54:29Z</time>
      </trkpt>
      <trkpt lat="48.21122" lon="-3.01156">
        <ele>123.19</ele>
        <time>2015-12-27T12:54:40Z</time>
      </trkpt>
      <trkpt lat="48.21148" lon="-3.01168">
        <ele>123.19</ele>
        <time>2015-12-27T12:54:45Z</time>
      </trkpt>
      <trkpt lat="48.21221" lon="-3.01174">
        <ele>122.71</ele>
        <time>2015-12-27T12:55:00Z</time>
      </trkpt>
      <trkpt lat="48.21263" lon="-3.01176">
        <ele>125.11</ele>
        <time>2015-12-27T12:55:11Z</time>
      </trkpt>
      <trkpt lat="48.21273" lon="-3.01181">
        <ele>125.11</ele>
        <time>2015-12-27T12:55:14Z</time>
      </trkpt>
      <trkpt lat="48.21275" lon="-3.01185">
        <ele>125.11</ele>
        <time>2015-12-27T12:55:15Z</time>
      </trkpt>
      <trkpt lat="48.21287" lon="-3.01243">
        <ele>128.47</ele>
        <time>2015-12-27T12:55:29Z</time>
      </trkpt>
      <trkpt lat="48.21295" lon="-3.01281">
        <ele>131.36</ele>
        <time>2015-12-27T12:55:41Z</time>
      </trkpt>
      <trkpt lat="48.2131" lon="-3.01323">
        <ele>131.84</ele>
        <time>2015-12-27T12:55:56Z</time>
      </trkpt>
      <trkpt lat="48.2132" lon="-3.01374">
        <ele>133.28</ele>
        <time>2015-12-27T12:56:12Z</time>
      </trkpt>
      <trkpt lat="48.21329" lon="-3.01423">
        <ele>134.24</ele>
        <time>2015-12-27T12:56:27Z</time>
      </trkpt>
      <trkpt lat="48.21345" lon="-3.01471">
        <ele>135.68</ele>
        <time>2015-12-27T12:56:43Z</time>
      </trkpt>
      <trkpt lat="48.2136" lon="-3.01508">
        <ele>136.16</ele>
        <time>2015-12-27T12:56:57Z</time>
      </trkpt>
      <trkpt lat="48.21361" lon="-3.01509">
        <ele>136.16</ele>
        <time>2015-12-27T12:56:58Z</time>
      </trkpt>
      <trkpt lat="48.21363" lon="-3.01524">
        <ele>136.16</ele>
        <time>2015-12-27T12:57:10Z</time>
      </trkpt>
      <trkpt lat="48.21365" lon="-3.01591">
        <ele>135.2</ele>
        <time>2015-12-27T12:57:23Z</time>
      </trkpt>
      <trkpt lat="48.21363" lon="-3.01649">
        <ele>134.72</ele>
        <time>2015-12-27T12:57:32Z</time>
      </trkpt>
      <trkpt lat="48.21358" lon="-3.01669">
        <ele>134.24</ele>
        <time>2015-12-27T12:57:35Z</time>
      </trkpt>
      <trkpt lat="48.21356" lon="-3.01675">
        <ele>134.24</ele>
        <time>2015-12-27T12:57:36Z</time>
      </trkpt>
      <trkpt lat="48.21354" lon="-3.01681">
        <ele>133.76</ele>
        <time>2015-12-27T12:57:37Z</time>
      </trkpt>
      <trkpt lat="48.21352" lon="-3.01686">
        <ele>133.76</ele>
        <time>2015-12-27T12:57:38Z</time>
      </trkpt>
      <trkpt lat="48.21349" lon="-3.01692">
        <ele>133.76</ele>
        <time>2015-12-27T12:57:39Z</time>
      </trkpt>
      <trkpt lat="48.21346" lon="-3.01697">
        <ele>133.76</ele>
        <time>2015-12-27T12:57:40Z</time>
      </trkpt>
      <trkpt lat="48.21343" lon="-3.01702">
        <ele>133.28</ele>
        <time>2015-12-27T12:57:41Z</time>
      </trkpt>
      <trkpt lat="48.2134" lon="-3.01708">
        <ele>133.28</ele>
        <time>2015-12-27T12:57:42Z</time>
      </trkpt>
      <trkpt lat="48.21337" lon="-3.01714">
        <ele>132.8</ele>
        <time>2015-12-27T12:57:43Z</time>
      </trkpt>
      <trkpt lat="48.21309" lon="-3.01804">
        <ele>127.99</ele>
        <time>2015-12-27T12:57:54Z</time>
      </trkpt>
      <trkpt lat="48.21308" lon="-3.01814">
        <ele>127.99</ele>
        <time>2015-12-27T12:57:55Z</time>
      </trkpt>
      <trkpt lat="48.21307" lon="-3.01824">
        <ele>127.51</ele>
        <time>2015-12-27T12:57:56Z</time>
      </trkpt>
      <trkpt lat="48.21308" lon="-3.01834">
        <ele>127.03</ele>
        <time>2015-12-27T12:57:57Z</time>
      </trkpt>
      <trkpt lat="48.21311" lon="-3.01844">
        <ele>127.03</ele>
        <time>2015-12-27T12:57:58Z</time>
      </trkpt>
      <trkpt lat="48.21314" lon="-3.01852">
        <ele>127.03</ele>
        <time>2015-12-27T12:57:59Z</time>
      </trkpt>
      <trkpt lat="48.21318" lon="-3.01859">
        <ele>127.03</ele>
        <time>2015-12-27T12:58:00Z</time>
      </trkpt>
      <trkpt lat="48.21322" lon="-3.01865">
        <ele>127.03</ele>
        <time>2015-12-27T12:58:01Z</time>
      </trkpt>
      <trkpt lat="48.21326" lon="-3.01871">
        <ele>127.03</ele>
        <time>2015-12-27T12:58:02Z</time>
      </trkpt>
      <trkpt lat="48.21366" lon="-3.01933">
        <ele>128.95</ele>
        <time>2015-12-27T12:58:15Z</time>
      </trkpt>
      <trkpt lat="48.21394" lon="-3.01998">
        <ele>130.4</ele>
        <time>2015-12-27T12:58:27Z</time>
      </trkpt>
      <trkpt lat="48.21396" lon="-3.02003">
        <ele>130.88</ele>
        <time>2015-12-27T12:58:28Z</time>
      </trkpt>
      <trkpt lat="48.21429" lon="-3.0208">
        <ele>131.84</ele>
        <time>2015-12-27T12:58:44Z</time>
      </trkpt>
      <trkpt lat="48.21439" lon="-3.02117">
        <ele>131.84</ele>
        <time>2015-12-27T12:58:51Z</time>
      </trkpt>
      <trkpt lat="48.21442" lon="-3.02141">
        <ele>131.36</ele>
        <time>2015-12-27T12:58:55Z</time>
      </trkpt>
      <trkpt lat="48.21447" lon="-3.02175">
        <ele>130.88</ele>
        <time>2015-12-27T12:59:00Z</time>
      </trkpt>
      <trkpt lat="48.21448" lon="-3.02182">
        <ele>130.88</ele>
        <time>2015-12-27T12:59:01Z</time>
      </trkpt>
      <trkpt lat="48.21455" lon="-3.02253">
        <ele>131.84</ele>
        <time>2015-12-27T12:59:10Z</time>
      </trkpt>
      <trkpt lat="48.21456" lon="-3.02261">
        <ele>131.84</ele>
        <time>2015-12-27T12:59:11Z</time>
      </trkpt>
      <trkpt lat="48.21453" lon="-3.02324">
        <ele>132.32</ele>
        <time>2015-12-27T12:59:22Z</time>
      </trkpt>
      <trkpt lat="48.21446" lon="-3.02383">
        <ele>135.2</ele>
        <time>2015-12-27T12:59:35Z</time>
      </trkpt>
      <trkpt lat="48.21443" lon="-3.02434">
        <ele>138.09</ele>
        <time>2015-12-27T12:59:48Z</time>
      </trkpt>
      <trkpt lat="48.21445" lon="-3.02488">
        <ele>138.09</ele>
        <time>2015-12-27T13:00:01Z</time>
      </trkpt>
      <trkpt lat="48.21464" lon="-3.0254">
        <ele>139.05</ele>
        <time>2015-12-27T13:00:18Z</time>
      </trkpt>
      <trkpt lat="48.21472" lon="-3.02548">
        <ele>140.97</ele>
        <time>2015-12-27T13:00:30Z</time>
      </trkpt>
      <trkpt lat="48.21471" lon="-3.02549">
        <ele>140.49</ele>
        <time>2015-12-27T13:01:01Z</time>
      </trkpt>
      <trkpt lat="48.21472" lon="-3.0255">
        <ele>141.45</ele>
        <time>2015-12-27T13:01:24Z</time>
      </trkpt>
      <trkpt lat="48.21473" lon="-3.02546">
        <ele>140.01</ele>
        <time>2015-12-27T13:01:45Z</time>
      </trkpt>
      <trkpt lat="48.21472" lon="-3.02544">
        <ele>137.13</ele>
        <time>2015-12-27T13:02:14Z</time>
      </trkpt>
      <trkpt lat="48.21471" lon="-3.02552">
        <ele>135.2</ele>
        <time>2015-12-27T13:02:36Z</time>
      </trkpt>
      <trkpt lat="48.21471" lon="-3.02554">
        <ele>134.24</ele>
        <time>2015-12-27T13:03:00Z</time>
      </trkpt>
      <trkpt lat="48.21494" lon="-3.02581">
        <ele>137.61</ele>
        <time>2015-12-27T13:03:14Z</time>
      </trkpt>
      <trkpt lat="48.21516" lon="-3.0262">
        <ele>140.97</ele>
        <time>2015-12-27T13:03:29Z</time>
      </trkpt>
      <trkpt lat="48.21525" lon="-3.02668">
        <ele>141.45</ele>
        <time>2015-12-27T13:03:44Z</time>
      </trkpt>
      <trkpt lat="48.21532" lon="-3.02707">
        <ele>143.85</ele>
        <time>2015-12-27T13:03:56Z</time>
      </trkpt>
      <trkpt lat="48.2154" lon="-3.02748">
        <ele>145.78</ele>
        <time>2015-12-27T13:04:10Z</time>
      </trkpt>
      <trkpt lat="48.21543" lon="-3.02771">
        <ele>147.7</ele>
        <time>2015-12-27T13:04:18Z</time>
      </trkpt>
      <trkpt lat="48.21543" lon="-3.02773">
        <ele>147.7</ele>
        <time>2015-12-27T13:04:19Z</time>
      </trkpt>
      <trkpt lat="48.21544" lon="-3.02783">
        <ele>147.7</ele>
        <time>2015-12-27T13:04:23Z</time>
      </trkpt>
      <trkpt lat="48.2155" lon="-3.02814">
        <ele>150.1</ele>
        <time>2015-12-27T13:04:36Z</time>
      </trkpt>
      <trkpt lat="48.21551" lon="-3.02839">
        <ele>152.51</ele>
        <time>2015-12-27T13:04:46Z</time>
      </trkpt>
      <trkpt lat="48.21551" lon="-3.02842">
        <ele>152.03</ele>
        <time>2015-12-27T13:04:47Z</time>
      </trkpt>
      <trkpt lat="48.21551" lon="-3.02844">
        <ele>152.03</ele>
        <time>2015-12-27T13:04:48Z</time>
      </trkpt>
      <trkpt lat="48.21552" lon="-3.02859">
        <ele>152.03</ele>
        <time>2015-12-27T13:04:54Z</time>
      </trkpt>
      <trkpt lat="48.21552" lon="-3.02862">
        <ele>151.54</ele>
        <time>2015-12-27T13:04:55Z</time>
      </trkpt>
      <trkpt lat="48.21552" lon="-3.02902">
        <ele>155.39</ele>
        <time>2015-12-27T13:05:11Z</time>
      </trkpt>
      <trkpt lat="48.21553" lon="-3.02938">
        <ele>159.24</ele>
        <time>2015-12-27T13:05:25Z</time>
      </trkpt>
      <trkpt lat="48.21553" lon="-3.02972">
        <ele>160.68</ele>
        <time>2015-12-27T13:05:38Z</time>
      </trkpt>
      <trkpt lat="48.21552" lon="-3.02999">
        <ele>162.12</ele>
        <time>2015-12-27T13:05:50Z</time>
      </trkpt>
      <trkpt lat="48.21552" lon="-3.03002">
        <ele>162.6</ele>
        <time>2015-12-27T13:05:51Z</time>
      </trkpt>
      <trkpt lat="48.21551" lon="-3.03004">
        <ele>163.08</ele>
        <time>2015-12-27T13:05:52Z</time>
      </trkpt>
      <trkpt lat="48.21551" lon="-3.03006">
        <ele>163.08</ele>
        <time>2015-12-27T13:05:53Z</time>
      </trkpt>
      <trkpt lat="48.21551" lon="-3.03009">
        <ele>163.56</ele>
        <time>2015-12-27T13:05:54Z</time>
      </trkpt>
      <trkpt lat="48.21551" lon="-3.03011">
        <ele>163.56</ele>
        <time>2015-12-27T13:05:55Z</time>
      </trkpt>
      <trkpt lat="48.21551" lon="-3.03014">
        <ele>163.56</ele>
        <time>2015-12-27T13:05:56Z</time>
      </trkpt>
      <trkpt lat="48.21551" lon="-3.03027">
        <ele>165.96</ele>
        <time>2015-12-27T13:06:02Z</time>
      </trkpt>
      <trkpt lat="48.2155" lon="-3.03029">
        <ele>166.45</ele>
        <time>2015-12-27T13:06:03Z</time>
      </trkpt>
      <trkpt lat="48.2155" lon="-3.03031">
        <ele>166.93</ele>
        <time>2015-12-27T13:06:04Z</time>
      </trkpt>
      <trkpt lat="48.2155" lon="-3.03033">
        <ele>166.93</ele>
        <time>2015-12-27T13:06:05Z</time>
      </trkpt>
      <trkpt lat="48.21549" lon="-3.03035">
        <ele>166.93</ele>
        <time>2015-12-27T13:06:06Z</time>
      </trkpt>
      <trkpt lat="48.21549" lon="-3.03038">
        <ele>167.41</ele>
        <time>2015-12-27T13:06:07Z</time>
      </trkpt>
      <trkpt lat="48.21548" lon="-3.0304">
        <ele>167.41</ele>
        <time>2015-12-27T13:06:08Z</time>
      </trkpt>
      <trkpt lat="48.21548" lon="-3.03042">
        <ele>167.41</ele>
        <time>2015-12-27T13:06:09Z</time>
      </trkpt>
      <trkpt lat="48.21549" lon="-3.03044">
        <ele>167.41</ele>
        <time>2015-12-27T13:06:10Z</time>
      </trkpt>
      <trkpt lat="48.21549" lon="-3.03046">
        <ele>166.93</ele>
        <time>2015-12-27T13:06:11Z</time>
      </trkpt>
      <trkpt lat="48.21549" lon="-3.03048">
        <ele>166.93</ele>
        <time>2015-12-27T13:06:12Z</time>
      </trkpt>
      <trkpt lat="48.21548" lon="-3.03051">
        <ele>167.41</ele>
        <time>2015-12-27T13:06:13Z</time>
      </trkpt>
      <trkpt lat="48.21548" lon="-3.03053">
        <ele>167.41</ele>
        <time>2015-12-27T13:06:14Z</time>
      </trkpt>
      <trkpt lat="48.21548" lon="-3.03055">
        <ele>167.89</ele>
        <time>2015-12-27T13:06:15Z</time>
      </trkpt>
      <trkpt lat="48.21547" lon="-3.03057">
        <ele>167.89</ele>
        <time>2015-12-27T13:06:16Z</time>
      </trkpt>
      <trkpt lat="48.21546" lon="-3.03059">
        <ele>167.89</ele>
        <time>2015-12-27T13:06:17Z</time>
      </trkpt>
      <trkpt lat="48.21546" lon="-3.03061">
        <ele>168.37</ele>
        <time>2015-12-27T13:06:18Z</time>
      </trkpt>
      <trkpt lat="48.21543" lon="-3.03088">
        <ele>170.29</ele>
        <time>2015-12-27T13:06:30Z</time>
      </trkpt>
      <trkpt lat="48.21543" lon="-3.0309">
        <ele>170.77</ele>
        <time>2015-12-27T13:06:31Z</time>
      </trkpt>
      <trkpt lat="48.2154" lon="-3.03134">
        <ele>170.77</ele>
        <time>2015-12-27T13:06:48Z</time>
      </trkpt>
      <trkpt lat="48.21526" lon="-3.03186">
        <ele>171.25</ele>
        <time>2015-12-27T13:07:03Z</time>
      </trkpt>
      <trkpt lat="48.2151" lon="-3.03243">
        <ele>171.73</ele>
        <time>2015-12-27T13:07:19Z</time>
      </trkpt>
      <trkpt lat="48.2151" lon="-3.03248">
        <ele>171.25</ele>
        <time>2015-12-27T13:07:28Z</time>
      </trkpt>
      <trkpt lat="48.21508" lon="-3.0325">
        <ele>174.14</ele>
        <time>2015-12-27T13:07:53Z</time>
      </trkpt>
      <trkpt lat="48.21507" lon="-3.03259">
        <ele>174.14</ele>
        <time>2015-12-27T13:07:59Z</time>
      </trkpt>
      <trkpt lat="48.21506" lon="-3.0326">
        <ele>174.62</ele>
        <time>2015-12-27T13:08:00Z</time>
      </trkpt>
      <trkpt lat="48.21506" lon="-3.03263">
        <ele>174.62</ele>
        <time>2015-12-27T13:08:01Z</time>
      </trkpt>
      <trkpt lat="48.21506" lon="-3.03266">
        <ele>174.62</ele>
        <time>2015-12-27T13:08:02Z</time>
      </trkpt>
      <trkpt lat="48.21505" lon="-3.03268">
        <ele>174.62</ele>
        <time>2015-12-27T13:08:03Z</time>
      </trkpt>
      <trkpt lat="48.21504" lon="-3.03271">
        <ele>174.62</ele>
        <time>2015-12-27T13:08:04Z</time>
      </trkpt>
      <trkpt lat="48.21504" lon="-3.03274">
        <ele>174.62</ele>
        <time>2015-12-27T13:08:05Z</time>
      </trkpt>
      <trkpt lat="48.21503" lon="-3.03277">
        <ele>174.14</ele>
        <time>2015-12-27T13:08:06Z</time>
      </trkpt>
      <trkpt lat="48.21503" lon="-3.0328">
        <ele>174.14</ele>
        <time>2015-12-27T13:08:07Z</time>
      </trkpt>
      <trkpt lat="48.21496" lon="-3.03328">
        <ele>174.14</ele>
        <time>2015-12-27T13:08:22Z</time>
      </trkpt>
      <trkpt lat="48.21492" lon="-3.03365">
        <ele>175.1</ele>
        <time>2015-12-27T13:08:34Z</time>
      </trkpt>
      <trkpt lat="48.2149" lon="-3.03419">
        <ele>174.14</ele>
        <time>2015-12-27T13:08:50Z</time>
      </trkpt>
      <trkpt lat="48.2149" lon="-3.03459">
        <ele>173.66</ele>
        <time>2015-12-27T13:09:03Z</time>
      </trkpt>
      <trkpt lat="48.21489" lon="-3.03497">
        <ele>173.17</ele>
        <time>2015-12-27T13:09:15Z</time>
      </trkpt>
      <trkpt lat="48.21488" lon="-3.03517">
        <ele>172.69</ele>
        <time>2015-12-27T13:09:27Z</time>
      </trkpt>
      <trkpt lat="48.21487" lon="-3.03511">
        <ele>173.17</ele>
        <time>2015-12-27T13:10:15Z</time>
      </trkpt>
      <trkpt lat="48.21489" lon="-3.03517">
        <ele>173.66</ele>
        <time>2015-12-27T13:10:45Z</time>
      </trkpt>
      <trkpt lat="48.2149" lon="-3.03547">
        <ele>174.62</ele>
        <time>2015-12-27T13:10:59Z</time>
      </trkpt>
      <trkpt lat="48.21491" lon="-3.03593">
        <ele>174.14</ele>
        <time>2015-12-27T13:11:15Z</time>
      </trkpt>
      <trkpt lat="48.21489" lon="-3.03609">
        <ele>174.14</ele>
        <time>2015-12-27T13:11:21Z</time>
      </trkpt>
      <trkpt lat="48.21476" lon="-3.03642">
        <ele>175.1</ele>
        <time>2015-12-27T13:11:30Z</time>
      </trkpt>
      <trkpt lat="48.21478" lon="-3.03652">
        <ele>174.62</ele>
        <time>2015-12-27T13:11:33Z</time>
      </trkpt>
      <trkpt lat="48.21477" lon="-3.03655">
        <ele>174.62</ele>
        <time>2015-12-27T13:11:34Z</time>
      </trkpt>
      <trkpt lat="48.21478" lon="-3.03657">
        <ele>174.62</ele>
        <time>2015-12-27T13:11:35Z</time>
      </trkpt>
      <trkpt lat="48.21487" lon="-3.03698">
        <ele>174.14</ele>
        <time>2015-12-27T13:11:48Z</time>
      </trkpt>
      <trkpt lat="48.21497" lon="-3.03744">
        <ele>173.66</ele>
        <time>2015-12-27T13:11:59Z</time>
      </trkpt>
      <trkpt lat="48.21506" lon="-3.03781">
        <ele>173.66</ele>
        <time>2015-12-27T13:12:08Z</time>
      </trkpt>
      <trkpt lat="48.21508" lon="-3.03783">
        <ele>173.66</ele>
        <time>2015-12-27T13:12:09Z</time>
      </trkpt>
      <trkpt lat="48.21509" lon="-3.03785">
        <ele>173.66</ele>
        <time>2015-12-27T13:12:10Z</time>
      </trkpt>
      <trkpt lat="48.21511" lon="-3.03787">
        <ele>173.66</ele>
        <time>2015-12-27T13:12:11Z</time>
      </trkpt>
      <trkpt lat="48.21511" lon="-3.0379">
        <ele>173.66</ele>
        <time>2015-12-27T13:12:12Z</time>
      </trkpt>
      <trkpt lat="48.21512" lon="-3.03793">
        <ele>173.66</ele>
        <time>2015-12-27T13:12:13Z</time>
      </trkpt>
      <trkpt lat="48.21513" lon="-3.03796">
        <ele>173.66</ele>
        <time>2015-12-27T13:12:14Z</time>
      </trkpt>
      <trkpt lat="48.21514" lon="-3.038">
        <ele>173.66</ele>
        <time>2015-12-27T13:12:15Z</time>
      </trkpt>
      <trkpt lat="48.21514" lon="-3.03803">
        <ele>173.66</ele>
        <time>2015-12-27T13:12:16Z</time>
      </trkpt>
      <trkpt lat="48.21524" lon="-3.03852">
        <ele>171.73</ele>
        <time>2015-12-27T13:12:25Z</time>
      </trkpt>
      <trkpt lat="48.21535" lon="-3.03901">
        <ele>171.73</ele>
        <time>2015-12-27T13:12:35Z</time>
      </trkpt>
      <trkpt lat="48.21542" lon="-3.0395">
        <ele>172.69</ele>
        <time>2015-12-27T13:12:47Z</time>
      </trkpt>
      <trkpt lat="48.21547" lon="-3.03966">
        <ele>174.14</ele>
        <time>2015-12-27T13:12:53Z</time>
      </trkpt>
      <trkpt lat="48.21548" lon="-3.03966">
        <ele>174.62</ele>
        <time>2015-12-27T13:12:54Z</time>
      </trkpt>
      <trkpt lat="48.21549" lon="-3.03966">
        <ele>174.62</ele>
        <time>2015-12-27T13:12:55Z</time>
      </trkpt>
      <trkpt lat="48.21551" lon="-3.03966">
        <ele>174.62</ele>
        <time>2015-12-27T13:12:56Z</time>
      </trkpt>
      <trkpt lat="48.21552" lon="-3.03965">
        <ele>174.62</ele>
        <time>2015-12-27T13:12:57Z</time>
      </trkpt>
      <trkpt lat="48.21553" lon="-3.03965">
        <ele>175.1</ele>
        <time>2015-12-27T13:12:58Z</time>
      </trkpt>
      <trkpt lat="48.21554" lon="-3.03962">
        <ele>175.1</ele>
        <time>2015-12-27T13:12:59Z</time>
      </trkpt>
      <trkpt lat="48.21554" lon="-3.03959">
        <ele>175.1</ele>
        <time>2015-12-27T13:13:00Z</time>
      </trkpt>
      <trkpt lat="48.21567" lon="-3.03924">
        <ele>176.06</ele>
        <time>2015-12-27T13:13:13Z</time>
      </trkpt>
      <trkpt lat="48.21572" lon="-3.03911">
        <ele>176.06</ele>
        <time>2015-12-27T13:13:19Z</time>
      </trkpt>
      <trkpt lat="48.21586" lon="-3.03856">
        <ele>177.98</ele>
        <time>2015-12-27T13:13:37Z</time>
      </trkpt>
      <trkpt lat="48.21591" lon="-3.03817">
        <ele>179.42</ele>
        <time>2015-12-27T13:13:50Z</time>
      </trkpt>
      <trkpt lat="48.21599" lon="-3.03776">
        <ele>182.31</ele>
        <time>2015-12-27T13:14:06Z</time>
      </trkpt>
      <trkpt lat="48.21608" lon="-3.03742">
        <ele>186.15</ele>
        <time>2015-12-27T13:14:20Z</time>
      </trkpt>
      <trkpt lat="48.2161" lon="-3.03726">
        <ele>186.63</ele>
        <time>2015-12-27T13:14:27Z</time>
      </trkpt>
      <trkpt lat="48.21614" lon="-3.03716">
        <ele>188.08</ele>
        <time>2015-12-27T13:14:32Z</time>
      </trkpt>
      <trkpt lat="48.21616" lon="-3.03717">
        <ele>188.56</ele>
        <time>2015-12-27T13:14:33Z</time>
      </trkpt>
      <trkpt lat="48.2162" lon="-3.03723">
        <ele>189.04</ele>
        <time>2015-12-27T13:14:37Z</time>
      </trkpt>
      <trkpt lat="48.21621" lon="-3.03726">
        <ele>189.04</ele>
        <time>2015-12-27T13:14:38Z</time>
      </trkpt>
      <trkpt lat="48.21624" lon="-3.03756">
        <ele>189.52</ele>
        <time>2015-12-27T13:14:51Z</time>
      </trkpt>
      <trkpt lat="48.21625" lon="-3.03766">
        <ele>189.52</ele>
        <time>2015-12-27T13:14:55Z</time>
      </trkpt>
      <trkpt lat="48.21625" lon="-3.03768">
        <ele>189.52</ele>
        <time>2015-12-27T13:14:56Z</time>
      </trkpt>
      <trkpt lat="48.21623" lon="-3.03774">
        <ele>188.08</ele>
        <time>2015-12-27T13:15:07Z</time>
      </trkpt>
      <trkpt lat="48.21624" lon="-3.03773">
        <ele>188.08</ele>
        <time>2015-12-27T13:15:34Z</time>
      </trkpt>
      <trkpt lat="48.21619" lon="-3.03776">
        <ele>183.27</ele>
        <time>2015-12-27T13:16:12Z</time>
      </trkpt>
      <trkpt lat="48.21619" lon="-3.0378">
        <ele>188.08</ele>
        <time>2015-12-27T13:16:46Z</time>
      </trkpt>
      <trkpt lat="48.21621" lon="-3.03776">
        <ele>187.11</ele>
        <time>2015-12-27T13:17:14Z</time>
      </trkpt>
      <trkpt lat="48.21626" lon="-3.03778">
        <ele>188.08</ele>
        <time>2015-12-27T13:17:48Z</time>
      </trkpt>
      <trkpt lat="48.21625" lon="-3.03777">
        <ele>186.63</ele>
        <time>2015-12-27T13:18:16Z</time>
      </trkpt>
      <trkpt lat="48.21626" lon="-3.03777">
        <ele>189.04</ele>
        <time>2015-12-27T13:18:53Z</time>
      </trkpt>
      <trkpt lat="48.21626" lon="-3.03774">
        <ele>190.48</ele>
        <time>2015-12-27T13:19:30Z</time>
      </trkpt>
      <trkpt lat="48.2163" lon="-3.03776">
        <ele>192.88</ele>
        <time>2015-12-27T13:20:01Z</time>
      </trkpt>
      <trkpt lat="48.21628" lon="-3.03776">
        <ele>193.84</ele>
        <time>2015-12-27T13:20:26Z</time>
      </trkpt>
      <trkpt lat="48.21632" lon="-3.03777">
        <ele>196.73</ele>
        <time>2015-12-27T13:20:49Z</time>
      </trkpt>
      <trkpt lat="48.21635" lon="-3.03775">
        <ele>196.25</ele>
        <time>2015-12-27T13:21:07Z</time>
      </trkpt>
    </trkseg>
  </trk>
</gpx>